<?xml version="1.0" encoding="UTF-8" standalone="no" ?>
<gpx xmlns="http://www.topografix.com/GPX/1/1" xmlns:xsi="http://www.w3.org/2001/XMLSchema-instance" xsi:schemaLocation="http://www.topografix.com/GPX/1/1 http://www.topografix.com/GPX/1/1/gpx.xsd" version="1.1" creator="VisuGPX - https://www.visugpx.com">
  <metadata>
    <name>Vercors Drôme</name>
    <desc><![CDATA[Vercors Drôme 2011]]></desc>
  </metadata>
  <trk>
    <name><![CDATA[Vercors Drome 2011]]></name>
    <trkseg>
      <trkpt lat="45.11567" lon="4.96424">
        <ele>197.10989379883</ele>
        <time>2011-07-12T05:26:25Z</time>
      </trkpt>
      <trkpt lat="45.11565" lon="4.96439">
        <ele>196.48587036133</ele>
        <time>2011-07-12T05:26:47Z</time>
      </trkpt>
      <trkpt lat="45.1157" lon="4.96447">
        <ele>196.34289550781</ele>
        <time>2011-07-12T05:26:58Z</time>
      </trkpt>
      <trkpt lat="45.11574" lon="4.96453">
        <ele>196.30364990234</ele>
        <time>2011-07-12T05:27:08Z</time>
      </trkpt>
      <trkpt lat="45.11574" lon="4.96453">
        <ele>196.30009460449</ele>
        <time>2011-07-12T05:27:09Z</time>
      </trkpt>
      <trkpt lat="45.11575" lon="4.96455">
        <ele>196.28002929688</ele>
        <time>2011-07-12T05:27:15Z</time>
      </trkpt>
      <trkpt lat="45.11579" lon="4.96476">
        <ele>195.68797302246</ele>
        <time>2011-07-12T05:27:25Z</time>
      </trkpt>
      <trkpt lat="45.1158" lon="4.96493">
        <ele>195.07229614258</ele>
        <time>2011-07-12T05:27:31Z</time>
      </trkpt>
      <trkpt lat="45.1158" lon="4.96495">
        <ele>194.99908447266</ele>
        <time>2011-07-12T05:27:34Z</time>
      </trkpt>
      <trkpt lat="45.11581" lon="4.96516">
        <ele>194.90045166016</ele>
        <time>2011-07-12T05:27:47Z</time>
      </trkpt>
      <trkpt lat="45.11592" lon="4.96543">
        <ele>195.26800537109</ele>
        <time>2011-07-12T05:27:53Z</time>
      </trkpt>
      <trkpt lat="45.11612" lon="4.96592">
        <ele>195.19337463379</ele>
        <time>2011-07-12T05:28:01Z</time>
      </trkpt>
      <trkpt lat="45.11633" lon="4.96643">
        <ele>194.44587707519</ele>
        <time>2011-07-12T05:28:09Z</time>
      </trkpt>
      <trkpt lat="45.11649" lon="4.9669">
        <ele>194.44502258301</ele>
        <time>2011-07-12T05:28:16Z</time>
      </trkpt>
      <trkpt lat="45.11679" lon="4.96753">
        <ele>195.99501037598</ele>
        <time>2011-07-12T05:28:26Z</time>
      </trkpt>
      <trkpt lat="45.11714" lon="4.96811">
        <ele>195.58068847656</ele>
        <time>2011-07-12T05:28:36Z</time>
      </trkpt>
      <trkpt lat="45.11725" lon="4.96829">
        <ele>195.33619689941</ele>
        <time>2011-07-12T05:28:39Z</time>
      </trkpt>
      <trkpt lat="45.11733" lon="4.9685">
        <ele>195.48405456543</ele>
        <time>2011-07-12T05:28:42Z</time>
      </trkpt>
      <trkpt lat="45.11747" lon="4.96875">
        <ele>195.96884155273</ele>
        <time>2011-07-12T05:28:46Z</time>
      </trkpt>
      <trkpt lat="45.11756" lon="4.96883">
        <ele>196.28552246094</ele>
        <time>2011-07-12T05:28:48Z</time>
      </trkpt>
      <trkpt lat="45.11787" lon="4.9693">
        <ele>197.14036560059</ele>
        <time>2011-07-12T05:28:56Z</time>
      </trkpt>
      <trkpt lat="45.11806" lon="4.96959">
        <ele>197.69520568848</ele>
        <time>2011-07-12T05:29:01Z</time>
      </trkpt>
      <trkpt lat="45.1181" lon="4.96965">
        <ele>197.84484863281</ele>
        <time>2011-07-12T05:29:02Z</time>
      </trkpt>
      <trkpt lat="45.11834" lon="4.97">
        <ele>198.99499511719</ele>
        <time>2011-07-12T05:29:08Z</time>
      </trkpt>
      <trkpt lat="45.11863" lon="4.97039">
        <ele>197.93951416016</ele>
        <time>2011-07-12T05:29:15Z</time>
      </trkpt>
      <trkpt lat="45.11871" lon="4.9705">
        <ele>197.75445556641</ele>
        <time>2011-07-12T05:29:17Z</time>
      </trkpt>
      <trkpt lat="45.1188" lon="4.97078">
        <ele>197.26017761231</ele>
        <time>2011-07-12T05:29:21Z</time>
      </trkpt>
      <trkpt lat="45.1188" lon="4.97086">
        <ele>197.11694335938</ele>
        <time>2011-07-12T05:29:22Z</time>
      </trkpt>
      <trkpt lat="45.11874" lon="4.9713">
        <ele>196.701171875</ele>
        <time>2011-07-12T05:29:27Z</time>
      </trkpt>
      <trkpt lat="45.11876" lon="4.97166">
        <ele>196.52252197266</ele>
        <time>2011-07-12T05:29:31Z</time>
      </trkpt>
      <trkpt lat="45.1189" lon="4.97253">
        <ele>196.34020996094</ele>
        <time>2011-07-12T05:29:41Z</time>
      </trkpt>
      <trkpt lat="45.11903" lon="4.9733">
        <ele>195.86470031738</ele>
        <time>2011-07-12T05:29:50Z</time>
      </trkpt>
      <trkpt lat="45.11916" lon="4.97411">
        <ele>195.99975585938</ele>
        <time>2011-07-12T05:30:00Z</time>
      </trkpt>
      <trkpt lat="45.1193" lon="4.97491">
        <ele>196.46643066406</ele>
        <time>2011-07-12T05:30:10Z</time>
      </trkpt>
      <trkpt lat="45.11941" lon="4.9756">
        <ele>196.58583068848</ele>
        <time>2011-07-12T05:30:19Z</time>
      </trkpt>
      <trkpt lat="45.11945" lon="4.97581">
        <ele>196.7059173584</ele>
        <time>2011-07-12T05:30:22Z</time>
      </trkpt>
      <trkpt lat="45.11941" lon="4.97601">
        <ele>196.18811035156</ele>
        <time>2011-07-12T05:30:26Z</time>
      </trkpt>
      <trkpt lat="45.11931" lon="4.97611">
        <ele>195.4850769043</ele>
        <time>2011-07-12T05:30:31Z</time>
      </trkpt>
      <trkpt lat="45.1193" lon="4.97612">
        <ele>195.38568115234</ele>
        <time>2011-07-12T05:30:35Z</time>
      </trkpt>
      <trkpt lat="45.1193" lon="4.97612">
        <ele>195.38568115234</ele>
        <time>2011-07-12T05:30:36Z</time>
      </trkpt>
      <trkpt lat="45.1193" lon="4.97595">
        <ele>195.64416503906</ele>
        <time>2011-07-12T05:34:00Z</time>
      </trkpt>
      <trkpt lat="45.11938" lon="4.97593">
        <ele>196.16552734375</ele>
        <time>2011-07-12T05:34:03Z</time>
      </trkpt>
      <trkpt lat="45.11951" lon="4.97608">
        <ele>196.63073730469</ele>
        <time>2011-07-12T05:34:07Z</time>
      </trkpt>
      <trkpt lat="45.11954" lon="4.97621">
        <ele>196.57415771484</ele>
        <time>2011-07-12T05:34:09Z</time>
      </trkpt>
      <trkpt lat="45.11961" lon="4.97659">
        <ele>196.26959228516</ele>
        <time>2011-07-12T05:34:14Z</time>
      </trkpt>
      <trkpt lat="45.11967" lon="4.97692">
        <ele>196.76641845703</ele>
        <time>2011-07-12T05:34:18Z</time>
      </trkpt>
      <trkpt lat="45.1198" lon="4.97769">
        <ele>197.81434631348</ele>
        <time>2011-07-12T05:34:27Z</time>
      </trkpt>
      <trkpt lat="45.11993" lon="4.97841">
        <ele>198.09457397461</ele>
        <time>2011-07-12T05:34:36Z</time>
      </trkpt>
      <trkpt lat="45.12005" lon="4.97914">
        <ele>199.15391540527</ele>
        <time>2011-07-12T05:34:46Z</time>
      </trkpt>
      <trkpt lat="45.12018" lon="4.97967">
        <ele>200.72334289551</ele>
        <time>2011-07-12T05:34:54Z</time>
      </trkpt>
      <trkpt lat="45.12036" lon="4.98032">
        <ele>202.47581481934</ele>
        <time>2011-07-12T05:35:04Z</time>
      </trkpt>
      <trkpt lat="45.12051" lon="4.98088">
        <ele>203.75640869141</ele>
        <time>2011-07-12T05:35:12Z</time>
      </trkpt>
      <trkpt lat="45.12062" lon="4.98146">
        <ele>205.6357421875</ele>
        <time>2011-07-12T05:35:20Z</time>
      </trkpt>
      <trkpt lat="45.12068" lon="4.98217">
        <ele>205.46562194824</ele>
        <time>2011-07-12T05:35:29Z</time>
      </trkpt>
      <trkpt lat="45.12064" lon="4.98281">
        <ele>204.54890441894</ele>
        <time>2011-07-12T05:35:36Z</time>
      </trkpt>
      <trkpt lat="45.12053" lon="4.98352">
        <ele>204.07392883301</ele>
        <time>2011-07-12T05:35:44Z</time>
      </trkpt>
      <trkpt lat="45.12045" lon="4.98383">
        <ele>204.72624206543</ele>
        <time>2011-07-12T05:35:48Z</time>
      </trkpt>
      <trkpt lat="45.12038" lon="4.98397">
        <ele>204.97915649414</ele>
        <time>2011-07-12T05:35:50Z</time>
      </trkpt>
      <trkpt lat="45.1203" lon="4.98427">
        <ele>205.3603515625</ele>
        <time>2011-07-12T05:35:54Z</time>
      </trkpt>
      <trkpt lat="45.1202" lon="4.98489">
        <ele>205.24591064453</ele>
        <time>2011-07-12T05:36:01Z</time>
      </trkpt>
      <trkpt lat="45.12017" lon="4.98576">
        <ele>204.10295104981</ele>
        <time>2011-07-12T05:36:10Z</time>
      </trkpt>
      <trkpt lat="45.12022" lon="4.98664">
        <ele>203.54246520996</ele>
        <time>2011-07-12T05:36:19Z</time>
      </trkpt>
      <trkpt lat="45.12039" lon="4.98753">
        <ele>203.39971923828</ele>
        <time>2011-07-12T05:36:28Z</time>
      </trkpt>
      <trkpt lat="45.12061" lon="4.98829">
        <ele>203.76194763184</ele>
        <time>2011-07-12T05:36:36Z</time>
      </trkpt>
      <trkpt lat="45.12091" lon="4.98896">
        <ele>203.57188415527</ele>
        <time>2011-07-12T05:36:44Z</time>
      </trkpt>
      <trkpt lat="45.1213" lon="4.98963">
        <ele>205.48622131348</ele>
        <time>2011-07-12T05:36:53Z</time>
      </trkpt>
      <trkpt lat="45.12161" lon="4.99005">
        <ele>206.74111938477</ele>
        <time>2011-07-12T05:37:00Z</time>
      </trkpt>
      <trkpt lat="45.12193" lon="4.99038">
        <ele>210.14756774902</ele>
        <time>2011-07-12T05:37:08Z</time>
      </trkpt>
      <trkpt lat="45.12204" lon="4.9905">
        <ele>211.36364746094</ele>
        <time>2011-07-12T05:37:11Z</time>
      </trkpt>
      <trkpt lat="45.12216" lon="4.99078">
        <ele>212.08056640625</ele>
        <time>2011-07-12T05:37:16Z</time>
      </trkpt>
      <trkpt lat="45.12214" lon="4.99107">
        <ele>211.63137817383</ele>
        <time>2011-07-12T05:37:20Z</time>
      </trkpt>
      <trkpt lat="45.12193" lon="4.99186">
        <ele>209.74752807617</ele>
        <time>2011-07-12T05:37:29Z</time>
      </trkpt>
      <trkpt lat="45.1217" lon="4.99272">
        <ele>208.40377807617</ele>
        <time>2011-07-12T05:37:38Z</time>
      </trkpt>
      <trkpt lat="45.12138" lon="4.9939">
        <ele>208.64266967773</ele>
        <time>2011-07-12T05:37:50Z</time>
      </trkpt>
      <trkpt lat="45.12118" lon="4.99447">
        <ele>207.94909667969</ele>
        <time>2011-07-12T05:37:56Z</time>
      </trkpt>
      <trkpt lat="45.1209" lon="4.99501">
        <ele>207.07327270508</ele>
        <time>2011-07-12T05:38:03Z</time>
      </trkpt>
      <trkpt lat="45.12055" lon="4.99564">
        <ele>207.18516540527</ele>
        <time>2011-07-12T05:38:12Z</time>
      </trkpt>
      <trkpt lat="45.12018" lon="4.99631">
        <ele>208.03140258789</ele>
        <time>2011-07-12T05:38:21Z</time>
      </trkpt>
      <trkpt lat="45.11978" lon="4.99702">
        <ele>207.65539550781</ele>
        <time>2011-07-12T05:38:30Z</time>
      </trkpt>
      <trkpt lat="45.11943" lon="4.99762">
        <ele>209.10943603516</ele>
        <time>2011-07-12T05:38:38Z</time>
      </trkpt>
      <trkpt lat="45.1191" lon="4.99805">
        <ele>212.63528442383</ele>
        <time>2011-07-12T05:38:45Z</time>
      </trkpt>
      <trkpt lat="45.11877" lon="4.99837">
        <ele>218.89820861816</ele>
        <time>2011-07-12T05:38:52Z</time>
      </trkpt>
      <trkpt lat="45.11839" lon="4.99859">
        <ele>225.39559936523</ele>
        <time>2011-07-12T05:38:59Z</time>
      </trkpt>
      <trkpt lat="45.11793" lon="4.99878">
        <ele>231.16011047363</ele>
        <time>2011-07-12T05:39:08Z</time>
      </trkpt>
      <trkpt lat="45.11748" lon="4.99896">
        <ele>234.86450195312</ele>
        <time>2011-07-12T05:39:18Z</time>
      </trkpt>
      <trkpt lat="45.11717" lon="4.99908">
        <ele>235.55535888672</ele>
        <time>2011-07-12T05:39:25Z</time>
      </trkpt>
      <trkpt lat="45.11676" lon="4.9993">
        <ele>235.53080749512</ele>
        <time>2011-07-12T05:39:35Z</time>
      </trkpt>
      <trkpt lat="45.11644" lon="4.99959">
        <ele>235.78868103027</ele>
        <time>2011-07-12T05:39:44Z</time>
      </trkpt>
      <trkpt lat="45.11612" lon="5.00002">
        <ele>244.75318908691</ele>
        <time>2011-07-12T05:39:54Z</time>
      </trkpt>
      <trkpt lat="45.11576" lon="5.00051">
        <ele>243.08804321289</ele>
        <time>2011-07-12T05:40:04Z</time>
      </trkpt>
      <trkpt lat="45.11537" lon="5.00094">
        <ele>241.92243957519</ele>
        <time>2011-07-12T05:40:13Z</time>
      </trkpt>
      <trkpt lat="45.11489" lon="5.00139">
        <ele>237.3717956543</ele>
        <time>2011-07-12T05:40:22Z</time>
      </trkpt>
      <trkpt lat="45.11427" lon="5.00198">
        <ele>237</ele>
        <time>2011-07-12T05:40:33Z</time>
      </trkpt>
      <trkpt lat="45.11362" lon="5.00257">
        <ele>237</ele>
        <time>2011-07-12T05:40:44Z</time>
      </trkpt>
      <trkpt lat="45.11309" lon="5.00302">
        <ele>237</ele>
        <time>2011-07-12T05:40:53Z</time>
      </trkpt>
      <trkpt lat="45.11262" lon="5.00331">
        <ele>237.92016601562</ele>
        <time>2011-07-12T05:41:01Z</time>
      </trkpt>
      <trkpt lat="45.11214" lon="5.00355">
        <ele>238</ele>
        <time>2011-07-12T05:41:10Z</time>
      </trkpt>
      <trkpt lat="45.11159" lon="5.00383">
        <ele>239.08648681641</ele>
        <time>2011-07-12T05:41:21Z</time>
      </trkpt>
      <trkpt lat="45.11111" lon="5.0041">
        <ele>243.51507568359</ele>
        <time>2011-07-12T05:41:32Z</time>
      </trkpt>
      <trkpt lat="45.11061" lon="5.0044">
        <ele>249.21766662598</ele>
        <time>2011-07-12T05:41:44Z</time>
      </trkpt>
      <trkpt lat="45.11018" lon="5.00469">
        <ele>254.80912780762</ele>
        <time>2011-07-12T05:41:55Z</time>
      </trkpt>
      <trkpt lat="45.10978" lon="5.005">
        <ele>261.35284423828</ele>
        <time>2011-07-12T05:42:05Z</time>
      </trkpt>
      <trkpt lat="45.10944" lon="5.00524">
        <ele>264.8860168457</ele>
        <time>2011-07-12T05:42:13Z</time>
      </trkpt>
      <trkpt lat="45.10911" lon="5.00543">
        <ele>268.39514160156</ele>
        <time>2011-07-12T05:42:20Z</time>
      </trkpt>
      <trkpt lat="45.10873" lon="5.00558">
        <ele>270.46588134766</ele>
        <time>2011-07-12T05:42:27Z</time>
      </trkpt>
      <trkpt lat="45.10836" lon="5.00565">
        <ele>269.64987182617</ele>
        <time>2011-07-12T05:42:32Z</time>
      </trkpt>
      <trkpt lat="45.10782" lon="5.00573">
        <ele>266.41995239258</ele>
        <time>2011-07-12T05:42:38Z</time>
      </trkpt>
      <trkpt lat="45.10719" lon="5.00585">
        <ele>259.57934570312</ele>
        <time>2011-07-12T05:42:44Z</time>
      </trkpt>
      <trkpt lat="45.10653" lon="5.00609">
        <ele>253.35987854004</ele>
        <time>2011-07-12T05:42:50Z</time>
      </trkpt>
      <trkpt lat="45.10642" lon="5.00615">
        <ele>251.79052734375</ele>
        <time>2011-07-12T05:42:51Z</time>
      </trkpt>
      <trkpt lat="45.106" lon="5.00644">
        <ele>241.4256439209</ele>
        <time>2011-07-12T05:42:55Z</time>
      </trkpt>
      <trkpt lat="45.10503" lon="5.00723">
        <ele>226.34677124023</ele>
        <time>2011-07-12T05:43:04Z</time>
      </trkpt>
      <trkpt lat="45.10492" lon="5.00732">
        <ele>225.20277404785</ele>
        <time>2011-07-12T05:43:05Z</time>
      </trkpt>
      <trkpt lat="45.1041" lon="5.00797">
        <ele>226.38983154297</ele>
        <time>2011-07-12T05:43:13Z</time>
      </trkpt>
      <trkpt lat="45.10356" lon="5.0084">
        <ele>229.10383605957</ele>
        <time>2011-07-12T05:43:19Z</time>
      </trkpt>
      <trkpt lat="45.1031" lon="5.00877">
        <ele>231.49180603027</ele>
        <time>2011-07-12T05:43:25Z</time>
      </trkpt>
      <trkpt lat="45.10265" lon="5.00915">
        <ele>233.44142150879</ele>
        <time>2011-07-12T05:43:32Z</time>
      </trkpt>
      <trkpt lat="45.10215" lon="5.00963">
        <ele>233.95037841797</ele>
        <time>2011-07-12T05:43:41Z</time>
      </trkpt>
      <trkpt lat="45.10182" lon="5.0101">
        <ele>234.17990112305</ele>
        <time>2011-07-12T05:43:48Z</time>
      </trkpt>
      <trkpt lat="45.10133" lon="5.01086">
        <ele>231.8829498291</ele>
        <time>2011-07-12T05:43:59Z</time>
      </trkpt>
      <trkpt lat="45.10103" lon="5.01147">
        <ele>228.30001831055</ele>
        <time>2011-07-12T05:44:07Z</time>
      </trkpt>
      <trkpt lat="45.10086" lon="5.01214">
        <ele>229.69641113281</ele>
        <time>2011-07-12T05:44:14Z</time>
      </trkpt>
      <trkpt lat="45.10078" lon="5.0129">
        <ele>230.80975341797</ele>
        <time>2011-07-12T05:44:21Z</time>
      </trkpt>
      <trkpt lat="45.10067" lon="5.01413">
        <ele>232.36781311035</ele>
        <time>2011-07-12T05:44:32Z</time>
      </trkpt>
      <trkpt lat="45.1006" lon="5.01507">
        <ele>234.03912353516</ele>
        <time>2011-07-12T05:44:40Z</time>
      </trkpt>
      <trkpt lat="45.10058" lon="5.0153">
        <ele>234.15940856934</ele>
        <time>2011-07-12T05:44:42Z</time>
      </trkpt>
      <trkpt lat="45.10057" lon="5.01542">
        <ele>234.53193664551</ele>
        <time>2011-07-12T05:44:43Z</time>
      </trkpt>
      <trkpt lat="45.10045" lon="5.01647">
        <ele>235.72866821289</ele>
        <time>2011-07-12T05:44:52Z</time>
      </trkpt>
      <trkpt lat="45.10025" lon="5.01722">
        <ele>236.87921142578</ele>
        <time>2011-07-12T05:44:59Z</time>
      </trkpt>
      <trkpt lat="45.10007" lon="5.01773">
        <ele>237.09115600586</ele>
        <time>2011-07-12T05:45:05Z</time>
      </trkpt>
      <trkpt lat="45.09986" lon="5.01831">
        <ele>236.51385498047</ele>
        <time>2011-07-12T05:45:13Z</time>
      </trkpt>
      <trkpt lat="45.09961" lon="5.01905">
        <ele>237.35052490234</ele>
        <time>2011-07-12T05:45:24Z</time>
      </trkpt>
      <trkpt lat="45.09942" lon="5.0196">
        <ele>237.9656829834</ele>
        <time>2011-07-12T05:45:33Z</time>
      </trkpt>
      <trkpt lat="45.09926" lon="5.0201">
        <ele>238.34840393066</ele>
        <time>2011-07-12T05:45:41Z</time>
      </trkpt>
      <trkpt lat="45.09905" lon="5.02069">
        <ele>239.4873046875</ele>
        <time>2011-07-12T05:45:51Z</time>
      </trkpt>
      <trkpt lat="45.09892" lon="5.02108">
        <ele>240.97937011719</ele>
        <time>2011-07-12T05:45:58Z</time>
      </trkpt>
      <trkpt lat="45.09877" lon="5.0215">
        <ele>243.55281066894</ele>
        <time>2011-07-12T05:46:06Z</time>
      </trkpt>
      <trkpt lat="45.09859" lon="5.022">
        <ele>246.42971801758</ele>
        <time>2011-07-12T05:46:16Z</time>
      </trkpt>
      <trkpt lat="45.09846" lon="5.02242">
        <ele>249.43035888672</ele>
        <time>2011-07-12T05:46:24Z</time>
      </trkpt>
      <trkpt lat="45.09845" lon="5.0228">
        <ele>252.09387207031</ele>
        <time>2011-07-12T05:46:31Z</time>
      </trkpt>
      <trkpt lat="45.09854" lon="5.02319">
        <ele>254.85388183594</ele>
        <time>2011-07-12T05:46:39Z</time>
      </trkpt>
      <trkpt lat="45.09866" lon="5.02364">
        <ele>257.50509643555</ele>
        <time>2011-07-12T05:46:48Z</time>
      </trkpt>
      <trkpt lat="45.09879" lon="5.02414">
        <ele>261.8518371582</ele>
        <time>2011-07-12T05:46:56Z</time>
      </trkpt>
      <trkpt lat="45.09895" lon="5.02452">
        <ele>262</ele>
        <time>2011-07-12T05:47:01Z</time>
      </trkpt>
      <trkpt lat="45.09913" lon="5.02499">
        <ele>262</ele>
        <time>2011-07-12T05:47:06Z</time>
      </trkpt>
      <trkpt lat="45.09935" lon="5.02535">
        <ele>261</ele>
        <time>2011-07-12T05:47:10Z</time>
      </trkpt>
      <trkpt lat="45.09963" lon="5.02572">
        <ele>259.33084106445</ele>
        <time>2011-07-12T05:47:14Z</time>
      </trkpt>
      <trkpt lat="45.09987" lon="5.02639">
        <ele>253.35357666016</ele>
        <time>2011-07-12T05:47:19Z</time>
      </trkpt>
      <trkpt lat="45.10015" lon="5.02686">
        <ele>246.4434967041</ele>
        <time>2011-07-12T05:47:23Z</time>
      </trkpt>
      <trkpt lat="45.1004" lon="5.02719">
        <ele>239.52174377441</ele>
        <time>2011-07-12T05:47:26Z</time>
      </trkpt>
      <trkpt lat="45.10058" lon="5.02761">
        <ele>237.76937866211</ele>
        <time>2011-07-12T05:47:29Z</time>
      </trkpt>
      <trkpt lat="45.10056" lon="5.02798">
        <ele>236.28921508789</ele>
        <time>2011-07-12T05:47:31Z</time>
      </trkpt>
      <trkpt lat="45.1004" lon="5.02825">
        <ele>236.84571838379</ele>
        <time>2011-07-12T05:47:33Z</time>
      </trkpt>
      <trkpt lat="45.10013" lon="5.02835">
        <ele>239.42451477051</ele>
        <time>2011-07-12T05:47:35Z</time>
      </trkpt>
      <trkpt lat="45.09988" lon="5.02837">
        <ele>241.16790771484</ele>
        <time>2011-07-12T05:47:37Z</time>
      </trkpt>
      <trkpt lat="45.0989" lon="5.02824">
        <ele>240.87185668945</ele>
        <time>2011-07-12T05:47:45Z</time>
      </trkpt>
      <trkpt lat="45.09864" lon="5.02824">
        <ele>238.93041992188</ele>
        <time>2011-07-12T05:47:47Z</time>
      </trkpt>
      <trkpt lat="45.09814" lon="5.02834">
        <ele>231.84921264648</ele>
        <time>2011-07-12T05:47:51Z</time>
      </trkpt>
      <trkpt lat="45.09726" lon="5.02858">
        <ele>220.64886474609</ele>
        <time>2011-07-12T05:47:58Z</time>
      </trkpt>
      <trkpt lat="45.09689" lon="5.02868">
        <ele>219.57189941406</ele>
        <time>2011-07-12T05:48:01Z</time>
      </trkpt>
      <trkpt lat="45.09642" lon="5.02881">
        <ele>218.28735351562</ele>
        <time>2011-07-12T05:48:05Z</time>
      </trkpt>
      <trkpt lat="45.09554" lon="5.02906">
        <ele>215.18978881836</ele>
        <time>2011-07-12T05:48:13Z</time>
      </trkpt>
      <trkpt lat="45.09449" lon="5.02933">
        <ele>207.95202636719</ele>
        <time>2011-07-12T05:48:22Z</time>
      </trkpt>
      <trkpt lat="45.09399" lon="5.02937">
        <ele>206.91612243652</ele>
        <time>2011-07-12T05:48:26Z</time>
      </trkpt>
      <trkpt lat="45.09315" lon="5.02929">
        <ele>205.04600524902</ele>
        <time>2011-07-12T05:48:33Z</time>
      </trkpt>
      <trkpt lat="45.09238" lon="5.02923">
        <ele>202.15766906738</ele>
        <time>2011-07-12T05:48:40Z</time>
      </trkpt>
      <trkpt lat="45.09168" lon="5.02917">
        <ele>200</ele>
        <time>2011-07-12T05:48:47Z</time>
      </trkpt>
      <trkpt lat="45.09103" lon="5.02911">
        <ele>200</ele>
        <time>2011-07-12T05:48:54Z</time>
      </trkpt>
      <trkpt lat="45.09032" lon="5.02909">
        <ele>203.83306884766</ele>
        <time>2011-07-12T05:49:02Z</time>
      </trkpt>
      <trkpt lat="45.08978" lon="5.02925">
        <ele>206.34252929688</ele>
        <time>2011-07-12T05:49:08Z</time>
      </trkpt>
      <trkpt lat="45.08908" lon="5.02951">
        <ele>203.8024597168</ele>
        <time>2011-07-12T05:49:16Z</time>
      </trkpt>
      <trkpt lat="45.08788" lon="5.02992">
        <ele>200</ele>
        <time>2011-07-12T05:49:30Z</time>
      </trkpt>
      <trkpt lat="45.08712" lon="5.03019">
        <ele>199.57192993164</ele>
        <time>2011-07-12T05:49:39Z</time>
      </trkpt>
      <trkpt lat="45.08629" lon="5.03052">
        <ele>197.95648193359</ele>
        <time>2011-07-12T05:49:49Z</time>
      </trkpt>
      <trkpt lat="45.0855" lon="5.03101">
        <ele>195.07089233398</ele>
        <time>2011-07-12T05:49:59Z</time>
      </trkpt>
      <trkpt lat="45.08536" lon="5.03116">
        <ele>194.82443237305</ele>
        <time>2011-07-12T05:50:01Z</time>
      </trkpt>
      <trkpt lat="45.08485" lon="5.03198">
        <ele>192.87872314453</ele>
        <time>2011-07-12T05:50:09Z</time>
      </trkpt>
      <trkpt lat="45.08414" lon="5.03319">
        <ele>188.5305480957</ele>
        <time>2011-07-12T05:50:20Z</time>
      </trkpt>
      <trkpt lat="45.08341" lon="5.0344">
        <ele>183.1531829834</ele>
        <time>2011-07-12T05:50:31Z</time>
      </trkpt>
      <trkpt lat="45.08298" lon="5.0352">
        <ele>180.19587707519</ele>
        <time>2011-07-12T05:50:38Z</time>
      </trkpt>
      <trkpt lat="45.08273" lon="5.03592">
        <ele>180</ele>
        <time>2011-07-12T05:50:44Z</time>
      </trkpt>
      <trkpt lat="45.08248" lon="5.03677">
        <ele>180</ele>
        <time>2011-07-12T05:50:51Z</time>
      </trkpt>
      <trkpt lat="45.08218" lon="5.03726">
        <ele>180</ele>
        <time>2011-07-12T05:50:56Z</time>
      </trkpt>
      <trkpt lat="45.08187" lon="5.0375">
        <ele>180</ele>
        <time>2011-07-12T05:51:00Z</time>
      </trkpt>
      <trkpt lat="45.0817" lon="5.03756">
        <ele>180.21252441406</ele>
        <time>2011-07-12T05:51:02Z</time>
      </trkpt>
      <trkpt lat="45.08079" lon="5.03776">
        <ele>180.94299316406</ele>
        <time>2011-07-12T05:51:13Z</time>
      </trkpt>
      <trkpt lat="45.08033" lon="5.03794">
        <ele>181</ele>
        <time>2011-07-12T05:51:19Z</time>
      </trkpt>
      <trkpt lat="45.07985" lon="5.03829">
        <ele>181</ele>
        <time>2011-07-12T05:51:26Z</time>
      </trkpt>
      <trkpt lat="45.07913" lon="5.03886">
        <ele>181.78094482422</ele>
        <time>2011-07-12T05:51:36Z</time>
      </trkpt>
      <trkpt lat="45.07864" lon="5.03925">
        <ele>182</ele>
        <time>2011-07-12T05:51:43Z</time>
      </trkpt>
      <trkpt lat="45.07804" lon="5.03966">
        <ele>181.96160888672</ele>
        <time>2011-07-12T05:51:51Z</time>
      </trkpt>
      <trkpt lat="45.07741" lon="5.03994">
        <ele>180.92819213867</ele>
        <time>2011-07-12T05:51:59Z</time>
      </trkpt>
      <trkpt lat="45.07662" lon="5.04027">
        <ele>180</ele>
        <time>2011-07-12T05:52:09Z</time>
      </trkpt>
      <trkpt lat="45.076" lon="5.04049">
        <ele>180</ele>
        <time>2011-07-12T05:52:16Z</time>
      </trkpt>
      <trkpt lat="45.07509" lon="5.04063">
        <ele>180</ele>
        <time>2011-07-12T05:52:25Z</time>
      </trkpt>
      <trkpt lat="45.07425" lon="5.04071">
        <ele>180</ele>
        <time>2011-07-12T05:52:33Z</time>
      </trkpt>
      <trkpt lat="45.07362" lon="5.04061">
        <ele>179.04516601562</ele>
        <time>2011-07-12T05:52:39Z</time>
      </trkpt>
      <trkpt lat="45.0728" lon="5.04032">
        <ele>179</ele>
        <time>2011-07-12T05:52:47Z</time>
      </trkpt>
      <trkpt lat="45.07169" lon="5.03986">
        <ele>178</ele>
        <time>2011-07-12T05:52:58Z</time>
      </trkpt>
      <trkpt lat="45.07083" lon="5.03949">
        <ele>177.82833862305</ele>
        <time>2011-07-12T05:53:07Z</time>
      </trkpt>
      <trkpt lat="45.06998" lon="5.03921">
        <ele>177</ele>
        <time>2011-07-12T05:53:16Z</time>
      </trkpt>
      <trkpt lat="45.06931" lon="5.03906">
        <ele>176.52697753906</ele>
        <time>2011-07-12T05:53:23Z</time>
      </trkpt>
      <trkpt lat="45.06895" lon="5.03898">
        <ele>176</ele>
        <time>2011-07-12T05:53:27Z</time>
      </trkpt>
      <trkpt lat="45.06864" lon="5.03907">
        <ele>176</ele>
        <time>2011-07-12T05:53:31Z</time>
      </trkpt>
      <trkpt lat="45.06854" lon="5.03924">
        <ele>175.68949890137</ele>
        <time>2011-07-12T05:53:33Z</time>
      </trkpt>
      <trkpt lat="45.06825" lon="5.03966">
        <ele>174</ele>
        <time>2011-07-12T05:53:38Z</time>
      </trkpt>
      <trkpt lat="45.06768" lon="5.04007">
        <ele>174</ele>
        <time>2011-07-12T05:53:45Z</time>
      </trkpt>
      <trkpt lat="45.06699" lon="5.04044">
        <ele>173</ele>
        <time>2011-07-12T05:53:53Z</time>
      </trkpt>
      <trkpt lat="45.06638" lon="5.04064">
        <ele>172</ele>
        <time>2011-07-12T05:54:00Z</time>
      </trkpt>
      <trkpt lat="45.06594" lon="5.04066">
        <ele>172</ele>
        <time>2011-07-12T05:54:05Z</time>
      </trkpt>
      <trkpt lat="45.06517" lon="5.04063">
        <ele>171</ele>
        <time>2011-07-12T05:54:14Z</time>
      </trkpt>
      <trkpt lat="45.06457" lon="5.04075">
        <ele>171</ele>
        <time>2011-07-12T05:54:21Z</time>
      </trkpt>
      <trkpt lat="45.06398" lon="5.04079">
        <ele>170.26078796387</ele>
        <time>2011-07-12T05:54:28Z</time>
      </trkpt>
      <trkpt lat="45.06335" lon="5.04083">
        <ele>170</ele>
        <time>2011-07-12T05:54:35Z</time>
      </trkpt>
      <trkpt lat="45.06271" lon="5.04105">
        <ele>170</ele>
        <time>2011-07-12T05:54:42Z</time>
      </trkpt>
      <trkpt lat="45.06191" lon="5.04134">
        <ele>170</ele>
        <time>2011-07-12T05:54:51Z</time>
      </trkpt>
      <trkpt lat="45.0613" lon="5.04156">
        <ele>170</ele>
        <time>2011-07-12T05:54:58Z</time>
      </trkpt>
      <trkpt lat="45.06091" lon="5.04166">
        <ele>170</ele>
        <time>2011-07-12T05:55:03Z</time>
      </trkpt>
      <trkpt lat="45.06053" lon="5.04153">
        <ele>169</ele>
        <time>2011-07-12T05:55:08Z</time>
      </trkpt>
      <trkpt lat="45.06022" lon="5.04148">
        <ele>168.60290527344</ele>
        <time>2011-07-12T05:55:12Z</time>
      </trkpt>
      <trkpt lat="45.0601" lon="5.04165">
        <ele>167.75146484375</ele>
        <time>2011-07-12T05:55:14Z</time>
      </trkpt>
      <trkpt lat="45.05971" lon="5.04213">
        <ele>167</ele>
        <time>2011-07-12T05:55:20Z</time>
      </trkpt>
      <trkpt lat="45.05927" lon="5.04232">
        <ele>167</ele>
        <time>2011-07-12T05:55:25Z</time>
      </trkpt>
      <trkpt lat="45.0587" lon="5.0424">
        <ele>167</ele>
        <time>2011-07-12T05:55:31Z</time>
      </trkpt>
      <trkpt lat="45.05861" lon="5.04241">
        <ele>167</ele>
        <time>2011-07-12T05:55:32Z</time>
      </trkpt>
      <trkpt lat="45.05821" lon="5.04238">
        <ele>167</ele>
        <time>2011-07-12T05:55:36Z</time>
      </trkpt>
      <trkpt lat="45.05811" lon="5.0424">
        <ele>167</ele>
        <time>2011-07-12T05:55:37Z</time>
      </trkpt>
      <trkpt lat="45.05791" lon="5.04247">
        <ele>166.47930908203</ele>
        <time>2011-07-12T05:55:39Z</time>
      </trkpt>
      <trkpt lat="45.05739" lon="5.04277">
        <ele>165</ele>
        <time>2011-07-12T05:55:45Z</time>
      </trkpt>
      <trkpt lat="45.05675" lon="5.04317">
        <ele>165</ele>
        <time>2011-07-12T05:55:53Z</time>
      </trkpt>
      <trkpt lat="45.05631" lon="5.04335">
        <ele>164</ele>
        <time>2011-07-12T05:55:59Z</time>
      </trkpt>
      <trkpt lat="45.05624" lon="5.04338">
        <ele>164</ele>
        <time>2011-07-12T05:56:00Z</time>
      </trkpt>
      <trkpt lat="45.05608" lon="5.0434">
        <ele>164</ele>
        <time>2011-07-12T05:56:02Z</time>
      </trkpt>
      <trkpt lat="45.05554" lon="5.04352">
        <ele>164</ele>
        <time>2011-07-12T05:56:09Z</time>
      </trkpt>
      <trkpt lat="45.05493" lon="5.04368">
        <ele>163.74017333984</ele>
        <time>2011-07-12T05:56:17Z</time>
      </trkpt>
      <trkpt lat="45.05434" lon="5.04396">
        <ele>163.25634765625</ele>
        <time>2011-07-12T05:56:25Z</time>
      </trkpt>
      <trkpt lat="45.05374" lon="5.04427">
        <ele>164</ele>
        <time>2011-07-12T05:56:33Z</time>
      </trkpt>
      <trkpt lat="45.05333" lon="5.04457">
        <ele>164</ele>
        <time>2011-07-12T05:56:39Z</time>
      </trkpt>
      <trkpt lat="45.05294" lon="5.04494">
        <ele>163.19812011719</ele>
        <time>2011-07-12T05:56:45Z</time>
      </trkpt>
      <trkpt lat="45.05267" lon="5.04517">
        <ele>162</ele>
        <time>2011-07-12T05:56:49Z</time>
      </trkpt>
      <trkpt lat="45.05213" lon="5.0455">
        <ele>162</ele>
        <time>2011-07-12T05:56:56Z</time>
      </trkpt>
      <trkpt lat="45.05174" lon="5.04572">
        <ele>162</ele>
        <time>2011-07-12T05:57:01Z</time>
      </trkpt>
      <trkpt lat="45.05134" lon="5.04598">
        <ele>162</ele>
        <time>2011-07-12T05:57:06Z</time>
      </trkpt>
      <trkpt lat="45.05099" lon="5.04632">
        <ele>162</ele>
        <time>2011-07-12T05:57:11Z</time>
      </trkpt>
      <trkpt lat="45.05064" lon="5.04675">
        <ele>162</ele>
        <time>2011-07-12T05:57:17Z</time>
      </trkpt>
      <trkpt lat="45.05043" lon="5.04698">
        <ele>162</ele>
        <time>2011-07-12T05:57:21Z</time>
      </trkpt>
      <trkpt lat="45.05035" lon="5.04706">
        <ele>162</ele>
        <time>2011-07-12T05:57:25Z</time>
      </trkpt>
      <trkpt lat="45.05022" lon="5.04722">
        <ele>161.79376220703</ele>
        <time>2011-07-12T05:57:29Z</time>
      </trkpt>
      <trkpt lat="45.04997" lon="5.04735">
        <ele>161</ele>
        <time>2011-07-12T05:57:33Z</time>
      </trkpt>
      <trkpt lat="45.04961" lon="5.04739">
        <ele>161</ele>
        <time>2011-07-12T05:57:37Z</time>
      </trkpt>
      <trkpt lat="45.04929" lon="5.04751">
        <ele>161</ele>
        <time>2011-07-12T05:57:40Z</time>
      </trkpt>
      <trkpt lat="45.04904" lon="5.04762">
        <ele>161</ele>
        <time>2011-07-12T05:57:42Z</time>
      </trkpt>
      <trkpt lat="45.04887" lon="5.04782">
        <ele>161</ele>
        <time>2011-07-12T05:57:45Z</time>
      </trkpt>
      <trkpt lat="45.04885" lon="5.04803">
        <ele>161</ele>
        <time>2011-07-12T05:57:47Z</time>
      </trkpt>
      <trkpt lat="45.04883" lon="5.0482">
        <ele>161</ele>
        <time>2011-07-12T05:57:49Z</time>
      </trkpt>
      <trkpt lat="45.04876" lon="5.0483">
        <ele>161</ele>
        <time>2011-07-12T05:57:52Z</time>
      </trkpt>
      <trkpt lat="45.04856" lon="5.04851">
        <ele>161</ele>
        <time>2011-07-12T05:57:57Z</time>
      </trkpt>
      <trkpt lat="45.04839" lon="5.0487">
        <ele>161</ele>
        <time>2011-07-12T05:58:00Z</time>
      </trkpt>
      <trkpt lat="45.04831" lon="5.04871">
        <ele>161</ele>
        <time>2011-07-12T05:58:01Z</time>
      </trkpt>
      <trkpt lat="45.04772" lon="5.04883">
        <ele>160.78497314453</ele>
        <time>2011-07-12T05:58:09Z</time>
      </trkpt>
      <trkpt lat="45.04719" lon="5.04895">
        <ele>160</ele>
        <time>2011-07-12T05:58:16Z</time>
      </trkpt>
      <trkpt lat="45.04663" lon="5.04907">
        <ele>160</ele>
        <time>2011-07-12T05:58:22Z</time>
      </trkpt>
      <trkpt lat="45.04604" lon="5.04923">
        <ele>160</ele>
        <time>2011-07-12T05:58:28Z</time>
      </trkpt>
      <trkpt lat="45.04589" lon="5.04927">
        <ele>160</ele>
        <time>2011-07-12T05:58:30Z</time>
      </trkpt>
      <trkpt lat="45.04579" lon="5.04927">
        <ele>160</ele>
        <time>2011-07-12T05:58:32Z</time>
      </trkpt>
      <trkpt lat="45.04571" lon="5.04946">
        <ele>160</ele>
        <time>2011-07-12T05:58:36Z</time>
      </trkpt>
      <trkpt lat="45.04574" lon="5.04969">
        <ele>160</ele>
        <time>2011-07-12T05:58:39Z</time>
      </trkpt>
      <trkpt lat="45.04569" lon="5.05024">
        <ele>160</ele>
        <time>2011-07-12T05:58:45Z</time>
      </trkpt>
      <trkpt lat="45.04569" lon="5.05033">
        <ele>160</ele>
        <time>2011-07-12T05:58:46Z</time>
      </trkpt>
      <trkpt lat="45.04567" lon="5.05118">
        <ele>160</ele>
        <time>2011-07-12T05:58:54Z</time>
      </trkpt>
      <trkpt lat="45.04562" lon="5.05182">
        <ele>160</ele>
        <time>2011-07-12T05:59:00Z</time>
      </trkpt>
      <trkpt lat="45.04555" lon="5.05259">
        <ele>158.96417236328</ele>
        <time>2011-07-12T05:59:07Z</time>
      </trkpt>
      <trkpt lat="45.04549" lon="5.05322">
        <ele>157.67956542969</ele>
        <time>2011-07-12T05:59:13Z</time>
      </trkpt>
      <trkpt lat="45.04544" lon="5.05395">
        <ele>157.1728515625</ele>
        <time>2011-07-12T05:59:20Z</time>
      </trkpt>
      <trkpt lat="45.04539" lon="5.05463">
        <ele>157.78833007812</ele>
        <time>2011-07-12T05:59:27Z</time>
      </trkpt>
      <trkpt lat="45.04535" lon="5.05514">
        <ele>158.78494262695</ele>
        <time>2011-07-12T05:59:33Z</time>
      </trkpt>
      <trkpt lat="45.04536" lon="5.05526">
        <ele>159.21923828125</ele>
        <time>2011-07-12T05:59:36Z</time>
      </trkpt>
      <trkpt lat="45.04537" lon="5.05527">
        <ele>159.29820251465</ele>
        <time>2011-07-12T05:59:37Z</time>
      </trkpt>
      <trkpt lat="45.04533" lon="5.05543">
        <ele>159.17443847656</ele>
        <time>2011-07-12T05:59:42Z</time>
      </trkpt>
      <trkpt lat="45.04527" lon="5.05562">
        <ele>159.18342590332</ele>
        <time>2011-07-12T05:59:46Z</time>
      </trkpt>
      <trkpt lat="45.04518" lon="5.05574">
        <ele>159.06497192383</ele>
        <time>2011-07-12T05:59:48Z</time>
      </trkpt>
      <trkpt lat="45.04492" lon="5.0562">
        <ele>159.01824951172</ele>
        <time>2011-07-12T05:59:53Z</time>
      </trkpt>
      <trkpt lat="45.04476" lon="5.05681">
        <ele>159.56278991699</ele>
        <time>2011-07-12T05:59:58Z</time>
      </trkpt>
      <trkpt lat="45.04452" lon="5.05786">
        <ele>160</ele>
        <time>2011-07-12T06:00:06Z</time>
      </trkpt>
      <trkpt lat="45.04448" lon="5.05799">
        <ele>160</ele>
        <time>2011-07-12T06:00:07Z</time>
      </trkpt>
      <trkpt lat="45.04424" lon="5.05845">
        <ele>159.56536865234</ele>
        <time>2011-07-12T06:00:11Z</time>
      </trkpt>
      <trkpt lat="45.04404" lon="5.05853">
        <ele>158.30561828613</ele>
        <time>2011-07-12T06:00:13Z</time>
      </trkpt>
      <trkpt lat="45.04381" lon="5.05845">
        <ele>155.59509277344</ele>
        <time>2011-07-12T06:00:15Z</time>
      </trkpt>
      <trkpt lat="45.04333" lon="5.05823">
        <ele>150.59237670898</ele>
        <time>2011-07-12T06:00:20Z</time>
      </trkpt>
      <trkpt lat="45.04317" lon="5.05814">
        <ele>149.71176147461</ele>
        <time>2011-07-12T06:00:22Z</time>
      </trkpt>
      <trkpt lat="45.04286" lon="5.05798">
        <ele>147.34790039062</ele>
        <time>2011-07-12T06:00:27Z</time>
      </trkpt>
      <trkpt lat="45.04274" lon="5.0579">
        <ele>146.25708007812</ele>
        <time>2011-07-12T06:00:30Z</time>
      </trkpt>
      <trkpt lat="45.04261" lon="5.05766">
        <ele>144.98670959473</ele>
        <time>2011-07-12T06:00:34Z</time>
      </trkpt>
      <trkpt lat="45.04248" lon="5.05716">
        <ele>142.56451416016</ele>
        <time>2011-07-12T06:00:41Z</time>
      </trkpt>
      <trkpt lat="45.04234" lon="5.05649">
        <ele>139.84313964844</ele>
        <time>2011-07-12T06:00:48Z</time>
      </trkpt>
      <trkpt lat="45.04232" lon="5.05639">
        <ele>139.67829895019</ele>
        <time>2011-07-12T06:00:49Z</time>
      </trkpt>
      <trkpt lat="45.04213" lon="5.05623">
        <ele>139</ele>
        <time>2011-07-12T06:00:52Z</time>
      </trkpt>
      <trkpt lat="45.04208" lon="5.05626">
        <ele>139</ele>
        <time>2011-07-12T06:00:53Z</time>
      </trkpt>
      <trkpt lat="45.04178" lon="5.05632">
        <ele>139</ele>
        <time>2011-07-12T06:00:58Z</time>
      </trkpt>
      <trkpt lat="45.04117" lon="5.05625">
        <ele>138</ele>
        <time>2011-07-12T06:01:08Z</time>
      </trkpt>
      <trkpt lat="45.04053" lon="5.05617">
        <ele>139.1015625</ele>
        <time>2011-07-12T06:01:19Z</time>
      </trkpt>
      <trkpt lat="45.04023" lon="5.05614">
        <ele>140</ele>
        <time>2011-07-12T06:01:24Z</time>
      </trkpt>
      <trkpt lat="45.04" lon="5.05603">
        <ele>140</ele>
        <time>2011-07-12T06:01:28Z</time>
      </trkpt>
      <trkpt lat="45.03962" lon="5.05574">
        <ele>147.06982421875</ele>
        <time>2011-07-12T06:01:36Z</time>
      </trkpt>
      <trkpt lat="45.0393" lon="5.05554">
        <ele>153.05676269531</ele>
        <time>2011-07-12T06:01:43Z</time>
      </trkpt>
      <trkpt lat="45.03892" lon="5.05542">
        <ele>157.13409423828</ele>
        <time>2011-07-12T06:01:51Z</time>
      </trkpt>
      <trkpt lat="45.03855" lon="5.05535">
        <ele>158</ele>
        <time>2011-07-12T06:01:58Z</time>
      </trkpt>
      <trkpt lat="45.03844" lon="5.05534">
        <ele>158</ele>
        <time>2011-07-12T06:02:00Z</time>
      </trkpt>
      <trkpt lat="45.03832" lon="5.05534">
        <ele>157.9688873291</ele>
        <time>2011-07-12T06:02:02Z</time>
      </trkpt>
      <trkpt lat="45.03801" lon="5.05525">
        <ele>156.9143371582</ele>
        <time>2011-07-12T06:02:08Z</time>
      </trkpt>
      <trkpt lat="45.03791" lon="5.05523">
        <ele>156.83193969727</ele>
        <time>2011-07-12T06:02:10Z</time>
      </trkpt>
      <trkpt lat="45.03765" lon="5.05511">
        <ele>154.55404663086</ele>
        <time>2011-07-12T06:02:16Z</time>
      </trkpt>
      <trkpt lat="45.03746" lon="5.05499">
        <ele>151.99211120606</ele>
        <time>2011-07-12T06:02:20Z</time>
      </trkpt>
      <trkpt lat="45.03724" lon="5.05503">
        <ele>152.00724792481</ele>
        <time>2011-07-12T06:02:24Z</time>
      </trkpt>
      <trkpt lat="45.0372" lon="5.0551">
        <ele>152</ele>
        <time>2011-07-12T06:02:25Z</time>
      </trkpt>
      <trkpt lat="45.03688" lon="5.05565">
        <ele>152.34085083008</ele>
        <time>2011-07-12T06:02:32Z</time>
      </trkpt>
      <trkpt lat="45.03651" lon="5.05622">
        <ele>153.56231689453</ele>
        <time>2011-07-12T06:02:39Z</time>
      </trkpt>
      <trkpt lat="45.03625" lon="5.05665">
        <ele>154.482421875</ele>
        <time>2011-07-12T06:02:45Z</time>
      </trkpt>
      <trkpt lat="45.03603" lon="5.05706">
        <ele>156.29266357422</ele>
        <time>2011-07-12T06:02:51Z</time>
      </trkpt>
      <trkpt lat="45.03585" lon="5.05744">
        <ele>156.93811035156</ele>
        <time>2011-07-12T06:02:57Z</time>
      </trkpt>
      <trkpt lat="45.03564" lon="5.05789">
        <ele>158.48651123047</ele>
        <time>2011-07-12T06:03:04Z</time>
      </trkpt>
      <trkpt lat="45.03538" lon="5.05832">
        <ele>159.98216247559</ele>
        <time>2011-07-12T06:03:11Z</time>
      </trkpt>
      <trkpt lat="45.03508" lon="5.05878">
        <ele>160.71215820312</ele>
        <time>2011-07-12T06:03:18Z</time>
      </trkpt>
      <trkpt lat="45.03482" lon="5.05924">
        <ele>161.65972900391</ele>
        <time>2011-07-12T06:03:24Z</time>
      </trkpt>
      <trkpt lat="45.03449" lon="5.05977">
        <ele>162</ele>
        <time>2011-07-12T06:03:31Z</time>
      </trkpt>
      <trkpt lat="45.0341" lon="5.0604">
        <ele>163</ele>
        <time>2011-07-12T06:03:39Z</time>
      </trkpt>
      <trkpt lat="45.03378" lon="5.0608">
        <ele>163.39508056641</ele>
        <time>2011-07-12T06:03:45Z</time>
      </trkpt>
      <trkpt lat="45.03345" lon="5.06107">
        <ele>164</ele>
        <time>2011-07-12T06:03:51Z</time>
      </trkpt>
      <trkpt lat="45.03331" lon="5.06122">
        <ele>164.50086975098</ele>
        <time>2011-07-12T06:03:54Z</time>
      </trkpt>
      <trkpt lat="45.03305" lon="5.06153">
        <ele>166</ele>
        <time>2011-07-12T06:03:59Z</time>
      </trkpt>
      <trkpt lat="45.03262" lon="5.06208">
        <ele>166.55615234375</ele>
        <time>2011-07-12T06:04:07Z</time>
      </trkpt>
      <trkpt lat="45.03217" lon="5.06276">
        <ele>167.19036865234</ele>
        <time>2011-07-12T06:04:16Z</time>
      </trkpt>
      <trkpt lat="45.03182" lon="5.06332">
        <ele>168</ele>
        <time>2011-07-12T06:04:23Z</time>
      </trkpt>
      <trkpt lat="45.03144" lon="5.06369">
        <ele>168.82708740234</ele>
        <time>2011-07-12T06:04:29Z</time>
      </trkpt>
      <trkpt lat="45.0309" lon="5.0641">
        <ele>169.76342773438</ele>
        <time>2011-07-12T06:04:37Z</time>
      </trkpt>
      <trkpt lat="45.03077" lon="5.0642">
        <ele>170</ele>
        <time>2011-07-12T06:04:39Z</time>
      </trkpt>
      <trkpt lat="45.0303" lon="5.06467">
        <ele>170.90576171875</ele>
        <time>2011-07-12T06:04:47Z</time>
      </trkpt>
      <trkpt lat="45.02991" lon="5.06527">
        <ele>171.333984375</ele>
        <time>2011-07-12T06:04:55Z</time>
      </trkpt>
      <trkpt lat="45.02945" lon="5.06622">
        <ele>171.6095123291</ele>
        <time>2011-07-12T06:05:06Z</time>
      </trkpt>
      <trkpt lat="45.02924" lon="5.06675">
        <ele>171.72351074219</ele>
        <time>2011-07-12T06:05:12Z</time>
      </trkpt>
      <trkpt lat="45.02906" lon="5.06732">
        <ele>171.40487670898</ele>
        <time>2011-07-12T06:05:18Z</time>
      </trkpt>
      <trkpt lat="45.02879" lon="5.06821">
        <ele>171</ele>
        <time>2011-07-12T06:05:27Z</time>
      </trkpt>
      <trkpt lat="45.02858" lon="5.06883">
        <ele>170.92208862305</ele>
        <time>2011-07-12T06:05:34Z</time>
      </trkpt>
      <trkpt lat="45.02832" lon="5.06941">
        <ele>170.88787841797</ele>
        <time>2011-07-12T06:05:41Z</time>
      </trkpt>
      <trkpt lat="45.028" lon="5.07006">
        <ele>172.21519470215</ele>
        <time>2011-07-12T06:05:49Z</time>
      </trkpt>
      <trkpt lat="45.02782" lon="5.07059">
        <ele>173.11376953125</ele>
        <time>2011-07-12T06:05:55Z</time>
      </trkpt>
      <trkpt lat="45.02768" lon="5.07136">
        <ele>174.36773681641</ele>
        <time>2011-07-12T06:06:03Z</time>
      </trkpt>
      <trkpt lat="45.02748" lon="5.0723">
        <ele>175.08184814453</ele>
        <time>2011-07-12T06:06:13Z</time>
      </trkpt>
      <trkpt lat="45.0273" lon="5.07291">
        <ele>175.72729492188</ele>
        <time>2011-07-12T06:06:20Z</time>
      </trkpt>
      <trkpt lat="45.02706" lon="5.07367">
        <ele>175</ele>
        <time>2011-07-12T06:06:29Z</time>
      </trkpt>
      <trkpt lat="45.02681" lon="5.07408">
        <ele>176.1696472168</ele>
        <time>2011-07-12T06:06:35Z</time>
      </trkpt>
      <trkpt lat="45.02641" lon="5.07449">
        <ele>178.09130859375</ele>
        <time>2011-07-12T06:06:43Z</time>
      </trkpt>
      <trkpt lat="45.02613" lon="5.07468">
        <ele>178.99034118652</ele>
        <time>2011-07-12T06:06:48Z</time>
      </trkpt>
      <trkpt lat="45.02579" lon="5.07487">
        <ele>179.54956054688</ele>
        <time>2011-07-12T06:06:54Z</time>
      </trkpt>
      <trkpt lat="45.02539" lon="5.07498">
        <ele>179.93923950195</ele>
        <time>2011-07-12T06:07:01Z</time>
      </trkpt>
      <trkpt lat="45.02505" lon="5.07511">
        <ele>180.40615844727</ele>
        <time>2011-07-12T06:07:07Z</time>
      </trkpt>
      <trkpt lat="45.02471" lon="5.07538">
        <ele>181.42111206055</ele>
        <time>2011-07-12T06:07:14Z</time>
      </trkpt>
      <trkpt lat="45.02436" lon="5.07562">
        <ele>183.87023925781</ele>
        <time>2011-07-12T06:07:21Z</time>
      </trkpt>
      <trkpt lat="45.02388" lon="5.07588">
        <ele>187.19149780273</ele>
        <time>2011-07-12T06:07:30Z</time>
      </trkpt>
      <trkpt lat="45.02346" lon="5.07619">
        <ele>189</ele>
        <time>2011-07-12T06:07:38Z</time>
      </trkpt>
      <trkpt lat="45.02302" lon="5.07646">
        <ele>189</ele>
        <time>2011-07-12T06:07:45Z</time>
      </trkpt>
      <trkpt lat="45.02258" lon="5.07667">
        <ele>189</ele>
        <time>2011-07-12T06:07:52Z</time>
      </trkpt>
      <trkpt lat="45.02248" lon="5.07669">
        <ele>189</ele>
        <time>2011-07-12T06:07:54Z</time>
      </trkpt>
      <trkpt lat="45.02209" lon="5.07664">
        <ele>189.03704833984</ele>
        <time>2011-07-12T06:08:02Z</time>
      </trkpt>
      <trkpt lat="45.02178" lon="5.07659">
        <ele>190.28886413574</ele>
        <time>2011-07-12T06:08:09Z</time>
      </trkpt>
      <trkpt lat="45.02143" lon="5.0766">
        <ele>191</ele>
        <time>2011-07-12T06:08:17Z</time>
      </trkpt>
      <trkpt lat="45.02133" lon="5.07662">
        <ele>191</ele>
        <time>2011-07-12T06:08:19Z</time>
      </trkpt>
      <trkpt lat="45.02092" lon="5.07676">
        <ele>191</ele>
        <time>2011-07-12T06:08:27Z</time>
      </trkpt>
      <trkpt lat="45.02046" lon="5.07695">
        <ele>191</ele>
        <time>2011-07-12T06:08:35Z</time>
      </trkpt>
      <trkpt lat="45.01989" lon="5.07729">
        <ele>191.29528808594</ele>
        <time>2011-07-12T06:08:45Z</time>
      </trkpt>
      <trkpt lat="45.01943" lon="5.07762">
        <ele>191.04455566406</ele>
        <time>2011-07-12T06:08:53Z</time>
      </trkpt>
      <trkpt lat="45.01883" lon="5.07813">
        <ele>192.20062255859</ele>
        <time>2011-07-12T06:09:03Z</time>
      </trkpt>
      <trkpt lat="45.0185" lon="5.07852">
        <ele>193</ele>
        <time>2011-07-12T06:09:09Z</time>
      </trkpt>
      <trkpt lat="45.01799" lon="5.07924">
        <ele>193.7331237793</ele>
        <time>2011-07-12T06:09:19Z</time>
      </trkpt>
      <trkpt lat="45.01744" lon="5.08003">
        <ele>194.09756469727</ele>
        <time>2011-07-12T06:09:30Z</time>
      </trkpt>
      <trkpt lat="45.01729" lon="5.08023">
        <ele>194.8391418457</ele>
        <time>2011-07-12T06:09:33Z</time>
      </trkpt>
      <trkpt lat="45.01684" lon="5.08072">
        <ele>195.73818969727</ele>
        <time>2011-07-12T06:09:41Z</time>
      </trkpt>
      <trkpt lat="45.01678" lon="5.08077">
        <ele>195.9133605957</ele>
        <time>2011-07-12T06:09:42Z</time>
      </trkpt>
      <trkpt lat="45.01614" lon="5.0813">
        <ele>197</ele>
        <time>2011-07-12T06:09:52Z</time>
      </trkpt>
      <trkpt lat="45.01563" lon="5.0818">
        <ele>197.85093688965</ele>
        <time>2011-07-12T06:10:01Z</time>
      </trkpt>
      <trkpt lat="45.01511" lon="5.08237">
        <ele>198.61767578125</ele>
        <time>2011-07-12T06:10:11Z</time>
      </trkpt>
      <trkpt lat="45.01461" lon="5.08299">
        <ele>199</ele>
        <time>2011-07-12T06:10:21Z</time>
      </trkpt>
      <trkpt lat="45.01411" lon="5.08363">
        <ele>199</ele>
        <time>2011-07-12T06:10:31Z</time>
      </trkpt>
      <trkpt lat="45.01389" lon="5.08385">
        <ele>199</ele>
        <time>2011-07-12T06:10:35Z</time>
      </trkpt>
      <trkpt lat="45.0135" lon="5.08406">
        <ele>199</ele>
        <time>2011-07-12T06:10:41Z</time>
      </trkpt>
      <trkpt lat="45.01337" lon="5.08412">
        <ele>199</ele>
        <time>2011-07-12T06:10:43Z</time>
      </trkpt>
      <trkpt lat="45.01308" lon="5.08437">
        <ele>199</ele>
        <time>2011-07-12T06:10:48Z</time>
      </trkpt>
      <trkpt lat="45.01278" lon="5.0849">
        <ele>199</ele>
        <time>2011-07-12T06:10:55Z</time>
      </trkpt>
      <trkpt lat="45.01234" lon="5.08558">
        <ele>200.65876770019</ele>
        <time>2011-07-12T06:11:04Z</time>
      </trkpt>
      <trkpt lat="45.01184" lon="5.08629">
        <ele>206.76327514648</ele>
        <time>2011-07-12T06:11:14Z</time>
      </trkpt>
      <trkpt lat="45.01153" lon="5.0868">
        <ele>209.96920776367</ele>
        <time>2011-07-12T06:11:21Z</time>
      </trkpt>
      <trkpt lat="45.01133" lon="5.08721">
        <ele>211.97178649902</ele>
        <time>2011-07-12T06:11:26Z</time>
      </trkpt>
      <trkpt lat="45.01101" lon="5.08792">
        <ele>213.88980102539</ele>
        <time>2011-07-12T06:11:34Z</time>
      </trkpt>
      <trkpt lat="45.01091" lon="5.08809">
        <ele>214.75332641602</ele>
        <time>2011-07-12T06:11:36Z</time>
      </trkpt>
      <trkpt lat="45.01048" lon="5.0885">
        <ele>215.28942871094</ele>
        <time>2011-07-12T06:11:43Z</time>
      </trkpt>
      <trkpt lat="45.01011" lon="5.08882">
        <ele>217.09526062012</ele>
        <time>2011-07-12T06:11:49Z</time>
      </trkpt>
      <trkpt lat="45.00974" lon="5.08892">
        <ele>218</ele>
        <time>2011-07-12T06:11:54Z</time>
      </trkpt>
      <trkpt lat="45.00967" lon="5.08892">
        <ele>218</ele>
        <time>2011-07-12T06:11:55Z</time>
      </trkpt>
      <trkpt lat="45.00923" lon="5.08894">
        <ele>218</ele>
        <time>2011-07-12T06:12:02Z</time>
      </trkpt>
      <trkpt lat="45.0088" lon="5.08915">
        <ele>218</ele>
        <time>2011-07-12T06:12:09Z</time>
      </trkpt>
      <trkpt lat="45.00837" lon="5.08939">
        <ele>218</ele>
        <time>2011-07-12T06:12:17Z</time>
      </trkpt>
      <trkpt lat="45.00786" lon="5.08976">
        <ele>218</ele>
        <time>2011-07-12T06:12:27Z</time>
      </trkpt>
      <trkpt lat="45.00752" lon="5.09008">
        <ele>218</ele>
        <time>2011-07-12T06:12:34Z</time>
      </trkpt>
      <trkpt lat="45.00708" lon="5.09054">
        <ele>218</ele>
        <time>2011-07-12T06:12:42Z</time>
      </trkpt>
      <trkpt lat="45.0069" lon="5.09062">
        <ele>218</ele>
        <time>2011-07-12T06:12:45Z</time>
      </trkpt>
      <trkpt lat="45.00654" lon="5.09074">
        <ele>218</ele>
        <time>2011-07-12T06:12:51Z</time>
      </trkpt>
      <trkpt lat="45.00605" lon="5.09099">
        <ele>218</ele>
        <time>2011-07-12T06:12:59Z</time>
      </trkpt>
      <trkpt lat="45.00564" lon="5.09126">
        <ele>218</ele>
        <time>2011-07-12T06:13:06Z</time>
      </trkpt>
      <trkpt lat="45.00517" lon="5.09157">
        <ele>218</ele>
        <time>2011-07-12T06:13:14Z</time>
      </trkpt>
      <trkpt lat="45.00479" lon="5.0919">
        <ele>218</ele>
        <time>2011-07-12T06:13:21Z</time>
      </trkpt>
      <trkpt lat="45.00443" lon="5.09216">
        <ele>218.06982421875</ele>
        <time>2011-07-12T06:13:27Z</time>
      </trkpt>
      <trkpt lat="45.004" lon="5.09241">
        <ele>219.59417724609</ele>
        <time>2011-07-12T06:13:34Z</time>
      </trkpt>
      <trkpt lat="45.00342" lon="5.09272">
        <ele>220</ele>
        <time>2011-07-12T06:13:44Z</time>
      </trkpt>
      <trkpt lat="45.00286" lon="5.09305">
        <ele>220</ele>
        <time>2011-07-12T06:13:54Z</time>
      </trkpt>
      <trkpt lat="45.00238" lon="5.09346">
        <ele>220</ele>
        <time>2011-07-12T06:14:03Z</time>
      </trkpt>
      <trkpt lat="45.00182" lon="5.09398">
        <ele>221</ele>
        <time>2011-07-12T06:14:14Z</time>
      </trkpt>
      <trkpt lat="45.00145" lon="5.0943">
        <ele>221.88621520996</ele>
        <time>2011-07-12T06:14:21Z</time>
      </trkpt>
      <trkpt lat="45.00098" lon="5.0947">
        <ele>222.95556640625</ele>
        <time>2011-07-12T06:14:30Z</time>
      </trkpt>
      <trkpt lat="45.00041" lon="5.09519">
        <ele>224.53057861328</ele>
        <time>2011-07-12T06:14:41Z</time>
      </trkpt>
      <trkpt lat="44.99974" lon="5.09575">
        <ele>227.63331604004</ele>
        <time>2011-07-12T06:14:54Z</time>
      </trkpt>
      <trkpt lat="44.99926" lon="5.09613">
        <ele>234.74209594727</ele>
        <time>2011-07-12T06:15:03Z</time>
      </trkpt>
      <trkpt lat="44.99879" lon="5.09636">
        <ele>236.31260681152</ele>
        <time>2011-07-12T06:15:11Z</time>
      </trkpt>
      <trkpt lat="44.99821" lon="5.09662">
        <ele>237.9119720459</ele>
        <time>2011-07-12T06:15:21Z</time>
      </trkpt>
      <trkpt lat="44.99759" lon="5.09701">
        <ele>239</ele>
        <time>2011-07-12T06:15:32Z</time>
      </trkpt>
      <trkpt lat="44.99711" lon="5.09731">
        <ele>240</ele>
        <time>2011-07-12T06:15:40Z</time>
      </trkpt>
      <trkpt lat="44.99671" lon="5.09762">
        <ele>240</ele>
        <time>2011-07-12T06:15:47Z</time>
      </trkpt>
      <trkpt lat="44.99611" lon="5.09816">
        <ele>240</ele>
        <time>2011-07-12T06:15:58Z</time>
      </trkpt>
      <trkpt lat="44.99568" lon="5.09855">
        <ele>240</ele>
        <time>2011-07-12T06:16:06Z</time>
      </trkpt>
      <trkpt lat="44.99507" lon="5.09908">
        <ele>240.74291992188</ele>
        <time>2011-07-12T06:16:17Z</time>
      </trkpt>
      <trkpt lat="44.99456" lon="5.0995">
        <ele>241.12100219727</ele>
        <time>2011-07-12T06:16:26Z</time>
      </trkpt>
      <trkpt lat="44.9939" lon="5.10005">
        <ele>242.95892333984</ele>
        <time>2011-07-12T06:16:38Z</time>
      </trkpt>
      <trkpt lat="44.99331" lon="5.10053">
        <ele>244.09303283691</ele>
        <time>2011-07-12T06:16:49Z</time>
      </trkpt>
      <trkpt lat="44.99289" lon="5.10086">
        <ele>245</ele>
        <time>2011-07-12T06:16:57Z</time>
      </trkpt>
      <trkpt lat="44.99233" lon="5.10132">
        <ele>247.35440063477</ele>
        <time>2011-07-12T06:17:08Z</time>
      </trkpt>
      <trkpt lat="44.99184" lon="5.10171">
        <ele>248.37469482422</ele>
        <time>2011-07-12T06:17:18Z</time>
      </trkpt>
      <trkpt lat="44.99147" lon="5.10189">
        <ele>249</ele>
        <time>2011-07-12T06:17:25Z</time>
      </trkpt>
      <trkpt lat="44.99089" lon="5.10208">
        <ele>251.27484130859</ele>
        <time>2011-07-12T06:17:35Z</time>
      </trkpt>
      <trkpt lat="44.99032" lon="5.10225">
        <ele>252.85412597656</ele>
        <time>2011-07-12T06:17:45Z</time>
      </trkpt>
      <trkpt lat="44.98988" lon="5.10239">
        <ele>253.44714355469</ele>
        <time>2011-07-12T06:17:53Z</time>
      </trkpt>
      <trkpt lat="44.98967" lon="5.10244">
        <ele>254.20245361328</ele>
        <time>2011-07-12T06:17:57Z</time>
      </trkpt>
      <trkpt lat="44.98941" lon="5.10238">
        <ele>255</ele>
        <time>2011-07-12T06:18:02Z</time>
      </trkpt>
      <trkpt lat="44.98923" lon="5.10223">
        <ele>255</ele>
        <time>2011-07-12T06:18:06Z</time>
      </trkpt>
      <trkpt lat="44.98917" lon="5.10222">
        <ele>254.98190307617</ele>
        <time>2011-07-12T06:18:07Z</time>
      </trkpt>
      <trkpt lat="44.98876" lon="5.10212">
        <ele>256.11291503906</ele>
        <time>2011-07-12T06:18:14Z</time>
      </trkpt>
      <trkpt lat="44.98828" lon="5.10197">
        <ele>256.26477050781</ele>
        <time>2011-07-12T06:18:22Z</time>
      </trkpt>
      <trkpt lat="44.98774" lon="5.10176">
        <ele>256.48355102539</ele>
        <time>2011-07-12T06:18:31Z</time>
      </trkpt>
      <trkpt lat="44.98707" lon="5.10149">
        <ele>260.71429443359</ele>
        <time>2011-07-12T06:18:42Z</time>
      </trkpt>
      <trkpt lat="44.98643" lon="5.1012">
        <ele>261</ele>
        <time>2011-07-12T06:18:53Z</time>
      </trkpt>
      <trkpt lat="44.98603" lon="5.10102">
        <ele>261</ele>
        <time>2011-07-12T06:19:00Z</time>
      </trkpt>
      <trkpt lat="44.98558" lon="5.10087">
        <ele>261</ele>
        <time>2011-07-12T06:19:07Z</time>
      </trkpt>
      <trkpt lat="44.98496" lon="5.10068">
        <ele>260.36923217773</ele>
        <time>2011-07-12T06:19:16Z</time>
      </trkpt>
      <trkpt lat="44.98417" lon="5.10044">
        <ele>259.60125732422</ele>
        <time>2011-07-12T06:19:27Z</time>
      </trkpt>
      <trkpt lat="44.98355" lon="5.10027">
        <ele>258.95751953125</ele>
        <time>2011-07-12T06:19:35Z</time>
      </trkpt>
      <trkpt lat="44.9828" lon="5.10005">
        <ele>258.16961669922</ele>
        <time>2011-07-12T06:19:44Z</time>
      </trkpt>
      <trkpt lat="44.98237" lon="5.09978">
        <ele>258.58157348633</ele>
        <time>2011-07-12T06:19:50Z</time>
      </trkpt>
      <trkpt lat="44.98192" lon="5.09932">
        <ele>258.60195922852</ele>
        <time>2011-07-12T06:19:57Z</time>
      </trkpt>
      <trkpt lat="44.98128" lon="5.0986">
        <ele>259</ele>
        <time>2011-07-12T06:20:07Z</time>
      </trkpt>
      <trkpt lat="44.98074" lon="5.09789">
        <ele>259</ele>
        <time>2011-07-12T06:20:16Z</time>
      </trkpt>
      <trkpt lat="44.98031" lon="5.09734">
        <ele>258</ele>
        <time>2011-07-12T06:20:24Z</time>
      </trkpt>
      <trkpt lat="44.97993" lon="5.09699">
        <ele>260.95495605469</ele>
        <time>2011-07-12T06:20:31Z</time>
      </trkpt>
      <trkpt lat="44.97948" lon="5.0967">
        <ele>262.95886230469</ele>
        <time>2011-07-12T06:20:39Z</time>
      </trkpt>
      <trkpt lat="44.97896" lon="5.09636">
        <ele>263.66595458984</ele>
        <time>2011-07-12T06:20:49Z</time>
      </trkpt>
      <trkpt lat="44.97857" lon="5.09607">
        <ele>264.13131713867</ele>
        <time>2011-07-12T06:20:57Z</time>
      </trkpt>
      <trkpt lat="44.97808" lon="5.09554">
        <ele>264</ele>
        <time>2011-07-12T06:21:08Z</time>
      </trkpt>
      <trkpt lat="44.9777" lon="5.09509">
        <ele>264.08517456055</ele>
        <time>2011-07-12T06:21:16Z</time>
      </trkpt>
      <trkpt lat="44.97732" lon="5.09459">
        <ele>264.65588378906</ele>
        <time>2011-07-12T06:21:24Z</time>
      </trkpt>
      <trkpt lat="44.97699" lon="5.09412">
        <ele>264</ele>
        <time>2011-07-12T06:21:31Z</time>
      </trkpt>
      <trkpt lat="44.97665" lon="5.09363">
        <ele>264.00415039062</ele>
        <time>2011-07-12T06:21:38Z</time>
      </trkpt>
      <trkpt lat="44.97621" lon="5.09298">
        <ele>263.47680664062</ele>
        <time>2011-07-12T06:21:47Z</time>
      </trkpt>
      <trkpt lat="44.97564" lon="5.09219">
        <ele>262.59191894531</ele>
        <time>2011-07-12T06:21:58Z</time>
      </trkpt>
      <trkpt lat="44.97532" lon="5.09192">
        <ele>266.18142700195</ele>
        <time>2011-07-12T06:22:03Z</time>
      </trkpt>
      <trkpt lat="44.97504" lon="5.09174">
        <ele>267.14981079102</ele>
        <time>2011-07-12T06:22:07Z</time>
      </trkpt>
      <trkpt lat="44.97471" lon="5.09145">
        <ele>267.23794555664</ele>
        <time>2011-07-12T06:22:12Z</time>
      </trkpt>
      <trkpt lat="44.9745" lon="5.09104">
        <ele>266</ele>
        <time>2011-07-12T06:22:17Z</time>
      </trkpt>
      <trkpt lat="44.97446" lon="5.09084">
        <ele>266</ele>
        <time>2011-07-12T06:22:19Z</time>
      </trkpt>
      <trkpt lat="44.97437" lon="5.09008">
        <ele>264.21301269531</ele>
        <time>2011-07-12T06:22:26Z</time>
      </trkpt>
      <trkpt lat="44.97419" lon="5.08952">
        <ele>263</ele>
        <time>2011-07-12T06:22:31Z</time>
      </trkpt>
      <trkpt lat="44.97387" lon="5.08871">
        <ele>259.30975341797</ele>
        <time>2011-07-12T06:22:38Z</time>
      </trkpt>
      <trkpt lat="44.97362" lon="5.08785">
        <ele>257.26742553711</ele>
        <time>2011-07-12T06:22:45Z</time>
      </trkpt>
      <trkpt lat="44.9734" lon="5.08689">
        <ele>255.95964050293</ele>
        <time>2011-07-12T06:22:52Z</time>
      </trkpt>
      <trkpt lat="44.97316" lon="5.08568">
        <ele>254.06591796875</ele>
        <time>2011-07-12T06:23:01Z</time>
      </trkpt>
      <trkpt lat="44.9729" lon="5.08465">
        <ele>252.88887023926</ele>
        <time>2011-07-12T06:23:09Z</time>
      </trkpt>
      <trkpt lat="44.97285" lon="5.08453">
        <ele>252.81036376953</ele>
        <time>2011-07-12T06:23:10Z</time>
      </trkpt>
      <trkpt lat="44.97255" lon="5.08405">
        <ele>252.4748840332</ele>
        <time>2011-07-12T06:23:15Z</time>
      </trkpt>
      <trkpt lat="44.97219" lon="5.08366">
        <ele>252.18675231934</ele>
        <time>2011-07-12T06:23:20Z</time>
      </trkpt>
      <trkpt lat="44.97165" lon="5.08299">
        <ele>251.04902648926</ele>
        <time>2011-07-12T06:23:28Z</time>
      </trkpt>
      <trkpt lat="44.97107" lon="5.0822">
        <ele>249.94476318359</ele>
        <time>2011-07-12T06:23:37Z</time>
      </trkpt>
      <trkpt lat="44.97049" lon="5.08147">
        <ele>249</ele>
        <time>2011-07-12T06:23:46Z</time>
      </trkpt>
      <trkpt lat="44.97002" lon="5.08101">
        <ele>248.60426330566</ele>
        <time>2011-07-12T06:23:53Z</time>
      </trkpt>
      <trkpt lat="44.96974" lon="5.0808">
        <ele>248</ele>
        <time>2011-07-12T06:23:57Z</time>
      </trkpt>
      <trkpt lat="44.96926" lon="5.08045">
        <ele>248.40069580078</ele>
        <time>2011-07-12T06:24:04Z</time>
      </trkpt>
      <trkpt lat="44.96876" lon="5.07998">
        <ele>248.43183898926</ele>
        <time>2011-07-12T06:24:12Z</time>
      </trkpt>
      <trkpt lat="44.96849" lon="5.07973">
        <ele>248.45559692383</ele>
        <time>2011-07-12T06:24:16Z</time>
      </trkpt>
      <trkpt lat="44.96822" lon="5.07959">
        <ele>248.71220397949</ele>
        <time>2011-07-12T06:24:20Z</time>
      </trkpt>
      <trkpt lat="44.96775" lon="5.07941">
        <ele>248.89924621582</ele>
        <time>2011-07-12T06:24:27Z</time>
      </trkpt>
      <trkpt lat="44.96725" lon="5.07916">
        <ele>248.9905090332</ele>
        <time>2011-07-12T06:24:34Z</time>
      </trkpt>
      <trkpt lat="44.96668" lon="5.07879">
        <ele>248.64123535156</ele>
        <time>2011-07-12T06:24:42Z</time>
      </trkpt>
      <trkpt lat="44.9663" lon="5.07862">
        <ele>248.33218383789</ele>
        <time>2011-07-12T06:24:47Z</time>
      </trkpt>
      <trkpt lat="44.96587" lon="5.07845">
        <ele>248.91728210449</ele>
        <time>2011-07-12T06:24:53Z</time>
      </trkpt>
      <trkpt lat="44.96569" lon="5.07834">
        <ele>249</ele>
        <time>2011-07-12T06:24:56Z</time>
      </trkpt>
      <trkpt lat="44.96537" lon="5.07802">
        <ele>248.59181213379</ele>
        <time>2011-07-12T06:25:03Z</time>
      </trkpt>
      <trkpt lat="44.96519" lon="5.07782">
        <ele>248.15480041504</ele>
        <time>2011-07-12T06:25:07Z</time>
      </trkpt>
      <trkpt lat="44.96502" lon="5.07769">
        <ele>247.97282409668</ele>
        <time>2011-07-12T06:25:11Z</time>
      </trkpt>
      <trkpt lat="44.96492" lon="5.07776">
        <ele>248.27360534668</ele>
        <time>2011-07-12T06:25:15Z</time>
      </trkpt>
      <trkpt lat="44.9649" lon="5.07782">
        <ele>248.44226074219</ele>
        <time>2011-07-12T06:25:16Z</time>
      </trkpt>
      <trkpt lat="44.96472" lon="5.07839">
        <ele>250</ele>
        <time>2011-07-12T06:25:24Z</time>
      </trkpt>
      <trkpt lat="44.96462" lon="5.07874">
        <ele>250.46099853516</ele>
        <time>2011-07-12T06:25:29Z</time>
      </trkpt>
      <trkpt lat="44.96453" lon="5.07904">
        <ele>251.54760742188</ele>
        <time>2011-07-12T06:25:33Z</time>
      </trkpt>
      <trkpt lat="44.96444" lon="5.07942">
        <ele>252</ele>
        <time>2011-07-12T06:25:38Z</time>
      </trkpt>
      <trkpt lat="44.96438" lon="5.07968">
        <ele>252.8444519043</ele>
        <time>2011-07-12T06:25:42Z</time>
      </trkpt>
      <trkpt lat="44.96432" lon="5.07987">
        <ele>253</ele>
        <time>2011-07-12T06:25:45Z</time>
      </trkpt>
      <trkpt lat="44.96415" lon="5.07999">
        <ele>253.05921936035</ele>
        <time>2011-07-12T06:25:49Z</time>
      </trkpt>
      <trkpt lat="44.96405" lon="5.07995">
        <ele>253.35606384277</ele>
        <time>2011-07-12T06:25:51Z</time>
      </trkpt>
      <trkpt lat="44.96355" lon="5.07972">
        <ele>254</ele>
        <time>2011-07-12T06:26:00Z</time>
      </trkpt>
      <trkpt lat="44.96305" lon="5.07951">
        <ele>254.26351928711</ele>
        <time>2011-07-12T06:26:09Z</time>
      </trkpt>
      <trkpt lat="44.96299" lon="5.0795">
        <ele>254.38597106934</ele>
        <time>2011-07-12T06:26:10Z</time>
      </trkpt>
      <trkpt lat="44.96281" lon="5.0795">
        <ele>254.90782165527</ele>
        <time>2011-07-12T06:26:13Z</time>
      </trkpt>
      <trkpt lat="44.96223" lon="5.07972">
        <ele>255.99934387207</ele>
        <time>2011-07-12T06:26:23Z</time>
      </trkpt>
      <trkpt lat="44.96212" lon="5.07974">
        <ele>256.43182373047</ele>
        <time>2011-07-12T06:26:25Z</time>
      </trkpt>
      <trkpt lat="44.96175" lon="5.07969">
        <ele>256.87707519531</ele>
        <time>2011-07-12T06:26:31Z</time>
      </trkpt>
      <trkpt lat="44.96125" lon="5.07945">
        <ele>257.02734375</ele>
        <time>2011-07-12T06:26:39Z</time>
      </trkpt>
      <trkpt lat="44.96077" lon="5.07942">
        <ele>257.20993041992</ele>
        <time>2011-07-12T06:26:46Z</time>
      </trkpt>
      <trkpt lat="44.9603" lon="5.07955">
        <ele>258</ele>
        <time>2011-07-12T06:26:53Z</time>
      </trkpt>
      <trkpt lat="44.95984" lon="5.07967">
        <ele>258.82214355469</ele>
        <time>2011-07-12T06:27:00Z</time>
      </trkpt>
      <trkpt lat="44.95943" lon="5.07962">
        <ele>258.65307617188</ele>
        <time>2011-07-12T06:27:06Z</time>
      </trkpt>
      <trkpt lat="44.9589" lon="5.07956">
        <ele>258.43145751953</ele>
        <time>2011-07-12T06:27:14Z</time>
      </trkpt>
      <trkpt lat="44.95847" lon="5.07973">
        <ele>259</ele>
        <time>2011-07-12T06:27:21Z</time>
      </trkpt>
      <trkpt lat="44.95792" lon="5.08006">
        <ele>259.19885253906</ele>
        <time>2011-07-12T06:27:30Z</time>
      </trkpt>
      <trkpt lat="44.95755" lon="5.08024">
        <ele>260.6555480957</ele>
        <time>2011-07-12T06:27:36Z</time>
      </trkpt>
      <trkpt lat="44.95718" lon="5.0805">
        <ele>261.95922851562</ele>
        <time>2011-07-12T06:27:42Z</time>
      </trkpt>
      <trkpt lat="44.95679" lon="5.08078">
        <ele>263.4538269043</ele>
        <time>2011-07-12T06:27:48Z</time>
      </trkpt>
      <trkpt lat="44.95619" lon="5.08118">
        <ele>265.70874023438</ele>
        <time>2011-07-12T06:27:57Z</time>
      </trkpt>
      <trkpt lat="44.95563" lon="5.08157">
        <ele>266.66970825195</ele>
        <time>2011-07-12T06:28:06Z</time>
      </trkpt>
      <trkpt lat="44.9551" lon="5.08191">
        <ele>267.89019775391</ele>
        <time>2011-07-12T06:28:15Z</time>
      </trkpt>
      <trkpt lat="44.95471" lon="5.082">
        <ele>268.18548583984</ele>
        <time>2011-07-12T06:28:21Z</time>
      </trkpt>
      <trkpt lat="44.95413" lon="5.08206">
        <ele>269</ele>
        <time>2011-07-12T06:28:30Z</time>
      </trkpt>
      <trkpt lat="44.95385" lon="5.08227">
        <ele>269.16909790039</ele>
        <time>2011-07-12T06:28:35Z</time>
      </trkpt>
      <trkpt lat="44.95354" lon="5.08268">
        <ele>270</ele>
        <time>2011-07-12T06:28:42Z</time>
      </trkpt>
      <trkpt lat="44.95319" lon="5.08316">
        <ele>271.37573242188</ele>
        <time>2011-07-12T06:28:50Z</time>
      </trkpt>
      <trkpt lat="44.95285" lon="5.08362">
        <ele>272.03225708008</ele>
        <time>2011-07-12T06:28:58Z</time>
      </trkpt>
      <trkpt lat="44.95246" lon="5.08416">
        <ele>273</ele>
        <time>2011-07-12T06:29:08Z</time>
      </trkpt>
      <trkpt lat="44.95208" lon="5.08468">
        <ele>274.43853759766</ele>
        <time>2011-07-12T06:29:18Z</time>
      </trkpt>
      <trkpt lat="44.95169" lon="5.08521">
        <ele>275.9758605957</ele>
        <time>2011-07-12T06:29:28Z</time>
      </trkpt>
      <trkpt lat="44.95137" lon="5.08565">
        <ele>277.35360717773</ele>
        <time>2011-07-12T06:29:36Z</time>
      </trkpt>
      <trkpt lat="44.95102" lon="5.08614">
        <ele>279.03305053711</ele>
        <time>2011-07-12T06:29:45Z</time>
      </trkpt>
      <trkpt lat="44.95089" lon="5.0863">
        <ele>279.54019165039</ele>
        <time>2011-07-12T06:29:48Z</time>
      </trkpt>
      <trkpt lat="44.95073" lon="5.08642">
        <ele>280.04168701172</ele>
        <time>2011-07-12T06:29:51Z</time>
      </trkpt>
      <trkpt lat="44.95049" lon="5.08645">
        <ele>280.45980834961</ele>
        <time>2011-07-12T06:29:55Z</time>
      </trkpt>
      <trkpt lat="44.95012" lon="5.08624">
        <ele>281.04858398438</ele>
        <time>2011-07-12T06:30:02Z</time>
      </trkpt>
      <trkpt lat="44.9499" lon="5.0861">
        <ele>280.96734619141</ele>
        <time>2011-07-12T06:30:06Z</time>
      </trkpt>
      <trkpt lat="44.94949" lon="5.08591">
        <ele>281.21841430664</ele>
        <time>2011-07-12T06:30:13Z</time>
      </trkpt>
      <trkpt lat="44.94926" lon="5.08592">
        <ele>281.76107788086</ele>
        <time>2011-07-12T06:30:17Z</time>
      </trkpt>
      <trkpt lat="44.94868" lon="5.0863">
        <ele>283</ele>
        <time>2011-07-12T06:30:27Z</time>
      </trkpt>
      <trkpt lat="44.94817" lon="5.08667">
        <ele>284.00476074219</ele>
        <time>2011-07-12T06:30:36Z</time>
      </trkpt>
      <trkpt lat="44.94766" lon="5.08705">
        <ele>284.38330078125</ele>
        <time>2011-07-12T06:30:46Z</time>
      </trkpt>
      <trkpt lat="44.94725" lon="5.08736">
        <ele>285.4853515625</ele>
        <time>2011-07-12T06:30:54Z</time>
      </trkpt>
      <trkpt lat="44.94661" lon="5.08783">
        <ele>287.20541381836</ele>
        <time>2011-07-12T06:31:06Z</time>
      </trkpt>
      <trkpt lat="44.94611" lon="5.08825">
        <ele>288.6943359375</ele>
        <time>2011-07-12T06:31:16Z</time>
      </trkpt>
      <trkpt lat="44.94584" lon="5.08864">
        <ele>290.10122680664</ele>
        <time>2011-07-12T06:31:23Z</time>
      </trkpt>
      <trkpt lat="44.9456" lon="5.08907">
        <ele>291</ele>
        <time>2011-07-12T06:31:30Z</time>
      </trkpt>
      <trkpt lat="44.94556" lon="5.08912">
        <ele>291</ele>
        <time>2011-07-12T06:31:31Z</time>
      </trkpt>
      <trkpt lat="44.94527" lon="5.08927">
        <ele>291.37585449219</ele>
        <time>2011-07-12T06:31:36Z</time>
      </trkpt>
      <trkpt lat="44.94521" lon="5.08928">
        <ele>291.41534423828</ele>
        <time>2011-07-12T06:31:37Z</time>
      </trkpt>
      <trkpt lat="44.94461" lon="5.08933">
        <ele>291.34603881836</ele>
        <time>2011-07-12T06:31:46Z</time>
      </trkpt>
      <trkpt lat="44.9439" lon="5.08937">
        <ele>291</ele>
        <time>2011-07-12T06:31:56Z</time>
      </trkpt>
      <trkpt lat="44.94331" lon="5.08942">
        <ele>291</ele>
        <time>2011-07-12T06:32:04Z</time>
      </trkpt>
      <trkpt lat="44.94299" lon="5.08947">
        <ele>291.07107543945</ele>
        <time>2011-07-12T06:32:08Z</time>
      </trkpt>
      <trkpt lat="44.94271" lon="5.08966">
        <ele>291</ele>
        <time>2011-07-12T06:32:12Z</time>
      </trkpt>
      <trkpt lat="44.94247" lon="5.09002">
        <ele>292.05639648438</ele>
        <time>2011-07-12T06:32:17Z</time>
      </trkpt>
      <trkpt lat="44.9423" lon="5.09039">
        <ele>292.57098388672</ele>
        <time>2011-07-12T06:32:22Z</time>
      </trkpt>
      <trkpt lat="44.9422" lon="5.09054">
        <ele>292.87060546875</ele>
        <time>2011-07-12T06:32:26Z</time>
      </trkpt>
      <trkpt lat="44.9421" lon="5.09064">
        <ele>292.70120239258</ele>
        <time>2011-07-12T06:32:30Z</time>
      </trkpt>
      <trkpt lat="44.942" lon="5.09071">
        <ele>292.65286254883</ele>
        <time>2011-07-12T06:32:32Z</time>
      </trkpt>
      <trkpt lat="44.94145" lon="5.09083">
        <ele>291.99694824219</ele>
        <time>2011-07-12T06:32:40Z</time>
      </trkpt>
      <trkpt lat="44.94106" lon="5.09092">
        <ele>290.81280517578</ele>
        <time>2011-07-12T06:32:46Z</time>
      </trkpt>
      <trkpt lat="44.94085" lon="5.09098">
        <ele>290.05749511719</ele>
        <time>2011-07-12T06:32:50Z</time>
      </trkpt>
      <trkpt lat="44.94065" lon="5.09101">
        <ele>289.76345825195</ele>
        <time>2011-07-12T06:32:54Z</time>
      </trkpt>
      <trkpt lat="44.94026" lon="5.09113">
        <ele>296.11083984375</ele>
        <time>2011-07-12T06:33:02Z</time>
      </trkpt>
      <trkpt lat="44.94007" lon="5.09119">
        <ele>297.03439331055</ele>
        <time>2011-07-12T06:33:06Z</time>
      </trkpt>
      <trkpt lat="44.93975" lon="5.09125">
        <ele>298.8544921875</ele>
        <time>2011-07-12T06:33:12Z</time>
      </trkpt>
      <trkpt lat="44.9397" lon="5.09127">
        <ele>299.20822143555</ele>
        <time>2011-07-12T06:33:13Z</time>
      </trkpt>
      <trkpt lat="44.93943" lon="5.09133">
        <ele>300</ele>
        <time>2011-07-12T06:33:18Z</time>
      </trkpt>
      <trkpt lat="44.93919" lon="5.09141">
        <ele>300</ele>
        <time>2011-07-12T06:33:23Z</time>
      </trkpt>
      <trkpt lat="44.9389" lon="5.09151">
        <ele>300</ele>
        <time>2011-07-12T06:33:29Z</time>
      </trkpt>
      <trkpt lat="44.93843" lon="5.09157">
        <ele>300</ele>
        <time>2011-07-12T06:33:38Z</time>
      </trkpt>
      <trkpt lat="44.93827" lon="5.0916">
        <ele>300.15759277344</ele>
        <time>2011-07-12T06:33:41Z</time>
      </trkpt>
      <trkpt lat="44.93803" lon="5.09172">
        <ele>301</ele>
        <time>2011-07-12T06:33:46Z</time>
      </trkpt>
      <trkpt lat="44.93789" lon="5.09194">
        <ele>301</ele>
        <time>2011-07-12T06:33:50Z</time>
      </trkpt>
      <trkpt lat="44.93776" lon="5.09245">
        <ele>302</ele>
        <time>2011-07-12T06:33:58Z</time>
      </trkpt>
      <trkpt lat="44.93768" lon="5.09285">
        <ele>303.27792358398</ele>
        <time>2011-07-12T06:34:04Z</time>
      </trkpt>
      <trkpt lat="44.93764" lon="5.09299">
        <ele>303.74655151367</ele>
        <time>2011-07-12T06:34:06Z</time>
      </trkpt>
      <trkpt lat="44.93752" lon="5.09346">
        <ele>304.96362304688</ele>
        <time>2011-07-12T06:34:13Z</time>
      </trkpt>
      <trkpt lat="44.9374" lon="5.09397">
        <ele>306.54989624023</ele>
        <time>2011-07-12T06:34:20Z</time>
      </trkpt>
      <trkpt lat="44.93737" lon="5.09412">
        <ele>306.90924072266</ele>
        <time>2011-07-12T06:34:22Z</time>
      </trkpt>
      <trkpt lat="44.93729" lon="5.09463">
        <ele>308.40185546875</ele>
        <time>2011-07-12T06:34:28Z</time>
      </trkpt>
      <trkpt lat="44.93723" lon="5.09521">
        <ele>309.98876953125</ele>
        <time>2011-07-12T06:34:34Z</time>
      </trkpt>
      <trkpt lat="44.93721" lon="5.09532">
        <ele>310.20336914062</ele>
        <time>2011-07-12T06:34:35Z</time>
      </trkpt>
      <trkpt lat="44.93707" lon="5.09571">
        <ele>312.10021972656</ele>
        <time>2011-07-12T06:34:39Z</time>
      </trkpt>
      <trkpt lat="44.93692" lon="5.09583">
        <ele>313.07525634766</ele>
        <time>2011-07-12T06:34:41Z</time>
      </trkpt>
      <trkpt lat="44.93622" lon="5.09614">
        <ele>317.11053466797</ele>
        <time>2011-07-12T06:34:49Z</time>
      </trkpt>
      <trkpt lat="44.93568" lon="5.09647">
        <ele>315.63635253906</ele>
        <time>2011-07-12T06:34:55Z</time>
      </trkpt>
      <trkpt lat="44.93502" lon="5.09687">
        <ele>304.41622924805</ele>
        <time>2011-07-12T06:35:02Z</time>
      </trkpt>
      <trkpt lat="44.93455" lon="5.09706">
        <ele>305.29138183594</ele>
        <time>2011-07-12T06:35:07Z</time>
      </trkpt>
      <trkpt lat="44.93402" lon="5.09722">
        <ele>305.40634155273</ele>
        <time>2011-07-12T06:35:13Z</time>
      </trkpt>
      <trkpt lat="44.93336" lon="5.0974">
        <ele>308.06115722656</ele>
        <time>2011-07-12T06:35:21Z</time>
      </trkpt>
      <trkpt lat="44.93277" lon="5.09758">
        <ele>308.52627563477</ele>
        <time>2011-07-12T06:35:29Z</time>
      </trkpt>
      <trkpt lat="44.93236" lon="5.09769">
        <ele>308.35504150391</ele>
        <time>2011-07-12T06:35:35Z</time>
      </trkpt>
      <trkpt lat="44.93199" lon="5.09782">
        <ele>308.46859741211</ele>
        <time>2011-07-12T06:35:41Z</time>
      </trkpt>
      <trkpt lat="44.93188" lon="5.0979">
        <ele>308.47027587891</ele>
        <time>2011-07-12T06:35:43Z</time>
      </trkpt>
      <trkpt lat="44.93178" lon="5.09801">
        <ele>308.49432373047</ele>
        <time>2011-07-12T06:35:45Z</time>
      </trkpt>
      <trkpt lat="44.93147" lon="5.09819">
        <ele>307.8291015625</ele>
        <time>2011-07-12T06:35:50Z</time>
      </trkpt>
      <trkpt lat="44.9314" lon="5.09819">
        <ele>307.52319335938</ele>
        <time>2011-07-12T06:35:51Z</time>
      </trkpt>
      <trkpt lat="44.93116" lon="5.09816">
        <ele>307.10513305664</ele>
        <time>2011-07-12T06:35:55Z</time>
      </trkpt>
      <trkpt lat="44.93077" lon="5.09798">
        <ele>308.68341064453</ele>
        <time>2011-07-12T06:36:02Z</time>
      </trkpt>
      <trkpt lat="44.93036" lon="5.09782">
        <ele>312.08340454102</ele>
        <time>2011-07-12T06:36:08Z</time>
      </trkpt>
      <trkpt lat="44.92996" lon="5.09765">
        <ele>310.24172973633</ele>
        <time>2011-07-12T06:36:13Z</time>
      </trkpt>
      <trkpt lat="44.92946" lon="5.09766">
        <ele>308.99353027344</ele>
        <time>2011-07-12T06:36:19Z</time>
      </trkpt>
      <trkpt lat="44.92911" lon="5.09781">
        <ele>309.15899658203</ele>
        <time>2011-07-12T06:36:24Z</time>
      </trkpt>
      <trkpt lat="44.92873" lon="5.09807">
        <ele>310.02572631836</ele>
        <time>2011-07-12T06:36:31Z</time>
      </trkpt>
      <trkpt lat="44.92833" lon="5.09832">
        <ele>307.56057739258</ele>
        <time>2011-07-12T06:36:39Z</time>
      </trkpt>
      <trkpt lat="44.92796" lon="5.09848">
        <ele>308.49694824219</ele>
        <time>2011-07-12T06:36:46Z</time>
      </trkpt>
      <trkpt lat="44.92766" lon="5.09861">
        <ele>308.01220703125</ele>
        <time>2011-07-12T06:36:52Z</time>
      </trkpt>
      <trkpt lat="44.92736" lon="5.09876">
        <ele>309.62997436523</ele>
        <time>2011-07-12T06:36:58Z</time>
      </trkpt>
      <trkpt lat="44.92691" lon="5.09907">
        <ele>312.92587280273</ele>
        <time>2011-07-12T06:37:07Z</time>
      </trkpt>
      <trkpt lat="44.92675" lon="5.09913">
        <ele>313.63656616211</ele>
        <time>2011-07-12T06:37:10Z</time>
      </trkpt>
      <trkpt lat="44.92658" lon="5.09915">
        <ele>313.83157348633</ele>
        <time>2011-07-12T06:37:13Z</time>
      </trkpt>
      <trkpt lat="44.92647" lon="5.09913">
        <ele>313.72323608398</ele>
        <time>2011-07-12T06:37:15Z</time>
      </trkpt>
      <trkpt lat="44.92607" lon="5.09898">
        <ele>314.60168457031</ele>
        <time>2011-07-12T06:37:23Z</time>
      </trkpt>
      <trkpt lat="44.92583" lon="5.09889">
        <ele>316.005859375</ele>
        <time>2011-07-12T06:37:28Z</time>
      </trkpt>
      <trkpt lat="44.92549" lon="5.09889">
        <ele>318</ele>
        <time>2011-07-12T06:37:36Z</time>
      </trkpt>
      <trkpt lat="44.9252" lon="5.09901">
        <ele>318.16082763672</ele>
        <time>2011-07-12T06:37:43Z</time>
      </trkpt>
      <trkpt lat="44.92508" lon="5.09908">
        <ele>318.23818969727</ele>
        <time>2011-07-12T06:37:46Z</time>
      </trkpt>
      <trkpt lat="44.92492" lon="5.09917">
        <ele>318.31372070312</ele>
        <time>2011-07-12T06:37:50Z</time>
      </trkpt>
      <trkpt lat="44.92463" lon="5.09932">
        <ele>320.98355102539</ele>
        <time>2011-07-12T06:37:57Z</time>
      </trkpt>
      <trkpt lat="44.92435" lon="5.09946">
        <ele>326.00958251953</ele>
        <time>2011-07-12T06:38:04Z</time>
      </trkpt>
      <trkpt lat="44.92406" lon="5.09964">
        <ele>331.80499267578</ele>
        <time>2011-07-12T06:38:12Z</time>
      </trkpt>
      <trkpt lat="44.92371" lon="5.09983">
        <ele>334.39923095703</ele>
        <time>2011-07-12T06:38:21Z</time>
      </trkpt>
      <trkpt lat="44.9235" lon="5.09992">
        <ele>335.49285888672</ele>
        <time>2011-07-12T06:38:27Z</time>
      </trkpt>
      <trkpt lat="44.92337" lon="5.09988">
        <ele>336.23446655273</ele>
        <time>2011-07-12T06:38:31Z</time>
      </trkpt>
      <trkpt lat="44.92329" lon="5.09969">
        <ele>338.00354003906</ele>
        <time>2011-07-12T06:38:36Z</time>
      </trkpt>
      <trkpt lat="44.92332" lon="5.09943">
        <ele>342.26028442383</ele>
        <time>2011-07-12T06:38:41Z</time>
      </trkpt>
      <trkpt lat="44.92337" lon="5.09928">
        <ele>342.88735961914</ele>
        <time>2011-07-12T06:38:44Z</time>
      </trkpt>
      <trkpt lat="44.92357" lon="5.09891">
        <ele>344.2698059082</ele>
        <time>2011-07-12T06:38:52Z</time>
      </trkpt>
      <trkpt lat="44.92376" lon="5.0986">
        <ele>345.06015014648</ele>
        <time>2011-07-12T06:38:59Z</time>
      </trkpt>
      <trkpt lat="44.92386" lon="5.09834">
        <ele>346.97521972656</ele>
        <time>2011-07-12T06:39:04Z</time>
      </trkpt>
      <trkpt lat="44.92395" lon="5.09813">
        <ele>347.5202331543</ele>
        <time>2011-07-12T06:39:08Z</time>
      </trkpt>
      <trkpt lat="44.92417" lon="5.09784">
        <ele>346.56329345703</ele>
        <time>2011-07-12T06:39:15Z</time>
      </trkpt>
      <trkpt lat="44.92418" lon="5.09765">
        <ele>348.04620361328</ele>
        <time>2011-07-12T06:39:19Z</time>
      </trkpt>
      <trkpt lat="44.92409" lon="5.09769">
        <ele>348.76040649414</ele>
        <time>2011-07-12T06:39:22Z</time>
      </trkpt>
      <trkpt lat="44.92406" lon="5.09773">
        <ele>348.64709472656</ele>
        <time>2011-07-12T06:39:23Z</time>
      </trkpt>
      <trkpt lat="44.9239" lon="5.09794">
        <ele>349.21212768555</ele>
        <time>2011-07-12T06:39:29Z</time>
      </trkpt>
      <trkpt lat="44.92374" lon="5.09813">
        <ele>349.32946777344</ele>
        <time>2011-07-12T06:39:35Z</time>
      </trkpt>
      <trkpt lat="44.92365" lon="5.09827">
        <ele>348.52767944336</ele>
        <time>2011-07-12T06:39:40Z</time>
      </trkpt>
      <trkpt lat="44.92352" lon="5.09844">
        <ele>348.6051940918</ele>
        <time>2011-07-12T06:39:46Z</time>
      </trkpt>
      <trkpt lat="44.92339" lon="5.09857">
        <ele>348.9033203125</ele>
        <time>2011-07-12T06:39:51Z</time>
      </trkpt>
      <trkpt lat="44.92325" lon="5.09876">
        <ele>350.98422241211</ele>
        <time>2011-07-12T06:39:57Z</time>
      </trkpt>
      <trkpt lat="44.9231" lon="5.09896">
        <ele>353.27575683594</ele>
        <time>2011-07-12T06:40:03Z</time>
      </trkpt>
      <trkpt lat="44.92292" lon="5.09911">
        <ele>353.55419921875</ele>
        <time>2011-07-12T06:40:09Z</time>
      </trkpt>
      <trkpt lat="44.92274" lon="5.09917">
        <ele>355.26095581055</ele>
        <time>2011-07-12T06:40:14Z</time>
      </trkpt>
      <trkpt lat="44.92252" lon="5.09914">
        <ele>358.11532592773</ele>
        <time>2011-07-12T06:40:20Z</time>
      </trkpt>
      <trkpt lat="44.92235" lon="5.09906">
        <ele>361.51754760742</ele>
        <time>2011-07-12T06:40:25Z</time>
      </trkpt>
      <trkpt lat="44.92212" lon="5.09896">
        <ele>365.80361938477</ele>
        <time>2011-07-12T06:40:32Z</time>
      </trkpt>
      <trkpt lat="44.92193" lon="5.09899">
        <ele>367.97222900391</ele>
        <time>2011-07-12T06:40:37Z</time>
      </trkpt>
      <trkpt lat="44.92179" lon="5.09911">
        <ele>367.29241943359</ele>
        <time>2011-07-12T06:40:42Z</time>
      </trkpt>
      <trkpt lat="44.92166" lon="5.09924">
        <ele>367.02267456055</ele>
        <time>2011-07-12T06:40:47Z</time>
      </trkpt>
      <trkpt lat="44.92144" lon="5.0994">
        <ele>367.97024536133</ele>
        <time>2011-07-12T06:40:54Z</time>
      </trkpt>
      <trkpt lat="44.92119" lon="5.09946">
        <ele>369.82583618164</ele>
        <time>2011-07-12T06:41:01Z</time>
      </trkpt>
      <trkpt lat="44.92094" lon="5.09949">
        <ele>371.33746337891</ele>
        <time>2011-07-12T06:41:08Z</time>
      </trkpt>
      <trkpt lat="44.92068" lon="5.09962">
        <ele>372.17892456055</ele>
        <time>2011-07-12T06:41:16Z</time>
      </trkpt>
      <trkpt lat="44.92046" lon="5.09978">
        <ele>373.53482055664</ele>
        <time>2011-07-12T06:41:24Z</time>
      </trkpt>
      <trkpt lat="44.9202" lon="5.09988">
        <ele>376.00091552734</ele>
        <time>2011-07-12T06:41:32Z</time>
      </trkpt>
      <trkpt lat="44.91999" lon="5.09993">
        <ele>379</ele>
        <time>2011-07-12T06:41:38Z</time>
      </trkpt>
      <trkpt lat="44.91975" lon="5.09997">
        <ele>379</ele>
        <time>2011-07-12T06:41:45Z</time>
      </trkpt>
      <trkpt lat="44.91945" lon="5.10003">
        <ele>379</ele>
        <time>2011-07-12T06:41:51Z</time>
      </trkpt>
      <trkpt lat="44.91911" lon="5.1001">
        <ele>377.90966796875</ele>
        <time>2011-07-12T06:41:56Z</time>
      </trkpt>
      <trkpt lat="44.91861" lon="5.1002">
        <ele>374.72406005859</ele>
        <time>2011-07-12T06:42:02Z</time>
      </trkpt>
      <trkpt lat="44.91813" lon="5.1003">
        <ele>373.55603027344</ele>
        <time>2011-07-12T06:42:07Z</time>
      </trkpt>
      <trkpt lat="44.91804" lon="5.10032">
        <ele>372.86938476562</ele>
        <time>2011-07-12T06:42:08Z</time>
      </trkpt>
      <trkpt lat="44.91758" lon="5.10044">
        <ele>370.6960144043</ele>
        <time>2011-07-12T06:42:13Z</time>
      </trkpt>
      <trkpt lat="44.9175" lon="5.10047">
        <ele>370.71292114258</ele>
        <time>2011-07-12T06:42:14Z</time>
      </trkpt>
      <trkpt lat="44.91722" lon="5.10082">
        <ele>369.93728637695</ele>
        <time>2011-07-12T06:42:19Z</time>
      </trkpt>
      <trkpt lat="44.91718" lon="5.10101">
        <ele>369.78607177734</ele>
        <time>2011-07-12T06:42:21Z</time>
      </trkpt>
      <trkpt lat="44.9171" lon="5.10154">
        <ele>370.57012939453</ele>
        <time>2011-07-12T06:42:27Z</time>
      </trkpt>
      <trkpt lat="44.91699" lon="5.10184">
        <ele>370.81311035156</ele>
        <time>2011-07-12T06:42:31Z</time>
      </trkpt>
      <trkpt lat="44.91675" lon="5.10227">
        <ele>371.05078125</ele>
        <time>2011-07-12T06:42:37Z</time>
      </trkpt>
      <trkpt lat="44.91666" lon="5.10261">
        <ele>371.39755249023</ele>
        <time>2011-07-12T06:42:41Z</time>
      </trkpt>
      <trkpt lat="44.91672" lon="5.10298">
        <ele>372.19683837891</ele>
        <time>2011-07-12T06:42:45Z</time>
      </trkpt>
      <trkpt lat="44.91676" lon="5.10345">
        <ele>373.62368774414</ele>
        <time>2011-07-12T06:42:50Z</time>
      </trkpt>
      <trkpt lat="44.91669" lon="5.10363">
        <ele>374.00756835938</ele>
        <time>2011-07-12T06:42:52Z</time>
      </trkpt>
      <trkpt lat="44.91647" lon="5.10403">
        <ele>373.81268310547</ele>
        <time>2011-07-12T06:42:57Z</time>
      </trkpt>
      <trkpt lat="44.91626" lon="5.10422">
        <ele>373.7268371582</ele>
        <time>2011-07-12T06:43:01Z</time>
      </trkpt>
      <trkpt lat="44.91608" lon="5.10418">
        <ele>372.9543762207</ele>
        <time>2011-07-12T06:43:04Z</time>
      </trkpt>
      <trkpt lat="44.91602" lon="5.10415">
        <ele>372.63989257812</ele>
        <time>2011-07-12T06:43:05Z</time>
      </trkpt>
      <trkpt lat="44.91557" lon="5.10385">
        <ele>370.88507080078</ele>
        <time>2011-07-12T06:43:13Z</time>
      </trkpt>
      <trkpt lat="44.91523" lon="5.1037">
        <ele>371.30511474609</ele>
        <time>2011-07-12T06:43:19Z</time>
      </trkpt>
      <trkpt lat="44.91495" lon="5.10366">
        <ele>371.13272094727</ele>
        <time>2011-07-12T06:43:25Z</time>
      </trkpt>
      <trkpt lat="44.91465" lon="5.10367">
        <ele>373.34118652344</ele>
        <time>2011-07-12T06:43:32Z</time>
      </trkpt>
      <trkpt lat="44.91428" lon="5.10373">
        <ele>380.59222412109</ele>
        <time>2011-07-12T06:43:41Z</time>
      </trkpt>
      <trkpt lat="44.91404" lon="5.10375">
        <ele>381.66586303711</ele>
        <time>2011-07-12T06:43:47Z</time>
      </trkpt>
      <trkpt lat="44.91396" lon="5.10377">
        <ele>382.19989013672</ele>
        <time>2011-07-12T06:43:51Z</time>
      </trkpt>
      <trkpt lat="44.91386" lon="5.10377">
        <ele>382.72866821289</ele>
        <time>2011-07-12T06:43:56Z</time>
      </trkpt>
      <trkpt lat="44.9137" lon="5.10379">
        <ele>383.56314086914</ele>
        <time>2011-07-12T06:44:00Z</time>
      </trkpt>
      <trkpt lat="44.91354" lon="5.10391">
        <ele>384.31512451172</ele>
        <time>2011-07-12T06:44:04Z</time>
      </trkpt>
      <trkpt lat="44.91343" lon="5.10424">
        <ele>385.88754272461</ele>
        <time>2011-07-12T06:44:10Z</time>
      </trkpt>
      <trkpt lat="44.91341" lon="5.10436">
        <ele>386.40423583984</ele>
        <time>2011-07-12T06:44:12Z</time>
      </trkpt>
      <trkpt lat="44.91338" lon="5.10453">
        <ele>386.84692382812</ele>
        <time>2011-07-12T06:44:15Z</time>
      </trkpt>
      <trkpt lat="44.91331" lon="5.1048">
        <ele>386.92764282227</ele>
        <time>2011-07-12T06:44:20Z</time>
      </trkpt>
      <trkpt lat="44.91325" lon="5.10519">
        <ele>386.18957519531</ele>
        <time>2011-07-12T06:44:27Z</time>
      </trkpt>
      <trkpt lat="44.91321" lon="5.10538">
        <ele>386.31231689453</ele>
        <time>2011-07-12T06:44:31Z</time>
      </trkpt>
      <trkpt lat="44.91309" lon="5.10535">
        <ele>387.58947753906</ele>
        <time>2011-07-12T06:44:35Z</time>
      </trkpt>
      <trkpt lat="44.91297" lon="5.10512">
        <ele>388.99371337891</ele>
        <time>2011-07-12T06:44:40Z</time>
      </trkpt>
      <trkpt lat="44.91295" lon="5.10488">
        <ele>389.37127685547</ele>
        <time>2011-07-12T06:44:44Z</time>
      </trkpt>
      <trkpt lat="44.9129" lon="5.10448">
        <ele>390.04858398438</ele>
        <time>2011-07-12T06:44:49Z</time>
      </trkpt>
      <trkpt lat="44.91273" lon="5.10408">
        <ele>389.54864501953</ele>
        <time>2011-07-12T06:44:54Z</time>
      </trkpt>
      <trkpt lat="44.91264" lon="5.10392">
        <ele>388.72125244141</ele>
        <time>2011-07-12T06:44:56Z</time>
      </trkpt>
      <trkpt lat="44.91223" lon="5.10321">
        <ele>388.07470703125</ele>
        <time>2011-07-12T06:45:05Z</time>
      </trkpt>
      <trkpt lat="44.91213" lon="5.10305">
        <ele>387.61996459961</ele>
        <time>2011-07-12T06:45:07Z</time>
      </trkpt>
      <trkpt lat="44.91186" lon="5.10243">
        <ele>385.77331542969</ele>
        <time>2011-07-12T06:45:14Z</time>
      </trkpt>
      <trkpt lat="44.91158" lon="5.10178">
        <ele>383.42520141602</ele>
        <time>2011-07-12T06:45:21Z</time>
      </trkpt>
      <trkpt lat="44.91132" lon="5.10121">
        <ele>382.27258300781</ele>
        <time>2011-07-12T06:45:27Z</time>
      </trkpt>
      <trkpt lat="44.91105" lon="5.10084">
        <ele>381.52410888672</ele>
        <time>2011-07-12T06:45:32Z</time>
      </trkpt>
      <trkpt lat="44.91074" lon="5.10053">
        <ele>382.55508422852</ele>
        <time>2011-07-12T06:45:37Z</time>
      </trkpt>
      <trkpt lat="44.91055" lon="5.10019">
        <ele>381.77178955078</ele>
        <time>2011-07-12T06:45:41Z</time>
      </trkpt>
      <trkpt lat="44.91046" lon="5.09978">
        <ele>380.626953125</ele>
        <time>2011-07-12T06:45:45Z</time>
      </trkpt>
      <trkpt lat="44.91027" lon="5.09933">
        <ele>378.60516357422</ele>
        <time>2011-07-12T06:45:50Z</time>
      </trkpt>
      <trkpt lat="44.90968" lon="5.09857">
        <ele>375.82284545898</ele>
        <time>2011-07-12T06:46:01Z</time>
      </trkpt>
      <trkpt lat="44.90939" lon="5.09831">
        <ele>375.01605224609</ele>
        <time>2011-07-12T06:46:06Z</time>
      </trkpt>
      <trkpt lat="44.9091" lon="5.09812">
        <ele>374.68988037109</ele>
        <time>2011-07-12T06:46:11Z</time>
      </trkpt>
      <trkpt lat="44.90874" lon="5.0978">
        <ele>374.09121704102</ele>
        <time>2011-07-12T06:46:17Z</time>
      </trkpt>
      <trkpt lat="44.9083" lon="5.09757">
        <ele>373.77502441406</ele>
        <time>2011-07-12T06:46:23Z</time>
      </trkpt>
      <trkpt lat="44.90782" lon="5.09742">
        <ele>375.5719909668</ele>
        <time>2011-07-12T06:46:29Z</time>
      </trkpt>
      <trkpt lat="44.90736" lon="5.09741">
        <ele>376.70306396484</ele>
        <time>2011-07-12T06:46:35Z</time>
      </trkpt>
      <trkpt lat="44.90695" lon="5.09743">
        <ele>378.7099609375</ele>
        <time>2011-07-12T06:46:41Z</time>
      </trkpt>
      <trkpt lat="44.9066" lon="5.09745">
        <ele>380.27026367188</ele>
        <time>2011-07-12T06:46:47Z</time>
      </trkpt>
      <trkpt lat="44.90643" lon="5.09749">
        <ele>381.58267211914</ele>
        <time>2011-07-12T06:46:50Z</time>
      </trkpt>
      <trkpt lat="44.90633" lon="5.09753">
        <ele>382.39245605469</ele>
        <time>2011-07-12T06:46:52Z</time>
      </trkpt>
      <trkpt lat="44.90605" lon="5.09764">
        <ele>384.24298095703</ele>
        <time>2011-07-12T06:46:58Z</time>
      </trkpt>
      <trkpt lat="44.9059" lon="5.09767">
        <ele>384.99487304688</ele>
        <time>2011-07-12T06:47:01Z</time>
      </trkpt>
      <trkpt lat="44.90575" lon="5.09768">
        <ele>385.56475830078</ele>
        <time>2011-07-12T06:47:04Z</time>
      </trkpt>
      <trkpt lat="44.90538" lon="5.09758">
        <ele>386.22738647461</ele>
        <time>2011-07-12T06:47:11Z</time>
      </trkpt>
      <trkpt lat="44.90506" lon="5.09747">
        <ele>386.60293579102</ele>
        <time>2011-07-12T06:47:17Z</time>
      </trkpt>
      <trkpt lat="44.90471" lon="5.09735">
        <ele>385.94833374023</ele>
        <time>2011-07-12T06:47:23Z</time>
      </trkpt>
      <trkpt lat="44.90433" lon="5.09724">
        <ele>385.07986450195</ele>
        <time>2011-07-12T06:47:29Z</time>
      </trkpt>
      <trkpt lat="44.90388" lon="5.0971">
        <ele>383.60601806641</ele>
        <time>2011-07-12T06:47:36Z</time>
      </trkpt>
      <trkpt lat="44.90353" lon="5.097">
        <ele>379.85147094727</ele>
        <time>2011-07-12T06:47:41Z</time>
      </trkpt>
      <trkpt lat="44.90318" lon="5.0969">
        <ele>377.70736694336</ele>
        <time>2011-07-12T06:47:46Z</time>
      </trkpt>
      <trkpt lat="44.90274" lon="5.09681">
        <ele>375.99670410156</ele>
        <time>2011-07-12T06:47:52Z</time>
      </trkpt>
      <trkpt lat="44.90233" lon="5.09668">
        <ele>375.04580688477</ele>
        <time>2011-07-12T06:47:58Z</time>
      </trkpt>
      <trkpt lat="44.90186" lon="5.09653">
        <ele>375.15463256836</ele>
        <time>2011-07-12T06:48:05Z</time>
      </trkpt>
      <trkpt lat="44.90148" lon="5.09643">
        <ele>377.04647827148</ele>
        <time>2011-07-12T06:48:11Z</time>
      </trkpt>
      <trkpt lat="44.90115" lon="5.09633">
        <ele>379.48980712891</ele>
        <time>2011-07-12T06:48:17Z</time>
      </trkpt>
      <trkpt lat="44.90105" lon="5.09632">
        <ele>380.34829711914</ele>
        <time>2011-07-12T06:48:19Z</time>
      </trkpt>
      <trkpt lat="44.90082" lon="5.09625">
        <ele>382.29931640625</ele>
        <time>2011-07-12T06:48:24Z</time>
      </trkpt>
      <trkpt lat="44.90069" lon="5.09621">
        <ele>384.22192382812</ele>
        <time>2011-07-12T06:48:27Z</time>
      </trkpt>
      <trkpt lat="44.90053" lon="5.09616">
        <ele>386.72152709961</ele>
        <time>2011-07-12T06:48:31Z</time>
      </trkpt>
      <trkpt lat="44.90036" lon="5.09623">
        <ele>389.60198974609</ele>
        <time>2011-07-12T06:48:35Z</time>
      </trkpt>
      <trkpt lat="44.90014" lon="5.0962">
        <ele>391.66763305664</ele>
        <time>2011-07-12T06:48:40Z</time>
      </trkpt>
      <trkpt lat="44.90001" lon="5.09611">
        <ele>391.89080810547</ele>
        <time>2011-07-12T06:48:43Z</time>
      </trkpt>
      <trkpt lat="44.89991" lon="5.09604">
        <ele>391.7692565918</ele>
        <time>2011-07-12T06:48:45Z</time>
      </trkpt>
      <trkpt lat="44.89973" lon="5.0959">
        <ele>391.42248535156</ele>
        <time>2011-07-12T06:48:48Z</time>
      </trkpt>
      <trkpt lat="44.89959" lon="5.0958">
        <ele>391.24395751953</ele>
        <time>2011-07-12T06:48:50Z</time>
      </trkpt>
      <trkpt lat="44.89945" lon="5.09561">
        <ele>390.37878417969</ele>
        <time>2011-07-12T06:48:53Z</time>
      </trkpt>
      <trkpt lat="44.89947" lon="5.09541">
        <ele>388.43225097656</ele>
        <time>2011-07-12T06:48:55Z</time>
      </trkpt>
      <trkpt lat="44.89958" lon="5.09513">
        <ele>386.47473144531</ele>
        <time>2011-07-12T06:48:58Z</time>
      </trkpt>
      <trkpt lat="44.89965" lon="5.09494">
        <ele>385.47891235352</ele>
        <time>2011-07-12T06:49:00Z</time>
      </trkpt>
      <trkpt lat="44.89967" lon="5.09471">
        <ele>383.75820922852</ele>
        <time>2011-07-12T06:49:02Z</time>
      </trkpt>
      <trkpt lat="44.89963" lon="5.09381">
        <ele>378.47930908203</ele>
        <time>2011-07-12T06:49:09Z</time>
      </trkpt>
      <trkpt lat="44.89959" lon="5.09338">
        <ele>377.17822265625</ele>
        <time>2011-07-12T06:49:12Z</time>
      </trkpt>
      <trkpt lat="44.89961" lon="5.09274">
        <ele>374.85391235352</ele>
        <time>2011-07-12T06:49:17Z</time>
      </trkpt>
      <trkpt lat="44.89954" lon="5.09204">
        <ele>372.36138916016</ele>
        <time>2011-07-12T06:49:22Z</time>
      </trkpt>
      <trkpt lat="44.89951" lon="5.09119">
        <ele>369.48654174805</ele>
        <time>2011-07-12T06:49:28Z</time>
      </trkpt>
      <trkpt lat="44.89951" lon="5.09075">
        <ele>367.93817138672</ele>
        <time>2011-07-12T06:49:31Z</time>
      </trkpt>
      <trkpt lat="44.89952" lon="5.08999">
        <ele>365.95248413086</ele>
        <time>2011-07-12T06:49:36Z</time>
      </trkpt>
      <trkpt lat="44.89952" lon="5.08936">
        <ele>363.69683837891</ele>
        <time>2011-07-12T06:49:40Z</time>
      </trkpt>
      <trkpt lat="44.89954" lon="5.0889">
        <ele>362.03689575195</ele>
        <time>2011-07-12T06:49:43Z</time>
      </trkpt>
      <trkpt lat="44.89953" lon="5.08874">
        <ele>361.47900390625</ele>
        <time>2011-07-12T06:49:44Z</time>
      </trkpt>
      <trkpt lat="44.89942" lon="5.08775">
        <ele>356.82824707031</ele>
        <time>2011-07-12T06:49:50Z</time>
      </trkpt>
      <trkpt lat="44.89938" lon="5.08704">
        <ele>353.49584960938</ele>
        <time>2011-07-12T06:49:54Z</time>
      </trkpt>
      <trkpt lat="44.89938" lon="5.08648">
        <ele>350.47210693359</ele>
        <time>2011-07-12T06:49:57Z</time>
      </trkpt>
      <trkpt lat="44.89927" lon="5.08595">
        <ele>347.79013061523</ele>
        <time>2011-07-12T06:50:00Z</time>
      </trkpt>
      <trkpt lat="44.89907" lon="5.0857">
        <ele>345.32897949219</ele>
        <time>2011-07-12T06:50:02Z</time>
      </trkpt>
      <trkpt lat="44.89852" lon="5.08525">
        <ele>340.49075317383</ele>
        <time>2011-07-12T06:50:07Z</time>
      </trkpt>
      <trkpt lat="44.89816" lon="5.08496">
        <ele>340.13491821289</ele>
        <time>2011-07-12T06:50:11Z</time>
      </trkpt>
      <trkpt lat="44.89783" lon="5.08466">
        <ele>344.72695922852</ele>
        <time>2011-07-12T06:50:16Z</time>
      </trkpt>
      <trkpt lat="44.89731" lon="5.08414">
        <ele>344.97109985352</ele>
        <time>2011-07-12T06:50:24Z</time>
      </trkpt>
      <trkpt lat="44.89695" lon="5.08382">
        <ele>346.70974731445</ele>
        <time>2011-07-12T06:50:29Z</time>
      </trkpt>
      <trkpt lat="44.89648" lon="5.08336">
        <ele>346.08123779297</ele>
        <time>2011-07-12T06:50:36Z</time>
      </trkpt>
      <trkpt lat="44.89622" lon="5.08317">
        <ele>344.79766845703</ele>
        <time>2011-07-12T06:50:40Z</time>
      </trkpt>
      <trkpt lat="44.89616" lon="5.08313">
        <ele>344.41314697266</ele>
        <time>2011-07-12T06:50:41Z</time>
      </trkpt>
      <trkpt lat="44.8959" lon="5.08295">
        <ele>342.01354980469</ele>
        <time>2011-07-12T06:50:45Z</time>
      </trkpt>
      <trkpt lat="44.8955" lon="5.08257">
        <ele>340.24197387695</ele>
        <time>2011-07-12T06:50:52Z</time>
      </trkpt>
      <trkpt lat="44.89507" lon="5.08225">
        <ele>339.63201904297</ele>
        <time>2011-07-12T06:50:59Z</time>
      </trkpt>
      <trkpt lat="44.89469" lon="5.08191">
        <ele>339.59338378906</ele>
        <time>2011-07-12T06:51:05Z</time>
      </trkpt>
      <trkpt lat="44.89446" lon="5.08163">
        <ele>336.64767456055</ele>
        <time>2011-07-12T06:51:09Z</time>
      </trkpt>
      <trkpt lat="44.89405" lon="5.08128">
        <ele>335.23828125</ele>
        <time>2011-07-12T06:51:15Z</time>
      </trkpt>
      <trkpt lat="44.89351" lon="5.08101">
        <ele>334.29504394531</ele>
        <time>2011-07-12T06:51:21Z</time>
      </trkpt>
      <trkpt lat="44.89331" lon="5.08096">
        <ele>333.90368652344</ele>
        <time>2011-07-12T06:51:23Z</time>
      </trkpt>
      <trkpt lat="44.89294" lon="5.08084">
        <ele>333.05993652344</ele>
        <time>2011-07-12T06:51:27Z</time>
      </trkpt>
      <trkpt lat="44.89254" lon="5.08054">
        <ele>331.08959960938</ele>
        <time>2011-07-12T06:51:32Z</time>
      </trkpt>
      <trkpt lat="44.8922" lon="5.08034">
        <ele>330.57028198242</ele>
        <time>2011-07-12T06:51:36Z</time>
      </trkpt>
      <trkpt lat="44.89193" lon="5.08024">
        <ele>330.97857666016</ele>
        <time>2011-07-12T06:51:39Z</time>
      </trkpt>
      <trkpt lat="44.89135" lon="5.07996">
        <ele>333.98254394531</ele>
        <time>2011-07-12T06:51:46Z</time>
      </trkpt>
      <trkpt lat="44.89083" lon="5.07964">
        <ele>333.70025634766</ele>
        <time>2011-07-12T06:51:53Z</time>
      </trkpt>
      <trkpt lat="44.89036" lon="5.07929">
        <ele>331.74612426758</ele>
        <time>2011-07-12T06:52:00Z</time>
      </trkpt>
      <trkpt lat="44.88989" lon="5.07891">
        <ele>329.07211303711</ele>
        <time>2011-07-12T06:52:07Z</time>
      </trkpt>
      <trkpt lat="44.8894" lon="5.07863">
        <ele>327.10049438477</ele>
        <time>2011-07-12T06:52:14Z</time>
      </trkpt>
      <trkpt lat="44.88885" lon="5.07837">
        <ele>326.34158325195</ele>
        <time>2011-07-12T06:52:22Z</time>
      </trkpt>
      <trkpt lat="44.88829" lon="5.0781">
        <ele>325.49661254883</ele>
        <time>2011-07-12T06:52:31Z</time>
      </trkpt>
      <trkpt lat="44.88789" lon="5.07796">
        <ele>326.14654541016</ele>
        <time>2011-07-12T06:52:38Z</time>
      </trkpt>
      <trkpt lat="44.88745" lon="5.07787">
        <ele>327.19067382812</ele>
        <time>2011-07-12T06:52:46Z</time>
      </trkpt>
      <trkpt lat="44.88707" lon="5.07772">
        <ele>329.6452331543</ele>
        <time>2011-07-12T06:52:54Z</time>
      </trkpt>
      <trkpt lat="44.88668" lon="5.07748">
        <ele>329.76504516602</ele>
        <time>2011-07-12T06:53:02Z</time>
      </trkpt>
      <trkpt lat="44.8863" lon="5.07732">
        <ele>330.04156494141</ele>
        <time>2011-07-12T06:53:09Z</time>
      </trkpt>
      <trkpt lat="44.88583" lon="5.07719">
        <ele>330.90286254883</ele>
        <time>2011-07-12T06:53:17Z</time>
      </trkpt>
      <trkpt lat="44.88539" lon="5.07706">
        <ele>333.32977294922</ele>
        <time>2011-07-12T06:53:25Z</time>
      </trkpt>
      <trkpt lat="44.88507" lon="5.07697">
        <ele>336.4150390625</ele>
        <time>2011-07-12T06:53:32Z</time>
      </trkpt>
      <trkpt lat="44.88488" lon="5.07692">
        <ele>337.83605957031</ele>
        <time>2011-07-12T06:53:36Z</time>
      </trkpt>
      <trkpt lat="44.88465" lon="5.07691">
        <ele>339</ele>
        <time>2011-07-12T06:53:41Z</time>
      </trkpt>
      <trkpt lat="44.88435" lon="5.07706">
        <ele>339</ele>
        <time>2011-07-12T06:53:48Z</time>
      </trkpt>
      <trkpt lat="44.88403" lon="5.07725">
        <ele>340.20880126953</ele>
        <time>2011-07-12T06:53:56Z</time>
      </trkpt>
      <trkpt lat="44.88395" lon="5.07728">
        <ele>341.88888549805</ele>
        <time>2011-07-12T06:53:58Z</time>
      </trkpt>
      <trkpt lat="44.88375" lon="5.07737">
        <ele>345.98324584961</ele>
        <time>2011-07-12T06:54:03Z</time>
      </trkpt>
      <trkpt lat="44.88359" lon="5.07743">
        <ele>349.41799926758</ele>
        <time>2011-07-12T06:54:07Z</time>
      </trkpt>
      <trkpt lat="44.88326" lon="5.07746">
        <ele>354.380859375</ele>
        <time>2011-07-12T06:54:15Z</time>
      </trkpt>
      <trkpt lat="44.8831" lon="5.07745">
        <ele>354.29147338867</ele>
        <time>2011-07-12T06:54:19Z</time>
      </trkpt>
      <trkpt lat="44.88274" lon="5.0774">
        <ele>352.67529296875</ele>
        <time>2011-07-12T06:54:27Z</time>
      </trkpt>
      <trkpt lat="44.88238" lon="5.07732">
        <ele>351.31518554688</ele>
        <time>2011-07-12T06:54:34Z</time>
      </trkpt>
      <trkpt lat="44.88216" lon="5.07726">
        <ele>349.67224121094</ele>
        <time>2011-07-12T06:54:38Z</time>
      </trkpt>
      <trkpt lat="44.88173" lon="5.07722">
        <ele>347.76666259766</ele>
        <time>2011-07-12T06:54:45Z</time>
      </trkpt>
      <trkpt lat="44.88129" lon="5.07717">
        <ele>352.68139648438</ele>
        <time>2011-07-12T06:54:52Z</time>
      </trkpt>
      <trkpt lat="44.88095" lon="5.07701">
        <ele>355.77117919922</ele>
        <time>2011-07-12T06:54:58Z</time>
      </trkpt>
      <trkpt lat="44.88058" lon="5.07684">
        <ele>358.23178100586</ele>
        <time>2011-07-12T06:55:05Z</time>
      </trkpt>
      <trkpt lat="44.88026" lon="5.07653">
        <ele>359</ele>
        <time>2011-07-12T06:55:12Z</time>
      </trkpt>
      <trkpt lat="44.88012" lon="5.07638">
        <ele>359</ele>
        <time>2011-07-12T06:55:15Z</time>
      </trkpt>
      <trkpt lat="44.87992" lon="5.07628">
        <ele>359</ele>
        <time>2011-07-12T06:55:19Z</time>
      </trkpt>
      <trkpt lat="44.8795" lon="5.07623">
        <ele>359</ele>
        <time>2011-07-12T06:55:27Z</time>
      </trkpt>
      <trkpt lat="44.8792" lon="5.07622">
        <ele>359</ele>
        <time>2011-07-12T06:55:33Z</time>
      </trkpt>
      <trkpt lat="44.879" lon="5.07625">
        <ele>359</ele>
        <time>2011-07-12T06:55:37Z</time>
      </trkpt>
      <trkpt lat="44.87873" lon="5.07636">
        <ele>359</ele>
        <time>2011-07-12T06:55:42Z</time>
      </trkpt>
      <trkpt lat="44.87849" lon="5.07651">
        <ele>359</ele>
        <time>2011-07-12T06:55:46Z</time>
      </trkpt>
      <trkpt lat="44.87837" lon="5.07658">
        <ele>359</ele>
        <time>2011-07-12T06:55:48Z</time>
      </trkpt>
      <trkpt lat="44.87795" lon="5.07667">
        <ele>358.97708129883</ele>
        <time>2011-07-12T06:55:54Z</time>
      </trkpt>
      <trkpt lat="44.87757" lon="5.07669">
        <ele>358.90841674805</ele>
        <time>2011-07-12T06:56:00Z</time>
      </trkpt>
      <trkpt lat="44.87751" lon="5.07669">
        <ele>358.92044067383</ele>
        <time>2011-07-12T06:56:01Z</time>
      </trkpt>
      <trkpt lat="44.8774" lon="5.07671">
        <ele>358.82601928711</ele>
        <time>2011-07-12T06:56:03Z</time>
      </trkpt>
      <trkpt lat="44.87713" lon="5.07674">
        <ele>358.73162841797</ele>
        <time>2011-07-12T06:56:08Z</time>
      </trkpt>
      <trkpt lat="44.87671" lon="5.07663">
        <ele>359</ele>
        <time>2011-07-12T06:56:16Z</time>
      </trkpt>
      <trkpt lat="44.87661" lon="5.0766">
        <ele>359</ele>
        <time>2011-07-12T06:56:18Z</time>
      </trkpt>
      <trkpt lat="44.87651" lon="5.07657">
        <ele>359</ele>
        <time>2011-07-12T06:56:20Z</time>
      </trkpt>
      <trkpt lat="44.87617" lon="5.07646">
        <ele>359</ele>
        <time>2011-07-12T06:56:27Z</time>
      </trkpt>
      <trkpt lat="44.87608" lon="5.07644">
        <ele>359</ele>
        <time>2011-07-12T06:56:29Z</time>
      </trkpt>
      <trkpt lat="44.87585" lon="5.07645">
        <ele>359</ele>
        <time>2011-07-12T06:56:34Z</time>
      </trkpt>
      <trkpt lat="44.87551" lon="5.07668">
        <ele>359.50588989258</ele>
        <time>2011-07-12T06:56:42Z</time>
      </trkpt>
      <trkpt lat="44.87547" lon="5.07672">
        <ele>360.2204284668</ele>
        <time>2011-07-12T06:56:43Z</time>
      </trkpt>
      <trkpt lat="44.87513" lon="5.07707">
        <ele>367.2087097168</ele>
        <time>2011-07-12T06:56:51Z</time>
      </trkpt>
      <trkpt lat="44.87478" lon="5.07743">
        <ele>371.25653076172</ele>
        <time>2011-07-12T06:56:58Z</time>
      </trkpt>
      <trkpt lat="44.8744" lon="5.07783">
        <ele>375.16979980469</ele>
        <time>2011-07-12T06:57:05Z</time>
      </trkpt>
      <trkpt lat="44.87434" lon="5.07788">
        <ele>375.38952636719</ele>
        <time>2011-07-12T06:57:06Z</time>
      </trkpt>
      <trkpt lat="44.87391" lon="5.07818">
        <ele>378.32666015625</ele>
        <time>2011-07-12T06:57:13Z</time>
      </trkpt>
      <trkpt lat="44.87367" lon="5.07816">
        <ele>378.36157226562</ele>
        <time>2011-07-12T06:57:17Z</time>
      </trkpt>
      <trkpt lat="44.87352" lon="5.0782">
        <ele>378.50921630859</ele>
        <time>2011-07-12T06:57:20Z</time>
      </trkpt>
      <trkpt lat="44.87347" lon="5.07835">
        <ele>379</ele>
        <time>2011-07-12T06:57:23Z</time>
      </trkpt>
      <trkpt lat="44.87335" lon="5.07888">
        <ele>379</ele>
        <time>2011-07-12T06:57:33Z</time>
      </trkpt>
      <trkpt lat="44.87325" lon="5.07922">
        <ele>379</ele>
        <time>2011-07-12T06:57:39Z</time>
      </trkpt>
      <trkpt lat="44.87319" lon="5.07937">
        <ele>379</ele>
        <time>2011-07-12T06:57:42Z</time>
      </trkpt>
      <trkpt lat="44.87298" lon="5.07975">
        <ele>379</ele>
        <time>2011-07-12T06:57:50Z</time>
      </trkpt>
      <trkpt lat="44.87277" lon="5.08012">
        <ele>379</ele>
        <time>2011-07-12T06:57:58Z</time>
      </trkpt>
      <trkpt lat="44.87254" lon="5.08053">
        <ele>379</ele>
        <time>2011-07-12T06:58:07Z</time>
      </trkpt>
      <trkpt lat="44.87235" lon="5.0809">
        <ele>379.25787353516</ele>
        <time>2011-07-12T06:58:15Z</time>
      </trkpt>
      <trkpt lat="44.87226" lon="5.08126">
        <ele>380</ele>
        <time>2011-07-12T06:58:22Z</time>
      </trkpt>
      <trkpt lat="44.87222" lon="5.08168">
        <ele>380</ele>
        <time>2011-07-12T06:58:30Z</time>
      </trkpt>
      <trkpt lat="44.87221" lon="5.08204">
        <ele>380</ele>
        <time>2011-07-12T06:58:37Z</time>
      </trkpt>
      <trkpt lat="44.8722" lon="5.08234">
        <ele>380</ele>
        <time>2011-07-12T06:58:43Z</time>
      </trkpt>
      <trkpt lat="44.87218" lon="5.0826">
        <ele>380</ele>
        <time>2011-07-12T06:58:48Z</time>
      </trkpt>
      <trkpt lat="44.87214" lon="5.08286">
        <ele>380</ele>
        <time>2011-07-12T06:58:53Z</time>
      </trkpt>
      <trkpt lat="44.87197" lon="5.08327">
        <ele>381.44091796875</ele>
        <time>2011-07-12T06:59:02Z</time>
      </trkpt>
      <trkpt lat="44.87186" lon="5.08358">
        <ele>384.4423828125</ele>
        <time>2011-07-12T06:59:09Z</time>
      </trkpt>
      <trkpt lat="44.87173" lon="5.08402">
        <ele>388.25964355469</ele>
        <time>2011-07-12T06:59:18Z</time>
      </trkpt>
      <trkpt lat="44.87162" lon="5.08441">
        <ele>390.83679199219</ele>
        <time>2011-07-12T06:59:26Z</time>
      </trkpt>
      <trkpt lat="44.87153" lon="5.08479">
        <ele>393.61654663086</ele>
        <time>2011-07-12T06:59:34Z</time>
      </trkpt>
      <trkpt lat="44.87142" lon="5.08523">
        <ele>395.52587890625</ele>
        <time>2011-07-12T06:59:43Z</time>
      </trkpt>
      <trkpt lat="44.87128" lon="5.0857">
        <ele>396.71160888672</ele>
        <time>2011-07-12T06:59:53Z</time>
      </trkpt>
      <trkpt lat="44.87109" lon="5.08617">
        <ele>397.08996582031</ele>
        <time>2011-07-12T07:00:04Z</time>
      </trkpt>
      <trkpt lat="44.87087" lon="5.08662">
        <ele>397.97528076172</ele>
        <time>2011-07-12T07:00:15Z</time>
      </trkpt>
      <trkpt lat="44.87072" lon="5.08696">
        <ele>398.42205810547</ele>
        <time>2011-07-12T07:00:23Z</time>
      </trkpt>
      <trkpt lat="44.87054" lon="5.08729">
        <ele>399.14068603516</ele>
        <time>2011-07-12T07:00:31Z</time>
      </trkpt>
      <trkpt lat="44.87036" lon="5.08761">
        <ele>399.86734008789</ele>
        <time>2011-07-12T07:00:39Z</time>
      </trkpt>
      <trkpt lat="44.87019" lon="5.08786">
        <ele>399.8883972168</ele>
        <time>2011-07-12T07:00:46Z</time>
      </trkpt>
      <trkpt lat="44.86999" lon="5.08815">
        <ele>399.15591430664</ele>
        <time>2011-07-12T07:00:54Z</time>
      </trkpt>
      <trkpt lat="44.86975" lon="5.08846">
        <ele>400.53265380859</ele>
        <time>2011-07-12T07:01:03Z</time>
      </trkpt>
      <trkpt lat="44.86948" lon="5.0887">
        <ele>399.91168212891</ele>
        <time>2011-07-12T07:01:12Z</time>
      </trkpt>
      <trkpt lat="44.8693" lon="5.08885">
        <ele>402.00622558594</ele>
        <time>2011-07-12T07:01:18Z</time>
      </trkpt>
      <trkpt lat="44.86902" lon="5.08901">
        <ele>404.64358520508</ele>
        <time>2011-07-12T07:01:27Z</time>
      </trkpt>
      <trkpt lat="44.86873" lon="5.08906">
        <ele>409.43670654297</ele>
        <time>2011-07-12T07:01:36Z</time>
      </trkpt>
      <trkpt lat="44.86845" lon="5.08906">
        <ele>415.40667724609</ele>
        <time>2011-07-12T07:01:44Z</time>
      </trkpt>
      <trkpt lat="44.86816" lon="5.08903">
        <ele>421.28546142578</ele>
        <time>2011-07-12T07:01:52Z</time>
      </trkpt>
      <trkpt lat="44.86794" lon="5.08903">
        <ele>424.75717163086</ele>
        <time>2011-07-12T07:01:58Z</time>
      </trkpt>
      <trkpt lat="44.86769" lon="5.08905">
        <ele>428.29739379883</ele>
        <time>2011-07-12T07:02:05Z</time>
      </trkpt>
      <trkpt lat="44.86739" lon="5.08916">
        <ele>430.24578857422</ele>
        <time>2011-07-12T07:02:13Z</time>
      </trkpt>
      <trkpt lat="44.86708" lon="5.08923">
        <ele>431.18292236328</ele>
        <time>2011-07-12T07:02:21Z</time>
      </trkpt>
      <trkpt lat="44.86682" lon="5.08925">
        <ele>431.98983764648</ele>
        <time>2011-07-12T07:02:28Z</time>
      </trkpt>
      <trkpt lat="44.86653" lon="5.08938">
        <ele>431.27014160156</ele>
        <time>2011-07-12T07:02:36Z</time>
      </trkpt>
      <trkpt lat="44.86628" lon="5.08949">
        <ele>431.62841796875</ele>
        <time>2011-07-12T07:02:43Z</time>
      </trkpt>
      <trkpt lat="44.86596" lon="5.08955">
        <ele>434.59906005859</ele>
        <time>2011-07-12T07:02:52Z</time>
      </trkpt>
      <trkpt lat="44.86561" lon="5.08952">
        <ele>436.95352172852</ele>
        <time>2011-07-12T07:03:02Z</time>
      </trkpt>
      <trkpt lat="44.86536" lon="5.08943">
        <ele>440.0153503418</ele>
        <time>2011-07-12T07:03:09Z</time>
      </trkpt>
      <trkpt lat="44.86506" lon="5.08929">
        <ele>451.27041625977</ele>
        <time>2011-07-12T07:03:18Z</time>
      </trkpt>
      <trkpt lat="44.86472" lon="5.08909">
        <ele>458.97647094727</ele>
        <time>2011-07-12T07:03:29Z</time>
      </trkpt>
      <trkpt lat="44.86439" lon="5.0889">
        <ele>466.26995849609</ele>
        <time>2011-07-12T07:03:40Z</time>
      </trkpt>
      <trkpt lat="44.86413" lon="5.08879">
        <ele>472.26776123047</ele>
        <time>2011-07-12T07:03:48Z</time>
      </trkpt>
      <trkpt lat="44.86389" lon="5.08867">
        <ele>475.99108886719</ele>
        <time>2011-07-12T07:03:56Z</time>
      </trkpt>
      <trkpt lat="44.86367" lon="5.08856">
        <ele>479.49810791016</ele>
        <time>2011-07-12T07:04:03Z</time>
      </trkpt>
      <trkpt lat="44.86336" lon="5.08844">
        <ele>483.4841003418</ele>
        <time>2011-07-12T07:04:13Z</time>
      </trkpt>
      <trkpt lat="44.86309" lon="5.08834">
        <ele>486.80355834961</ele>
        <time>2011-07-12T07:04:21Z</time>
      </trkpt>
      <trkpt lat="44.86281" lon="5.08825">
        <ele>486.79611206055</ele>
        <time>2011-07-12T07:04:29Z</time>
      </trkpt>
      <trkpt lat="44.86257" lon="5.08816">
        <ele>487.98135375977</ele>
        <time>2011-07-12T07:04:36Z</time>
      </trkpt>
      <trkpt lat="44.86216" lon="5.08802">
        <ele>489.72998046875</ele>
        <time>2011-07-12T07:04:47Z</time>
      </trkpt>
      <trkpt lat="44.86188" lon="5.0879">
        <ele>492.20590209961</ele>
        <time>2011-07-12T07:04:55Z</time>
      </trkpt>
      <trkpt lat="44.86164" lon="5.0878">
        <ele>493.83642578125</ele>
        <time>2011-07-12T07:05:02Z</time>
      </trkpt>
      <trkpt lat="44.86137" lon="5.08769">
        <ele>493.80596923828</ele>
        <time>2011-07-12T07:05:10Z</time>
      </trkpt>
      <trkpt lat="44.86111" lon="5.08761">
        <ele>495.55477905273</ele>
        <time>2011-07-12T07:05:17Z</time>
      </trkpt>
      <trkpt lat="44.86089" lon="5.08754">
        <ele>496.19604492188</ele>
        <time>2011-07-12T07:05:23Z</time>
      </trkpt>
      <trkpt lat="44.86063" lon="5.08749">
        <ele>496.76254272461</ele>
        <time>2011-07-12T07:05:30Z</time>
      </trkpt>
      <trkpt lat="44.86029" lon="5.0874">
        <ele>496.89895629883</ele>
        <time>2011-07-12T07:05:39Z</time>
      </trkpt>
      <trkpt lat="44.86" lon="5.08735">
        <ele>498.69955444336</ele>
        <time>2011-07-12T07:05:47Z</time>
      </trkpt>
      <trkpt lat="44.85985" lon="5.08733">
        <ele>497.69772338867</ele>
        <time>2011-07-12T07:05:52Z</time>
      </trkpt>
      <trkpt lat="44.8596" lon="5.08733">
        <ele>495.97039794922</ele>
        <time>2011-07-12T07:06:00Z</time>
      </trkpt>
      <trkpt lat="44.85938" lon="5.08737">
        <ele>494.57550048828</ele>
        <time>2011-07-12T07:06:07Z</time>
      </trkpt>
      <trkpt lat="44.8591" lon="5.08734">
        <ele>494.55941772461</ele>
        <time>2011-07-12T07:06:15Z</time>
      </trkpt>
      <trkpt lat="44.85888" lon="5.08741">
        <ele>491.91586303711</ele>
        <time>2011-07-12T07:06:21Z</time>
      </trkpt>
      <trkpt lat="44.85869" lon="5.08758">
        <ele>491.63003540039</ele>
        <time>2011-07-12T07:06:27Z</time>
      </trkpt>
      <trkpt lat="44.85845" lon="5.0877">
        <ele>492.79641723633</ele>
        <time>2011-07-12T07:06:34Z</time>
      </trkpt>
      <trkpt lat="44.85812" lon="5.0878">
        <ele>496.14562988281</ele>
        <time>2011-07-12T07:06:43Z</time>
      </trkpt>
      <trkpt lat="44.85791" lon="5.08787">
        <ele>496.26098632812</ele>
        <time>2011-07-12T07:06:49Z</time>
      </trkpt>
      <trkpt lat="44.85773" lon="5.08783">
        <ele>499.12432861328</ele>
        <time>2011-07-12T07:06:54Z</time>
      </trkpt>
      <trkpt lat="44.85751" lon="5.08765">
        <ele>505.19766235352</ele>
        <time>2011-07-12T07:07:01Z</time>
      </trkpt>
      <trkpt lat="44.85726" lon="5.08746">
        <ele>510.9616394043</ele>
        <time>2011-07-12T07:07:09Z</time>
      </trkpt>
      <trkpt lat="44.85699" lon="5.08734">
        <ele>520.93450927734</ele>
        <time>2011-07-12T07:07:17Z</time>
      </trkpt>
      <trkpt lat="44.8567" lon="5.08726">
        <ele>521.98577880859</ele>
        <time>2011-07-12T07:07:25Z</time>
      </trkpt>
      <trkpt lat="44.85646" lon="5.08721">
        <ele>527.29241943359</ele>
        <time>2011-07-12T07:07:32Z</time>
      </trkpt>
      <trkpt lat="44.85631" lon="5.0873">
        <ele>525.29187011719</ele>
        <time>2011-07-12T07:07:37Z</time>
      </trkpt>
      <trkpt lat="44.8563" lon="5.08765">
        <ele>507.6872253418</ele>
        <time>2011-07-12T07:07:44Z</time>
      </trkpt>
      <trkpt lat="44.85625" lon="5.08788">
        <ele>500.02420043945</ele>
        <time>2011-07-12T07:07:49Z</time>
      </trkpt>
      <trkpt lat="44.85609" lon="5.08793">
        <ele>501.03387451172</ele>
        <time>2011-07-12T07:07:54Z</time>
      </trkpt>
      <trkpt lat="44.85587" lon="5.08797">
        <ele>504.64761352539</ele>
        <time>2011-07-12T07:08:01Z</time>
      </trkpt>
      <trkpt lat="44.85567" lon="5.08799">
        <ele>510.46017456055</ele>
        <time>2011-07-12T07:08:07Z</time>
      </trkpt>
      <trkpt lat="44.85543" lon="5.08797">
        <ele>517.49578857422</ele>
        <time>2011-07-12T07:08:14Z</time>
      </trkpt>
      <trkpt lat="44.85519" lon="5.08797">
        <ele>518.88592529297</ele>
        <time>2011-07-12T07:08:21Z</time>
      </trkpt>
      <trkpt lat="44.85505" lon="5.08811">
        <ele>510.96200561523</ele>
        <time>2011-07-12T07:08:26Z</time>
      </trkpt>
      <trkpt lat="44.85496" lon="5.08838">
        <ele>504.00991821289</ele>
        <time>2011-07-12T07:08:32Z</time>
      </trkpt>
      <trkpt lat="44.85491" lon="5.08869">
        <ele>500.24230957031</ele>
        <time>2011-07-12T07:08:38Z</time>
      </trkpt>
      <trkpt lat="44.85486" lon="5.08907">
        <ele>495.10220336914</ele>
        <time>2011-07-12T07:08:45Z</time>
      </trkpt>
      <trkpt lat="44.85473" lon="5.08934">
        <ele>495.70657348633</ele>
        <time>2011-07-12T07:08:51Z</time>
      </trkpt>
      <trkpt lat="44.85455" lon="5.08953">
        <ele>497.01794433594</ele>
        <time>2011-07-12T07:08:57Z</time>
      </trkpt>
      <trkpt lat="44.85434" lon="5.08959">
        <ele>508.3796081543</ele>
        <time>2011-07-12T07:09:03Z</time>
      </trkpt>
      <trkpt lat="44.85406" lon="5.08954">
        <ele>529.35858154297</ele>
        <time>2011-07-12T07:09:11Z</time>
      </trkpt>
      <trkpt lat="44.85382" lon="5.08949">
        <ele>541.20355224609</ele>
        <time>2011-07-12T07:09:18Z</time>
      </trkpt>
      <trkpt lat="44.85366" lon="5.0896">
        <ele>545.84893798828</ele>
        <time>2011-07-12T07:09:23Z</time>
      </trkpt>
      <trkpt lat="44.85344" lon="5.08989">
        <ele>543.64691162109</ele>
        <time>2011-07-12T07:09:31Z</time>
      </trkpt>
      <trkpt lat="44.8532" lon="5.09013">
        <ele>542.08410644531</ele>
        <time>2011-07-12T07:09:39Z</time>
      </trkpt>
      <trkpt lat="44.85298" lon="5.0904">
        <ele>541.04974365234</ele>
        <time>2011-07-12T07:09:47Z</time>
      </trkpt>
      <trkpt lat="44.85276" lon="5.0907">
        <ele>541.00549316406</ele>
        <time>2011-07-12T07:09:55Z</time>
      </trkpt>
      <trkpt lat="44.8526" lon="5.09091">
        <ele>540.64868164062</ele>
        <time>2011-07-12T07:10:01Z</time>
      </trkpt>
      <trkpt lat="44.85249" lon="5.09117">
        <ele>539.42364501953</ele>
        <time>2011-07-12T07:10:07Z</time>
      </trkpt>
      <trkpt lat="44.85242" lon="5.09154">
        <ele>534.76678466797</ele>
        <time>2011-07-12T07:10:15Z</time>
      </trkpt>
      <trkpt lat="44.85236" lon="5.09181">
        <ele>534.79998779297</ele>
        <time>2011-07-12T07:10:21Z</time>
      </trkpt>
      <trkpt lat="44.85228" lon="5.09178">
        <ele>537.32452392578</ele>
        <time>2011-07-12T07:10:25Z</time>
      </trkpt>
      <trkpt lat="44.85235" lon="5.0916">
        <ele>535.95349121094</ele>
        <time>2011-07-12T07:10:29Z</time>
      </trkpt>
      <trkpt lat="44.8524" lon="5.09116">
        <ele>542.73486328125</ele>
        <time>2011-07-12T07:10:37Z</time>
      </trkpt>
      <trkpt lat="44.85242" lon="5.09099">
        <ele>546.23022460938</ele>
        <time>2011-07-12T07:10:40Z</time>
      </trkpt>
      <trkpt lat="44.85249" lon="5.09078">
        <ele>549.17419433594</ele>
        <time>2011-07-12T07:10:44Z</time>
      </trkpt>
      <trkpt lat="44.85271" lon="5.09033">
        <ele>553.31762695312</ele>
        <time>2011-07-12T07:10:53Z</time>
      </trkpt>
      <trkpt lat="44.85292" lon="5.08989">
        <ele>561.03247070312</ele>
        <time>2011-07-12T07:11:02Z</time>
      </trkpt>
      <trkpt lat="44.8531" lon="5.08956">
        <ele>564.82604980469</ele>
        <time>2011-07-12T07:11:10Z</time>
      </trkpt>
      <trkpt lat="44.85326" lon="5.08925">
        <ele>570.53894042969</ele>
        <time>2011-07-12T07:11:18Z</time>
      </trkpt>
      <trkpt lat="44.85341" lon="5.08893">
        <ele>575.63464355469</ele>
        <time>2011-07-12T07:11:26Z</time>
      </trkpt>
      <trkpt lat="44.85358" lon="5.08873">
        <ele>578.21423339844</ele>
        <time>2011-07-12T07:11:33Z</time>
      </trkpt>
      <trkpt lat="44.85387" lon="5.08862">
        <ele>570.24395751953</ele>
        <time>2011-07-12T07:11:42Z</time>
      </trkpt>
      <trkpt lat="44.8541" lon="5.0885">
        <ele>567.20886230469</ele>
        <time>2011-07-12T07:11:49Z</time>
      </trkpt>
      <trkpt lat="44.8542" lon="5.08831">
        <ele>570.25433349609</ele>
        <time>2011-07-12T07:11:54Z</time>
      </trkpt>
      <trkpt lat="44.85424" lon="5.08803">
        <ele>576.53643798828</ele>
        <time>2011-07-12T07:12:00Z</time>
      </trkpt>
      <trkpt lat="44.85428" lon="5.08775">
        <ele>586.56555175781</ele>
        <time>2011-07-12T07:12:06Z</time>
      </trkpt>
      <trkpt lat="44.85436" lon="5.0875">
        <ele>590.36041259766</ele>
        <time>2011-07-12T07:12:12Z</time>
      </trkpt>
      <trkpt lat="44.85447" lon="5.08723">
        <ele>598.45709228516</ele>
        <time>2011-07-12T07:12:19Z</time>
      </trkpt>
      <trkpt lat="44.8546" lon="5.08702">
        <ele>600.30438232422</ele>
        <time>2011-07-12T07:12:25Z</time>
      </trkpt>
      <trkpt lat="44.85477" lon="5.0868">
        <ele>600.72674560547</ele>
        <time>2011-07-12T07:12:32Z</time>
      </trkpt>
      <trkpt lat="44.85497" lon="5.08662">
        <ele>598.37017822266</ele>
        <time>2011-07-12T07:12:39Z</time>
      </trkpt>
      <trkpt lat="44.8551" lon="5.0864">
        <ele>597.40484619141</ele>
        <time>2011-07-12T07:12:45Z</time>
      </trkpt>
      <trkpt lat="44.85518" lon="5.08614">
        <ele>599.57006835938</ele>
        <time>2011-07-12T07:12:51Z</time>
      </trkpt>
      <trkpt lat="44.85529" lon="5.08591">
        <ele>600.41900634766</ele>
        <time>2011-07-12T07:12:57Z</time>
      </trkpt>
      <trkpt lat="44.85546" lon="5.08573">
        <ele>601.16467285156</ele>
        <time>2011-07-12T07:13:03Z</time>
      </trkpt>
      <trkpt lat="44.85542" lon="5.08559">
        <ele>604.44384765625</ele>
        <time>2011-07-12T07:13:07Z</time>
      </trkpt>
      <trkpt lat="44.85532" lon="5.08567">
        <ele>604.70965576172</ele>
        <time>2011-07-12T07:13:10Z</time>
      </trkpt>
      <trkpt lat="44.85514" lon="5.08592">
        <ele>605.57086181641</ele>
        <time>2011-07-12T07:13:17Z</time>
      </trkpt>
      <trkpt lat="44.85498" lon="5.0862">
        <ele>604.56555175781</ele>
        <time>2011-07-12T07:13:24Z</time>
      </trkpt>
      <trkpt lat="44.85483" lon="5.08636">
        <ele>608.41418457031</ele>
        <time>2011-07-12T07:13:29Z</time>
      </trkpt>
      <trkpt lat="44.85456" lon="5.08649">
        <ele>614.38671875</ele>
        <time>2011-07-12T07:13:37Z</time>
      </trkpt>
      <trkpt lat="44.85432" lon="5.08665">
        <ele>616.56945800781</ele>
        <time>2011-07-12T07:13:45Z</time>
      </trkpt>
      <trkpt lat="44.85417" lon="5.08682">
        <ele>617.16967773438</ele>
        <time>2011-07-12T07:13:51Z</time>
      </trkpt>
      <trkpt lat="44.85398" lon="5.08709">
        <ele>616.50305175781</ele>
        <time>2011-07-12T07:13:59Z</time>
      </trkpt>
      <trkpt lat="44.85386" lon="5.08734">
        <ele>612.09588623047</ele>
        <time>2011-07-12T07:14:05Z</time>
      </trkpt>
      <trkpt lat="44.85367" lon="5.08763">
        <ele>610.17126464844</ele>
        <time>2011-07-12T07:14:12Z</time>
      </trkpt>
      <trkpt lat="44.85342" lon="5.08767">
        <ele>615.09136962891</ele>
        <time>2011-07-12T07:14:19Z</time>
      </trkpt>
      <trkpt lat="44.85323" lon="5.0877">
        <ele>617.23541259766</ele>
        <time>2011-07-12T07:14:25Z</time>
      </trkpt>
      <trkpt lat="44.85304" lon="5.08781">
        <ele>617.25640869141</ele>
        <time>2011-07-12T07:14:31Z</time>
      </trkpt>
      <trkpt lat="44.85281" lon="5.08799">
        <ele>614.916015625</ele>
        <time>2011-07-12T07:14:39Z</time>
      </trkpt>
      <trkpt lat="44.85263" lon="5.0882">
        <ele>611.97637939453</ele>
        <time>2011-07-12T07:14:46Z</time>
      </trkpt>
      <trkpt lat="44.85241" lon="5.08833">
        <ele>612.34246826172</ele>
        <time>2011-07-12T07:14:53Z</time>
      </trkpt>
      <trkpt lat="44.85216" lon="5.08837">
        <ele>614.04339599609</ele>
        <time>2011-07-12T07:15:00Z</time>
      </trkpt>
      <trkpt lat="44.8519" lon="5.08831">
        <ele>616.57568359375</ele>
        <time>2011-07-12T07:15:07Z</time>
      </trkpt>
      <trkpt lat="44.85179" lon="5.08826">
        <ele>618.06469726562</ele>
        <time>2011-07-12T07:15:10Z</time>
      </trkpt>
      <trkpt lat="44.85157" lon="5.08815">
        <ele>619.27368164062</ele>
        <time>2011-07-12T07:15:16Z</time>
      </trkpt>
      <trkpt lat="44.85134" lon="5.08803">
        <ele>619.31506347656</ele>
        <time>2011-07-12T07:15:22Z</time>
      </trkpt>
      <trkpt lat="44.85104" lon="5.08792">
        <ele>617.94299316406</ele>
        <time>2011-07-12T07:15:30Z</time>
      </trkpt>
      <trkpt lat="44.85075" lon="5.08783">
        <ele>618.95245361328</ele>
        <time>2011-07-12T07:15:38Z</time>
      </trkpt>
      <trkpt lat="44.85052" lon="5.08777">
        <ele>619.95648193359</ele>
        <time>2011-07-12T07:15:45Z</time>
      </trkpt>
      <trkpt lat="44.85029" lon="5.08781">
        <ele>622.99517822266</ele>
        <time>2011-07-12T07:15:52Z</time>
      </trkpt>
      <trkpt lat="44.85001" lon="5.08803">
        <ele>631.87823486328</ele>
        <time>2011-07-12T07:16:01Z</time>
      </trkpt>
      <trkpt lat="44.84974" lon="5.08826">
        <ele>633.97021484375</ele>
        <time>2011-07-12T07:16:10Z</time>
      </trkpt>
      <trkpt lat="44.84945" lon="5.08844">
        <ele>635.68511962891</ele>
        <time>2011-07-12T07:16:19Z</time>
      </trkpt>
      <trkpt lat="44.84923" lon="5.08855">
        <ele>637.01586914062</ele>
        <time>2011-07-12T07:16:26Z</time>
      </trkpt>
      <trkpt lat="44.849" lon="5.08872">
        <ele>637.34375</ele>
        <time>2011-07-12T07:16:34Z</time>
      </trkpt>
      <trkpt lat="44.84875" lon="5.08895">
        <ele>643.41619873047</ele>
        <time>2011-07-12T07:16:43Z</time>
      </trkpt>
      <trkpt lat="44.84852" lon="5.08918">
        <ele>644.40704345703</ele>
        <time>2011-07-12T07:16:51Z</time>
      </trkpt>
      <trkpt lat="44.84832" lon="5.08937">
        <ele>648.50897216797</ele>
        <time>2011-07-12T07:16:58Z</time>
      </trkpt>
      <trkpt lat="44.84803" lon="5.08959">
        <ele>650.54425048828</ele>
        <time>2011-07-12T07:17:07Z</time>
      </trkpt>
      <trkpt lat="44.84777" lon="5.08962">
        <ele>650.10754394531</ele>
        <time>2011-07-12T07:17:14Z</time>
      </trkpt>
      <trkpt lat="44.84758" lon="5.08953">
        <ele>646.5009765625</ele>
        <time>2011-07-12T07:17:20Z</time>
      </trkpt>
      <trkpt lat="44.84734" lon="5.08932">
        <ele>637.78051757812</ele>
        <time>2011-07-12T07:17:28Z</time>
      </trkpt>
      <trkpt lat="44.84708" lon="5.08917">
        <ele>634.82269287109</ele>
        <time>2011-07-12T07:17:36Z</time>
      </trkpt>
      <trkpt lat="44.84681" lon="5.08911">
        <ele>637.75500488281</ele>
        <time>2011-07-12T07:17:44Z</time>
      </trkpt>
      <trkpt lat="44.84661" lon="5.08905">
        <ele>636.58380126953</ele>
        <time>2011-07-12T07:17:50Z</time>
      </trkpt>
      <trkpt lat="44.84633" lon="5.08889">
        <ele>634.11437988281</ele>
        <time>2011-07-12T07:17:58Z</time>
      </trkpt>
      <trkpt lat="44.84603" lon="5.08865">
        <ele>627.91644287109</ele>
        <time>2011-07-12T07:18:07Z</time>
      </trkpt>
      <trkpt lat="44.84576" lon="5.08848">
        <ele>629.06109619141</ele>
        <time>2011-07-12T07:18:15Z</time>
      </trkpt>
      <trkpt lat="44.84548" lon="5.08843">
        <ele>633.88623046875</ele>
        <time>2011-07-12T07:18:23Z</time>
      </trkpt>
      <trkpt lat="44.84513" lon="5.08844">
        <ele>638.65155029297</ele>
        <time>2011-07-12T07:18:33Z</time>
      </trkpt>
      <trkpt lat="44.84483" lon="5.08848">
        <ele>643.35998535156</ele>
        <time>2011-07-12T07:18:42Z</time>
      </trkpt>
      <trkpt lat="44.84464" lon="5.08853">
        <ele>646.35144042969</ele>
        <time>2011-07-12T07:18:48Z</time>
      </trkpt>
      <trkpt lat="44.8444" lon="5.08865">
        <ele>651.44805908203</ele>
        <time>2011-07-12T07:18:56Z</time>
      </trkpt>
      <trkpt lat="44.84416" lon="5.08877">
        <ele>654.87194824219</ele>
        <time>2011-07-12T07:19:04Z</time>
      </trkpt>
      <trkpt lat="44.84394" lon="5.08886">
        <ele>662.61547851562</ele>
        <time>2011-07-12T07:19:11Z</time>
      </trkpt>
      <trkpt lat="44.84362" lon="5.08888">
        <ele>665.61737060547</ele>
        <time>2011-07-12T07:19:20Z</time>
      </trkpt>
      <trkpt lat="44.84331" lon="5.08882">
        <ele>672.67407226562</ele>
        <time>2011-07-12T07:19:29Z</time>
      </trkpt>
      <trkpt lat="44.84308" lon="5.08877">
        <ele>673.53930664062</ele>
        <time>2011-07-12T07:19:35Z</time>
      </trkpt>
      <trkpt lat="44.84279" lon="5.08867">
        <ele>671.47528076172</ele>
        <time>2011-07-12T07:19:43Z</time>
      </trkpt>
      <trkpt lat="44.84254" lon="5.08862">
        <ele>671.74377441406</ele>
        <time>2011-07-12T07:19:50Z</time>
      </trkpt>
      <trkpt lat="44.84223" lon="5.08853">
        <ele>667.02368164062</ele>
        <time>2011-07-12T07:19:59Z</time>
      </trkpt>
      <trkpt lat="44.84193" lon="5.08836">
        <ele>652.01031494141</ele>
        <time>2011-07-12T07:20:08Z</time>
      </trkpt>
      <trkpt lat="44.84161" lon="5.08818">
        <ele>651.46215820312</ele>
        <time>2011-07-12T07:20:17Z</time>
      </trkpt>
      <trkpt lat="44.8415" lon="5.08814">
        <ele>654.17364501953</ele>
        <time>2011-07-12T07:20:20Z</time>
      </trkpt>
      <trkpt lat="44.84114" lon="5.08796">
        <ele>651.81195068359</ele>
        <time>2011-07-12T07:20:29Z</time>
      </trkpt>
      <trkpt lat="44.84093" lon="5.08782">
        <ele>650.60870361328</ele>
        <time>2011-07-12T07:20:35Z</time>
      </trkpt>
      <trkpt lat="44.84084" lon="5.08794">
        <ele>659.78015136719</ele>
        <time>2011-07-12T07:20:39Z</time>
      </trkpt>
      <trkpt lat="44.84093" lon="5.08803">
        <ele>661.53649902344</ele>
        <time>2011-07-12T07:20:42Z</time>
      </trkpt>
      <trkpt lat="44.84111" lon="5.08813">
        <ele>660.00231933594</ele>
        <time>2011-07-12T07:20:47Z</time>
      </trkpt>
      <trkpt lat="44.84123" lon="5.08822">
        <ele>662.59613037109</ele>
        <time>2011-07-12T07:20:50Z</time>
      </trkpt>
      <trkpt lat="44.84151" lon="5.08845">
        <ele>668.87237548828</ele>
        <time>2011-07-12T07:20:58Z</time>
      </trkpt>
      <trkpt lat="44.8418" lon="5.08869">
        <ele>678.46923828125</ele>
        <time>2011-07-12T07:21:06Z</time>
      </trkpt>
      <trkpt lat="44.84199" lon="5.08887">
        <ele>691.09942626953</ele>
        <time>2011-07-12T07:21:12Z</time>
      </trkpt>
      <trkpt lat="44.84214" lon="5.08904">
        <ele>699.32818603516</ele>
        <time>2011-07-12T07:21:18Z</time>
      </trkpt>
      <trkpt lat="44.8424" lon="5.08919">
        <ele>702.8173828125</ele>
        <time>2011-07-12T07:21:26Z</time>
      </trkpt>
      <trkpt lat="44.84262" lon="5.08926">
        <ele>702.66278076172</ele>
        <time>2011-07-12T07:21:32Z</time>
      </trkpt>
      <trkpt lat="44.8429" lon="5.08939">
        <ele>704.52471923828</ele>
        <time>2011-07-12T07:21:39Z</time>
      </trkpt>
      <trkpt lat="44.84316" lon="5.0895">
        <ele>704.96954345703</ele>
        <time>2011-07-12T07:21:46Z</time>
      </trkpt>
      <trkpt lat="44.84338" lon="5.08959">
        <ele>703.3232421875</ele>
        <time>2011-07-12T07:21:53Z</time>
      </trkpt>
      <trkpt lat="44.84358" lon="5.08967">
        <ele>699.30633544922</ele>
        <time>2011-07-12T07:21:59Z</time>
      </trkpt>
      <trkpt lat="44.84378" lon="5.08973">
        <ele>700.74279785156</ele>
        <time>2011-07-12T07:22:05Z</time>
      </trkpt>
      <trkpt lat="44.8441" lon="5.08981">
        <ele>701.123046875</ele>
        <time>2011-07-12T07:22:14Z</time>
      </trkpt>
      <trkpt lat="44.84448" lon="5.08983">
        <ele>700.67028808594</ele>
        <time>2011-07-12T07:22:23Z</time>
      </trkpt>
      <trkpt lat="44.84478" lon="5.08991">
        <ele>699.31481933594</ele>
        <time>2011-07-12T07:22:31Z</time>
      </trkpt>
      <trkpt lat="44.84505" lon="5.08998">
        <ele>698.51959228516</ele>
        <time>2011-07-12T07:22:38Z</time>
      </trkpt>
      <trkpt lat="44.84537" lon="5.09008">
        <ele>700.61047363281</ele>
        <time>2011-07-12T07:22:46Z</time>
      </trkpt>
      <trkpt lat="44.84571" lon="5.09023">
        <ele>702.14392089844</ele>
        <time>2011-07-12T07:22:55Z</time>
      </trkpt>
      <trkpt lat="44.84602" lon="5.09035">
        <ele>703.83538818359</ele>
        <time>2011-07-12T07:23:03Z</time>
      </trkpt>
      <trkpt lat="44.84625" lon="5.09043">
        <ele>704.330078125</ele>
        <time>2011-07-12T07:23:09Z</time>
      </trkpt>
      <trkpt lat="44.84656" lon="5.09059">
        <ele>704.98876953125</ele>
        <time>2011-07-12T07:23:17Z</time>
      </trkpt>
      <trkpt lat="44.84685" lon="5.09082">
        <ele>714.43878173828</ele>
        <time>2011-07-12T07:23:25Z</time>
      </trkpt>
      <trkpt lat="44.84703" lon="5.09105">
        <ele>720.89532470703</ele>
        <time>2011-07-12T07:23:31Z</time>
      </trkpt>
      <trkpt lat="44.84719" lon="5.09125">
        <ele>727.85546875</ele>
        <time>2011-07-12T07:23:37Z</time>
      </trkpt>
      <trkpt lat="44.84747" lon="5.09145">
        <ele>731.53753662109</ele>
        <time>2011-07-12T07:23:46Z</time>
      </trkpt>
      <trkpt lat="44.84769" lon="5.09152">
        <ele>729.74365234375</ele>
        <time>2011-07-12T07:23:52Z</time>
      </trkpt>
      <trkpt lat="44.84799" lon="5.09157">
        <ele>727.65570068359</ele>
        <time>2011-07-12T07:24:00Z</time>
      </trkpt>
      <trkpt lat="44.84819" lon="5.09155">
        <ele>724.52075195312</ele>
        <time>2011-07-12T07:24:06Z</time>
      </trkpt>
      <trkpt lat="44.84846" lon="5.0915">
        <ele>721.39453125</ele>
        <time>2011-07-12T07:24:14Z</time>
      </trkpt>
      <trkpt lat="44.84869" lon="5.09143">
        <ele>719.64697265625</ele>
        <time>2011-07-12T07:24:21Z</time>
      </trkpt>
      <trkpt lat="44.84898" lon="5.09132">
        <ele>714.19152832031</ele>
        <time>2011-07-12T07:24:29Z</time>
      </trkpt>
      <trkpt lat="44.84923" lon="5.0912">
        <ele>709.98907470703</ele>
        <time>2011-07-12T07:24:36Z</time>
      </trkpt>
      <trkpt lat="44.84938" lon="5.09115">
        <ele>708.08605957031</ele>
        <time>2011-07-12T07:24:40Z</time>
      </trkpt>
      <trkpt lat="44.84948" lon="5.09128">
        <ele>708.23474121094</ele>
        <time>2011-07-12T07:24:44Z</time>
      </trkpt>
      <trkpt lat="44.84943" lon="5.09147">
        <ele>712.36358642578</ele>
        <time>2011-07-12T07:24:48Z</time>
      </trkpt>
      <trkpt lat="44.84937" lon="5.0916">
        <ele>715.24951171875</ele>
        <time>2011-07-12T07:24:51Z</time>
      </trkpt>
      <trkpt lat="44.84911" lon="5.09192">
        <ele>720.39556884766</ele>
        <time>2011-07-12T07:25:00Z</time>
      </trkpt>
      <trkpt lat="44.84884" lon="5.09216">
        <ele>724.21588134766</ele>
        <time>2011-07-12T07:25:08Z</time>
      </trkpt>
      <trkpt lat="44.84858" lon="5.09232">
        <ele>729.09423828125</ele>
        <time>2011-07-12T07:25:14Z</time>
      </trkpt>
      <trkpt lat="44.84818" lon="5.09257">
        <ele>737.52947998047</ele>
        <time>2011-07-12T07:25:22Z</time>
      </trkpt>
      <trkpt lat="44.84769" lon="5.09286">
        <ele>741.44146728516</ele>
        <time>2011-07-12T07:25:31Z</time>
      </trkpt>
      <trkpt lat="44.84724" lon="5.09311">
        <ele>743.60339355469</ele>
        <time>2011-07-12T07:25:39Z</time>
      </trkpt>
      <trkpt lat="44.84684" lon="5.09333">
        <ele>754.38256835938</ele>
        <time>2011-07-12T07:25:46Z</time>
      </trkpt>
      <trkpt lat="44.8464" lon="5.09358">
        <ele>757.93542480469</ele>
        <time>2011-07-12T07:25:53Z</time>
      </trkpt>
      <trkpt lat="44.84591" lon="5.09398">
        <ele>749.24084472656</ele>
        <time>2011-07-12T07:26:01Z</time>
      </trkpt>
      <trkpt lat="44.8456" lon="5.09434">
        <ele>740.86547851562</ele>
        <time>2011-07-12T07:26:07Z</time>
      </trkpt>
      <trkpt lat="44.84529" lon="5.09489">
        <ele>740.02111816406</ele>
        <time>2011-07-12T07:26:15Z</time>
      </trkpt>
      <trkpt lat="44.84514" lon="5.09516">
        <ele>740.57989501953</ele>
        <time>2011-07-12T07:26:19Z</time>
      </trkpt>
      <trkpt lat="44.84487" lon="5.09546">
        <ele>743.22741699219</ele>
        <time>2011-07-12T07:26:26Z</time>
      </trkpt>
      <trkpt lat="44.84483" lon="5.09549">
        <ele>743.78527832031</ele>
        <time>2011-07-12T07:26:27Z</time>
      </trkpt>
      <trkpt lat="44.84447" lon="5.09569">
        <ele>748.37585449219</ele>
        <time>2011-07-12T07:26:36Z</time>
      </trkpt>
      <trkpt lat="44.84412" lon="5.09592">
        <ele>752.611328125</ele>
        <time>2011-07-12T07:26:45Z</time>
      </trkpt>
      <trkpt lat="44.84379" lon="5.09624">
        <ele>758.29718017578</ele>
        <time>2011-07-12T07:26:55Z</time>
      </trkpt>
      <trkpt lat="44.84359" lon="5.0965">
        <ele>763.30859375</ele>
        <time>2011-07-12T07:27:02Z</time>
      </trkpt>
      <trkpt lat="44.84351" lon="5.09663">
        <ele>763.94964599609</ele>
        <time>2011-07-12T07:27:05Z</time>
      </trkpt>
      <trkpt lat="44.84334" lon="5.09695">
        <ele>770.16784667969</ele>
        <time>2011-07-12T07:27:13Z</time>
      </trkpt>
      <trkpt lat="44.84318" lon="5.09714">
        <ele>773.33642578125</ele>
        <time>2011-07-12T07:27:19Z</time>
      </trkpt>
      <trkpt lat="44.843" lon="5.0973">
        <ele>774.72375488281</ele>
        <time>2011-07-12T07:27:26Z</time>
      </trkpt>
      <trkpt lat="44.84278" lon="5.09753">
        <ele>776.76342773438</ele>
        <time>2011-07-12T07:27:34Z</time>
      </trkpt>
      <trkpt lat="44.84259" lon="5.09775">
        <ele>777.49938964844</ele>
        <time>2011-07-12T07:27:41Z</time>
      </trkpt>
      <trkpt lat="44.84244" lon="5.09802">
        <ele>778.33880615234</ele>
        <time>2011-07-12T07:27:48Z</time>
      </trkpt>
      <trkpt lat="44.84225" lon="5.09827">
        <ele>779.47979736328</ele>
        <time>2011-07-12T07:27:55Z</time>
      </trkpt>
      <trkpt lat="44.84207" lon="5.09842">
        <ele>779.22705078125</ele>
        <time>2011-07-12T07:28:01Z</time>
      </trkpt>
      <trkpt lat="44.84182" lon="5.09862">
        <ele>777.87200927734</ele>
        <time>2011-07-12T07:28:09Z</time>
      </trkpt>
      <trkpt lat="44.84153" lon="5.09883">
        <ele>777.3076171875</ele>
        <time>2011-07-12T07:28:18Z</time>
      </trkpt>
      <trkpt lat="44.84123" lon="5.09899">
        <ele>779.70111083984</ele>
        <time>2011-07-12T07:28:27Z</time>
      </trkpt>
      <trkpt lat="44.84096" lon="5.09909">
        <ele>781.76361083984</ele>
        <time>2011-07-12T07:28:35Z</time>
      </trkpt>
      <trkpt lat="44.84069" lon="5.09922">
        <ele>785.82348632812</ele>
        <time>2011-07-12T07:28:43Z</time>
      </trkpt>
      <trkpt lat="44.84049" lon="5.09933">
        <ele>788.50628662109</ele>
        <time>2011-07-12T07:28:50Z</time>
      </trkpt>
      <trkpt lat="44.84029" lon="5.09946">
        <ele>791.39990234375</ele>
        <time>2011-07-12T07:28:57Z</time>
      </trkpt>
      <trkpt lat="44.84006" lon="5.09959">
        <ele>798.66918945312</ele>
        <time>2011-07-12T07:29:05Z</time>
      </trkpt>
      <trkpt lat="44.83982" lon="5.09974">
        <ele>805.85852050781</ele>
        <time>2011-07-12T07:29:13Z</time>
      </trkpt>
      <trkpt lat="44.83955" lon="5.0999">
        <ele>812.68865966797</ele>
        <time>2011-07-12T07:29:22Z</time>
      </trkpt>
      <trkpt lat="44.83929" lon="5.09998">
        <ele>813.0048828125</ele>
        <time>2011-07-12T07:29:31Z</time>
      </trkpt>
      <trkpt lat="44.83908" lon="5.10001">
        <ele>811.51599121094</ele>
        <time>2011-07-12T07:29:38Z</time>
      </trkpt>
      <trkpt lat="44.83886" lon="5.10003">
        <ele>810.30517578125</ele>
        <time>2011-07-12T07:29:45Z</time>
      </trkpt>
      <trkpt lat="44.83854" lon="5.09999">
        <ele>806.78033447266</ele>
        <time>2011-07-12T07:29:54Z</time>
      </trkpt>
      <trkpt lat="44.83825" lon="5.09991">
        <ele>800.85998535156</ele>
        <time>2011-07-12T07:30:02Z</time>
      </trkpt>
      <trkpt lat="44.83788" lon="5.09981">
        <ele>790.31750488281</ele>
        <time>2011-07-12T07:30:12Z</time>
      </trkpt>
      <trkpt lat="44.83759" lon="5.09975">
        <ele>780.09820556641</ele>
        <time>2011-07-12T07:30:21Z</time>
      </trkpt>
      <trkpt lat="44.83733" lon="5.0998">
        <ele>774.25665283203</ele>
        <time>2011-07-12T07:30:29Z</time>
      </trkpt>
      <trkpt lat="44.83725" lon="5.09993">
        <ele>775.74005126953</ele>
        <time>2011-07-12T07:30:33Z</time>
      </trkpt>
      <trkpt lat="44.8373" lon="5.10011">
        <ele>778.82672119141</ele>
        <time>2011-07-12T07:30:37Z</time>
      </trkpt>
      <trkpt lat="44.83748" lon="5.1005">
        <ele>782.53759765625</ele>
        <time>2011-07-12T07:30:46Z</time>
      </trkpt>
      <trkpt lat="44.83764" lon="5.10086">
        <ele>793.16815185547</ele>
        <time>2011-07-12T07:30:55Z</time>
      </trkpt>
      <trkpt lat="44.83777" lon="5.10121">
        <ele>803.73382568359</ele>
        <time>2011-07-12T07:31:03Z</time>
      </trkpt>
      <trkpt lat="44.83787" lon="5.10153">
        <ele>810.41186523438</ele>
        <time>2011-07-12T07:31:11Z</time>
      </trkpt>
      <trkpt lat="44.83791" lon="5.10187">
        <ele>815.41455078125</ele>
        <time>2011-07-12T07:31:19Z</time>
      </trkpt>
      <trkpt lat="44.83792" lon="5.10223">
        <ele>820.44659423828</ele>
        <time>2011-07-12T07:31:27Z</time>
      </trkpt>
      <trkpt lat="44.83789" lon="5.10248">
        <ele>821.85131835938</ele>
        <time>2011-07-12T07:31:33Z</time>
      </trkpt>
      <trkpt lat="44.83788" lon="5.10282">
        <ele>822.61157226562</ele>
        <time>2011-07-12T07:31:41Z</time>
      </trkpt>
      <trkpt lat="44.83791" lon="5.10313">
        <ele>827.77911376953</ele>
        <time>2011-07-12T07:31:48Z</time>
      </trkpt>
      <trkpt lat="44.83792" lon="5.10346">
        <ele>829.86840820312</ele>
        <time>2011-07-12T07:31:56Z</time>
      </trkpt>
      <trkpt lat="44.83788" lon="5.1038">
        <ele>825.93365478516</ele>
        <time>2011-07-12T07:32:04Z</time>
      </trkpt>
      <trkpt lat="44.83777" lon="5.1041">
        <ele>817.40045166016</ele>
        <time>2011-07-12T07:32:12Z</time>
      </trkpt>
      <trkpt lat="44.8377" lon="5.10432">
        <ele>814.92498779297</ele>
        <time>2011-07-12T07:32:18Z</time>
      </trkpt>
      <trkpt lat="44.83763" lon="5.10458">
        <ele>816.37591552734</ele>
        <time>2011-07-12T07:32:25Z</time>
      </trkpt>
      <trkpt lat="44.83756" lon="5.10489">
        <ele>821.58856201172</ele>
        <time>2011-07-12T07:32:33Z</time>
      </trkpt>
      <trkpt lat="44.83749" lon="5.10514">
        <ele>824.86291503906</ele>
        <time>2011-07-12T07:32:39Z</time>
      </trkpt>
      <trkpt lat="44.83739" lon="5.10542">
        <ele>827.86730957031</ele>
        <time>2011-07-12T07:32:46Z</time>
      </trkpt>
      <trkpt lat="44.83724" lon="5.10569">
        <ele>827.05383300781</ele>
        <time>2011-07-12T07:32:54Z</time>
      </trkpt>
      <trkpt lat="44.83704" lon="5.10591">
        <ele>822.22650146484</ele>
        <time>2011-07-12T07:33:02Z</time>
      </trkpt>
      <trkpt lat="44.83687" lon="5.10601">
        <ele>818.42858886719</ele>
        <time>2011-07-12T07:33:08Z</time>
      </trkpt>
      <trkpt lat="44.83663" lon="5.10611">
        <ele>816.97406005859</ele>
        <time>2011-07-12T07:33:16Z</time>
      </trkpt>
      <trkpt lat="44.83657" lon="5.10613">
        <ele>817.05639648438</ele>
        <time>2011-07-12T07:33:18Z</time>
      </trkpt>
      <trkpt lat="44.83628" lon="5.10622">
        <ele>818.73297119141</ele>
        <time>2011-07-12T07:33:27Z</time>
      </trkpt>
      <trkpt lat="44.83606" lon="5.10634">
        <ele>823.71447753906</ele>
        <time>2011-07-12T07:33:34Z</time>
      </trkpt>
      <trkpt lat="44.83601" lon="5.10654">
        <ele>827.42895507812</ele>
        <time>2011-07-12T07:33:39Z</time>
      </trkpt>
      <trkpt lat="44.83612" lon="5.10673">
        <ele>825.61248779297</ele>
        <time>2011-07-12T07:33:44Z</time>
      </trkpt>
      <trkpt lat="44.83637" lon="5.10697">
        <ele>823.49719238281</ele>
        <time>2011-07-12T07:33:52Z</time>
      </trkpt>
      <trkpt lat="44.83663" lon="5.10722">
        <ele>824.12457275391</ele>
        <time>2011-07-12T07:34:00Z</time>
      </trkpt>
      <trkpt lat="44.83695" lon="5.10752">
        <ele>830.30731201172</ele>
        <time>2011-07-12T07:34:09Z</time>
      </trkpt>
      <trkpt lat="44.83722" lon="5.10777">
        <ele>837.92443847656</ele>
        <time>2011-07-12T07:34:16Z</time>
      </trkpt>
      <trkpt lat="44.83726" lon="5.1078">
        <ele>838.26702880859</ele>
        <time>2011-07-12T07:34:17Z</time>
      </trkpt>
      <trkpt lat="44.83759" lon="5.10818">
        <ele>839.95849609375</ele>
        <time>2011-07-12T07:34:25Z</time>
      </trkpt>
      <trkpt lat="44.83795" lon="5.10851">
        <ele>843.81976318359</ele>
        <time>2011-07-12T07:34:32Z</time>
      </trkpt>
      <trkpt lat="44.83823" lon="5.10885">
        <ele>848.21105957031</ele>
        <time>2011-07-12T07:34:38Z</time>
      </trkpt>
      <trkpt lat="44.83862" lon="5.10939">
        <ele>856.23120117188</ele>
        <time>2011-07-12T07:34:47Z</time>
      </trkpt>
      <trkpt lat="44.83898" lon="5.10989">
        <ele>857.33386230469</ele>
        <time>2011-07-12T07:34:55Z</time>
      </trkpt>
      <trkpt lat="44.83917" lon="5.11013">
        <ele>857.52392578125</ele>
        <time>2011-07-12T07:34:59Z</time>
      </trkpt>
      <trkpt lat="44.83932" lon="5.11053">
        <ele>856.65014648438</ele>
        <time>2011-07-12T07:35:04Z</time>
      </trkpt>
      <trkpt lat="44.83941" lon="5.11112">
        <ele>854.84771728516</ele>
        <time>2011-07-12T07:35:09Z</time>
      </trkpt>
      <trkpt lat="44.83958" lon="5.11162">
        <ele>853.64440917969</ele>
        <time>2011-07-12T07:35:13Z</time>
      </trkpt>
      <trkpt lat="44.83986" lon="5.11212">
        <ele>853.8564453125</ele>
        <time>2011-07-12T07:35:18Z</time>
      </trkpt>
      <trkpt lat="44.83998" lon="5.11228">
        <ele>854.15667724609</ele>
        <time>2011-07-12T07:35:20Z</time>
      </trkpt>
      <trkpt lat="44.84044" lon="5.11262">
        <ele>855.74591064453</ele>
        <time>2011-07-12T07:35:26Z</time>
      </trkpt>
      <trkpt lat="44.84122" lon="5.11304">
        <ele>858</ele>
        <time>2011-07-12T07:35:36Z</time>
      </trkpt>
      <trkpt lat="44.84156" lon="5.11333">
        <ele>858.61730957031</ele>
        <time>2011-07-12T07:35:41Z</time>
      </trkpt>
      <trkpt lat="44.8418" lon="5.1137">
        <ele>859.46875</ele>
        <time>2011-07-12T07:35:46Z</time>
      </trkpt>
      <trkpt lat="44.84211" lon="5.11421">
        <ele>860</ele>
        <time>2011-07-12T07:35:54Z</time>
      </trkpt>
      <trkpt lat="44.84238" lon="5.11466">
        <ele>860</ele>
        <time>2011-07-12T07:36:02Z</time>
      </trkpt>
      <trkpt lat="44.84257" lon="5.11499">
        <ele>860</ele>
        <time>2011-07-12T07:36:09Z</time>
      </trkpt>
      <trkpt lat="44.84271" lon="5.11514">
        <ele>860</ele>
        <time>2011-07-12T07:36:15Z</time>
      </trkpt>
      <trkpt lat="44.84295" lon="5.11536">
        <ele>860</ele>
        <time>2011-07-12T07:36:24Z</time>
      </trkpt>
      <trkpt lat="44.84319" lon="5.11557">
        <ele>860</ele>
        <time>2011-07-12T07:36:32Z</time>
      </trkpt>
      <trkpt lat="44.84342" lon="5.11579">
        <ele>860</ele>
        <time>2011-07-12T07:36:40Z</time>
      </trkpt>
      <trkpt lat="44.84356" lon="5.11596">
        <ele>860.94720458984</ele>
        <time>2011-07-12T07:36:47Z</time>
      </trkpt>
      <trkpt lat="44.8437" lon="5.11621">
        <ele>863.09875488281</ele>
        <time>2011-07-12T07:36:55Z</time>
      </trkpt>
      <trkpt lat="44.84379" lon="5.11639">
        <ele>865.01446533203</ele>
        <time>2011-07-12T07:37:00Z</time>
      </trkpt>
      <trkpt lat="44.8439" lon="5.11664">
        <ele>867.85369873047</ele>
        <time>2011-07-12T07:37:07Z</time>
      </trkpt>
      <trkpt lat="44.84399" lon="5.11692">
        <ele>870.58642578125</ele>
        <time>2011-07-12T07:37:15Z</time>
      </trkpt>
      <trkpt lat="44.84408" lon="5.1172">
        <ele>872.55236816406</ele>
        <time>2011-07-12T07:37:24Z</time>
      </trkpt>
      <trkpt lat="44.84415" lon="5.11744">
        <ele>874.49780273438</ele>
        <time>2011-07-12T07:37:32Z</time>
      </trkpt>
      <trkpt lat="44.84421" lon="5.11768">
        <ele>875.978515625</ele>
        <time>2011-07-12T07:37:39Z</time>
      </trkpt>
      <trkpt lat="44.84435" lon="5.11803">
        <ele>878.51312255859</ele>
        <time>2011-07-12T07:37:49Z</time>
      </trkpt>
      <trkpt lat="44.84447" lon="5.11829">
        <ele>880.28082275391</ele>
        <time>2011-07-12T07:37:57Z</time>
      </trkpt>
      <trkpt lat="44.84459" lon="5.11854">
        <ele>884.31494140625</ele>
        <time>2011-07-12T07:38:05Z</time>
      </trkpt>
      <trkpt lat="44.84472" lon="5.11881">
        <ele>887.67425537109</ele>
        <time>2011-07-12T07:38:14Z</time>
      </trkpt>
      <trkpt lat="44.84483" lon="5.11905">
        <ele>890.64404296875</ele>
        <time>2011-07-12T07:38:22Z</time>
      </trkpt>
      <trkpt lat="44.84493" lon="5.11927">
        <ele>893.78881835938</ele>
        <time>2011-07-12T07:38:29Z</time>
      </trkpt>
      <trkpt lat="44.84503" lon="5.11949">
        <ele>896.64654541016</ele>
        <time>2011-07-12T07:38:36Z</time>
      </trkpt>
      <trkpt lat="44.84519" lon="5.1198">
        <ele>899.35461425781</ele>
        <time>2011-07-12T07:38:46Z</time>
      </trkpt>
      <trkpt lat="44.84534" lon="5.12005">
        <ele>901.13311767578</ele>
        <time>2011-07-12T07:38:54Z</time>
      </trkpt>
      <trkpt lat="44.84546" lon="5.12023">
        <ele>903.19305419922</ele>
        <time>2011-07-12T07:39:00Z</time>
      </trkpt>
      <trkpt lat="44.84559" lon="5.12046">
        <ele>904.63244628906</ele>
        <time>2011-07-12T07:39:06Z</time>
      </trkpt>
      <trkpt lat="44.84577" lon="5.12084">
        <ele>906.57495117188</ele>
        <time>2011-07-12T07:39:12Z</time>
      </trkpt>
      <trkpt lat="44.84591" lon="5.12121">
        <ele>907.89898681641</ele>
        <time>2011-07-12T07:39:17Z</time>
      </trkpt>
      <trkpt lat="44.84592" lon="5.12129">
        <ele>907.58215332031</ele>
        <time>2011-07-12T07:39:18Z</time>
      </trkpt>
      <trkpt lat="44.84596" lon="5.12152">
        <ele>906.36053466797</ele>
        <time>2011-07-12T07:39:21Z</time>
      </trkpt>
      <trkpt lat="44.84597" lon="5.12175">
        <ele>904.55889892578</ele>
        <time>2011-07-12T07:39:24Z</time>
      </trkpt>
      <trkpt lat="44.84595" lon="5.12195">
        <ele>902.25744628906</ele>
        <time>2011-07-12T07:39:27Z</time>
      </trkpt>
      <trkpt lat="44.84604" lon="5.12236">
        <ele>899.50830078125</ele>
        <time>2011-07-12T07:39:33Z</time>
      </trkpt>
      <trkpt lat="44.84622" lon="5.12257">
        <ele>899.67883300781</ele>
        <time>2011-07-12T07:39:37Z</time>
      </trkpt>
      <trkpt lat="44.84668" lon="5.12286">
        <ele>901.43371582031</ele>
        <time>2011-07-12T07:39:44Z</time>
      </trkpt>
      <trkpt lat="44.84721" lon="5.12314">
        <ele>901.98370361328</ele>
        <time>2011-07-12T07:39:51Z</time>
      </trkpt>
      <trkpt lat="44.84746" lon="5.12326">
        <ele>901.23956298828</ele>
        <time>2011-07-12T07:39:54Z</time>
      </trkpt>
      <trkpt lat="44.84792" lon="5.12364">
        <ele>901.84515380859</ele>
        <time>2011-07-12T07:40:00Z</time>
      </trkpt>
      <trkpt lat="44.84832" lon="5.12401">
        <ele>905.11212158203</ele>
        <time>2011-07-12T07:40:06Z</time>
      </trkpt>
      <trkpt lat="44.8485" lon="5.12418">
        <ele>905.9345703125</ele>
        <time>2011-07-12T07:40:09Z</time>
      </trkpt>
      <trkpt lat="44.84864" lon="5.12438">
        <ele>906.99377441406</ele>
        <time>2011-07-12T07:40:12Z</time>
      </trkpt>
      <trkpt lat="44.84876" lon="5.12465">
        <ele>907.49572753906</ele>
        <time>2011-07-12T07:40:16Z</time>
      </trkpt>
      <trkpt lat="44.84903" lon="5.12511">
        <ele>907.69268798828</ele>
        <time>2011-07-12T07:40:24Z</time>
      </trkpt>
      <trkpt lat="44.84918" lon="5.12535">
        <ele>906.53894042969</ele>
        <time>2011-07-12T07:40:28Z</time>
      </trkpt>
      <trkpt lat="44.84951" lon="5.12596">
        <ele>903.71441650391</ele>
        <time>2011-07-12T07:40:37Z</time>
      </trkpt>
      <trkpt lat="44.84956" lon="5.12603">
        <ele>903.18731689453</ele>
        <time>2011-07-12T07:40:38Z</time>
      </trkpt>
      <trkpt lat="44.84969" lon="5.12619">
        <ele>902.04168701172</ele>
        <time>2011-07-12T07:40:41Z</time>
      </trkpt>
      <trkpt lat="44.85012" lon="5.12654">
        <ele>899.02478027344</ele>
        <time>2011-07-12T07:40:49Z</time>
      </trkpt>
      <trkpt lat="44.85026" lon="5.12663">
        <ele>896.830078125</ele>
        <time>2011-07-12T07:40:51Z</time>
      </trkpt>
      <trkpt lat="44.85057" lon="5.12665">
        <ele>893.07263183594</ele>
        <time>2011-07-12T07:40:55Z</time>
      </trkpt>
      <trkpt lat="44.85065" lon="5.12663">
        <ele>892.763671875</ele>
        <time>2011-07-12T07:40:56Z</time>
      </trkpt>
      <trkpt lat="44.85114" lon="5.12639">
        <ele>890.64300537109</ele>
        <time>2011-07-12T07:41:02Z</time>
      </trkpt>
      <trkpt lat="44.85163" lon="5.12611">
        <ele>887.27648925781</ele>
        <time>2011-07-12T07:41:07Z</time>
      </trkpt>
      <trkpt lat="44.85173" lon="5.12605">
        <ele>886.98046875</ele>
        <time>2011-07-12T07:41:08Z</time>
      </trkpt>
      <trkpt lat="44.85197" lon="5.12598">
        <ele>886.32470703125</ele>
        <time>2011-07-12T07:41:10Z</time>
      </trkpt>
      <trkpt lat="44.85221" lon="5.126">
        <ele>884.49481201172</ele>
        <time>2011-07-12T07:41:12Z</time>
      </trkpt>
      <trkpt lat="44.85284" lon="5.12611">
        <ele>883.76446533203</ele>
        <time>2011-07-12T07:41:17Z</time>
      </trkpt>
      <trkpt lat="44.85325" lon="5.12616">
        <ele>880.68029785156</ele>
        <time>2011-07-12T07:41:20Z</time>
      </trkpt>
      <trkpt lat="44.85378" lon="5.12627">
        <ele>879</ele>
        <time>2011-07-12T07:41:24Z</time>
      </trkpt>
      <trkpt lat="44.85444" lon="5.12648">
        <ele>879</ele>
        <time>2011-07-12T07:41:29Z</time>
      </trkpt>
      <trkpt lat="44.85503" lon="5.12662">
        <ele>879</ele>
        <time>2011-07-12T07:41:33Z</time>
      </trkpt>
      <trkpt lat="44.85575" lon="5.12674">
        <ele>879</ele>
        <time>2011-07-12T07:41:38Z</time>
      </trkpt>
      <trkpt lat="44.85669" lon="5.12693">
        <ele>879</ele>
        <time>2011-07-12T07:41:45Z</time>
      </trkpt>
      <trkpt lat="44.85728" lon="5.12711">
        <ele>879</ele>
        <time>2011-07-12T07:41:50Z</time>
      </trkpt>
      <trkpt lat="44.8575" lon="5.1272">
        <ele>879</ele>
        <time>2011-07-12T07:41:52Z</time>
      </trkpt>
      <trkpt lat="44.85789" lon="5.12725">
        <ele>879</ele>
        <time>2011-07-12T07:41:56Z</time>
      </trkpt>
      <trkpt lat="44.85827" lon="5.12722">
        <ele>879</ele>
        <time>2011-07-12T07:42:01Z</time>
      </trkpt>
      <trkpt lat="44.85839" lon="5.12725">
        <ele>879</ele>
        <time>2011-07-12T07:42:03Z</time>
      </trkpt>
      <trkpt lat="44.85849" lon="5.1273">
        <ele>879</ele>
        <time>2011-07-12T07:42:05Z</time>
      </trkpt>
      <trkpt lat="44.85854" lon="5.12732">
        <ele>879</ele>
        <time>2011-07-12T07:42:06Z</time>
      </trkpt>
      <trkpt lat="44.85879" lon="5.12745">
        <ele>879</ele>
        <time>2011-07-12T07:42:11Z</time>
      </trkpt>
      <trkpt lat="44.85918" lon="5.12767">
        <ele>878.89813232422</ele>
        <time>2011-07-12T07:42:18Z</time>
      </trkpt>
      <trkpt lat="44.8596" lon="5.12786">
        <ele>876.83245849609</ele>
        <time>2011-07-12T07:42:24Z</time>
      </trkpt>
      <trkpt lat="44.85999" lon="5.12803">
        <ele>875.02770996094</ele>
        <time>2011-07-12T07:42:29Z</time>
      </trkpt>
      <trkpt lat="44.86053" lon="5.12818">
        <ele>871.67352294922</ele>
        <time>2011-07-12T07:42:35Z</time>
      </trkpt>
      <trkpt lat="44.86086" lon="5.12822">
        <ele>869.25439453125</ele>
        <time>2011-07-12T07:42:38Z</time>
      </trkpt>
      <trkpt lat="44.86148" lon="5.12831">
        <ele>864.42083740234</ele>
        <time>2011-07-12T07:42:43Z</time>
      </trkpt>
      <trkpt lat="44.86208" lon="5.12841">
        <ele>863.02392578125</ele>
        <time>2011-07-12T07:42:48Z</time>
      </trkpt>
      <trkpt lat="44.86257" lon="5.12849">
        <ele>861.89709472656</ele>
        <time>2011-07-12T07:42:53Z</time>
      </trkpt>
      <trkpt lat="44.86283" lon="5.1286">
        <ele>861.58972167969</ele>
        <time>2011-07-12T07:42:56Z</time>
      </trkpt>
      <trkpt lat="44.86322" lon="5.12896">
        <ele>861.44012451172</ele>
        <time>2011-07-12T07:43:01Z</time>
      </trkpt>
      <trkpt lat="44.8633" lon="5.12904">
        <ele>861.38854980469</ele>
        <time>2011-07-12T07:43:02Z</time>
      </trkpt>
      <trkpt lat="44.86383" lon="5.12935">
        <ele>860</ele>
        <time>2011-07-12T07:43:08Z</time>
      </trkpt>
      <trkpt lat="44.86391" lon="5.12941">
        <ele>860</ele>
        <time>2011-07-12T07:43:09Z</time>
      </trkpt>
      <trkpt lat="44.8642" lon="5.12977">
        <ele>860</ele>
        <time>2011-07-12T07:43:13Z</time>
      </trkpt>
      <trkpt lat="44.86433" lon="5.13002">
        <ele>860.13757324219</ele>
        <time>2011-07-12T07:43:15Z</time>
      </trkpt>
      <trkpt lat="44.86464" lon="5.1304">
        <ele>867.12518310547</ele>
        <time>2011-07-12T07:43:19Z</time>
      </trkpt>
      <trkpt lat="44.86503" lon="5.13069">
        <ele>872.79089355469</ele>
        <time>2011-07-12T07:43:24Z</time>
      </trkpt>
      <trkpt lat="44.86534" lon="5.13096">
        <ele>876.42907714844</ele>
        <time>2011-07-12T07:43:29Z</time>
      </trkpt>
      <trkpt lat="44.86562" lon="5.1314">
        <ele>879</ele>
        <time>2011-07-12T07:43:36Z</time>
      </trkpt>
      <trkpt lat="44.86582" lon="5.13169">
        <ele>879</ele>
        <time>2011-07-12T07:43:42Z</time>
      </trkpt>
      <trkpt lat="44.86606" lon="5.13198">
        <ele>879.83435058594</ele>
        <time>2011-07-12T07:43:49Z</time>
      </trkpt>
      <trkpt lat="44.86636" lon="5.13228">
        <ele>880</ele>
        <time>2011-07-12T07:43:57Z</time>
      </trkpt>
      <trkpt lat="44.86645" lon="5.13235">
        <ele>880</ele>
        <time>2011-07-12T07:43:59Z</time>
      </trkpt>
      <trkpt lat="44.86679" lon="5.1326">
        <ele>880</ele>
        <time>2011-07-12T07:44:07Z</time>
      </trkpt>
      <trkpt lat="44.86724" lon="5.13298">
        <ele>880</ele>
        <time>2011-07-12T07:44:17Z</time>
      </trkpt>
      <trkpt lat="44.86751" lon="5.13324">
        <ele>880</ele>
        <time>2011-07-12T07:44:24Z</time>
      </trkpt>
      <trkpt lat="44.86772" lon="5.13355">
        <ele>880</ele>
        <time>2011-07-12T07:44:32Z</time>
      </trkpt>
      <trkpt lat="44.86797" lon="5.13399">
        <ele>880</ele>
        <time>2011-07-12T07:44:43Z</time>
      </trkpt>
      <trkpt lat="44.86814" lon="5.13428">
        <ele>880.36968994141</ele>
        <time>2011-07-12T07:44:51Z</time>
      </trkpt>
      <trkpt lat="44.86829" lon="5.13453">
        <ele>880</ele>
        <time>2011-07-12T07:44:59Z</time>
      </trkpt>
      <trkpt lat="44.86851" lon="5.13483">
        <ele>885.76287841797</ele>
        <time>2011-07-12T07:45:09Z</time>
      </trkpt>
      <trkpt lat="44.8687" lon="5.13502">
        <ele>890.81164550781</ele>
        <time>2011-07-12T07:45:18Z</time>
      </trkpt>
      <trkpt lat="44.86885" lon="5.13514">
        <ele>893.77105712891</ele>
        <time>2011-07-12T07:45:26Z</time>
      </trkpt>
      <trkpt lat="44.86902" lon="5.13523">
        <ele>898.49310302734</ele>
        <time>2011-07-12T07:45:35Z</time>
      </trkpt>
      <trkpt lat="44.86915" lon="5.13529">
        <ele>902.32397460938</ele>
        <time>2011-07-12T07:45:43Z</time>
      </trkpt>
      <trkpt lat="44.86927" lon="5.13534">
        <ele>909.30169677734</ele>
        <time>2011-07-12T07:45:51Z</time>
      </trkpt>
      <trkpt lat="44.86935" lon="5.13537">
        <ele>913.76892089844</ele>
        <time>2011-07-12T07:45:57Z</time>
      </trkpt>
      <trkpt lat="44.86943" lon="5.13543">
        <ele>918.84588623047</ele>
        <time>2011-07-12T07:46:04Z</time>
      </trkpt>
      <trkpt lat="44.86954" lon="5.13549">
        <ele>920</ele>
        <time>2011-07-12T07:46:12Z</time>
      </trkpt>
      <trkpt lat="44.86967" lon="5.13555">
        <ele>920</ele>
        <time>2011-07-12T07:46:20Z</time>
      </trkpt>
      <trkpt lat="44.86979" lon="5.1356">
        <ele>919.74047851562</ele>
        <time>2011-07-12T07:46:27Z</time>
      </trkpt>
      <trkpt lat="44.86992" lon="5.13568">
        <ele>919.72540283203</ele>
        <time>2011-07-12T07:46:35Z</time>
      </trkpt>
      <trkpt lat="44.87002" lon="5.13575">
        <ele>919.76434326172</ele>
        <time>2011-07-12T07:46:42Z</time>
      </trkpt>
      <trkpt lat="44.87013" lon="5.13579">
        <ele>918.61077880859</ele>
        <time>2011-07-12T07:46:49Z</time>
      </trkpt>
      <trkpt lat="44.87022" lon="5.13585">
        <ele>917.60406494141</ele>
        <time>2011-07-12T07:46:55Z</time>
      </trkpt>
      <trkpt lat="44.87036" lon="5.13589">
        <ele>915.55798339844</ele>
        <time>2011-07-12T07:47:02Z</time>
      </trkpt>
      <trkpt lat="44.87051" lon="5.13597">
        <ele>912.87976074219</ele>
        <time>2011-07-12T07:47:09Z</time>
      </trkpt>
      <trkpt lat="44.87067" lon="5.13605">
        <ele>909.22961425781</ele>
        <time>2011-07-12T07:47:16Z</time>
      </trkpt>
      <trkpt lat="44.87084" lon="5.13623">
        <ele>906.12445068359</ele>
        <time>2011-07-12T07:47:23Z</time>
      </trkpt>
      <trkpt lat="44.87101" lon="5.1365">
        <ele>904.51525878906</ele>
        <time>2011-07-12T07:47:31Z</time>
      </trkpt>
      <trkpt lat="44.87118" lon="5.13683">
        <ele>905.24542236328</ele>
        <time>2011-07-12T07:47:40Z</time>
      </trkpt>
      <trkpt lat="44.87131" lon="5.13708">
        <ele>907.64825439453</ele>
        <time>2011-07-12T07:47:48Z</time>
      </trkpt>
      <trkpt lat="44.87144" lon="5.1373">
        <ele>912.10534667969</ele>
        <time>2011-07-12T07:47:56Z</time>
      </trkpt>
      <trkpt lat="44.87156" lon="5.13751">
        <ele>917.23266601562</ele>
        <time>2011-07-12T07:48:03Z</time>
      </trkpt>
      <trkpt lat="44.87164" lon="5.1377">
        <ele>919.45074462891</ele>
        <time>2011-07-12T07:48:09Z</time>
      </trkpt>
      <trkpt lat="44.87175" lon="5.13797">
        <ele>924.38372802734</ele>
        <time>2011-07-12T07:48:17Z</time>
      </trkpt>
      <trkpt lat="44.87196" lon="5.13827">
        <ele>931.85943603516</ele>
        <time>2011-07-12T07:48:26Z</time>
      </trkpt>
      <trkpt lat="44.87217" lon="5.13853">
        <ele>937.42651367188</ele>
        <time>2011-07-12T07:48:35Z</time>
      </trkpt>
      <trkpt lat="44.87236" lon="5.13864">
        <ele>941.16424560547</ele>
        <time>2011-07-12T07:48:41Z</time>
      </trkpt>
      <trkpt lat="44.87253" lon="5.13863">
        <ele>945.54974365234</ele>
        <time>2011-07-12T07:48:47Z</time>
      </trkpt>
      <trkpt lat="44.87255" lon="5.13862">
        <ele>946.17846679688</ele>
        <time>2011-07-12T07:48:48Z</time>
      </trkpt>
      <trkpt lat="44.87264" lon="5.13861">
        <ele>949.11547851562</ele>
        <time>2011-07-12T07:48:54Z</time>
      </trkpt>
      <trkpt lat="44.87271" lon="5.1386">
        <ele>951.21173095703</ele>
        <time>2011-07-12T07:48:59Z</time>
      </trkpt>
      <trkpt lat="44.87285" lon="5.13861">
        <ele>955.03338623047</ele>
        <time>2011-07-12T07:49:07Z</time>
      </trkpt>
      <trkpt lat="44.87296" lon="5.13863">
        <ele>958.25842285156</ele>
        <time>2011-07-12T07:49:14Z</time>
      </trkpt>
      <trkpt lat="44.8731" lon="5.13867">
        <ele>961.51824951172</ele>
        <time>2011-07-12T07:49:21Z</time>
      </trkpt>
      <trkpt lat="44.87325" lon="5.13876">
        <ele>963.52172851562</ele>
        <time>2011-07-12T07:49:29Z</time>
      </trkpt>
      <trkpt lat="44.87339" lon="5.13888">
        <ele>965.81707763672</ele>
        <time>2011-07-12T07:49:36Z</time>
      </trkpt>
      <trkpt lat="44.87355" lon="5.13899">
        <ele>967.43969726562</ele>
        <time>2011-07-12T07:49:43Z</time>
      </trkpt>
      <trkpt lat="44.87372" lon="5.13916">
        <ele>968.69122314453</ele>
        <time>2011-07-12T07:49:51Z</time>
      </trkpt>
      <trkpt lat="44.87384" lon="5.13937">
        <ele>967.46942138672</ele>
        <time>2011-07-12T07:49:58Z</time>
      </trkpt>
      <trkpt lat="44.87393" lon="5.13956">
        <ele>966.70489501953</ele>
        <time>2011-07-12T07:50:04Z</time>
      </trkpt>
      <trkpt lat="44.87403" lon="5.1397">
        <ele>966.6982421875</ele>
        <time>2011-07-12T07:50:11Z</time>
      </trkpt>
      <trkpt lat="44.87415" lon="5.1398">
        <ele>966.40454101562</ele>
        <time>2011-07-12T07:50:17Z</time>
      </trkpt>
      <trkpt lat="44.87423" lon="5.13985">
        <ele>967.20343017578</ele>
        <time>2011-07-12T07:50:22Z</time>
      </trkpt>
      <trkpt lat="44.87438" lon="5.13996">
        <ele>968.62182617188</ele>
        <time>2011-07-12T07:50:29Z</time>
      </trkpt>
      <trkpt lat="44.87464" lon="5.14006">
        <ele>973.81341552734</ele>
        <time>2011-07-12T07:50:39Z</time>
      </trkpt>
      <trkpt lat="44.87482" lon="5.14011">
        <ele>977.037109375</ele>
        <time>2011-07-12T07:50:47Z</time>
      </trkpt>
      <trkpt lat="44.87494" lon="5.14013">
        <ele>978.81726074219</ele>
        <time>2011-07-12T07:50:53Z</time>
      </trkpt>
      <trkpt lat="44.87506" lon="5.14015">
        <ele>980.20977783203</ele>
        <time>2011-07-12T07:51:00Z</time>
      </trkpt>
      <trkpt lat="44.87519" lon="5.14017">
        <ele>980.89642333984</ele>
        <time>2011-07-12T07:51:07Z</time>
      </trkpt>
      <trkpt lat="44.87532" lon="5.14019">
        <ele>982.5390625</ele>
        <time>2011-07-12T07:51:15Z</time>
      </trkpt>
      <trkpt lat="44.87542" lon="5.14019">
        <ele>984.92370605469</ele>
        <time>2011-07-12T07:51:21Z</time>
      </trkpt>
      <trkpt lat="44.87553" lon="5.14019">
        <ele>987.8583984375</ele>
        <time>2011-07-12T07:51:28Z</time>
      </trkpt>
      <trkpt lat="44.87556" lon="5.14019">
        <ele>988.74517822266</ele>
        <time>2011-07-12T07:51:30Z</time>
      </trkpt>
      <trkpt lat="44.87567" lon="5.1402">
        <ele>990.81182861328</ele>
        <time>2011-07-12T07:51:36Z</time>
      </trkpt>
      <trkpt lat="44.87581" lon="5.14025">
        <ele>993.48858642578</ele>
        <time>2011-07-12T07:51:43Z</time>
      </trkpt>
      <trkpt lat="44.87598" lon="5.14035">
        <ele>997.06805419922</ele>
        <time>2011-07-12T07:51:52Z</time>
      </trkpt>
      <trkpt lat="44.87606" lon="5.14049">
        <ele>998.7802734375</ele>
        <time>2011-07-12T07:51:58Z</time>
      </trkpt>
      <trkpt lat="44.87615" lon="5.14076">
        <ele>999.83636474609</ele>
        <time>2011-07-12T07:52:07Z</time>
      </trkpt>
      <trkpt lat="44.87618" lon="5.14093">
        <ele>999.69543457031</ele>
        <time>2011-07-12T07:52:14Z</time>
      </trkpt>
      <trkpt lat="44.8762" lon="5.14108">
        <ele>998.76489257812</ele>
        <time>2011-07-12T07:52:21Z</time>
      </trkpt>
      <trkpt lat="44.87621" lon="5.14127">
        <ele>997.35021972656</ele>
        <time>2011-07-12T07:52:29Z</time>
      </trkpt>
      <trkpt lat="44.87618" lon="5.14144">
        <ele>995.94140625</ele>
        <time>2011-07-12T07:52:37Z</time>
      </trkpt>
      <trkpt lat="44.87616" lon="5.14155">
        <ele>995.53149414062</ele>
        <time>2011-07-12T07:52:42Z</time>
      </trkpt>
      <trkpt lat="44.87614" lon="5.14175">
        <ele>995.21228027344</ele>
        <time>2011-07-12T07:52:49Z</time>
      </trkpt>
      <trkpt lat="44.87613" lon="5.14194">
        <ele>995.10241699219</ele>
        <time>2011-07-12T07:52:55Z</time>
      </trkpt>
      <trkpt lat="44.87612" lon="5.14218">
        <ele>996.72308349609</ele>
        <time>2011-07-12T07:53:01Z</time>
      </trkpt>
      <trkpt lat="44.87616" lon="5.14253">
        <ele>1000</ele>
        <time>2011-07-12T07:53:09Z</time>
      </trkpt>
      <trkpt lat="44.87632" lon="5.14284">
        <ele>1000</ele>
        <time>2011-07-12T07:53:17Z</time>
      </trkpt>
      <trkpt lat="44.87639" lon="5.14304">
        <ele>1000</ele>
        <time>2011-07-12T07:53:22Z</time>
      </trkpt>
      <trkpt lat="44.87652" lon="5.14331">
        <ele>1000</ele>
        <time>2011-07-12T07:53:30Z</time>
      </trkpt>
      <trkpt lat="44.87659" lon="5.14344">
        <ele>999.73156738281</ele>
        <time>2011-07-12T07:53:33Z</time>
      </trkpt>
      <trkpt lat="44.87685" lon="5.14368">
        <ele>998.26794433594</ele>
        <time>2011-07-12T07:53:39Z</time>
      </trkpt>
      <trkpt lat="44.87722" lon="5.14376">
        <ele>998</ele>
        <time>2011-07-12T07:53:44Z</time>
      </trkpt>
      <trkpt lat="44.87757" lon="5.14393">
        <ele>991.56072998047</ele>
        <time>2011-07-12T07:53:48Z</time>
      </trkpt>
      <trkpt lat="44.87786" lon="5.14409">
        <ele>987.40283203125</ele>
        <time>2011-07-12T07:53:51Z</time>
      </trkpt>
      <trkpt lat="44.87798" lon="5.1441">
        <ele>986.24395751953</ele>
        <time>2011-07-12T07:53:52Z</time>
      </trkpt>
      <trkpt lat="44.87833" lon="5.14414">
        <ele>984.67407226562</ele>
        <time>2011-07-12T07:53:55Z</time>
      </trkpt>
      <trkpt lat="44.87893" lon="5.14437">
        <ele>979.83221435547</ele>
        <time>2011-07-12T07:54:00Z</time>
      </trkpt>
      <trkpt lat="44.87904" lon="5.14441">
        <ele>980.38061523438</ele>
        <time>2011-07-12T07:54:01Z</time>
      </trkpt>
      <trkpt lat="44.87939" lon="5.14437">
        <ele>982.19775390625</ele>
        <time>2011-07-12T07:54:04Z</time>
      </trkpt>
      <trkpt lat="44.87951" lon="5.14429">
        <ele>981.65075683594</ele>
        <time>2011-07-12T07:54:05Z</time>
      </trkpt>
      <trkpt lat="44.87972" lon="5.14411">
        <ele>978.51885986328</ele>
        <time>2011-07-12T07:54:07Z</time>
      </trkpt>
      <trkpt lat="44.87982" lon="5.144">
        <ele>976.01184082031</ele>
        <time>2011-07-12T07:54:08Z</time>
      </trkpt>
      <trkpt lat="44.87999" lon="5.14376">
        <ele>968.49676513672</ele>
        <time>2011-07-12T07:54:10Z</time>
      </trkpt>
      <trkpt lat="44.88022" lon="5.14344">
        <ele>962.32952880859</ele>
        <time>2011-07-12T07:54:13Z</time>
      </trkpt>
      <trkpt lat="44.8804" lon="5.14344">
        <ele>963.99896240234</ele>
        <time>2011-07-12T07:54:15Z</time>
      </trkpt>
      <trkpt lat="44.8808" lon="5.14373">
        <ele>981.71319580078</ele>
        <time>2011-07-12T07:54:20Z</time>
      </trkpt>
      <trkpt lat="44.88106" lon="5.14397">
        <ele>992.09368896484</ele>
        <time>2011-07-12T07:54:24Z</time>
      </trkpt>
      <trkpt lat="44.88127" lon="5.14401">
        <ele>998.38580322266</ele>
        <time>2011-07-12T07:54:29Z</time>
      </trkpt>
      <trkpt lat="44.8813" lon="5.144">
        <ele>999.00988769531</ele>
        <time>2011-07-12T07:54:30Z</time>
      </trkpt>
      <trkpt lat="44.88135" lon="5.14396">
        <ele>999.82885742188</ele>
        <time>2011-07-12T07:54:32Z</time>
      </trkpt>
      <trkpt lat="44.88146" lon="5.14381">
        <ele>1000.1784057617</ele>
        <time>2011-07-12T07:54:38Z</time>
      </trkpt>
      <trkpt lat="44.8815" lon="5.14364">
        <ele>999.36895751953</ele>
        <time>2011-07-12T07:54:43Z</time>
      </trkpt>
      <trkpt lat="44.88148" lon="5.14346">
        <ele>995.84075927734</ele>
        <time>2011-07-12T07:54:48Z</time>
      </trkpt>
      <trkpt lat="44.88139" lon="5.14331">
        <ele>989.79034423828</ele>
        <time>2011-07-12T07:54:53Z</time>
      </trkpt>
      <trkpt lat="44.88126" lon="5.14314">
        <ele>982.61749267578</ele>
        <time>2011-07-12T07:54:59Z</time>
      </trkpt>
      <trkpt lat="44.88118" lon="5.14295">
        <ele>974.55151367188</ele>
        <time>2011-07-12T07:55:05Z</time>
      </trkpt>
      <trkpt lat="44.88116" lon="5.14278">
        <ele>967.71594238281</ele>
        <time>2011-07-12T07:55:11Z</time>
      </trkpt>
      <trkpt lat="44.88118" lon="5.14257">
        <ele>961.70794677734</ele>
        <time>2011-07-12T07:55:18Z</time>
      </trkpt>
      <trkpt lat="44.88127" lon="5.14234">
        <ele>958.40222167969</ele>
        <time>2011-07-12T07:55:26Z</time>
      </trkpt>
      <trkpt lat="44.88139" lon="5.14221">
        <ele>957.79058837891</ele>
        <time>2011-07-12T07:55:31Z</time>
      </trkpt>
      <trkpt lat="44.88162" lon="5.14215">
        <ele>956.74572753906</ele>
        <time>2011-07-12T07:55:38Z</time>
      </trkpt>
      <trkpt lat="44.88187" lon="5.14209">
        <ele>955.33441162109</ele>
        <time>2011-07-12T07:55:44Z</time>
      </trkpt>
      <trkpt lat="44.88221" lon="5.14204">
        <ele>954.560546875</ele>
        <time>2011-07-12T07:55:50Z</time>
      </trkpt>
      <trkpt lat="44.88241" lon="5.14204">
        <ele>954.92486572266</ele>
        <time>2011-07-12T07:55:53Z</time>
      </trkpt>
      <trkpt lat="44.88266" lon="5.14212">
        <ele>958.53338623047</ele>
        <time>2011-07-12T07:55:57Z</time>
      </trkpt>
      <trkpt lat="44.88302" lon="5.14238">
        <ele>965.54840087891</ele>
        <time>2011-07-12T07:56:03Z</time>
      </trkpt>
      <trkpt lat="44.88344" lon="5.14253">
        <ele>966.73107910156</ele>
        <time>2011-07-12T07:56:08Z</time>
      </trkpt>
      <trkpt lat="44.88399" lon="5.14277">
        <ele>977.79376220703</ele>
        <time>2011-07-12T07:56:13Z</time>
      </trkpt>
      <trkpt lat="44.88411" lon="5.14283">
        <ele>982.07507324219</ele>
        <time>2011-07-12T07:56:14Z</time>
      </trkpt>
      <trkpt lat="44.88451" lon="5.1428">
        <ele>986.3662109375</ele>
        <time>2011-07-12T07:56:17Z</time>
      </trkpt>
      <trkpt lat="44.88461" lon="5.14274">
        <ele>987.62457275391</ele>
        <time>2011-07-12T07:56:18Z</time>
      </trkpt>
      <trkpt lat="44.88493" lon="5.14255">
        <ele>989.74932861328</ele>
        <time>2011-07-12T07:56:22Z</time>
      </trkpt>
      <trkpt lat="44.88498" lon="5.14252">
        <ele>989.99133300781</ele>
        <time>2011-07-12T07:56:23Z</time>
      </trkpt>
      <trkpt lat="44.88515" lon="5.14243">
        <ele>990.05517578125</ele>
        <time>2011-07-12T07:56:28Z</time>
      </trkpt>
      <trkpt lat="44.88543" lon="5.14234">
        <ele>990.40197753906</ele>
        <time>2011-07-12T07:56:36Z</time>
      </trkpt>
      <trkpt lat="44.88571" lon="5.14229">
        <ele>990.50939941406</ele>
        <time>2011-07-12T07:56:43Z</time>
      </trkpt>
      <trkpt lat="44.88589" lon="5.14234">
        <ele>990.87677001953</ele>
        <time>2011-07-12T07:56:48Z</time>
      </trkpt>
      <trkpt lat="44.88612" lon="5.1425">
        <ele>991.99493408203</ele>
        <time>2011-07-12T07:56:56Z</time>
      </trkpt>
      <trkpt lat="44.88628" lon="5.1426">
        <ele>992.88757324219</ele>
        <time>2011-07-12T07:57:03Z</time>
      </trkpt>
      <trkpt lat="44.88641" lon="5.14267">
        <ele>993.39642333984</ele>
        <time>2011-07-12T07:57:09Z</time>
      </trkpt>
      <trkpt lat="44.88657" lon="5.14277">
        <ele>993.5810546875</ele>
        <time>2011-07-12T07:57:16Z</time>
      </trkpt>
      <trkpt lat="44.88672" lon="5.14292">
        <ele>994.87451171875</ele>
        <time>2011-07-12T07:57:23Z</time>
      </trkpt>
      <trkpt lat="44.88682" lon="5.14311">
        <ele>996.89276123047</ele>
        <time>2011-07-12T07:57:30Z</time>
      </trkpt>
      <trkpt lat="44.88694" lon="5.14326">
        <ele>997.49572753906</ele>
        <time>2011-07-12T07:57:37Z</time>
      </trkpt>
      <trkpt lat="44.8871" lon="5.14347">
        <ele>999.06311035156</ele>
        <time>2011-07-12T07:57:45Z</time>
      </trkpt>
      <trkpt lat="44.88723" lon="5.14353">
        <ele>998.76177978516</ele>
        <time>2011-07-12T07:57:50Z</time>
      </trkpt>
      <trkpt lat="44.88744" lon="5.14359">
        <ele>999.68188476562</ele>
        <time>2011-07-12T07:57:57Z</time>
      </trkpt>
      <trkpt lat="44.88754" lon="5.14369">
        <ele>1000.8737792969</ele>
        <time>2011-07-12T07:58:02Z</time>
      </trkpt>
      <trkpt lat="44.88766" lon="5.1438">
        <ele>1002.0634155273</ele>
        <time>2011-07-12T07:58:08Z</time>
      </trkpt>
      <trkpt lat="44.88781" lon="5.14394">
        <ele>1004.3575439453</ele>
        <time>2011-07-12T07:58:15Z</time>
      </trkpt>
      <trkpt lat="44.88806" lon="5.14405">
        <ele>1007.8850097656</ele>
        <time>2011-07-12T07:58:24Z</time>
      </trkpt>
      <trkpt lat="44.8883" lon="5.14405">
        <ele>1007.9365234375</ele>
        <time>2011-07-12T07:58:32Z</time>
      </trkpt>
      <trkpt lat="44.88857" lon="5.14398">
        <ele>1007.8049926758</ele>
        <time>2011-07-12T07:58:41Z</time>
      </trkpt>
      <trkpt lat="44.88883" lon="5.14396">
        <ele>1008.8994140625</ele>
        <time>2011-07-12T07:58:49Z</time>
      </trkpt>
      <trkpt lat="44.88905" lon="5.14407">
        <ele>1012.3145751953</ele>
        <time>2011-07-12T07:58:56Z</time>
      </trkpt>
      <trkpt lat="44.88928" lon="5.14422">
        <ele>1016.7168579102</ele>
        <time>2011-07-12T07:59:04Z</time>
      </trkpt>
      <trkpt lat="44.88948" lon="5.14439">
        <ele>1020.4025878906</ele>
        <time>2011-07-12T07:59:12Z</time>
      </trkpt>
      <trkpt lat="44.8896" lon="5.14458">
        <ele>1022.7476196289</ele>
        <time>2011-07-12T07:59:18Z</time>
      </trkpt>
      <trkpt lat="44.88979" lon="5.14476">
        <ele>1024.8771972656</ele>
        <time>2011-07-12T07:59:25Z</time>
      </trkpt>
      <trkpt lat="44.88998" lon="5.14479">
        <ele>1026.5646972656</ele>
        <time>2011-07-12T07:59:31Z</time>
      </trkpt>
      <trkpt lat="44.89016" lon="5.14487">
        <ele>1027.5423583984</ele>
        <time>2011-07-12T07:59:37Z</time>
      </trkpt>
      <trkpt lat="44.89025" lon="5.14503">
        <ele>1029.0977783203</ele>
        <time>2011-07-12T07:59:42Z</time>
      </trkpt>
      <trkpt lat="44.89028" lon="5.14533">
        <ele>1030.5219726562</ele>
        <time>2011-07-12T07:59:49Z</time>
      </trkpt>
      <trkpt lat="44.89025" lon="5.1457">
        <ele>1034.0609130859</ele>
        <time>2011-07-12T07:59:56Z</time>
      </trkpt>
      <trkpt lat="44.89025" lon="5.14576">
        <ele>1034.5285644531</ele>
        <time>2011-07-12T07:59:57Z</time>
      </trkpt>
      <trkpt lat="44.89024" lon="5.14596">
        <ele>1036.0856933594</ele>
        <time>2011-07-12T08:00:00Z</time>
      </trkpt>
      <trkpt lat="44.89023" lon="5.14609">
        <ele>1037.0333251953</ele>
        <time>2011-07-12T08:00:02Z</time>
      </trkpt>
      <trkpt lat="44.89019" lon="5.14666">
        <ele>1037.3155517578</ele>
        <time>2011-07-12T08:00:10Z</time>
      </trkpt>
      <trkpt lat="44.89011" lon="5.14703">
        <ele>1038</ele>
        <time>2011-07-12T08:00:16Z</time>
      </trkpt>
      <trkpt lat="44.88997" lon="5.14751">
        <ele>1039</ele>
        <time>2011-07-12T08:00:24Z</time>
      </trkpt>
      <trkpt lat="44.88987" lon="5.14797">
        <ele>1039</ele>
        <time>2011-07-12T08:00:31Z</time>
      </trkpt>
      <trkpt lat="44.88968" lon="5.14844">
        <ele>1039.0981445312</ele>
        <time>2011-07-12T08:00:39Z</time>
      </trkpt>
      <trkpt lat="44.88944" lon="5.14891">
        <ele>1039.0692138672</ele>
        <time>2011-07-12T08:00:47Z</time>
      </trkpt>
      <trkpt lat="44.88942" lon="5.14897">
        <ele>1039.3686523438</ele>
        <time>2011-07-12T08:00:48Z</time>
      </trkpt>
      <trkpt lat="44.88929" lon="5.14953">
        <ele>1040</ele>
        <time>2011-07-12T08:00:56Z</time>
      </trkpt>
      <trkpt lat="44.88923" lon="5.14998">
        <ele>1040</ele>
        <time>2011-07-12T08:01:03Z</time>
      </trkpt>
      <trkpt lat="44.88915" lon="5.15052">
        <ele>1040</ele>
        <time>2011-07-12T08:01:12Z</time>
      </trkpt>
      <trkpt lat="44.8891" lon="5.15096">
        <ele>1040.4421386719</ele>
        <time>2011-07-12T08:01:20Z</time>
      </trkpt>
      <trkpt lat="44.88905" lon="5.15142">
        <ele>1043.2454833984</ele>
        <time>2011-07-12T08:01:28Z</time>
      </trkpt>
      <trkpt lat="44.88897" lon="5.152">
        <ele>1047.2066650391</ele>
        <time>2011-07-12T08:01:38Z</time>
      </trkpt>
      <trkpt lat="44.88889" lon="5.1525">
        <ele>1049.9838867188</ele>
        <time>2011-07-12T08:01:48Z</time>
      </trkpt>
      <trkpt lat="44.88885" lon="5.15276">
        <ele>1051.8585205078</ele>
        <time>2011-07-12T08:01:54Z</time>
      </trkpt>
      <trkpt lat="44.88879" lon="5.15308">
        <ele>1053.8134765625</ele>
        <time>2011-07-12T08:02:02Z</time>
      </trkpt>
      <trkpt lat="44.88875" lon="5.15338">
        <ele>1055.6645507812</ele>
        <time>2011-07-12T08:02:10Z</time>
      </trkpt>
      <trkpt lat="44.88874" lon="5.15348">
        <ele>1055.9975585938</ele>
        <time>2011-07-12T08:02:13Z</time>
      </trkpt>
      <trkpt lat="44.88869" lon="5.15377">
        <ele>1057.5583496094</ele>
        <time>2011-07-12T08:02:21Z</time>
      </trkpt>
      <trkpt lat="44.88867" lon="5.15384">
        <ele>1058.0627441406</ele>
        <time>2011-07-12T08:02:23Z</time>
      </trkpt>
      <trkpt lat="44.8886" lon="5.15408">
        <ele>1060.0610351562</ele>
        <time>2011-07-12T08:02:30Z</time>
      </trkpt>
      <trkpt lat="44.88847" lon="5.15438">
        <ele>1061.9528808594</ele>
        <time>2011-07-12T08:02:39Z</time>
      </trkpt>
      <trkpt lat="44.8883" lon="5.15459">
        <ele>1062.1353759766</ele>
        <time>2011-07-12T08:02:47Z</time>
      </trkpt>
      <trkpt lat="44.88815" lon="5.15472">
        <ele>1061.3372802734</ele>
        <time>2011-07-12T08:02:54Z</time>
      </trkpt>
      <trkpt lat="44.88801" lon="5.15492">
        <ele>1061.0797119141</ele>
        <time>2011-07-12T08:03:02Z</time>
      </trkpt>
      <trkpt lat="44.88797" lon="5.15506">
        <ele>1061.8962402344</ele>
        <time>2011-07-12T08:03:07Z</time>
      </trkpt>
      <trkpt lat="44.8879" lon="5.15534">
        <ele>1063.9254150391</ele>
        <time>2011-07-12T08:03:15Z</time>
      </trkpt>
      <trkpt lat="44.88786" lon="5.15568">
        <ele>1065.6740722656</ele>
        <time>2011-07-12T08:03:23Z</time>
      </trkpt>
      <trkpt lat="44.88783" lon="5.15597">
        <ele>1066.9653320312</ele>
        <time>2011-07-12T08:03:30Z</time>
      </trkpt>
      <trkpt lat="44.88774" lon="5.15626">
        <ele>1067.7525634766</ele>
        <time>2011-07-12T08:03:38Z</time>
      </trkpt>
      <trkpt lat="44.88763" lon="5.15642">
        <ele>1067.6414794922</ele>
        <time>2011-07-12T08:03:45Z</time>
      </trkpt>
      <trkpt lat="44.88748" lon="5.15656">
        <ele>1066.9497070312</ele>
        <time>2011-07-12T08:03:53Z</time>
      </trkpt>
      <trkpt lat="44.88739" lon="5.1567">
        <ele>1066.6243896484</ele>
        <time>2011-07-12T08:03:59Z</time>
      </trkpt>
      <trkpt lat="44.88732" lon="5.15695">
        <ele>1068.1462402344</ele>
        <time>2011-07-12T08:04:07Z</time>
      </trkpt>
      <trkpt lat="44.88728" lon="5.15726">
        <ele>1070.0803222656</ele>
        <time>2011-07-12T08:04:15Z</time>
      </trkpt>
      <trkpt lat="44.88726" lon="5.15752">
        <ele>1072.4304199219</ele>
        <time>2011-07-12T08:04:22Z</time>
      </trkpt>
      <trkpt lat="44.88723" lon="5.1577">
        <ele>1073.4515380859</ele>
        <time>2011-07-12T08:04:27Z</time>
      </trkpt>
      <trkpt lat="44.88722" lon="5.15783">
        <ele>1074.5874023438</ele>
        <time>2011-07-12T08:04:31Z</time>
      </trkpt>
      <trkpt lat="44.8872" lon="5.15793">
        <ele>1075.7890625</ele>
        <time>2011-07-12T08:04:37Z</time>
      </trkpt>
      <trkpt lat="44.88715" lon="5.15791">
        <ele>1075.9896240234</ele>
        <time>2011-07-12T08:04:58Z</time>
      </trkpt>
      <trkpt lat="44.88712" lon="5.15792">
        <ele>1076.3251953125</ele>
        <time>2011-07-12T08:05:28Z</time>
      </trkpt>
      <trkpt lat="44.88702" lon="5.158">
        <ele>1078.3527832031</ele>
        <time>2011-07-12T08:05:33Z</time>
      </trkpt>
      <trkpt lat="44.8869" lon="5.15823">
        <ele>1080</ele>
        <time>2011-07-12T08:05:39Z</time>
      </trkpt>
      <trkpt lat="44.88678" lon="5.15848">
        <ele>1080</ele>
        <time>2011-07-12T08:05:45Z</time>
      </trkpt>
      <trkpt lat="44.88672" lon="5.15862">
        <ele>1080</ele>
        <time>2011-07-12T08:05:48Z</time>
      </trkpt>
      <trkpt lat="44.88661" lon="5.15897">
        <ele>1080</ele>
        <time>2011-07-12T08:05:54Z</time>
      </trkpt>
      <trkpt lat="44.88657" lon="5.15911">
        <ele>1080</ele>
        <time>2011-07-12T08:05:56Z</time>
      </trkpt>
      <trkpt lat="44.88644" lon="5.15942">
        <ele>1080</ele>
        <time>2011-07-12T08:06:00Z</time>
      </trkpt>
      <trkpt lat="44.8862" lon="5.15989">
        <ele>1080</ele>
        <time>2011-07-12T08:06:06Z</time>
      </trkpt>
      <trkpt lat="44.88596" lon="5.1603">
        <ele>1080</ele>
        <time>2011-07-12T08:06:11Z</time>
      </trkpt>
      <trkpt lat="44.88585" lon="5.16045">
        <ele>1080</ele>
        <time>2011-07-12T08:06:13Z</time>
      </trkpt>
      <trkpt lat="44.88575" lon="5.16088">
        <ele>1081</ele>
        <time>2011-07-12T08:06:17Z</time>
      </trkpt>
      <trkpt lat="44.88588" lon="5.1612">
        <ele>1081</ele>
        <time>2011-07-12T08:06:20Z</time>
      </trkpt>
      <trkpt lat="44.88594" lon="5.16131">
        <ele>1081</ele>
        <time>2011-07-12T08:06:21Z</time>
      </trkpt>
      <trkpt lat="44.88623" lon="5.16188">
        <ele>1081.3209228516</ele>
        <time>2011-07-12T08:06:26Z</time>
      </trkpt>
      <trkpt lat="44.88637" lon="5.16247">
        <ele>1081.0291748047</ele>
        <time>2011-07-12T08:06:30Z</time>
      </trkpt>
      <trkpt lat="44.88633" lon="5.16279">
        <ele>1080.3576660156</ele>
        <time>2011-07-12T08:06:32Z</time>
      </trkpt>
      <trkpt lat="44.88621" lon="5.16379">
        <ele>1072.8514404297</ele>
        <time>2011-07-12T08:06:38Z</time>
      </trkpt>
      <trkpt lat="44.88621" lon="5.16433">
        <ele>1069.0963134766</ele>
        <time>2011-07-12T08:06:41Z</time>
      </trkpt>
      <trkpt lat="44.88608" lon="5.16498">
        <ele>1063.9189453125</ele>
        <time>2011-07-12T08:06:45Z</time>
      </trkpt>
      <trkpt lat="44.88602" lon="5.16513">
        <ele>1062.3842773438</ele>
        <time>2011-07-12T08:06:46Z</time>
      </trkpt>
      <trkpt lat="44.88586" lon="5.16541">
        <ele>1059.2291259766</ele>
        <time>2011-07-12T08:06:48Z</time>
      </trkpt>
      <trkpt lat="44.88551" lon="5.16594">
        <ele>1052.2987060547</ele>
        <time>2011-07-12T08:06:52Z</time>
      </trkpt>
      <trkpt lat="44.88533" lon="5.16658">
        <ele>1046.7976074219</ele>
        <time>2011-07-12T08:06:56Z</time>
      </trkpt>
      <trkpt lat="44.88533" lon="5.1671">
        <ele>1044.0072021484</ele>
        <time>2011-07-12T08:06:59Z</time>
      </trkpt>
      <trkpt lat="44.88549" lon="5.16756">
        <ele>1041.5466308594</ele>
        <time>2011-07-12T08:07:02Z</time>
      </trkpt>
      <trkpt lat="44.88557" lon="5.1677">
        <ele>1040.5888671875</ele>
        <time>2011-07-12T08:07:03Z</time>
      </trkpt>
      <trkpt lat="44.88583" lon="5.16809">
        <ele>1037.7220458984</ele>
        <time>2011-07-12T08:07:06Z</time>
      </trkpt>
      <trkpt lat="44.88607" lon="5.16875">
        <ele>1032.1450195312</ele>
        <time>2011-07-12T08:07:10Z</time>
      </trkpt>
      <trkpt lat="44.88609" lon="5.16914">
        <ele>1029.271484375</ele>
        <time>2011-07-12T08:07:12Z</time>
      </trkpt>
      <trkpt lat="44.88608" lon="5.17031">
        <ele>1020.2022705078</ele>
        <time>2011-07-12T08:07:18Z</time>
      </trkpt>
      <trkpt lat="44.88601" lon="5.17068">
        <ele>1019.0922851562</ele>
        <time>2011-07-12T08:07:20Z</time>
      </trkpt>
      <trkpt lat="44.88584" lon="5.1712">
        <ele>1018.6758422852</ele>
        <time>2011-07-12T08:07:23Z</time>
      </trkpt>
      <trkpt lat="44.88568" lon="5.17169">
        <ele>1018.0426635742</ele>
        <time>2011-07-12T08:07:26Z</time>
      </trkpt>
      <trkpt lat="44.88543" lon="5.17261">
        <ele>1017.0863647461</ele>
        <time>2011-07-12T08:07:32Z</time>
      </trkpt>
      <trkpt lat="44.8853" lon="5.17329">
        <ele>1016.065612793</ele>
        <time>2011-07-12T08:07:37Z</time>
      </trkpt>
      <trkpt lat="44.88527" lon="5.1739">
        <ele>1015.0345458984</ele>
        <time>2011-07-12T08:07:42Z</time>
      </trkpt>
      <trkpt lat="44.88529" lon="5.17425">
        <ele>1014.5795898438</ele>
        <time>2011-07-12T08:07:45Z</time>
      </trkpt>
      <trkpt lat="44.88543" lon="5.17472">
        <ele>1012.3244018555</ele>
        <time>2011-07-12T08:07:49Z</time>
      </trkpt>
      <trkpt lat="44.88568" lon="5.17495">
        <ele>1009.264831543</ele>
        <time>2011-07-12T08:07:52Z</time>
      </trkpt>
      <trkpt lat="44.8859" lon="5.17507">
        <ele>1006.2702636719</ele>
        <time>2011-07-12T08:07:55Z</time>
      </trkpt>
      <trkpt lat="44.88604" lon="5.17528">
        <ele>1004.4935302734</ele>
        <time>2011-07-12T08:07:59Z</time>
      </trkpt>
      <trkpt lat="44.88599" lon="5.17542">
        <ele>1004.3717041016</ele>
        <time>2011-07-12T08:08:01Z</time>
      </trkpt>
      <trkpt lat="44.88581" lon="5.17561">
        <ele>1005.1687011719</ele>
        <time>2011-07-12T08:08:04Z</time>
      </trkpt>
      <trkpt lat="44.88562" lon="5.17604">
        <ele>1005.8141479492</ele>
        <time>2011-07-12T08:08:08Z</time>
      </trkpt>
      <trkpt lat="44.88559" lon="5.17618">
        <ele>1005.1488647461</ele>
        <time>2011-07-12T08:08:09Z</time>
      </trkpt>
      <trkpt lat="44.88552" lon="5.17661">
        <ele>1003.3540649414</ele>
        <time>2011-07-12T08:08:12Z</time>
      </trkpt>
      <trkpt lat="44.88531" lon="5.17711">
        <ele>1000.7002563477</ele>
        <time>2011-07-12T08:08:16Z</time>
      </trkpt>
      <trkpt lat="44.88509" lon="5.17721">
        <ele>1000.79296875</ele>
        <time>2011-07-12T08:08:18Z</time>
      </trkpt>
      <trkpt lat="44.88473" lon="5.17748">
        <ele>999.18157958984</ele>
        <time>2011-07-12T08:08:23Z</time>
      </trkpt>
      <trkpt lat="44.88472" lon="5.17771">
        <ele>996.74169921875</ele>
        <time>2011-07-12T08:08:25Z</time>
      </trkpt>
      <trkpt lat="44.8848" lon="5.17793">
        <ele>994.93237304688</ele>
        <time>2011-07-12T08:08:27Z</time>
      </trkpt>
      <trkpt lat="44.8849" lon="5.17814">
        <ele>993.24151611328</ele>
        <time>2011-07-12T08:08:29Z</time>
      </trkpt>
      <trkpt lat="44.88518" lon="5.17847">
        <ele>988.02130126953</ele>
        <time>2011-07-12T08:08:33Z</time>
      </trkpt>
      <trkpt lat="44.88546" lon="5.17864">
        <ele>981.80718994141</ele>
        <time>2011-07-12T08:08:36Z</time>
      </trkpt>
      <trkpt lat="44.88578" lon="5.17879">
        <ele>975.50543212891</ele>
        <time>2011-07-12T08:08:40Z</time>
      </trkpt>
      <trkpt lat="44.88591" lon="5.17901">
        <ele>972.27032470703</ele>
        <time>2011-07-12T08:08:44Z</time>
      </trkpt>
      <trkpt lat="44.88583" lon="5.17913">
        <ele>971.40301513672</ele>
        <time>2011-07-12T08:08:46Z</time>
      </trkpt>
      <trkpt lat="44.88577" lon="5.17918">
        <ele>971.84466552734</ele>
        <time>2011-07-12T08:08:47Z</time>
      </trkpt>
      <trkpt lat="44.88534" lon="5.17945">
        <ele>976.86889648438</ele>
        <time>2011-07-12T08:08:53Z</time>
      </trkpt>
      <trkpt lat="44.88483" lon="5.17976">
        <ele>978.41278076172</ele>
        <time>2011-07-12T08:08:59Z</time>
      </trkpt>
      <trkpt lat="44.88445" lon="5.17993">
        <ele>978.73901367188</ele>
        <time>2011-07-12T08:09:03Z</time>
      </trkpt>
      <trkpt lat="44.88375" lon="5.18019">
        <ele>975.98681640625</ele>
        <time>2011-07-12T08:09:10Z</time>
      </trkpt>
      <trkpt lat="44.8834" lon="5.18029">
        <ele>973.78271484375</ele>
        <time>2011-07-12T08:09:14Z</time>
      </trkpt>
      <trkpt lat="44.88322" lon="5.18033">
        <ele>973.60858154297</ele>
        <time>2011-07-12T08:09:17Z</time>
      </trkpt>
      <trkpt lat="44.88316" lon="5.18038">
        <ele>972.79290771484</ele>
        <time>2011-07-12T08:09:19Z</time>
      </trkpt>
      <trkpt lat="44.88317" lon="5.18052">
        <ele>969.39569091797</ele>
        <time>2011-07-12T08:09:23Z</time>
      </trkpt>
      <trkpt lat="44.88328" lon="5.18054">
        <ele>968.42419433594</ele>
        <time>2011-07-12T08:09:26Z</time>
      </trkpt>
      <trkpt lat="44.88338" lon="5.18053">
        <ele>968.64318847656</ele>
        <time>2011-07-12T08:09:28Z</time>
      </trkpt>
      <trkpt lat="44.88379" lon="5.18052">
        <ele>968.66375732422</ele>
        <time>2011-07-12T08:09:34Z</time>
      </trkpt>
      <trkpt lat="44.88428" lon="5.18055">
        <ele>966.15905761719</ele>
        <time>2011-07-12T08:09:40Z</time>
      </trkpt>
      <trkpt lat="44.88472" lon="5.18059">
        <ele>965.48352050781</ele>
        <time>2011-07-12T08:09:45Z</time>
      </trkpt>
      <trkpt lat="44.8852" lon="5.18073">
        <ele>961.69445800781</ele>
        <time>2011-07-12T08:09:50Z</time>
      </trkpt>
      <trkpt lat="44.88568" lon="5.18095">
        <ele>954.94769287109</ele>
        <time>2011-07-12T08:09:55Z</time>
      </trkpt>
      <trkpt lat="44.88597" lon="5.18117">
        <ele>947.26489257812</ele>
        <time>2011-07-12T08:09:58Z</time>
      </trkpt>
      <trkpt lat="44.88624" lon="5.18142">
        <ele>940.97589111328</ele>
        <time>2011-07-12T08:10:01Z</time>
      </trkpt>
      <trkpt lat="44.88654" lon="5.18186">
        <ele>940</ele>
        <time>2011-07-12T08:10:05Z</time>
      </trkpt>
      <trkpt lat="44.88679" lon="5.18243">
        <ele>940</ele>
        <time>2011-07-12T08:10:10Z</time>
      </trkpt>
      <trkpt lat="44.88688" lon="5.18262">
        <ele>940</ele>
        <time>2011-07-12T08:10:12Z</time>
      </trkpt>
      <trkpt lat="44.88724" lon="5.18302">
        <ele>940</ele>
        <time>2011-07-12T08:10:18Z</time>
      </trkpt>
      <trkpt lat="44.88737" lon="5.18328">
        <ele>940</ele>
        <time>2011-07-12T08:10:21Z</time>
      </trkpt>
      <trkpt lat="44.88738" lon="5.18339">
        <ele>940</ele>
        <time>2011-07-12T08:10:22Z</time>
      </trkpt>
      <trkpt lat="44.8874" lon="5.18359">
        <ele>940</ele>
        <time>2011-07-12T08:10:24Z</time>
      </trkpt>
      <trkpt lat="44.88737" lon="5.1838">
        <ele>940</ele>
        <time>2011-07-12T08:10:26Z</time>
      </trkpt>
      <trkpt lat="44.88733" lon="5.184">
        <ele>940</ele>
        <time>2011-07-12T08:10:28Z</time>
      </trkpt>
      <trkpt lat="44.88717" lon="5.18446">
        <ele>940</ele>
        <time>2011-07-12T08:10:32Z</time>
      </trkpt>
      <trkpt lat="44.88713" lon="5.18481">
        <ele>940</ele>
        <time>2011-07-12T08:10:35Z</time>
      </trkpt>
      <trkpt lat="44.88717" lon="5.18492">
        <ele>940</ele>
        <time>2011-07-12T08:10:36Z</time>
      </trkpt>
      <trkpt lat="44.8873" lon="5.18506">
        <ele>940</ele>
        <time>2011-07-12T08:10:38Z</time>
      </trkpt>
      <trkpt lat="44.88766" lon="5.18538">
        <ele>940</ele>
        <time>2011-07-12T08:10:43Z</time>
      </trkpt>
      <trkpt lat="44.88823" lon="5.18584">
        <ele>940</ele>
        <time>2011-07-12T08:10:50Z</time>
      </trkpt>
      <trkpt lat="44.88896" lon="5.18642">
        <ele>940</ele>
        <time>2011-07-12T08:10:58Z</time>
      </trkpt>
      <trkpt lat="44.8894" lon="5.18681">
        <ele>938.66278076172</ele>
        <time>2011-07-12T08:11:03Z</time>
      </trkpt>
      <trkpt lat="44.89006" lon="5.18743">
        <ele>935.59899902344</ele>
        <time>2011-07-12T08:11:11Z</time>
      </trkpt>
      <trkpt lat="44.89066" lon="5.18798">
        <ele>932.28338623047</ele>
        <time>2011-07-12T08:11:18Z</time>
      </trkpt>
      <trkpt lat="44.89137" lon="5.18864">
        <ele>928.85638427734</ele>
        <time>2011-07-12T08:11:26Z</time>
      </trkpt>
      <trkpt lat="44.89201" lon="5.18923">
        <ele>923.33666992188</ele>
        <time>2011-07-12T08:11:33Z</time>
      </trkpt>
      <trkpt lat="44.89278" lon="5.18979">
        <ele>920.00671386719</ele>
        <time>2011-07-12T08:11:41Z</time>
      </trkpt>
      <trkpt lat="44.89349" lon="5.19024">
        <ele>920</ele>
        <time>2011-07-12T08:11:48Z</time>
      </trkpt>
      <trkpt lat="44.89426" lon="5.19067">
        <ele>920</ele>
        <time>2011-07-12T08:11:55Z</time>
      </trkpt>
      <trkpt lat="44.89496" lon="5.19105">
        <ele>920</ele>
        <time>2011-07-12T08:12:01Z</time>
      </trkpt>
      <trkpt lat="44.89588" lon="5.19162">
        <ele>921.03411865234</ele>
        <time>2011-07-12T08:12:09Z</time>
      </trkpt>
      <trkpt lat="44.89699" lon="5.19235">
        <ele>922.78039550781</ele>
        <time>2011-07-12T08:12:19Z</time>
      </trkpt>
      <trkpt lat="44.89796" lon="5.19292">
        <ele>925.02044677734</ele>
        <time>2011-07-12T08:12:28Z</time>
      </trkpt>
      <trkpt lat="44.89886" lon="5.19334">
        <ele>927.49627685547</ele>
        <time>2011-07-12T08:12:36Z</time>
      </trkpt>
      <trkpt lat="44.89966" lon="5.19364">
        <ele>927.89453125</ele>
        <time>2011-07-12T08:12:43Z</time>
      </trkpt>
      <trkpt lat="44.90069" lon="5.19389">
        <ele>930.908203125</ele>
        <time>2011-07-12T08:12:52Z</time>
      </trkpt>
      <trkpt lat="44.90127" lon="5.19396">
        <ele>931.48657226562</ele>
        <time>2011-07-12T08:12:57Z</time>
      </trkpt>
      <trkpt lat="44.90173" lon="5.19388">
        <ele>934.09936523438</ele>
        <time>2011-07-12T08:13:01Z</time>
      </trkpt>
      <trkpt lat="44.90252" lon="5.19365">
        <ele>938.49829101562</ele>
        <time>2011-07-12T08:13:08Z</time>
      </trkpt>
      <trkpt lat="44.90297" lon="5.19363">
        <ele>938.669921875</ele>
        <time>2011-07-12T08:13:12Z</time>
      </trkpt>
      <trkpt lat="44.90358" lon="5.19365">
        <ele>938.38153076172</ele>
        <time>2011-07-12T08:13:18Z</time>
      </trkpt>
      <trkpt lat="44.90418" lon="5.19359">
        <ele>939.41125488281</ele>
        <time>2011-07-12T08:13:24Z</time>
      </trkpt>
      <trkpt lat="44.90514" lon="5.19334">
        <ele>944.74755859375</ele>
        <time>2011-07-12T08:13:33Z</time>
      </trkpt>
      <trkpt lat="44.90605" lon="5.19299">
        <ele>945.82397460938</ele>
        <time>2011-07-12T08:13:41Z</time>
      </trkpt>
      <trkpt lat="44.90676" lon="5.19278">
        <ele>946.52807617188</ele>
        <time>2011-07-12T08:13:47Z</time>
      </trkpt>
      <trkpt lat="44.90784" lon="5.19252">
        <ele>945.54431152344</ele>
        <time>2011-07-12T08:13:56Z</time>
      </trkpt>
      <trkpt lat="44.9087" lon="5.19234">
        <ele>945.69989013672</ele>
        <time>2011-07-12T08:14:03Z</time>
      </trkpt>
      <trkpt lat="44.90882" lon="5.19232">
        <ele>945.13684082031</ele>
        <time>2011-07-12T08:14:04Z</time>
      </trkpt>
      <trkpt lat="44.90956" lon="5.19213">
        <ele>946.26916503906</ele>
        <time>2011-07-12T08:14:10Z</time>
      </trkpt>
      <trkpt lat="44.91007" lon="5.19216">
        <ele>943.08331298828</ele>
        <time>2011-07-12T08:14:14Z</time>
      </trkpt>
      <trkpt lat="44.91079" lon="5.19235">
        <ele>936.99499511719</ele>
        <time>2011-07-12T08:14:20Z</time>
      </trkpt>
      <trkpt lat="44.91119" lon="5.19246">
        <ele>935.36071777344</ele>
        <time>2011-07-12T08:14:24Z</time>
      </trkpt>
      <trkpt lat="44.91163" lon="5.19257">
        <ele>934.2880859375</ele>
        <time>2011-07-12T08:14:29Z</time>
      </trkpt>
      <trkpt lat="44.91171" lon="5.19258">
        <ele>934.41687011719</ele>
        <time>2011-07-12T08:14:30Z</time>
      </trkpt>
      <trkpt lat="44.91198" lon="5.19277">
        <ele>933.40679931641</ele>
        <time>2011-07-12T08:14:34Z</time>
      </trkpt>
      <trkpt lat="44.91204" lon="5.19307">
        <ele>930.2705078125</ele>
        <time>2011-07-12T08:14:37Z</time>
      </trkpt>
      <trkpt lat="44.91205" lon="5.19343">
        <ele>926.55383300781</ele>
        <time>2011-07-12T08:14:40Z</time>
      </trkpt>
      <trkpt lat="44.91202" lon="5.19381">
        <ele>922.54748535156</ele>
        <time>2011-07-12T08:14:43Z</time>
      </trkpt>
      <trkpt lat="44.9119" lon="5.19474">
        <ele>919</ele>
        <time>2011-07-12T08:14:49Z</time>
      </trkpt>
      <trkpt lat="44.91188" lon="5.19506">
        <ele>918.77276611328</ele>
        <time>2011-07-12T08:14:51Z</time>
      </trkpt>
      <trkpt lat="44.91196" lon="5.19549">
        <ele>918</ele>
        <time>2011-07-12T08:14:54Z</time>
      </trkpt>
      <trkpt lat="44.91211" lon="5.19565">
        <ele>917.65618896484</ele>
        <time>2011-07-12T08:14:56Z</time>
      </trkpt>
      <trkpt lat="44.91228" lon="5.19571">
        <ele>917.43646240234</ele>
        <time>2011-07-12T08:14:58Z</time>
      </trkpt>
      <trkpt lat="44.91263" lon="5.19574">
        <ele>917.32489013672</ele>
        <time>2011-07-12T08:15:03Z</time>
      </trkpt>
      <trkpt lat="44.9129" lon="5.19579">
        <ele>917.16009521484</ele>
        <time>2011-07-12T08:15:09Z</time>
      </trkpt>
      <trkpt lat="44.91312" lon="5.19586">
        <ele>916.91119384766</ele>
        <time>2011-07-12T08:15:15Z</time>
      </trkpt>
      <trkpt lat="44.91335" lon="5.196">
        <ele>916.38934326172</ele>
        <time>2011-07-12T08:15:22Z</time>
      </trkpt>
      <trkpt lat="44.91349" lon="5.19613">
        <ele>916.25054931641</ele>
        <time>2011-07-12T08:15:27Z</time>
      </trkpt>
      <trkpt lat="44.91364" lon="5.19622">
        <ele>917.87390136719</ele>
        <time>2011-07-12T08:15:32Z</time>
      </trkpt>
      <trkpt lat="44.91379" lon="5.19623">
        <ele>917.85168457031</ele>
        <time>2011-07-12T08:15:36Z</time>
      </trkpt>
      <trkpt lat="44.91383" lon="5.19623">
        <ele>917.74420166016</ele>
        <time>2011-07-12T08:15:37Z</time>
      </trkpt>
      <trkpt lat="44.914" lon="5.19619">
        <ele>916.49114990234</ele>
        <time>2011-07-12T08:15:41Z</time>
      </trkpt>
      <trkpt lat="44.91423" lon="5.1961">
        <ele>913.96722412109</ele>
        <time>2011-07-12T08:15:47Z</time>
      </trkpt>
      <trkpt lat="44.91438" lon="5.19609">
        <ele>913.82244873047</ele>
        <time>2011-07-12T08:15:52Z</time>
      </trkpt>
      <trkpt lat="44.91462" lon="5.19614">
        <ele>913.88452148438</ele>
        <time>2011-07-12T08:15:59Z</time>
      </trkpt>
      <trkpt lat="44.91484" lon="5.19619">
        <ele>914.01910400391</ele>
        <time>2011-07-12T08:16:06Z</time>
      </trkpt>
      <trkpt lat="44.9151" lon="5.19624">
        <ele>913.57897949219</ele>
        <time>2011-07-12T08:16:14Z</time>
      </trkpt>
      <trkpt lat="44.91531" lon="5.19628">
        <ele>911.98962402344</ele>
        <time>2011-07-12T08:16:21Z</time>
      </trkpt>
      <trkpt lat="44.91561" lon="5.19635">
        <ele>911.17437744141</ele>
        <time>2011-07-12T08:16:31Z</time>
      </trkpt>
      <trkpt lat="44.91592" lon="5.19644">
        <ele>910.39599609375</ele>
        <time>2011-07-12T08:16:41Z</time>
      </trkpt>
      <trkpt lat="44.91611" lon="5.19655">
        <ele>908.32873535156</ele>
        <time>2011-07-12T08:16:48Z</time>
      </trkpt>
      <trkpt lat="44.91633" lon="5.19666">
        <ele>906.83532714844</ele>
        <time>2011-07-12T08:16:56Z</time>
      </trkpt>
      <trkpt lat="44.91656" lon="5.19679">
        <ele>908.93792724609</ele>
        <time>2011-07-12T08:17:05Z</time>
      </trkpt>
      <trkpt lat="44.91677" lon="5.19693">
        <ele>912.77209472656</ele>
        <time>2011-07-12T08:17:13Z</time>
      </trkpt>
      <trkpt lat="44.91694" lon="5.1971">
        <ele>918.63366699219</ele>
        <time>2011-07-12T08:17:20Z</time>
      </trkpt>
      <trkpt lat="44.91712" lon="5.19723">
        <ele>921.71978759766</ele>
        <time>2011-07-12T08:17:27Z</time>
      </trkpt>
      <trkpt lat="44.91729" lon="5.19735">
        <ele>922.73602294922</ele>
        <time>2011-07-12T08:17:34Z</time>
      </trkpt>
      <trkpt lat="44.91745" lon="5.19743">
        <ele>922.59869384766</ele>
        <time>2011-07-12T08:17:40Z</time>
      </trkpt>
      <trkpt lat="44.91764" lon="5.19749">
        <ele>920.24267578125</ele>
        <time>2011-07-12T08:17:47Z</time>
      </trkpt>
      <trkpt lat="44.91784" lon="5.19754">
        <ele>917.53521728516</ele>
        <time>2011-07-12T08:17:54Z</time>
      </trkpt>
      <trkpt lat="44.91797" lon="5.19763">
        <ele>919.25103759766</ele>
        <time>2011-07-12T08:17:59Z</time>
      </trkpt>
      <trkpt lat="44.91811" lon="5.1977">
        <ele>919.39196777344</ele>
        <time>2011-07-12T08:18:04Z</time>
      </trkpt>
      <trkpt lat="44.91825" lon="5.19778">
        <ele>918.43792724609</ele>
        <time>2011-07-12T08:18:09Z</time>
      </trkpt>
      <trkpt lat="44.91841" lon="5.19783">
        <ele>916.07952880859</ele>
        <time>2011-07-12T08:18:14Z</time>
      </trkpt>
      <trkpt lat="44.91847" lon="5.19791">
        <ele>917.41638183594</ele>
        <time>2011-07-12T08:18:17Z</time>
      </trkpt>
      <trkpt lat="44.91848" lon="5.19795">
        <ele>918.44140625</ele>
        <time>2011-07-12T08:18:18Z</time>
      </trkpt>
      <trkpt lat="44.91842" lon="5.19806">
        <ele>923.07147216797</ele>
        <time>2011-07-12T08:18:22Z</time>
      </trkpt>
      <trkpt lat="44.91833" lon="5.19805">
        <ele>923.78948974609</ele>
        <time>2011-07-12T08:18:25Z</time>
      </trkpt>
      <trkpt lat="44.91803" lon="5.19795">
        <ele>929.74041748047</ele>
        <time>2011-07-12T08:18:35Z</time>
      </trkpt>
      <trkpt lat="44.91782" lon="5.19791">
        <ele>934.11608886719</ele>
        <time>2011-07-12T08:18:42Z</time>
      </trkpt>
      <trkpt lat="44.91765" lon="5.1979">
        <ele>937.11975097656</ele>
        <time>2011-07-12T08:18:48Z</time>
      </trkpt>
      <trkpt lat="44.91743" lon="5.1979">
        <ele>940.35192871094</ele>
        <time>2011-07-12T08:18:55Z</time>
      </trkpt>
      <trkpt lat="44.91729" lon="5.19789">
        <ele>941.79986572266</ele>
        <time>2011-07-12T08:19:01Z</time>
      </trkpt>
      <trkpt lat="44.91717" lon="5.19785">
        <ele>942.30682373047</ele>
        <time>2011-07-12T08:19:07Z</time>
      </trkpt>
      <trkpt lat="44.91703" lon="5.19784">
        <ele>943.57885742188</ele>
        <time>2011-07-12T08:19:13Z</time>
      </trkpt>
      <trkpt lat="44.91695" lon="5.19784">
        <ele>944.54187011719</ele>
        <time>2011-07-12T08:19:16Z</time>
      </trkpt>
      <trkpt lat="44.91686" lon="5.19785">
        <ele>944.84973144531</ele>
        <time>2011-07-12T08:19:20Z</time>
      </trkpt>
      <trkpt lat="44.9168" lon="5.19786">
        <ele>945.10211181641</ele>
        <time>2011-07-12T08:19:22Z</time>
      </trkpt>
      <trkpt lat="44.91661" lon="5.19788">
        <ele>945.84014892578</ele>
        <time>2011-07-12T08:19:29Z</time>
      </trkpt>
      <trkpt lat="44.91658" lon="5.19787">
        <ele>945.81390380859</ele>
        <time>2011-07-12T08:19:30Z</time>
      </trkpt>
      <trkpt lat="44.91637" lon="5.19791">
        <ele>947.98712158203</ele>
        <time>2011-07-12T08:19:37Z</time>
      </trkpt>
      <trkpt lat="44.91619" lon="5.19794">
        <ele>951.57141113281</ele>
        <time>2011-07-12T08:19:43Z</time>
      </trkpt>
      <trkpt lat="44.91595" lon="5.198">
        <ele>954.48107910156</ele>
        <time>2011-07-12T08:19:51Z</time>
      </trkpt>
      <trkpt lat="44.91571" lon="5.19806">
        <ele>956.31713867188</ele>
        <time>2011-07-12T08:19:59Z</time>
      </trkpt>
      <trkpt lat="44.9155" lon="5.19809">
        <ele>957.49133300781</ele>
        <time>2011-07-12T08:20:06Z</time>
      </trkpt>
      <trkpt lat="44.91536" lon="5.19808">
        <ele>957.05871582031</ele>
        <time>2011-07-12T08:20:11Z</time>
      </trkpt>
      <trkpt lat="44.91518" lon="5.19807">
        <ele>955.99694824219</ele>
        <time>2011-07-12T08:20:17Z</time>
      </trkpt>
      <trkpt lat="44.91494" lon="5.19809">
        <ele>955.88403320312</ele>
        <time>2011-07-12T08:20:25Z</time>
      </trkpt>
      <trkpt lat="44.9147" lon="5.19814">
        <ele>959.21685791016</ele>
        <time>2011-07-12T08:20:33Z</time>
      </trkpt>
      <trkpt lat="44.91449" lon="5.1982">
        <ele>961.08795166016</ele>
        <time>2011-07-12T08:20:40Z</time>
      </trkpt>
      <trkpt lat="44.91429" lon="5.19826">
        <ele>963.35388183594</ele>
        <time>2011-07-12T08:20:47Z</time>
      </trkpt>
      <trkpt lat="44.91409" lon="5.19834">
        <ele>966.10046386719</ele>
        <time>2011-07-12T08:20:54Z</time>
      </trkpt>
      <trkpt lat="44.91388" lon="5.1984">
        <ele>968.50231933594</ele>
        <time>2011-07-12T08:21:01Z</time>
      </trkpt>
      <trkpt lat="44.91369" lon="5.19846">
        <ele>970.25280761719</ele>
        <time>2011-07-12T08:21:07Z</time>
      </trkpt>
      <trkpt lat="44.91341" lon="5.19854">
        <ele>973.25714111328</ele>
        <time>2011-07-12T08:21:16Z</time>
      </trkpt>
      <trkpt lat="44.91332" lon="5.19865">
        <ele>976.94769287109</ele>
        <time>2011-07-12T08:21:20Z</time>
      </trkpt>
      <trkpt lat="44.91331" lon="5.19869">
        <ele>977.96752929688</ele>
        <time>2011-07-12T08:21:21Z</time>
      </trkpt>
      <trkpt lat="44.91341" lon="5.19885">
        <ele>981.91577148438</ele>
        <time>2011-07-12T08:21:26Z</time>
      </trkpt>
      <trkpt lat="44.91355" lon="5.19881">
        <ele>981.01452636719</ele>
        <time>2011-07-12T08:21:30Z</time>
      </trkpt>
      <trkpt lat="44.9138" lon="5.19872">
        <ele>978.93511962891</ele>
        <time>2011-07-12T08:21:38Z</time>
      </trkpt>
      <trkpt lat="44.91401" lon="5.1987">
        <ele>978.64099121094</ele>
        <time>2011-07-12T08:21:45Z</time>
      </trkpt>
      <trkpt lat="44.91422" lon="5.19869">
        <ele>978.45007324219</ele>
        <time>2011-07-12T08:21:52Z</time>
      </trkpt>
      <trkpt lat="44.91444" lon="5.19871">
        <ele>979.22326660156</ele>
        <time>2011-07-12T08:21:59Z</time>
      </trkpt>
      <trkpt lat="44.91465" lon="5.19873">
        <ele>979.91351318359</ele>
        <time>2011-07-12T08:22:06Z</time>
      </trkpt>
      <trkpt lat="44.9148" lon="5.19876">
        <ele>981.03643798828</ele>
        <time>2011-07-12T08:22:11Z</time>
      </trkpt>
      <trkpt lat="44.91491" lon="5.19876">
        <ele>981.32666015625</ele>
        <time>2011-07-12T08:22:15Z</time>
      </trkpt>
      <trkpt lat="44.91508" lon="5.19876">
        <ele>982.44555664062</ele>
        <time>2011-07-12T08:22:21Z</time>
      </trkpt>
      <trkpt lat="44.9153" lon="5.19877">
        <ele>985.56878662109</ele>
        <time>2011-07-12T08:22:28Z</time>
      </trkpt>
      <trkpt lat="44.91547" lon="5.19879">
        <ele>985.47375488281</ele>
        <time>2011-07-12T08:22:34Z</time>
      </trkpt>
      <trkpt lat="44.91566" lon="5.19882">
        <ele>985.5234375</ele>
        <time>2011-07-12T08:22:40Z</time>
      </trkpt>
      <trkpt lat="44.9159" lon="5.19888">
        <ele>985.83282470703</ele>
        <time>2011-07-12T08:22:47Z</time>
      </trkpt>
      <trkpt lat="44.91627" lon="5.19897">
        <ele>987.34655761719</ele>
        <time>2011-07-12T08:22:58Z</time>
      </trkpt>
      <trkpt lat="44.91652" lon="5.19907">
        <ele>988.15338134766</ele>
        <time>2011-07-12T08:23:06Z</time>
      </trkpt>
      <trkpt lat="44.91676" lon="5.19917">
        <ele>989.43359375</ele>
        <time>2011-07-12T08:23:14Z</time>
      </trkpt>
      <trkpt lat="44.91697" lon="5.19928">
        <ele>990.13372802734</ele>
        <time>2011-07-12T08:23:22Z</time>
      </trkpt>
      <trkpt lat="44.91719" lon="5.19939">
        <ele>990.25732421875</ele>
        <time>2011-07-12T08:23:30Z</time>
      </trkpt>
      <trkpt lat="44.91737" lon="5.1995">
        <ele>992.31225585938</ele>
        <time>2011-07-12T08:23:37Z</time>
      </trkpt>
      <trkpt lat="44.91754" lon="5.19958">
        <ele>994.09094238281</ele>
        <time>2011-07-12T08:23:44Z</time>
      </trkpt>
      <trkpt lat="44.91771" lon="5.19963">
        <ele>993.55847167969</ele>
        <time>2011-07-12T08:23:51Z</time>
      </trkpt>
      <trkpt lat="44.91789" lon="5.19966">
        <ele>990.28564453125</ele>
        <time>2011-07-12T08:23:58Z</time>
      </trkpt>
      <trkpt lat="44.91801" lon="5.19968">
        <ele>987.48571777344</ele>
        <time>2011-07-12T08:24:03Z</time>
      </trkpt>
      <trkpt lat="44.91816" lon="5.19973">
        <ele>988.29132080078</ele>
        <time>2011-07-12T08:24:09Z</time>
      </trkpt>
      <trkpt lat="44.91829" lon="5.19984">
        <ele>993.13220214844</ele>
        <time>2011-07-12T08:24:15Z</time>
      </trkpt>
      <trkpt lat="44.91846" lon="5.19995">
        <ele>996.03289794922</ele>
        <time>2011-07-12T08:24:23Z</time>
      </trkpt>
      <trkpt lat="44.91865" lon="5.20007">
        <ele>997.38977050781</ele>
        <time>2011-07-12T08:24:31Z</time>
      </trkpt>
      <trkpt lat="44.91882" lon="5.20018">
        <ele>998.38366699219</ele>
        <time>2011-07-12T08:24:39Z</time>
      </trkpt>
      <trkpt lat="44.91895" lon="5.20028">
        <ele>998.57061767578</ele>
        <time>2011-07-12T08:24:45Z</time>
      </trkpt>
      <trkpt lat="44.91912" lon="5.20041">
        <ele>999.49114990234</ele>
        <time>2011-07-12T08:24:53Z</time>
      </trkpt>
      <trkpt lat="44.91932" lon="5.20058">
        <ele>1002.4841918945</ele>
        <time>2011-07-12T08:25:03Z</time>
      </trkpt>
      <trkpt lat="44.91947" lon="5.20072">
        <ele>1004.4547729492</ele>
        <time>2011-07-12T08:25:11Z</time>
      </trkpt>
      <trkpt lat="44.91961" lon="5.20085">
        <ele>1006.3978881836</ele>
        <time>2011-07-12T08:25:19Z</time>
      </trkpt>
      <trkpt lat="44.91973" lon="5.20095">
        <ele>1009.328125</ele>
        <time>2011-07-12T08:25:26Z</time>
      </trkpt>
      <trkpt lat="44.91984" lon="5.20106">
        <ele>1012.8334350586</ele>
        <time>2011-07-12T08:25:32Z</time>
      </trkpt>
      <trkpt lat="44.91997" lon="5.20115">
        <ele>1015.3324584961</ele>
        <time>2011-07-12T08:25:39Z</time>
      </trkpt>
      <trkpt lat="44.92005" lon="5.20121">
        <ele>1017.0567016602</ele>
        <time>2011-07-12T08:25:43Z</time>
      </trkpt>
      <trkpt lat="44.92013" lon="5.20128">
        <ele>1018.9803466797</ele>
        <time>2011-07-12T08:25:48Z</time>
      </trkpt>
      <trkpt lat="44.92025" lon="5.20135">
        <ele>1020.3555297852</ele>
        <time>2011-07-12T08:25:54Z</time>
      </trkpt>
      <trkpt lat="44.92037" lon="5.2014">
        <ele>1020.7261352539</ele>
        <time>2011-07-12T08:26:00Z</time>
      </trkpt>
      <trkpt lat="44.92051" lon="5.20151">
        <ele>1021.5311889648</ele>
        <time>2011-07-12T08:26:07Z</time>
      </trkpt>
      <trkpt lat="44.92066" lon="5.20159">
        <ele>1022.1029663086</ele>
        <time>2011-07-12T08:26:14Z</time>
      </trkpt>
      <trkpt lat="44.92081" lon="5.20169">
        <ele>1023.580078125</ele>
        <time>2011-07-12T08:26:21Z</time>
      </trkpt>
      <trkpt lat="44.92097" lon="5.20183">
        <ele>1027.5007324219</ele>
        <time>2011-07-12T08:26:29Z</time>
      </trkpt>
      <trkpt lat="44.9211" lon="5.20193">
        <ele>1030.6116943359</ele>
        <time>2011-07-12T08:26:35Z</time>
      </trkpt>
      <trkpt lat="44.92121" lon="5.20198">
        <ele>1031.3291015625</ele>
        <time>2011-07-12T08:26:40Z</time>
      </trkpt>
      <trkpt lat="44.92134" lon="5.20204">
        <ele>1032.2701416016</ele>
        <time>2011-07-12T08:26:46Z</time>
      </trkpt>
      <trkpt lat="44.92148" lon="5.20217">
        <ele>1033.7996826172</ele>
        <time>2011-07-12T08:26:53Z</time>
      </trkpt>
      <trkpt lat="44.9216" lon="5.20236">
        <ele>1038.2095947266</ele>
        <time>2011-07-12T08:27:01Z</time>
      </trkpt>
      <trkpt lat="44.92162" lon="5.20239">
        <ele>1039.0733642578</ele>
        <time>2011-07-12T08:27:02Z</time>
      </trkpt>
      <trkpt lat="44.92159" lon="5.20258">
        <ele>1046.3273925781</ele>
        <time>2011-07-12T08:27:08Z</time>
      </trkpt>
      <trkpt lat="44.92147" lon="5.2027">
        <ele>1050.7523193359</ele>
        <time>2011-07-12T08:27:14Z</time>
      </trkpt>
      <trkpt lat="44.92131" lon="5.20273">
        <ele>1052.3360595703</ele>
        <time>2011-07-12T08:27:21Z</time>
      </trkpt>
      <trkpt lat="44.92124" lon="5.20274">
        <ele>1053.4124755859</ele>
        <time>2011-07-12T08:27:24Z</time>
      </trkpt>
      <trkpt lat="44.92113" lon="5.20284">
        <ele>1057.2106933594</ele>
        <time>2011-07-12T08:27:29Z</time>
      </trkpt>
      <trkpt lat="44.92103" lon="5.20301">
        <ele>1062.3968505859</ele>
        <time>2011-07-12T08:27:35Z</time>
      </trkpt>
      <trkpt lat="44.92096" lon="5.2032">
        <ele>1068.9587402344</ele>
        <time>2011-07-12T08:27:41Z</time>
      </trkpt>
      <trkpt lat="44.92081" lon="5.20361">
        <ele>1080.4028320312</ele>
        <time>2011-07-12T08:27:54Z</time>
      </trkpt>
      <trkpt lat="44.92073" lon="5.2038">
        <ele>1084.3922119141</ele>
        <time>2011-07-12T08:28:01Z</time>
      </trkpt>
      <trkpt lat="44.92061" lon="5.20401">
        <ele>1089.1077880859</ele>
        <time>2011-07-12T08:28:09Z</time>
      </trkpt>
      <trkpt lat="44.9205" lon="5.20424">
        <ele>1092.9008789062</ele>
        <time>2011-07-12T08:28:17Z</time>
      </trkpt>
      <trkpt lat="44.92043" lon="5.20446">
        <ele>1095.0970458984</ele>
        <time>2011-07-12T08:28:24Z</time>
      </trkpt>
      <trkpt lat="44.92039" lon="5.20467">
        <ele>1097.1306152344</ele>
        <time>2011-07-12T08:28:30Z</time>
      </trkpt>
      <trkpt lat="44.92033" lon="5.20499">
        <ele>1099.9049072266</ele>
        <time>2011-07-12T08:28:38Z</time>
      </trkpt>
      <trkpt lat="44.92027" lon="5.20537">
        <ele>1100</ele>
        <time>2011-07-12T08:28:47Z</time>
      </trkpt>
      <trkpt lat="44.9202" lon="5.20571">
        <ele>1100</ele>
        <time>2011-07-12T08:28:55Z</time>
      </trkpt>
      <trkpt lat="44.92012" lon="5.20602">
        <ele>1098.9327392578</ele>
        <time>2011-07-12T08:29:03Z</time>
      </trkpt>
      <trkpt lat="44.92001" lon="5.20627">
        <ele>1097.5179443359</ele>
        <time>2011-07-12T08:29:10Z</time>
      </trkpt>
      <trkpt lat="44.91984" lon="5.20645">
        <ele>1093.4300537109</ele>
        <time>2011-07-12T08:29:18Z</time>
      </trkpt>
      <trkpt lat="44.9197" lon="5.20657">
        <ele>1091.7855224609</ele>
        <time>2011-07-12T08:29:24Z</time>
      </trkpt>
      <trkpt lat="44.91954" lon="5.20674">
        <ele>1093.0848388672</ele>
        <time>2011-07-12T08:29:31Z</time>
      </trkpt>
      <trkpt lat="44.91943" lon="5.20695">
        <ele>1093.1402587891</ele>
        <time>2011-07-12T08:29:38Z</time>
      </trkpt>
      <trkpt lat="44.91931" lon="5.20721">
        <ele>1093.5625</ele>
        <time>2011-07-12T08:29:46Z</time>
      </trkpt>
      <trkpt lat="44.91918" lon="5.20745">
        <ele>1093.3161621094</ele>
        <time>2011-07-12T08:29:54Z</time>
      </trkpt>
      <trkpt lat="44.91905" lon="5.20767">
        <ele>1093.1094970703</ele>
        <time>2011-07-12T08:30:02Z</time>
      </trkpt>
      <trkpt lat="44.91889" lon="5.20784">
        <ele>1094.09375</ele>
        <time>2011-07-12T08:30:09Z</time>
      </trkpt>
      <trkpt lat="44.91877" lon="5.20791">
        <ele>1094.3533935547</ele>
        <time>2011-07-12T08:30:14Z</time>
      </trkpt>
      <trkpt lat="44.91851" lon="5.20807">
        <ele>1095.6505126953</ele>
        <time>2011-07-12T08:30:24Z</time>
      </trkpt>
      <trkpt lat="44.91849" lon="5.20808">
        <ele>1095.9135742188</ele>
        <time>2011-07-12T08:30:25Z</time>
      </trkpt>
      <trkpt lat="44.91832" lon="5.20816">
        <ele>1098.0633544922</ele>
        <time>2011-07-12T08:30:32Z</time>
      </trkpt>
      <trkpt lat="44.91815" lon="5.20827">
        <ele>1099.0714111328</ele>
        <time>2011-07-12T08:30:39Z</time>
      </trkpt>
      <trkpt lat="44.91793" lon="5.20843">
        <ele>1102.3101806641</ele>
        <time>2011-07-12T08:30:48Z</time>
      </trkpt>
      <trkpt lat="44.9177" lon="5.2086">
        <ele>1107.3530273438</ele>
        <time>2011-07-12T08:30:57Z</time>
      </trkpt>
      <trkpt lat="44.91748" lon="5.20876">
        <ele>1114.1452636719</ele>
        <time>2011-07-12T08:31:06Z</time>
      </trkpt>
      <trkpt lat="44.9173" lon="5.2089">
        <ele>1115.5992431641</ele>
        <time>2011-07-12T08:31:14Z</time>
      </trkpt>
      <trkpt lat="44.91716" lon="5.209">
        <ele>1117.8275146484</ele>
        <time>2011-07-12T08:31:20Z</time>
      </trkpt>
      <trkpt lat="44.91705" lon="5.20907">
        <ele>1119.8961181641</ele>
        <time>2011-07-12T08:31:25Z</time>
      </trkpt>
      <trkpt lat="44.91686" lon="5.20923">
        <ele>1123.6749267578</ele>
        <time>2011-07-12T08:31:34Z</time>
      </trkpt>
      <trkpt lat="44.91676" lon="5.2093">
        <ele>1125.8034667969</ele>
        <time>2011-07-12T08:31:39Z</time>
      </trkpt>
      <trkpt lat="44.91658" lon="5.20942">
        <ele>1128.4916992188</ele>
        <time>2011-07-12T08:31:47Z</time>
      </trkpt>
      <trkpt lat="44.91641" lon="5.2095">
        <ele>1130.1730957031</ele>
        <time>2011-07-12T08:31:54Z</time>
      </trkpt>
      <trkpt lat="44.91626" lon="5.20953">
        <ele>1132.8303222656</ele>
        <time>2011-07-12T08:32:00Z</time>
      </trkpt>
      <trkpt lat="44.91609" lon="5.20952">
        <ele>1136.5422363281</ele>
        <time>2011-07-12T08:32:07Z</time>
      </trkpt>
      <trkpt lat="44.91592" lon="5.2095">
        <ele>1139.4653320312</ele>
        <time>2011-07-12T08:32:14Z</time>
      </trkpt>
      <trkpt lat="44.9158" lon="5.20949">
        <ele>1141.1994628906</ele>
        <time>2011-07-12T08:32:19Z</time>
      </trkpt>
      <trkpt lat="44.91565" lon="5.20949">
        <ele>1142.71484375</ele>
        <time>2011-07-12T08:32:25Z</time>
      </trkpt>
      <trkpt lat="44.91549" lon="5.20949">
        <ele>1144.3348388672</ele>
        <time>2011-07-12T08:32:31Z</time>
      </trkpt>
      <trkpt lat="44.91533" lon="5.2095">
        <ele>1145.9049072266</ele>
        <time>2011-07-12T08:32:37Z</time>
      </trkpt>
      <trkpt lat="44.91513" lon="5.20953">
        <ele>1147.7078857422</ele>
        <time>2011-07-12T08:32:44Z</time>
      </trkpt>
      <trkpt lat="44.91486" lon="5.20953">
        <ele>1150.0131835938</ele>
        <time>2011-07-12T08:32:53Z</time>
      </trkpt>
      <trkpt lat="44.91467" lon="5.2095">
        <ele>1152.0173339844</ele>
        <time>2011-07-12T08:33:01Z</time>
      </trkpt>
      <trkpt lat="44.91449" lon="5.2094">
        <ele>1154.9940185547</ele>
        <time>2011-07-12T08:33:09Z</time>
      </trkpt>
      <trkpt lat="44.91433" lon="5.20931">
        <ele>1157.5357666016</ele>
        <time>2011-07-12T08:33:16Z</time>
      </trkpt>
      <trkpt lat="44.91416" lon="5.20919">
        <ele>1159.8395996094</ele>
        <time>2011-07-12T08:33:23Z</time>
      </trkpt>
      <trkpt lat="44.91402" lon="5.20911">
        <ele>1160.2150878906</ele>
        <time>2011-07-12T08:33:29Z</time>
      </trkpt>
      <trkpt lat="44.91389" lon="5.20902">
        <ele>1160.5274658203</ele>
        <time>2011-07-12T08:33:35Z</time>
      </trkpt>
      <trkpt lat="44.91371" lon="5.20891">
        <ele>1161.5693359375</ele>
        <time>2011-07-12T08:33:43Z</time>
      </trkpt>
      <trkpt lat="44.91351" lon="5.20877">
        <ele>1163.2271728516</ele>
        <time>2011-07-12T08:33:52Z</time>
      </trkpt>
      <trkpt lat="44.9133" lon="5.20864">
        <ele>1164.9344482422</ele>
        <time>2011-07-12T08:34:01Z</time>
      </trkpt>
      <trkpt lat="44.91313" lon="5.20853">
        <ele>1166.3101806641</ele>
        <time>2011-07-12T08:34:08Z</time>
      </trkpt>
      <trkpt lat="44.913" lon="5.20844">
        <ele>1167.6737060547</ele>
        <time>2011-07-12T08:34:14Z</time>
      </trkpt>
      <trkpt lat="44.91281" lon="5.20833">
        <ele>1169.8631591797</ele>
        <time>2011-07-12T08:34:22Z</time>
      </trkpt>
      <trkpt lat="44.91263" lon="5.2082">
        <ele>1172.9562988281</ele>
        <time>2011-07-12T08:34:30Z</time>
      </trkpt>
      <trkpt lat="44.91251" lon="5.20814">
        <ele>1174.7552490234</ele>
        <time>2011-07-12T08:34:35Z</time>
      </trkpt>
      <trkpt lat="44.9123" lon="5.20808">
        <ele>1175.7371826172</ele>
        <time>2011-07-12T08:34:43Z</time>
      </trkpt>
      <trkpt lat="44.91209" lon="5.20808">
        <ele>1175.7404785156</ele>
        <time>2011-07-12T08:34:50Z</time>
      </trkpt>
      <trkpt lat="44.91191" lon="5.20812">
        <ele>1175.6469726562</ele>
        <time>2011-07-12T08:34:56Z</time>
      </trkpt>
      <trkpt lat="44.91169" lon="5.20818">
        <ele>1176.0555419922</ele>
        <time>2011-07-12T08:35:03Z</time>
      </trkpt>
      <trkpt lat="44.91143" lon="5.20831">
        <ele>1176.8413085938</ele>
        <time>2011-07-12T08:35:11Z</time>
      </trkpt>
      <trkpt lat="44.91118" lon="5.20856">
        <ele>1178.4655761719</ele>
        <time>2011-07-12T08:35:19Z</time>
      </trkpt>
      <trkpt lat="44.91104" lon="5.20874">
        <ele>1179.7956542969</ele>
        <time>2011-07-12T08:35:24Z</time>
      </trkpt>
      <trkpt lat="44.91088" lon="5.20904">
        <ele>1180.8818359375</ele>
        <time>2011-07-12T08:35:30Z</time>
      </trkpt>
      <trkpt lat="44.91076" lon="5.2095">
        <ele>1181.662109375</ele>
        <time>2011-07-12T08:35:37Z</time>
      </trkpt>
      <trkpt lat="44.91075" lon="5.20957">
        <ele>1181.6145019531</ele>
        <time>2011-07-12T08:35:38Z</time>
      </trkpt>
      <trkpt lat="44.91071" lon="5.20971">
        <ele>1181.7634277344</ele>
        <time>2011-07-12T08:35:40Z</time>
      </trkpt>
      <trkpt lat="44.91067" lon="5.20991">
        <ele>1181.9814453125</ele>
        <time>2011-07-12T08:35:43Z</time>
      </trkpt>
      <trkpt lat="44.91061" lon="5.2102">
        <ele>1181.7884521484</ele>
        <time>2011-07-12T08:35:47Z</time>
      </trkpt>
      <trkpt lat="44.91057" lon="5.21043">
        <ele>1181.9086914062</ele>
        <time>2011-07-12T08:35:50Z</time>
      </trkpt>
      <trkpt lat="44.91051" lon="5.21098">
        <ele>1181.2010498047</ele>
        <time>2011-07-12T08:35:57Z</time>
      </trkpt>
      <trkpt lat="44.91051" lon="5.21127">
        <ele>1180.7708740234</ele>
        <time>2011-07-12T08:36:01Z</time>
      </trkpt>
      <trkpt lat="44.91056" lon="5.21168">
        <ele>1179.9910888672</ele>
        <time>2011-07-12T08:36:06Z</time>
      </trkpt>
      <trkpt lat="44.91051" lon="5.21202">
        <ele>1180.4349365234</ele>
        <time>2011-07-12T08:36:10Z</time>
      </trkpt>
      <trkpt lat="44.91044" lon="5.21224">
        <ele>1180.767578125</ele>
        <time>2011-07-12T08:36:13Z</time>
      </trkpt>
      <trkpt lat="44.91022" lon="5.21261">
        <ele>1181.6868896484</ele>
        <time>2011-07-12T08:36:20Z</time>
      </trkpt>
      <trkpt lat="44.91002" lon="5.2129">
        <ele>1181.4913330078</ele>
        <time>2011-07-12T08:36:27Z</time>
      </trkpt>
      <trkpt lat="44.90987" lon="5.21312">
        <ele>1181.2629394531</ele>
        <time>2011-07-12T08:36:33Z</time>
      </trkpt>
      <trkpt lat="44.90971" lon="5.21333">
        <ele>1181.0706787109</ele>
        <time>2011-07-12T08:36:39Z</time>
      </trkpt>
      <trkpt lat="44.90951" lon="5.21357">
        <ele>1180.2371826172</ele>
        <time>2011-07-12T08:36:46Z</time>
      </trkpt>
      <trkpt lat="44.90936" lon="5.21369">
        <ele>1180.017578125</ele>
        <time>2011-07-12T08:36:51Z</time>
      </trkpt>
      <trkpt lat="44.90918" lon="5.21375">
        <ele>1180.4243164062</ele>
        <time>2011-07-12T08:36:56Z</time>
      </trkpt>
      <trkpt lat="44.909" lon="5.21382">
        <ele>1183.3065185547</ele>
        <time>2011-07-12T08:37:01Z</time>
      </trkpt>
      <trkpt lat="44.90881" lon="5.21398">
        <ele>1186.7393798828</ele>
        <time>2011-07-12T08:37:07Z</time>
      </trkpt>
      <trkpt lat="44.90865" lon="5.21426">
        <ele>1190.9503173828</ele>
        <time>2011-07-12T08:37:14Z</time>
      </trkpt>
      <trkpt lat="44.90858" lon="5.21456">
        <ele>1193.8796386719</ele>
        <time>2011-07-12T08:37:20Z</time>
      </trkpt>
      <trkpt lat="44.9086" lon="5.21484">
        <ele>1194.9829101562</ele>
        <time>2011-07-12T08:37:26Z</time>
      </trkpt>
      <trkpt lat="44.90868" lon="5.21509">
        <ele>1195.9307861328</ele>
        <time>2011-07-12T08:37:33Z</time>
      </trkpt>
      <trkpt lat="44.90879" lon="5.21529">
        <ele>1196.7764892578</ele>
        <time>2011-07-12T08:37:40Z</time>
      </trkpt>
      <trkpt lat="44.90891" lon="5.21544">
        <ele>1196.9776611328</ele>
        <time>2011-07-12T08:37:46Z</time>
      </trkpt>
      <trkpt lat="44.90905" lon="5.21561">
        <ele>1197.5970458984</ele>
        <time>2011-07-12T08:37:53Z</time>
      </trkpt>
      <trkpt lat="44.90916" lon="5.21572">
        <ele>1198.3386230469</ele>
        <time>2011-07-12T08:37:59Z</time>
      </trkpt>
      <trkpt lat="44.90934" lon="5.21582">
        <ele>1194.6652832031</ele>
        <time>2011-07-12T08:38:07Z</time>
      </trkpt>
      <trkpt lat="44.90946" lon="5.21586">
        <ele>1191.9752197266</ele>
        <time>2011-07-12T08:38:12Z</time>
      </trkpt>
      <trkpt lat="44.90965" lon="5.21594">
        <ele>1189.1496582031</ele>
        <time>2011-07-12T08:38:19Z</time>
      </trkpt>
      <trkpt lat="44.90984" lon="5.21612">
        <ele>1187.9129638672</ele>
        <time>2011-07-12T08:38:27Z</time>
      </trkpt>
      <trkpt lat="44.9099" lon="5.21633">
        <ele>1189.365234375</ele>
        <time>2011-07-12T08:38:33Z</time>
      </trkpt>
      <trkpt lat="44.90989" lon="5.21651">
        <ele>1191.2242431641</ele>
        <time>2011-07-12T08:38:39Z</time>
      </trkpt>
      <trkpt lat="44.90984" lon="5.2167">
        <ele>1193.5155029297</ele>
        <time>2011-07-12T08:38:46Z</time>
      </trkpt>
      <trkpt lat="44.90977" lon="5.21689">
        <ele>1195.953125</ele>
        <time>2011-07-12T08:38:53Z</time>
      </trkpt>
      <trkpt lat="44.90974" lon="5.21708">
        <ele>1198.1787109375</ele>
        <time>2011-07-12T08:38:59Z</time>
      </trkpt>
      <trkpt lat="44.90984" lon="5.21726">
        <ele>1198.5324707031</ele>
        <time>2011-07-12T08:39:05Z</time>
      </trkpt>
      <trkpt lat="44.90994" lon="5.21734">
        <ele>1197.7015380859</ele>
        <time>2011-07-12T08:39:10Z</time>
      </trkpt>
      <trkpt lat="44.91005" lon="5.21734">
        <ele>1196.5057373047</ele>
        <time>2011-07-12T08:39:15Z</time>
      </trkpt>
      <trkpt lat="44.91019" lon="5.21733">
        <ele>1195.3693847656</ele>
        <time>2011-07-12T08:39:21Z</time>
      </trkpt>
      <trkpt lat="44.91033" lon="5.21739">
        <ele>1194.8680419922</ele>
        <time>2011-07-12T08:39:27Z</time>
      </trkpt>
      <trkpt lat="44.91044" lon="5.21745">
        <ele>1194.4973144531</ele>
        <time>2011-07-12T08:39:33Z</time>
      </trkpt>
      <trkpt lat="44.91058" lon="5.21753">
        <ele>1194.1730957031</ele>
        <time>2011-07-12T08:39:40Z</time>
      </trkpt>
      <trkpt lat="44.91071" lon="5.21766">
        <ele>1194.921875</ele>
        <time>2011-07-12T08:39:47Z</time>
      </trkpt>
      <trkpt lat="44.91082" lon="5.21778">
        <ele>1196.0688476562</ele>
        <time>2011-07-12T08:39:53Z</time>
      </trkpt>
      <trkpt lat="44.9109" lon="5.21787">
        <ele>1197.10546875</ele>
        <time>2011-07-12T08:39:58Z</time>
      </trkpt>
      <trkpt lat="44.911" lon="5.21796">
        <ele>1198.4434814453</ele>
        <time>2011-07-12T08:40:04Z</time>
      </trkpt>
      <trkpt lat="44.91114" lon="5.21805">
        <ele>1199.9155273438</ele>
        <time>2011-07-12T08:40:11Z</time>
      </trkpt>
      <trkpt lat="44.91127" lon="5.21812">
        <ele>1201.6398925781</ele>
        <time>2011-07-12T08:40:17Z</time>
      </trkpt>
      <trkpt lat="44.9114" lon="5.21826">
        <ele>1204.2631835938</ele>
        <time>2011-07-12T08:40:24Z</time>
      </trkpt>
      <trkpt lat="44.9115" lon="5.21843">
        <ele>1208.28515625</ele>
        <time>2011-07-12T08:40:31Z</time>
      </trkpt>
      <trkpt lat="44.91158" lon="5.21863">
        <ele>1214.5028076172</ele>
        <time>2011-07-12T08:40:38Z</time>
      </trkpt>
      <trkpt lat="44.91163" lon="5.21884">
        <ele>1219.4061279297</ele>
        <time>2011-07-12T08:40:45Z</time>
      </trkpt>
      <trkpt lat="44.9117" lon="5.21904">
        <ele>1226.2141113281</ele>
        <time>2011-07-12T08:40:53Z</time>
      </trkpt>
      <trkpt lat="44.91179" lon="5.2192">
        <ele>1231.8277587891</ele>
        <time>2011-07-12T08:40:59Z</time>
      </trkpt>
      <trkpt lat="44.91187" lon="5.21935">
        <ele>1236.7747802734</ele>
        <time>2011-07-12T08:41:04Z</time>
      </trkpt>
      <trkpt lat="44.91198" lon="5.21957">
        <ele>1241.7520751953</ele>
        <time>2011-07-12T08:41:12Z</time>
      </trkpt>
      <trkpt lat="44.91212" lon="5.21986">
        <ele>1245.3724365234</ele>
        <time>2011-07-12T08:41:21Z</time>
      </trkpt>
      <trkpt lat="44.91216" lon="5.2201">
        <ele>1248.8436279297</ele>
        <time>2011-07-12T08:41:28Z</time>
      </trkpt>
      <trkpt lat="44.91216" lon="5.22043">
        <ele>1254.3125</ele>
        <time>2011-07-12T08:41:37Z</time>
      </trkpt>
      <trkpt lat="44.91215" lon="5.22069">
        <ele>1258.7542724609</ele>
        <time>2011-07-12T08:41:44Z</time>
      </trkpt>
      <trkpt lat="44.91213" lon="5.22094">
        <ele>1261.6763916016</ele>
        <time>2011-07-12T08:41:51Z</time>
      </trkpt>
      <trkpt lat="44.91212" lon="5.22113">
        <ele>1262.6767578125</ele>
        <time>2011-07-12T08:41:57Z</time>
      </trkpt>
      <trkpt lat="44.91212" lon="5.22131">
        <ele>1264.5753173828</ele>
        <time>2011-07-12T08:42:03Z</time>
      </trkpt>
      <trkpt lat="44.91214" lon="5.22147">
        <ele>1265.6881103516</ele>
        <time>2011-07-12T08:42:08Z</time>
      </trkpt>
      <trkpt lat="44.91214" lon="5.22165">
        <ele>1266.7634277344</ele>
        <time>2011-07-12T08:42:14Z</time>
      </trkpt>
      <trkpt lat="44.91219" lon="5.22187">
        <ele>1267.8961181641</ele>
        <time>2011-07-12T08:42:21Z</time>
      </trkpt>
      <trkpt lat="44.91222" lon="5.22195">
        <ele>1268.177734375</ele>
        <time>2011-07-12T08:42:24Z</time>
      </trkpt>
      <trkpt lat="44.91235" lon="5.22214">
        <ele>1265.3848876953</ele>
        <time>2011-07-12T08:42:31Z</time>
      </trkpt>
      <trkpt lat="44.91245" lon="5.2223">
        <ele>1263.4665527344</ele>
        <time>2011-07-12T08:42:37Z</time>
      </trkpt>
      <trkpt lat="44.9126" lon="5.22249">
        <ele>1262.3775634766</ele>
        <time>2011-07-12T08:42:44Z</time>
      </trkpt>
      <trkpt lat="44.91278" lon="5.22272">
        <ele>1263.0712890625</ele>
        <time>2011-07-12T08:42:52Z</time>
      </trkpt>
      <trkpt lat="44.91297" lon="5.22297">
        <ele>1261.9536132812</ele>
        <time>2011-07-12T08:43:00Z</time>
      </trkpt>
      <trkpt lat="44.91319" lon="5.2233">
        <ele>1261.2293701172</ele>
        <time>2011-07-12T08:43:09Z</time>
      </trkpt>
      <trkpt lat="44.91327" lon="5.22354">
        <ele>1261.9547119141</ele>
        <time>2011-07-12T08:43:14Z</time>
      </trkpt>
      <trkpt lat="44.91337" lon="5.22389">
        <ele>1262.11328125</ele>
        <time>2011-07-12T08:43:21Z</time>
      </trkpt>
      <trkpt lat="44.91344" lon="5.22412">
        <ele>1263.5968017578</ele>
        <time>2011-07-12T08:43:26Z</time>
      </trkpt>
      <trkpt lat="44.91354" lon="5.22443">
        <ele>1262.5322265625</ele>
        <time>2011-07-12T08:43:33Z</time>
      </trkpt>
      <trkpt lat="44.91364" lon="5.22471">
        <ele>1263.7982177734</ele>
        <time>2011-07-12T08:43:40Z</time>
      </trkpt>
      <trkpt lat="44.9137" lon="5.22494">
        <ele>1264.6437988281</ele>
        <time>2011-07-12T08:43:46Z</time>
      </trkpt>
      <trkpt lat="44.91377" lon="5.22519">
        <ele>1264.5072021484</ele>
        <time>2011-07-12T08:43:53Z</time>
      </trkpt>
      <trkpt lat="44.91383" lon="5.2255">
        <ele>1266.5886230469</ele>
        <time>2011-07-12T08:44:01Z</time>
      </trkpt>
      <trkpt lat="44.91387" lon="5.22577">
        <ele>1269.7144775391</ele>
        <time>2011-07-12T08:44:08Z</time>
      </trkpt>
      <trkpt lat="44.9139" lon="5.22602">
        <ele>1274.3494873047</ele>
        <time>2011-07-12T08:44:14Z</time>
      </trkpt>
      <trkpt lat="44.91388" lon="5.22626">
        <ele>1279.8701171875</ele>
        <time>2011-07-12T08:44:20Z</time>
      </trkpt>
      <trkpt lat="44.9138" lon="5.22648">
        <ele>1284.5186767578</ele>
        <time>2011-07-12T08:44:26Z</time>
      </trkpt>
      <trkpt lat="44.91364" lon="5.22673">
        <ele>1289.4937744141</ele>
        <time>2011-07-12T08:44:33Z</time>
      </trkpt>
      <trkpt lat="44.91353" lon="5.22687">
        <ele>1292.5981445312</ele>
        <time>2011-07-12T08:44:37Z</time>
      </trkpt>
      <trkpt lat="44.91341" lon="5.22702">
        <ele>1294.1359863281</ele>
        <time>2011-07-12T08:44:41Z</time>
      </trkpt>
      <trkpt lat="44.91323" lon="5.22734">
        <ele>1293.8216552734</ele>
        <time>2011-07-12T08:44:48Z</time>
      </trkpt>
      <trkpt lat="44.91304" lon="5.22746">
        <ele>1294.798828125</ele>
        <time>2011-07-12T08:44:53Z</time>
      </trkpt>
      <trkpt lat="44.91294" lon="5.22746">
        <ele>1296.6776123047</ele>
        <time>2011-07-12T08:44:55Z</time>
      </trkpt>
      <trkpt lat="44.91272" lon="5.22738">
        <ele>1300.0844726562</ele>
        <time>2011-07-12T08:45:00Z</time>
      </trkpt>
      <trkpt lat="44.91237" lon="5.22725">
        <ele>1300.9099121094</ele>
        <time>2011-07-12T08:45:07Z</time>
      </trkpt>
      <trkpt lat="44.91233" lon="5.22723">
        <ele>1300.9752197266</ele>
        <time>2011-07-12T08:45:08Z</time>
      </trkpt>
      <trkpt lat="44.91197" lon="5.22706">
        <ele>1302.5126953125</ele>
        <time>2011-07-12T08:45:15Z</time>
      </trkpt>
      <trkpt lat="44.91165" lon="5.2269">
        <ele>1303.3803710938</ele>
        <time>2011-07-12T08:45:21Z</time>
      </trkpt>
      <trkpt lat="44.91127" lon="5.22666">
        <ele>1306.8599853516</ele>
        <time>2011-07-12T08:45:28Z</time>
      </trkpt>
      <trkpt lat="44.91087" lon="5.22647">
        <ele>1309.3955078125</ele>
        <time>2011-07-12T08:45:35Z</time>
      </trkpt>
      <trkpt lat="44.91073" lon="5.22645">
        <ele>1309.9240722656</ele>
        <time>2011-07-12T08:45:37Z</time>
      </trkpt>
      <trkpt lat="44.9102" lon="5.22643">
        <ele>1310.4385986328</ele>
        <time>2011-07-12T08:45:45Z</time>
      </trkpt>
      <trkpt lat="44.90993" lon="5.22642">
        <ele>1309.7559814453</ele>
        <time>2011-07-12T08:45:49Z</time>
      </trkpt>
      <trkpt lat="44.90969" lon="5.22658">
        <ele>1308.6229248047</ele>
        <time>2011-07-12T08:45:53Z</time>
      </trkpt>
      <trkpt lat="44.90956" lon="5.22678">
        <ele>1307.1535644531</ele>
        <time>2011-07-12T08:45:56Z</time>
      </trkpt>
      <trkpt lat="44.90927" lon="5.22706">
        <ele>1305.8270263672</ele>
        <time>2011-07-12T08:46:02Z</time>
      </trkpt>
      <trkpt lat="44.90911" lon="5.22711">
        <ele>1306.0227050781</ele>
        <time>2011-07-12T08:46:05Z</time>
      </trkpt>
      <trkpt lat="44.90881" lon="5.22706">
        <ele>1307.7430419922</ele>
        <time>2011-07-12T08:46:11Z</time>
      </trkpt>
      <trkpt lat="44.90866" lon="5.22699">
        <ele>1309.3326416016</ele>
        <time>2011-07-12T08:46:14Z</time>
      </trkpt>
      <trkpt lat="44.90856" lon="5.22693">
        <ele>1310.0822753906</ele>
        <time>2011-07-12T08:46:16Z</time>
      </trkpt>
      <trkpt lat="44.90835" lon="5.22684">
        <ele>1311.09765625</ele>
        <time>2011-07-12T08:46:20Z</time>
      </trkpt>
      <trkpt lat="44.90805" lon="5.22684">
        <ele>1313.0969238281</ele>
        <time>2011-07-12T08:46:25Z</time>
      </trkpt>
      <trkpt lat="44.90755" lon="5.22693">
        <ele>1312.9860839844</ele>
        <time>2011-07-12T08:46:33Z</time>
      </trkpt>
      <trkpt lat="44.90712" lon="5.22693">
        <ele>1315.0584716797</ele>
        <time>2011-07-12T08:46:40Z</time>
      </trkpt>
      <trkpt lat="44.90667" lon="5.22693">
        <ele>1319.2001953125</ele>
        <time>2011-07-12T08:46:47Z</time>
      </trkpt>
      <trkpt lat="44.90632" lon="5.227">
        <ele>1319.8756103516</ele>
        <time>2011-07-12T08:46:53Z</time>
      </trkpt>
      <trkpt lat="44.90599" lon="5.22691">
        <ele>1321.7434082031</ele>
        <time>2011-07-12T08:47:00Z</time>
      </trkpt>
      <trkpt lat="44.90571" lon="5.22676">
        <ele>1323.2788085938</ele>
        <time>2011-07-12T08:47:07Z</time>
      </trkpt>
      <trkpt lat="44.90546" lon="5.2266">
        <ele>1324.6010742188</ele>
        <time>2011-07-12T08:47:14Z</time>
      </trkpt>
      <trkpt lat="44.90532" lon="5.22648">
        <ele>1325.8508300781</ele>
        <time>2011-07-12T08:47:18Z</time>
      </trkpt>
      <trkpt lat="44.9051" lon="5.22614">
        <ele>1332.0042724609</ele>
        <time>2011-07-12T08:47:26Z</time>
      </trkpt>
      <trkpt lat="44.90503" lon="5.22606">
        <ele>1333.3031005859</ele>
        <time>2011-07-12T08:47:28Z</time>
      </trkpt>
      <trkpt lat="44.90475" lon="5.22593">
        <ele>1335.2113037109</ele>
        <time>2011-07-12T08:47:35Z</time>
      </trkpt>
      <trkpt lat="44.90461" lon="5.2259">
        <ele>1334.8643798828</ele>
        <time>2011-07-12T08:47:38Z</time>
      </trkpt>
      <trkpt lat="44.9043" lon="5.22571">
        <ele>1337.2043457031</ele>
        <time>2011-07-12T08:47:45Z</time>
      </trkpt>
      <trkpt lat="44.9041" lon="5.22558">
        <ele>1339.6175537109</ele>
        <time>2011-07-12T08:47:50Z</time>
      </trkpt>
      <trkpt lat="44.90392" lon="5.22554">
        <ele>1340.171875</ele>
        <time>2011-07-12T08:47:54Z</time>
      </trkpt>
      <trkpt lat="44.9038" lon="5.22554">
        <ele>1339.8502197266</ele>
        <time>2011-07-12T08:47:57Z</time>
      </trkpt>
      <trkpt lat="44.90345" lon="5.22553">
        <ele>1339.5773925781</ele>
        <time>2011-07-12T08:48:05Z</time>
      </trkpt>
      <trkpt lat="44.90324" lon="5.22543">
        <ele>1341.1304931641</ele>
        <time>2011-07-12T08:48:10Z</time>
      </trkpt>
      <trkpt lat="44.90307" lon="5.22525">
        <ele>1343.6633300781</ele>
        <time>2011-07-12T08:48:15Z</time>
      </trkpt>
      <trkpt lat="44.9028" lon="5.22482">
        <ele>1349.3659667969</ele>
        <time>2011-07-12T08:48:25Z</time>
      </trkpt>
      <trkpt lat="44.90276" lon="5.22478">
        <ele>1349.8160400391</ele>
        <time>2011-07-12T08:48:26Z</time>
      </trkpt>
      <trkpt lat="44.90255" lon="5.22466">
        <ele>1348.4654541016</ele>
        <time>2011-07-12T08:48:31Z</time>
      </trkpt>
      <trkpt lat="44.90232" lon="5.2246">
        <ele>1345.3840332031</ele>
        <time>2011-07-12T08:48:36Z</time>
      </trkpt>
      <trkpt lat="44.902" lon="5.22442">
        <ele>1343.8402099609</ele>
        <time>2011-07-12T08:48:43Z</time>
      </trkpt>
      <trkpt lat="44.90169" lon="5.22414">
        <ele>1340.8000488281</ele>
        <time>2011-07-12T08:48:51Z</time>
      </trkpt>
      <trkpt lat="44.90146" lon="5.22389">
        <ele>1341.7440185547</ele>
        <time>2011-07-12T08:48:58Z</time>
      </trkpt>
      <trkpt lat="44.90134" lon="5.22379">
        <ele>1338.9871826172</ele>
        <time>2011-07-12T08:49:01Z</time>
      </trkpt>
      <trkpt lat="44.90099" lon="5.22354">
        <ele>1331.5406494141</ele>
        <time>2011-07-12T08:49:09Z</time>
      </trkpt>
      <trkpt lat="44.90094" lon="5.22351">
        <ele>1331.7569580078</ele>
        <time>2011-07-12T08:49:10Z</time>
      </trkpt>
      <trkpt lat="44.90067" lon="5.22336">
        <ele>1332.8006591797</ele>
        <time>2011-07-12T08:49:15Z</time>
      </trkpt>
      <trkpt lat="44.90024" lon="5.22325">
        <ele>1333.6075439453</ele>
        <time>2011-07-12T08:49:22Z</time>
      </trkpt>
      <trkpt lat="44.9001" lon="5.22326">
        <ele>1333.5422363281</ele>
        <time>2011-07-12T08:49:24Z</time>
      </trkpt>
      <trkpt lat="44.89997" lon="5.2233">
        <ele>1333.3651123047</ele>
        <time>2011-07-12T08:49:26Z</time>
      </trkpt>
      <trkpt lat="44.89972" lon="5.22347">
        <ele>1333.5130615234</ele>
        <time>2011-07-12T08:49:30Z</time>
      </trkpt>
      <trkpt lat="44.89966" lon="5.22354">
        <ele>1333.5415039062</ele>
        <time>2011-07-12T08:49:31Z</time>
      </trkpt>
      <trkpt lat="44.89943" lon="5.22396">
        <ele>1333.8599853516</ele>
        <time>2011-07-12T08:49:36Z</time>
      </trkpt>
      <trkpt lat="44.89912" lon="5.22496">
        <ele>1333.4822998047</ele>
        <time>2011-07-12T08:49:46Z</time>
      </trkpt>
      <trkpt lat="44.89897" lon="5.22565">
        <ele>1335.8138427734</ele>
        <time>2011-07-12T08:49:53Z</time>
      </trkpt>
      <trkpt lat="44.89894" lon="5.22635">
        <ele>1338.6470947266</ele>
        <time>2011-07-12T08:50:00Z</time>
      </trkpt>
      <trkpt lat="44.89895" lon="5.22691">
        <ele>1339.1092529297</ele>
        <time>2011-07-12T08:50:06Z</time>
      </trkpt>
      <trkpt lat="44.89906" lon="5.22744">
        <ele>1338.0668945312</ele>
        <time>2011-07-12T08:50:12Z</time>
      </trkpt>
      <trkpt lat="44.89928" lon="5.22813">
        <ele>1336.8472900391</ele>
        <time>2011-07-12T08:50:20Z</time>
      </trkpt>
      <trkpt lat="44.89931" lon="5.22822">
        <ele>1336.7795410156</ele>
        <time>2011-07-12T08:50:21Z</time>
      </trkpt>
      <trkpt lat="44.89935" lon="5.22859">
        <ele>1336.7131347656</ele>
        <time>2011-07-12T08:50:25Z</time>
      </trkpt>
      <trkpt lat="44.89933" lon="5.22888">
        <ele>1337.4125976562</ele>
        <time>2011-07-12T08:50:28Z</time>
      </trkpt>
      <trkpt lat="44.89917" lon="5.22953">
        <ele>1339.001953125</ele>
        <time>2011-07-12T08:50:35Z</time>
      </trkpt>
      <trkpt lat="44.89912" lon="5.22971">
        <ele>1339.1530761719</ele>
        <time>2011-07-12T08:50:37Z</time>
      </trkpt>
      <trkpt lat="44.89872" lon="5.23119">
        <ele>1329.693359375</ele>
        <time>2011-07-12T08:50:55Z</time>
      </trkpt>
      <trkpt lat="44.8987" lon="5.2313">
        <ele>1328.5538330078</ele>
        <time>2011-07-12T08:50:56Z</time>
      </trkpt>
      <trkpt lat="44.89861" lon="5.2318">
        <ele>1322.9696044922</ele>
        <time>2011-07-12T08:51:00Z</time>
      </trkpt>
      <trkpt lat="44.89839" lon="5.2325">
        <ele>1315.1944580078</ele>
        <time>2011-07-12T08:51:05Z</time>
      </trkpt>
      <trkpt lat="44.89815" lon="5.23322">
        <ele>1304.6602783203</ele>
        <time>2011-07-12T08:51:10Z</time>
      </trkpt>
      <trkpt lat="44.8981" lon="5.23334">
        <ele>1303.4974365234</ele>
        <time>2011-07-12T08:51:11Z</time>
      </trkpt>
      <trkpt lat="44.89796" lon="5.2336">
        <ele>1302.6584472656</ele>
        <time>2011-07-12T08:51:14Z</time>
      </trkpt>
      <trkpt lat="44.89791" lon="5.23367">
        <ele>1302.3776855469</ele>
        <time>2011-07-12T08:51:15Z</time>
      </trkpt>
      <trkpt lat="44.89782" lon="5.23378">
        <ele>1302.0615234375</ele>
        <time>2011-07-12T08:51:17Z</time>
      </trkpt>
      <trkpt lat="44.89773" lon="5.2338">
        <ele>1302</ele>
        <time>2011-07-12T08:51:21Z</time>
      </trkpt>
      <trkpt lat="44.89773" lon="5.2338">
        <ele>1302</ele>
        <time>2011-07-12T08:51:23Z</time>
      </trkpt>
      <trkpt lat="44.89774" lon="5.23381">
        <ele>1302</ele>
        <time>2011-07-12T08:51:49Z</time>
      </trkpt>
      <trkpt lat="44.8978" lon="5.23385">
        <ele>1302.0106201172</ele>
        <time>2011-07-12T08:51:53Z</time>
      </trkpt>
      <trkpt lat="44.89781" lon="5.23385">
        <ele>1302.015625</ele>
        <time>2011-07-12T08:51:55Z</time>
      </trkpt>
      <trkpt lat="44.89779" lon="5.23378">
        <ele>1302.0152587891</ele>
        <time>2011-07-12T08:54:04Z</time>
      </trkpt>
      <trkpt lat="44.89775" lon="5.23385">
        <ele>1302</ele>
        <time>2011-07-12T08:54:07Z</time>
      </trkpt>
      <trkpt lat="44.89776" lon="5.23402">
        <ele>1302.0267333984</ele>
        <time>2011-07-12T08:54:10Z</time>
      </trkpt>
      <trkpt lat="44.89785" lon="5.23448">
        <ele>1301.3576660156</ele>
        <time>2011-07-12T08:54:16Z</time>
      </trkpt>
      <trkpt lat="44.89788" lon="5.23514">
        <ele>1295.9927978516</ele>
        <time>2011-07-12T08:54:22Z</time>
      </trkpt>
      <trkpt lat="44.89788" lon="5.23568">
        <ele>1290.2850341797</ele>
        <time>2011-07-12T08:54:26Z</time>
      </trkpt>
      <trkpt lat="44.89797" lon="5.2362">
        <ele>1279.4602050781</ele>
        <time>2011-07-12T08:54:30Z</time>
      </trkpt>
      <trkpt lat="44.89791" lon="5.23672">
        <ele>1276.5338134766</ele>
        <time>2011-07-12T08:54:34Z</time>
      </trkpt>
      <trkpt lat="44.89778" lon="5.23709">
        <ele>1280.3872070312</ele>
        <time>2011-07-12T08:54:37Z</time>
      </trkpt>
      <trkpt lat="44.89773" lon="5.23763">
        <ele>1276.7633056641</ele>
        <time>2011-07-12T08:54:41Z</time>
      </trkpt>
      <trkpt lat="44.8978" lon="5.23823">
        <ele>1267.2744140625</ele>
        <time>2011-07-12T08:54:45Z</time>
      </trkpt>
      <trkpt lat="44.89774" lon="5.23858">
        <ele>1267.0952148438</ele>
        <time>2011-07-12T08:54:48Z</time>
      </trkpt>
      <trkpt lat="44.89753" lon="5.23904">
        <ele>1276.6270751953</ele>
        <time>2011-07-12T08:54:52Z</time>
      </trkpt>
      <trkpt lat="44.8975" lon="5.23961">
        <ele>1274.2255859375</ele>
        <time>2011-07-12T08:54:57Z</time>
      </trkpt>
      <trkpt lat="44.89755" lon="5.23971">
        <ele>1269.3482666016</ele>
        <time>2011-07-12T08:54:58Z</time>
      </trkpt>
      <trkpt lat="44.89767" lon="5.23987">
        <ele>1262.8353271484</ele>
        <time>2011-07-12T08:55:00Z</time>
      </trkpt>
      <trkpt lat="44.89787" lon="5.24041">
        <ele>1254.5849609375</ele>
        <time>2011-07-12T08:55:05Z</time>
      </trkpt>
      <trkpt lat="44.89788" lon="5.24097">
        <ele>1260.6641845703</ele>
        <time>2011-07-12T08:55:09Z</time>
      </trkpt>
      <trkpt lat="44.89788" lon="5.24113">
        <ele>1263.4545898438</ele>
        <time>2011-07-12T08:55:10Z</time>
      </trkpt>
      <trkpt lat="44.89789" lon="5.24162">
        <ele>1264.4971923828</ele>
        <time>2011-07-12T08:55:14Z</time>
      </trkpt>
      <trkpt lat="44.89793" lon="5.24185">
        <ele>1261.0192871094</ele>
        <time>2011-07-12T08:55:16Z</time>
      </trkpt>
      <trkpt lat="44.8981" lon="5.24232">
        <ele>1248.1940917969</ele>
        <time>2011-07-12T08:55:20Z</time>
      </trkpt>
      <trkpt lat="44.89838" lon="5.24296">
        <ele>1244.0405273438</ele>
        <time>2011-07-12T08:55:25Z</time>
      </trkpt>
      <trkpt lat="44.89856" lon="5.24321">
        <ele>1236.0551757812</ele>
        <time>2011-07-12T08:55:28Z</time>
      </trkpt>
      <trkpt lat="44.89867" lon="5.2436">
        <ele>1241.0245361328</ele>
        <time>2011-07-12T08:55:33Z</time>
      </trkpt>
      <trkpt lat="44.89865" lon="5.24369">
        <ele>1246.6667480469</ele>
        <time>2011-07-12T08:55:35Z</time>
      </trkpt>
      <trkpt lat="44.89863" lon="5.24377">
        <ele>1253.3615722656</ele>
        <time>2011-07-12T08:55:37Z</time>
      </trkpt>
      <trkpt lat="44.89853" lon="5.24408">
        <ele>1277.9549560547</ele>
        <time>2011-07-12T08:55:43Z</time>
      </trkpt>
      <trkpt lat="44.89852" lon="5.24424">
        <ele>1286.9396972656</ele>
        <time>2011-07-12T08:55:47Z</time>
      </trkpt>
      <trkpt lat="44.89854" lon="5.2444">
        <ele>1292.4162597656</ele>
        <time>2011-07-12T08:55:50Z</time>
      </trkpt>
      <trkpt lat="44.89866" lon="5.24475">
        <ele>1293.2761230469</ele>
        <time>2011-07-12T08:55:55Z</time>
      </trkpt>
      <trkpt lat="44.89866" lon="5.24485">
        <ele>1296.1286621094</ele>
        <time>2011-07-12T08:55:56Z</time>
      </trkpt>
      <trkpt lat="44.89862" lon="5.24523">
        <ele>1309.5310058594</ele>
        <time>2011-07-12T08:56:00Z</time>
      </trkpt>
      <trkpt lat="44.89868" lon="5.24578">
        <ele>1321.5216064453</ele>
        <time>2011-07-12T08:56:05Z</time>
      </trkpt>
      <trkpt lat="44.89896" lon="5.24629">
        <ele>1314.7800292969</ele>
        <time>2011-07-12T08:56:10Z</time>
      </trkpt>
      <trkpt lat="44.89935" lon="5.24672">
        <ele>1306.2657470703</ele>
        <time>2011-07-12T08:56:15Z</time>
      </trkpt>
      <trkpt lat="44.89949" lon="5.24684">
        <ele>1301.1051025391</ele>
        <time>2011-07-12T08:56:17Z</time>
      </trkpt>
      <trkpt lat="44.89968" lon="5.24709">
        <ele>1298.3034667969</ele>
        <time>2011-07-12T08:56:20Z</time>
      </trkpt>
      <trkpt lat="44.89991" lon="5.24758">
        <ele>1297.4781494141</ele>
        <time>2011-07-12T08:56:25Z</time>
      </trkpt>
      <trkpt lat="44.90012" lon="5.24781">
        <ele>1296.7521972656</ele>
        <time>2011-07-12T08:56:28Z</time>
      </trkpt>
      <trkpt lat="44.9002" lon="5.24788">
        <ele>1295.2877197266</ele>
        <time>2011-07-12T08:56:29Z</time>
      </trkpt>
      <trkpt lat="44.90059" lon="5.24837">
        <ele>1297.7209472656</ele>
        <time>2011-07-12T08:56:34Z</time>
      </trkpt>
      <trkpt lat="44.90102" lon="5.24889">
        <ele>1288.0115966797</ele>
        <time>2011-07-12T08:56:39Z</time>
      </trkpt>
      <trkpt lat="44.90139" lon="5.24915">
        <ele>1261.630859375</ele>
        <time>2011-07-12T08:56:43Z</time>
      </trkpt>
      <trkpt lat="44.90173" lon="5.24911">
        <ele>1242.5249023438</ele>
        <time>2011-07-12T08:56:46Z</time>
      </trkpt>
      <trkpt lat="44.90183" lon="5.24906">
        <ele>1232.5256347656</ele>
        <time>2011-07-12T08:56:47Z</time>
      </trkpt>
      <trkpt lat="44.90199" lon="5.24895">
        <ele>1215.1245117188</ele>
        <time>2011-07-12T08:56:49Z</time>
      </trkpt>
      <trkpt lat="44.90219" lon="5.24895">
        <ele>1200.0201416016</ele>
        <time>2011-07-12T08:56:52Z</time>
      </trkpt>
      <trkpt lat="44.90224" lon="5.24903">
        <ele>1200.9791259766</ele>
        <time>2011-07-12T08:56:53Z</time>
      </trkpt>
      <trkpt lat="44.90228" lon="5.24937">
        <ele>1213.8408203125</ele>
        <time>2011-07-12T08:56:56Z</time>
      </trkpt>
      <trkpt lat="44.90212" lon="5.24973">
        <ele>1242.5469970703</ele>
        <time>2011-07-12T08:56:59Z</time>
      </trkpt>
      <trkpt lat="44.90191" lon="5.24987">
        <ele>1260.0980224609</ele>
        <time>2011-07-12T08:57:01Z</time>
      </trkpt>
      <trkpt lat="44.90144" lon="5.25023">
        <ele>1280.5354003906</ele>
        <time>2011-07-12T08:57:06Z</time>
      </trkpt>
      <trkpt lat="44.90124" lon="5.25034">
        <ele>1288.6278076172</ele>
        <time>2011-07-12T08:57:09Z</time>
      </trkpt>
      <trkpt lat="44.90116" lon="5.25037">
        <ele>1293.6193847656</ele>
        <time>2011-07-12T08:57:11Z</time>
      </trkpt>
      <trkpt lat="44.90114" lon="5.25037">
        <ele>1295.0106201172</ele>
        <time>2011-07-12T08:57:14Z</time>
      </trkpt>
      <trkpt lat="44.90113" lon="5.25039">
        <ele>1295.9300537109</ele>
        <time>2011-07-12T08:57:45Z</time>
      </trkpt>
      <trkpt lat="44.9011" lon="5.25041">
        <ele>1297.0158691406</ele>
        <time>2011-07-12T08:57:46Z</time>
      </trkpt>
      <trkpt lat="44.90092" lon="5.25054">
        <ele>1301.1484375</ele>
        <time>2011-07-12T08:57:51Z</time>
      </trkpt>
      <trkpt lat="44.90073" lon="5.25073">
        <ele>1300.0869140625</ele>
        <time>2011-07-12T08:57:55Z</time>
      </trkpt>
      <trkpt lat="44.90061" lon="5.25086">
        <ele>1296.6313476562</ele>
        <time>2011-07-12T08:57:57Z</time>
      </trkpt>
      <trkpt lat="44.90035" lon="5.25122">
        <ele>1268.2416992188</ele>
        <time>2011-07-12T08:58:01Z</time>
      </trkpt>
      <trkpt lat="44.90028" lon="5.25133">
        <ele>1259.2995605469</ele>
        <time>2011-07-12T08:58:02Z</time>
      </trkpt>
      <trkpt lat="44.89993" lon="5.25168">
        <ele>1241.9276123047</ele>
        <time>2011-07-12T08:58:06Z</time>
      </trkpt>
      <trkpt lat="44.89928" lon="5.25205">
        <ele>1223.4675292969</ele>
        <time>2011-07-12T08:58:12Z</time>
      </trkpt>
      <trkpt lat="44.89917" lon="5.25211">
        <ele>1220.751953125</ele>
        <time>2011-07-12T08:58:13Z</time>
      </trkpt>
      <trkpt lat="44.89848" lon="5.25226">
        <ele>1219.4299316406</ele>
        <time>2011-07-12T08:58:19Z</time>
      </trkpt>
      <trkpt lat="44.89803" lon="5.25234">
        <ele>1216.5637207031</ele>
        <time>2011-07-12T08:58:23Z</time>
      </trkpt>
      <trkpt lat="44.89754" lon="5.25243">
        <ele>1210.5384521484</ele>
        <time>2011-07-12T08:58:27Z</time>
      </trkpt>
      <trkpt lat="44.89742" lon="5.25244">
        <ele>1210.1337890625</ele>
        <time>2011-07-12T08:58:28Z</time>
      </trkpt>
      <trkpt lat="44.89676" lon="5.25254">
        <ele>1204.349609375</ele>
        <time>2011-07-12T08:58:33Z</time>
      </trkpt>
      <trkpt lat="44.8961" lon="5.25258">
        <ele>1197.6025390625</ele>
        <time>2011-07-12T08:58:38Z</time>
      </trkpt>
      <trkpt lat="44.89518" lon="5.25281">
        <ele>1188.8576660156</ele>
        <time>2011-07-12T08:58:45Z</time>
      </trkpt>
      <trkpt lat="44.89492" lon="5.25292">
        <ele>1184.6929931641</ele>
        <time>2011-07-12T08:58:47Z</time>
      </trkpt>
      <trkpt lat="44.89455" lon="5.25313">
        <ele>1174.6947021484</ele>
        <time>2011-07-12T08:58:50Z</time>
      </trkpt>
      <trkpt lat="44.89392" lon="5.25329">
        <ele>1164.2431640625</ele>
        <time>2011-07-12T08:58:55Z</time>
      </trkpt>
      <trkpt lat="44.89356" lon="5.25334">
        <ele>1162.333984375</ele>
        <time>2011-07-12T08:58:58Z</time>
      </trkpt>
      <trkpt lat="44.89333" lon="5.25332">
        <ele>1160.3271484375</ele>
        <time>2011-07-12T08:59:00Z</time>
      </trkpt>
      <trkpt lat="44.8929" lon="5.25326">
        <ele>1157.7312011719</ele>
        <time>2011-07-12T08:59:04Z</time>
      </trkpt>
      <trkpt lat="44.89264" lon="5.25331">
        <ele>1151.9637451172</ele>
        <time>2011-07-12T08:59:07Z</time>
      </trkpt>
      <trkpt lat="44.89238" lon="5.25346">
        <ele>1143.646484375</ele>
        <time>2011-07-12T08:59:11Z</time>
      </trkpt>
      <trkpt lat="44.89225" lon="5.2536">
        <ele>1140.1196289062</ele>
        <time>2011-07-12T08:59:14Z</time>
      </trkpt>
      <trkpt lat="44.89211" lon="5.25384">
        <ele>1140</ele>
        <time>2011-07-12T08:59:19Z</time>
      </trkpt>
      <trkpt lat="44.89209" lon="5.25388">
        <ele>1140</ele>
        <time>2011-07-12T08:59:20Z</time>
      </trkpt>
      <trkpt lat="44.89205" lon="5.25419">
        <ele>1140</ele>
        <time>2011-07-12T08:59:27Z</time>
      </trkpt>
      <trkpt lat="44.89212" lon="5.25445">
        <ele>1139.9736328125</ele>
        <time>2011-07-12T08:59:33Z</time>
      </trkpt>
      <trkpt lat="44.89225" lon="5.25459">
        <ele>1138.9174804688</ele>
        <time>2011-07-12T08:59:38Z</time>
      </trkpt>
      <trkpt lat="44.89237" lon="5.25465">
        <ele>1138.4916992188</ele>
        <time>2011-07-12T08:59:42Z</time>
      </trkpt>
      <trkpt lat="44.89252" lon="5.25472">
        <ele>1138.0007324219</ele>
        <time>2011-07-12T08:59:48Z</time>
      </trkpt>
      <trkpt lat="44.89268" lon="5.25478">
        <ele>1137.8715820312</ele>
        <time>2011-07-12T08:59:55Z</time>
      </trkpt>
      <trkpt lat="44.89279" lon="5.25485">
        <ele>1137.5300292969</ele>
        <time>2011-07-12T09:00:00Z</time>
      </trkpt>
      <trkpt lat="44.89296" lon="5.25495">
        <ele>1137.1661376953</ele>
        <time>2011-07-12T09:00:07Z</time>
      </trkpt>
      <trkpt lat="44.89314" lon="5.25506">
        <ele>1137.6036376953</ele>
        <time>2011-07-12T09:00:14Z</time>
      </trkpt>
      <trkpt lat="44.89327" lon="5.25517">
        <ele>1138.3571777344</ele>
        <time>2011-07-12T09:00:20Z</time>
      </trkpt>
      <trkpt lat="44.89347" lon="5.25535">
        <ele>1139.560546875</ele>
        <time>2011-07-12T09:00:29Z</time>
      </trkpt>
      <trkpt lat="44.89368" lon="5.25559">
        <ele>1142.4267578125</ele>
        <time>2011-07-12T09:00:39Z</time>
      </trkpt>
      <trkpt lat="44.89382" lon="5.2558">
        <ele>1145.5029296875</ele>
        <time>2011-07-12T09:00:47Z</time>
      </trkpt>
      <trkpt lat="44.89393" lon="5.256">
        <ele>1149.9484863281</ele>
        <time>2011-07-12T09:00:54Z</time>
      </trkpt>
      <trkpt lat="44.89408" lon="5.25623">
        <ele>1154.3218994141</ele>
        <time>2011-07-12T09:01:02Z</time>
      </trkpt>
      <trkpt lat="44.89426" lon="5.25651">
        <ele>1158.9019775391</ele>
        <time>2011-07-12T09:01:12Z</time>
      </trkpt>
      <trkpt lat="44.89438" lon="5.25668">
        <ele>1161.7413330078</ele>
        <time>2011-07-12T09:01:19Z</time>
      </trkpt>
      <trkpt lat="44.89449" lon="5.25683">
        <ele>1164.5532226562</ele>
        <time>2011-07-12T09:01:25Z</time>
      </trkpt>
      <trkpt lat="44.89465" lon="5.257">
        <ele>1167.599609375</ele>
        <time>2011-07-12T09:01:33Z</time>
      </trkpt>
      <trkpt lat="44.89473" lon="5.25708">
        <ele>1168.5061035156</ele>
        <time>2011-07-12T09:01:38Z</time>
      </trkpt>
      <trkpt lat="44.89485" lon="5.25718">
        <ele>1169.5308837891</ele>
        <time>2011-07-12T09:01:43Z</time>
      </trkpt>
      <trkpt lat="44.89496" lon="5.25726">
        <ele>1170.771484375</ele>
        <time>2011-07-12T09:01:48Z</time>
      </trkpt>
      <trkpt lat="44.89512" lon="5.25739">
        <ele>1173.7069091797</ele>
        <time>2011-07-12T09:01:54Z</time>
      </trkpt>
      <trkpt lat="44.89525" lon="5.25748">
        <ele>1175.6329345703</ele>
        <time>2011-07-12T09:01:59Z</time>
      </trkpt>
      <trkpt lat="44.89543" lon="5.25759">
        <ele>1176.2482910156</ele>
        <time>2011-07-12T09:02:06Z</time>
      </trkpt>
      <trkpt lat="44.89564" lon="5.25772">
        <ele>1176.2141113281</ele>
        <time>2011-07-12T09:02:13Z</time>
      </trkpt>
      <trkpt lat="44.89583" lon="5.25782">
        <ele>1176.0285644531</ele>
        <time>2011-07-12T09:02:20Z</time>
      </trkpt>
      <trkpt lat="44.89597" lon="5.25789">
        <ele>1176.5693359375</ele>
        <time>2011-07-12T09:02:25Z</time>
      </trkpt>
      <trkpt lat="44.89613" lon="5.25793">
        <ele>1176.6724853516</ele>
        <time>2011-07-12T09:02:30Z</time>
      </trkpt>
      <trkpt lat="44.89637" lon="5.25798">
        <ele>1175.5887451172</ele>
        <time>2011-07-12T09:02:38Z</time>
      </trkpt>
      <trkpt lat="44.89661" lon="5.25803">
        <ele>1174.0146484375</ele>
        <time>2011-07-12T09:02:46Z</time>
      </trkpt>
      <trkpt lat="44.89684" lon="5.25809">
        <ele>1174.2915039062</ele>
        <time>2011-07-12T09:02:54Z</time>
      </trkpt>
      <trkpt lat="44.89704" lon="5.25819">
        <ele>1175.5938720703</ele>
        <time>2011-07-12T09:03:01Z</time>
      </trkpt>
      <trkpt lat="44.89727" lon="5.25831">
        <ele>1176.5440673828</ele>
        <time>2011-07-12T09:03:09Z</time>
      </trkpt>
      <trkpt lat="44.89749" lon="5.25843">
        <ele>1178.654296875</ele>
        <time>2011-07-12T09:03:17Z</time>
      </trkpt>
      <trkpt lat="44.89771" lon="5.25854">
        <ele>1179.1689453125</ele>
        <time>2011-07-12T09:03:25Z</time>
      </trkpt>
      <trkpt lat="44.89803" lon="5.2587">
        <ele>1179.8468017578</ele>
        <time>2011-07-12T09:03:36Z</time>
      </trkpt>
      <trkpt lat="44.89808" lon="5.25872">
        <ele>1180.2160644531</ele>
        <time>2011-07-12T09:03:38Z</time>
      </trkpt>
      <trkpt lat="44.89825" lon="5.25881">
        <ele>1182.8665771484</ele>
        <time>2011-07-12T09:03:44Z</time>
      </trkpt>
      <trkpt lat="44.89847" lon="5.25893">
        <ele>1184.2938232422</ele>
        <time>2011-07-12T09:03:52Z</time>
      </trkpt>
      <trkpt lat="44.89864" lon="5.25903">
        <ele>1185.0450439453</ele>
        <time>2011-07-12T09:03:59Z</time>
      </trkpt>
      <trkpt lat="44.89886" lon="5.25914">
        <ele>1187.4449462891</ele>
        <time>2011-07-12T09:04:07Z</time>
      </trkpt>
      <trkpt lat="44.89891" lon="5.25916">
        <ele>1187.7216796875</ele>
        <time>2011-07-12T09:04:09Z</time>
      </trkpt>
      <trkpt lat="44.89909" lon="5.25924">
        <ele>1189.1016845703</ele>
        <time>2011-07-12T09:04:16Z</time>
      </trkpt>
      <trkpt lat="44.89926" lon="5.25928">
        <ele>1190.0015869141</ele>
        <time>2011-07-12T09:04:22Z</time>
      </trkpt>
      <trkpt lat="44.89941" lon="5.25932">
        <ele>1191.4777832031</ele>
        <time>2011-07-12T09:04:28Z</time>
      </trkpt>
      <trkpt lat="44.89956" lon="5.25935">
        <ele>1194.1385498047</ele>
        <time>2011-07-12T09:04:34Z</time>
      </trkpt>
      <trkpt lat="44.89974" lon="5.25939">
        <ele>1197.44140625</ele>
        <time>2011-07-12T09:04:41Z</time>
      </trkpt>
      <trkpt lat="44.89988" lon="5.25941">
        <ele>1198.2916259766</ele>
        <time>2011-07-12T09:04:47Z</time>
      </trkpt>
      <trkpt lat="44.90009" lon="5.25946">
        <ele>1198.9051513672</ele>
        <time>2011-07-12T09:04:55Z</time>
      </trkpt>
      <trkpt lat="44.90031" lon="5.25949">
        <ele>1197.076171875</ele>
        <time>2011-07-12T09:05:03Z</time>
      </trkpt>
      <trkpt lat="44.9005" lon="5.25954">
        <ele>1198.4100341797</ele>
        <time>2011-07-12T09:05:10Z</time>
      </trkpt>
      <trkpt lat="44.90069" lon="5.25959">
        <ele>1198.1949462891</ele>
        <time>2011-07-12T09:05:17Z</time>
      </trkpt>
      <trkpt lat="44.90092" lon="5.25964">
        <ele>1197.9171142578</ele>
        <time>2011-07-12T09:05:25Z</time>
      </trkpt>
      <trkpt lat="44.9011" lon="5.2597">
        <ele>1199.3216552734</ele>
        <time>2011-07-12T09:05:31Z</time>
      </trkpt>
      <trkpt lat="44.90128" lon="5.25976">
        <ele>1197.0340576172</ele>
        <time>2011-07-12T09:05:37Z</time>
      </trkpt>
      <trkpt lat="44.90147" lon="5.25984">
        <ele>1195.3494873047</ele>
        <time>2011-07-12T09:05:43Z</time>
      </trkpt>
      <trkpt lat="44.90167" lon="5.25994">
        <ele>1193.7442626953</ele>
        <time>2011-07-12T09:05:49Z</time>
      </trkpt>
      <trkpt lat="44.90176" lon="5.26004">
        <ele>1191.7355957031</ele>
        <time>2011-07-12T09:05:52Z</time>
      </trkpt>
      <trkpt lat="44.90185" lon="5.26018">
        <ele>1190.2583007812</ele>
        <time>2011-07-12T09:05:55Z</time>
      </trkpt>
      <trkpt lat="44.90191" lon="5.26043">
        <ele>1189.0771484375</ele>
        <time>2011-07-12T09:05:59Z</time>
      </trkpt>
      <trkpt lat="44.9019" lon="5.26072">
        <ele>1191.9301757812</ele>
        <time>2011-07-12T09:06:03Z</time>
      </trkpt>
      <trkpt lat="44.9018" lon="5.26095">
        <ele>1199.4678955078</ele>
        <time>2011-07-12T09:06:06Z</time>
      </trkpt>
      <trkpt lat="44.9016" lon="5.26128">
        <ele>1211.1268310547</ele>
        <time>2011-07-12T09:06:10Z</time>
      </trkpt>
      <trkpt lat="44.90152" lon="5.26148">
        <ele>1215.2958984375</ele>
        <time>2011-07-12T09:06:12Z</time>
      </trkpt>
      <trkpt lat="44.90155" lon="5.2618">
        <ele>1217.818359375</ele>
        <time>2011-07-12T09:06:15Z</time>
      </trkpt>
      <trkpt lat="44.90161" lon="5.26196">
        <ele>1216.9614257812</ele>
        <time>2011-07-12T09:06:17Z</time>
      </trkpt>
      <trkpt lat="44.90172" lon="5.26215">
        <ele>1214.3801269531</ele>
        <time>2011-07-12T09:06:20Z</time>
      </trkpt>
      <trkpt lat="44.90189" lon="5.26245">
        <ele>1211.6198730469</ele>
        <time>2011-07-12T09:06:26Z</time>
      </trkpt>
      <trkpt lat="44.90209" lon="5.26282">
        <ele>1208.9313964844</ele>
        <time>2011-07-12T09:06:35Z</time>
      </trkpt>
      <trkpt lat="44.90222" lon="5.26309">
        <ele>1208.7252197266</ele>
        <time>2011-07-12T09:06:41Z</time>
      </trkpt>
      <trkpt lat="44.90223" lon="5.2634">
        <ele>1213.3005371094</ele>
        <time>2011-07-12T09:06:47Z</time>
      </trkpt>
      <trkpt lat="44.90218" lon="5.2636">
        <ele>1218.6575927734</ele>
        <time>2011-07-12T09:06:52Z</time>
      </trkpt>
      <trkpt lat="44.9021" lon="5.26379">
        <ele>1220.7308349609</ele>
        <time>2011-07-12T09:06:57Z</time>
      </trkpt>
      <trkpt lat="44.90196" lon="5.264">
        <ele>1222.0717773438</ele>
        <time>2011-07-12T09:07:03Z</time>
      </trkpt>
      <trkpt lat="44.90178" lon="5.26431">
        <ele>1221.3594970703</ele>
        <time>2011-07-12T09:07:10Z</time>
      </trkpt>
      <trkpt lat="44.90157" lon="5.26477">
        <ele>1218.4287109375</ele>
        <time>2011-07-12T09:07:18Z</time>
      </trkpt>
      <trkpt lat="44.90155" lon="5.26483">
        <ele>1217.5491943359</ele>
        <time>2011-07-12T09:07:19Z</time>
      </trkpt>
      <trkpt lat="44.90136" lon="5.26532">
        <ele>1212.8587646484</ele>
        <time>2011-07-12T09:07:26Z</time>
      </trkpt>
      <trkpt lat="44.9011" lon="5.26595">
        <ele>1218.0322265625</ele>
        <time>2011-07-12T09:07:35Z</time>
      </trkpt>
      <trkpt lat="44.90099" lon="5.26623">
        <ele>1216.6363525391</ele>
        <time>2011-07-12T09:07:39Z</time>
      </trkpt>
      <trkpt lat="44.90091" lon="5.26645">
        <ele>1216.7878417969</ele>
        <time>2011-07-12T09:07:42Z</time>
      </trkpt>
      <trkpt lat="44.90073" lon="5.26708">
        <ele>1217.4940185547</ele>
        <time>2011-07-12T09:07:49Z</time>
      </trkpt>
      <trkpt lat="44.90056" lon="5.26757">
        <ele>1221.0300292969</ele>
        <time>2011-07-12T09:07:54Z</time>
      </trkpt>
      <trkpt lat="44.90044" lon="5.26783">
        <ele>1221.0521240234</ele>
        <time>2011-07-12T09:07:57Z</time>
      </trkpt>
      <trkpt lat="44.90018" lon="5.26823">
        <ele>1219.5428466797</ele>
        <time>2011-07-12T09:08:03Z</time>
      </trkpt>
      <trkpt lat="44.90009" lon="5.26833">
        <ele>1220.1588134766</ele>
        <time>2011-07-12T09:08:05Z</time>
      </trkpt>
      <trkpt lat="44.89975" lon="5.26872">
        <ele>1220.3165283203</ele>
        <time>2011-07-12T09:08:13Z</time>
      </trkpt>
      <trkpt lat="44.89952" lon="5.26897">
        <ele>1220.2961425781</ele>
        <time>2011-07-12T09:08:18Z</time>
      </trkpt>
      <trkpt lat="44.89925" lon="5.26925">
        <ele>1219.9652099609</ele>
        <time>2011-07-12T09:08:25Z</time>
      </trkpt>
      <trkpt lat="44.89903" lon="5.26941">
        <ele>1221.7646484375</ele>
        <time>2011-07-12T09:08:32Z</time>
      </trkpt>
      <trkpt lat="44.89882" lon="5.26957">
        <ele>1223.8863525391</ele>
        <time>2011-07-12T09:08:39Z</time>
      </trkpt>
      <trkpt lat="44.89866" lon="5.26967">
        <ele>1224.84765625</ele>
        <time>2011-07-12T09:08:44Z</time>
      </trkpt>
      <trkpt lat="44.89848" lon="5.2698">
        <ele>1226.724609375</ele>
        <time>2011-07-12T09:08:50Z</time>
      </trkpt>
      <trkpt lat="44.89834" lon="5.26992">
        <ele>1228.4239501953</ele>
        <time>2011-07-12T09:08:54Z</time>
      </trkpt>
      <trkpt lat="44.89823" lon="5.27003">
        <ele>1228.9779052734</ele>
        <time>2011-07-12T09:08:58Z</time>
      </trkpt>
      <trkpt lat="44.89809" lon="5.27022">
        <ele>1229.8585205078</ele>
        <time>2011-07-12T09:09:04Z</time>
      </trkpt>
      <trkpt lat="44.89797" lon="5.27039">
        <ele>1230.4620361328</ele>
        <time>2011-07-12T09:09:08Z</time>
      </trkpt>
      <trkpt lat="44.89776" lon="5.2707">
        <ele>1231.7545166016</ele>
        <time>2011-07-12T09:09:15Z</time>
      </trkpt>
      <trkpt lat="44.89762" lon="5.27088">
        <ele>1233.1414794922</ele>
        <time>2011-07-12T09:09:19Z</time>
      </trkpt>
      <trkpt lat="44.89737" lon="5.27124">
        <ele>1236.810546875</ele>
        <time>2011-07-12T09:09:27Z</time>
      </trkpt>
      <trkpt lat="44.89713" lon="5.27142">
        <ele>1242.8020019531</ele>
        <time>2011-07-12T09:09:33Z</time>
      </trkpt>
      <trkpt lat="44.89695" lon="5.27146">
        <ele>1248.1097412109</ele>
        <time>2011-07-12T09:09:37Z</time>
      </trkpt>
      <trkpt lat="44.89668" lon="5.27145">
        <ele>1251.1254882812</ele>
        <time>2011-07-12T09:09:44Z</time>
      </trkpt>
      <trkpt lat="44.8965" lon="5.27159">
        <ele>1254.3555908203</ele>
        <time>2011-07-12T09:09:49Z</time>
      </trkpt>
      <trkpt lat="44.89644" lon="5.27183">
        <ele>1255.9227294922</ele>
        <time>2011-07-12T09:09:53Z</time>
      </trkpt>
      <trkpt lat="44.89652" lon="5.27205">
        <ele>1255.7673339844</ele>
        <time>2011-07-12T09:09:57Z</time>
      </trkpt>
      <trkpt lat="44.89668" lon="5.27217">
        <ele>1254.6893310547</ele>
        <time>2011-07-12T09:10:01Z</time>
      </trkpt>
      <trkpt lat="44.89673" lon="5.27219">
        <ele>1254.3842773438</ele>
        <time>2011-07-12T09:10:02Z</time>
      </trkpt>
      <trkpt lat="44.89683" lon="5.27222">
        <ele>1253.7819824219</ele>
        <time>2011-07-12T09:10:04Z</time>
      </trkpt>
      <trkpt lat="44.89713" lon="5.27225">
        <ele>1249.9542236328</ele>
        <time>2011-07-12T09:10:11Z</time>
      </trkpt>
      <trkpt lat="44.89735" lon="5.27222">
        <ele>1247.0213623047</ele>
        <time>2011-07-12T09:10:17Z</time>
      </trkpt>
      <trkpt lat="44.89759" lon="5.27209">
        <ele>1243.5849609375</ele>
        <time>2011-07-12T09:10:24Z</time>
      </trkpt>
      <trkpt lat="44.89788" lon="5.27189">
        <ele>1240.068359375</ele>
        <time>2011-07-12T09:10:33Z</time>
      </trkpt>
      <trkpt lat="44.89811" lon="5.27185">
        <ele>1238.9389648438</ele>
        <time>2011-07-12T09:10:40Z</time>
      </trkpt>
      <trkpt lat="44.89827" lon="5.27189">
        <ele>1239.7674560547</ele>
        <time>2011-07-12T09:10:45Z</time>
      </trkpt>
      <trkpt lat="44.89848" lon="5.27199">
        <ele>1241.4541015625</ele>
        <time>2011-07-12T09:10:52Z</time>
      </trkpt>
      <trkpt lat="44.89872" lon="5.27201">
        <ele>1241.4642333984</ele>
        <time>2011-07-12T09:10:59Z</time>
      </trkpt>
      <trkpt lat="44.89893" lon="5.27195">
        <ele>1240.1149902344</ele>
        <time>2011-07-12T09:11:05Z</time>
      </trkpt>
      <trkpt lat="44.89918" lon="5.27186">
        <ele>1237.1018066406</ele>
        <time>2011-07-12T09:11:12Z</time>
      </trkpt>
      <trkpt lat="44.89949" lon="5.27181">
        <ele>1235.3704833984</ele>
        <time>2011-07-12T09:11:20Z</time>
      </trkpt>
      <trkpt lat="44.89975" lon="5.27182">
        <ele>1236.0319824219</ele>
        <time>2011-07-12T09:11:27Z</time>
      </trkpt>
      <trkpt lat="44.89997" lon="5.27185">
        <ele>1237.0053710938</ele>
        <time>2011-07-12T09:11:33Z</time>
      </trkpt>
      <trkpt lat="44.90023" lon="5.27191">
        <ele>1238.8129882812</ele>
        <time>2011-07-12T09:11:41Z</time>
      </trkpt>
      <trkpt lat="44.90044" lon="5.27195">
        <ele>1240.0958251953</ele>
        <time>2011-07-12T09:11:48Z</time>
      </trkpt>
      <trkpt lat="44.90069" lon="5.272">
        <ele>1241.5190429688</ele>
        <time>2011-07-12T09:11:56Z</time>
      </trkpt>
      <trkpt lat="44.90093" lon="5.27204">
        <ele>1243.2598876953</ele>
        <time>2011-07-12T09:12:04Z</time>
      </trkpt>
      <trkpt lat="44.90112" lon="5.27206">
        <ele>1244.7911376953</ele>
        <time>2011-07-12T09:12:11Z</time>
      </trkpt>
      <trkpt lat="44.90132" lon="5.27203">
        <ele>1244.1031494141</ele>
        <time>2011-07-12T09:12:18Z</time>
      </trkpt>
      <trkpt lat="44.90151" lon="5.27204">
        <ele>1245.4415283203</ele>
        <time>2011-07-12T09:12:25Z</time>
      </trkpt>
      <trkpt lat="44.90172" lon="5.27201">
        <ele>1245.4686279297</ele>
        <time>2011-07-12T09:12:32Z</time>
      </trkpt>
      <trkpt lat="44.90194" lon="5.27201">
        <ele>1243.8618164062</ele>
        <time>2011-07-12T09:12:39Z</time>
      </trkpt>
      <trkpt lat="44.90213" lon="5.27198">
        <ele>1240.0874023438</ele>
        <time>2011-07-12T09:12:45Z</time>
      </trkpt>
      <trkpt lat="44.9024" lon="5.27199">
        <ele>1237.4046630859</ele>
        <time>2011-07-12T09:12:53Z</time>
      </trkpt>
      <trkpt lat="44.90263" lon="5.27201">
        <ele>1235.337890625</ele>
        <time>2011-07-12T09:13:00Z</time>
      </trkpt>
      <trkpt lat="44.90287" lon="5.27204">
        <ele>1232.4997558594</ele>
        <time>2011-07-12T09:13:07Z</time>
      </trkpt>
      <trkpt lat="44.9031" lon="5.27205">
        <ele>1227.0487060547</ele>
        <time>2011-07-12T09:13:14Z</time>
      </trkpt>
      <trkpt lat="44.90331" lon="5.27205">
        <ele>1222.6563720703</ele>
        <time>2011-07-12T09:13:20Z</time>
      </trkpt>
      <trkpt lat="44.90346" lon="5.27209">
        <ele>1221.4259033203</ele>
        <time>2011-07-12T09:13:25Z</time>
      </trkpt>
      <trkpt lat="44.90363" lon="5.27215">
        <ele>1220.4207763672</ele>
        <time>2011-07-12T09:13:30Z</time>
      </trkpt>
      <trkpt lat="44.90385" lon="5.27232">
        <ele>1222.9678955078</ele>
        <time>2011-07-12T09:13:36Z</time>
      </trkpt>
      <trkpt lat="44.904" lon="5.27252">
        <ele>1225.4855957031</ele>
        <time>2011-07-12T09:13:41Z</time>
      </trkpt>
      <trkpt lat="44.9042" lon="5.27286">
        <ele>1235.5426025391</ele>
        <time>2011-07-12T09:13:48Z</time>
      </trkpt>
      <trkpt lat="44.90428" lon="5.27301">
        <ele>1238.0087890625</ele>
        <time>2011-07-12T09:13:51Z</time>
      </trkpt>
      <trkpt lat="44.90453" lon="5.27344">
        <ele>1252.5541992188</ele>
        <time>2011-07-12T09:14:00Z</time>
      </trkpt>
      <trkpt lat="44.90477" lon="5.2738">
        <ele>1256.9676513672</ele>
        <time>2011-07-12T09:14:08Z</time>
      </trkpt>
      <trkpt lat="44.9049" lon="5.27397">
        <ele>1260.4736328125</ele>
        <time>2011-07-12T09:14:13Z</time>
      </trkpt>
      <trkpt lat="44.90503" lon="5.27408">
        <ele>1262.7956542969</ele>
        <time>2011-07-12T09:14:17Z</time>
      </trkpt>
      <trkpt lat="44.90524" lon="5.27423">
        <ele>1264.6558837891</ele>
        <time>2011-07-12T09:14:23Z</time>
      </trkpt>
      <trkpt lat="44.90545" lon="5.27443">
        <ele>1267.5723876953</ele>
        <time>2011-07-12T09:14:29Z</time>
      </trkpt>
      <trkpt lat="44.90562" lon="5.27459">
        <ele>1274.7778320312</ele>
        <time>2011-07-12T09:14:34Z</time>
      </trkpt>
      <trkpt lat="44.90578" lon="5.27479">
        <ele>1286.4005126953</ele>
        <time>2011-07-12T09:14:39Z</time>
      </trkpt>
      <trkpt lat="44.90605" lon="5.27512">
        <ele>1298.7133789062</ele>
        <time>2011-07-12T09:14:47Z</time>
      </trkpt>
      <trkpt lat="44.90635" lon="5.27547">
        <ele>1302.2598876953</ele>
        <time>2011-07-12T09:14:55Z</time>
      </trkpt>
      <trkpt lat="44.90651" lon="5.27564">
        <ele>1303.4748535156</ele>
        <time>2011-07-12T09:14:59Z</time>
      </trkpt>
      <trkpt lat="44.90666" lon="5.27581">
        <ele>1304.7314453125</ele>
        <time>2011-07-12T09:15:03Z</time>
      </trkpt>
      <trkpt lat="44.90675" lon="5.27589">
        <ele>1305.3382568359</ele>
        <time>2011-07-12T09:15:05Z</time>
      </trkpt>
      <trkpt lat="44.90688" lon="5.27599">
        <ele>1306.3193359375</ele>
        <time>2011-07-12T09:15:08Z</time>
      </trkpt>
      <trkpt lat="44.90718" lon="5.27613">
        <ele>1307.4790039062</ele>
        <time>2011-07-12T09:15:14Z</time>
      </trkpt>
      <trkpt lat="44.90737" lon="5.27621">
        <ele>1307.5758056641</ele>
        <time>2011-07-12T09:15:18Z</time>
      </trkpt>
      <trkpt lat="44.90759" lon="5.27627">
        <ele>1307.3872070312</ele>
        <time>2011-07-12T09:15:23Z</time>
      </trkpt>
      <trkpt lat="44.90773" lon="5.2763">
        <ele>1306.9790039062</ele>
        <time>2011-07-12T09:15:26Z</time>
      </trkpt>
      <trkpt lat="44.90783" lon="5.2763">
        <ele>1306.4926757812</ele>
        <time>2011-07-12T09:15:28Z</time>
      </trkpt>
      <trkpt lat="44.90805" lon="5.27625">
        <ele>1305.0576171875</ele>
        <time>2011-07-12T09:15:33Z</time>
      </trkpt>
      <trkpt lat="44.90823" lon="5.27623">
        <ele>1303.4895019531</ele>
        <time>2011-07-12T09:15:37Z</time>
      </trkpt>
      <trkpt lat="44.90854" lon="5.27626">
        <ele>1302.7463378906</ele>
        <time>2011-07-12T09:15:43Z</time>
      </trkpt>
      <trkpt lat="44.90859" lon="5.27627">
        <ele>1302.7329101562</ele>
        <time>2011-07-12T09:15:44Z</time>
      </trkpt>
      <trkpt lat="44.90879" lon="5.27635">
        <ele>1303.6008300781</ele>
        <time>2011-07-12T09:15:48Z</time>
      </trkpt>
      <trkpt lat="44.90908" lon="5.2766">
        <ele>1304.3255615234</ele>
        <time>2011-07-12T09:15:54Z</time>
      </trkpt>
      <trkpt lat="44.90929" lon="5.27682">
        <ele>1304.9455566406</ele>
        <time>2011-07-12T09:16:00Z</time>
      </trkpt>
      <trkpt lat="44.90954" lon="5.27705">
        <ele>1304.9790039062</ele>
        <time>2011-07-12T09:16:05Z</time>
      </trkpt>
      <trkpt lat="44.90968" lon="5.27721">
        <ele>1304.453125</ele>
        <time>2011-07-12T09:16:08Z</time>
      </trkpt>
      <trkpt lat="44.90984" lon="5.27751">
        <ele>1305.1821289062</ele>
        <time>2011-07-12T09:16:12Z</time>
      </trkpt>
      <trkpt lat="44.90989" lon="5.27795">
        <ele>1304.16796875</ele>
        <time>2011-07-12T09:16:16Z</time>
      </trkpt>
      <trkpt lat="44.90982" lon="5.2783">
        <ele>1302.2696533203</ele>
        <time>2011-07-12T09:16:19Z</time>
      </trkpt>
      <trkpt lat="44.90958" lon="5.27869">
        <ele>1301.9321289062</ele>
        <time>2011-07-12T09:16:23Z</time>
      </trkpt>
      <trkpt lat="44.90951" lon="5.27877">
        <ele>1302.1862792969</ele>
        <time>2011-07-12T09:16:24Z</time>
      </trkpt>
      <trkpt lat="44.90902" lon="5.27927">
        <ele>1306.3262939453</ele>
        <time>2011-07-12T09:16:30Z</time>
      </trkpt>
      <trkpt lat="44.90879" lon="5.27962">
        <ele>1306.7895507812</ele>
        <time>2011-07-12T09:16:33Z</time>
      </trkpt>
      <trkpt lat="44.90868" lon="5.28046">
        <ele>1301.0378417969</ele>
        <time>2011-07-12T09:16:38Z</time>
      </trkpt>
      <trkpt lat="44.90879" lon="5.28094">
        <ele>1294.0966796875</ele>
        <time>2011-07-12T09:16:41Z</time>
      </trkpt>
      <trkpt lat="44.90892" lon="5.28159">
        <ele>1282.9649658203</ele>
        <time>2011-07-12T09:16:45Z</time>
      </trkpt>
      <trkpt lat="44.90874" lon="5.28213">
        <ele>1277.7648925781</ele>
        <time>2011-07-12T09:16:49Z</time>
      </trkpt>
      <trkpt lat="44.90848" lon="5.28231">
        <ele>1278.0222167969</ele>
        <time>2011-07-12T09:16:51Z</time>
      </trkpt>
      <trkpt lat="44.90821" lon="5.28274">
        <ele>1276.5400390625</ele>
        <time>2011-07-12T09:16:54Z</time>
      </trkpt>
      <trkpt lat="44.90811" lon="5.28306">
        <ele>1274.3461914062</ele>
        <time>2011-07-12T09:16:56Z</time>
      </trkpt>
      <trkpt lat="44.90777" lon="5.28381">
        <ele>1268.8767089844</ele>
        <time>2011-07-12T09:17:01Z</time>
      </trkpt>
      <trkpt lat="44.90768" lon="5.28394">
        <ele>1268.1915283203</ele>
        <time>2011-07-12T09:17:02Z</time>
      </trkpt>
      <trkpt lat="44.90744" lon="5.28454">
        <ele>1263.2674560547</ele>
        <time>2011-07-12T09:17:06Z</time>
      </trkpt>
      <trkpt lat="44.90748" lon="5.28503">
        <ele>1258.9731445312</ele>
        <time>2011-07-12T09:17:09Z</time>
      </trkpt>
      <trkpt lat="44.90767" lon="5.28543">
        <ele>1258.5581054688</ele>
        <time>2011-07-12T09:17:12Z</time>
      </trkpt>
      <trkpt lat="44.90795" lon="5.28568">
        <ele>1259</ele>
        <time>2011-07-12T09:17:15Z</time>
      </trkpt>
      <trkpt lat="44.90805" lon="5.28572">
        <ele>1259</ele>
        <time>2011-07-12T09:17:16Z</time>
      </trkpt>
      <trkpt lat="44.90854" lon="5.28595">
        <ele>1259</ele>
        <time>2011-07-12T09:17:22Z</time>
      </trkpt>
      <trkpt lat="44.90885" lon="5.28613">
        <ele>1259</ele>
        <time>2011-07-12T09:17:27Z</time>
      </trkpt>
      <trkpt lat="44.90915" lon="5.28631">
        <ele>1259</ele>
        <time>2011-07-12T09:17:32Z</time>
      </trkpt>
      <trkpt lat="44.90921" lon="5.28635">
        <ele>1259</ele>
        <time>2011-07-12T09:17:33Z</time>
      </trkpt>
      <trkpt lat="44.90934" lon="5.28638">
        <ele>1259</ele>
        <time>2011-07-12T09:17:35Z</time>
      </trkpt>
      <trkpt lat="44.90955" lon="5.2863">
        <ele>1259.2473144531</ele>
        <time>2011-07-12T09:17:38Z</time>
      </trkpt>
      <trkpt lat="44.91002" lon="5.28593">
        <ele>1259.1400146484</ele>
        <time>2011-07-12T09:17:45Z</time>
      </trkpt>
      <trkpt lat="44.91033" lon="5.2858">
        <ele>1259.0531005859</ele>
        <time>2011-07-12T09:17:49Z</time>
      </trkpt>
      <trkpt lat="44.91048" lon="5.28577">
        <ele>1259.6793212891</ele>
        <time>2011-07-12T09:17:51Z</time>
      </trkpt>
      <trkpt lat="44.91082" lon="5.28571">
        <ele>1262.0505371094</ele>
        <time>2011-07-12T09:17:55Z</time>
      </trkpt>
      <trkpt lat="44.91143" lon="5.2856">
        <ele>1265.1287841797</ele>
        <time>2011-07-12T09:18:02Z</time>
      </trkpt>
      <trkpt lat="44.91193" lon="5.28549">
        <ele>1269.1166992188</ele>
        <time>2011-07-12T09:18:08Z</time>
      </trkpt>
      <trkpt lat="44.91234" lon="5.28536">
        <ele>1275.2980957031</ele>
        <time>2011-07-12T09:18:14Z</time>
      </trkpt>
      <trkpt lat="44.91276" lon="5.28528">
        <ele>1280.6850585938</ele>
        <time>2011-07-12T09:18:20Z</time>
      </trkpt>
      <trkpt lat="44.91298" lon="5.2853">
        <ele>1280.4819335938</ele>
        <time>2011-07-12T09:18:23Z</time>
      </trkpt>
      <trkpt lat="44.91327" lon="5.28544">
        <ele>1279.412109375</ele>
        <time>2011-07-12T09:18:27Z</time>
      </trkpt>
      <trkpt lat="44.91366" lon="5.28581">
        <ele>1280.9755859375</ele>
        <time>2011-07-12T09:18:33Z</time>
      </trkpt>
      <trkpt lat="44.91392" lon="5.28618">
        <ele>1284.4816894531</ele>
        <time>2011-07-12T09:18:38Z</time>
      </trkpt>
      <trkpt lat="44.91415" lon="5.28658">
        <ele>1288.6215820312</ele>
        <time>2011-07-12T09:18:44Z</time>
      </trkpt>
      <trkpt lat="44.91431" lon="5.28686">
        <ele>1290.3868408203</ele>
        <time>2011-07-12T09:18:49Z</time>
      </trkpt>
      <trkpt lat="44.91452" lon="5.28703">
        <ele>1290.3337402344</ele>
        <time>2011-07-12T09:18:54Z</time>
      </trkpt>
      <trkpt lat="44.91466" lon="5.28705">
        <ele>1288.0249023438</ele>
        <time>2011-07-12T09:18:57Z</time>
      </trkpt>
      <trkpt lat="44.91473" lon="5.28703">
        <ele>1286.3426513672</ele>
        <time>2011-07-12T09:18:59Z</time>
      </trkpt>
      <trkpt lat="44.91504" lon="5.28694">
        <ele>1279.9912109375</ele>
        <time>2011-07-12T09:19:07Z</time>
      </trkpt>
      <trkpt lat="44.91539" lon="5.28697">
        <ele>1280</ele>
        <time>2011-07-12T09:19:15Z</time>
      </trkpt>
      <trkpt lat="44.91557" lon="5.28706">
        <ele>1280</ele>
        <time>2011-07-12T09:19:20Z</time>
      </trkpt>
      <trkpt lat="44.91586" lon="5.28725">
        <ele>1280.2658691406</ele>
        <time>2011-07-12T09:19:27Z</time>
      </trkpt>
      <trkpt lat="44.91609" lon="5.28741">
        <ele>1285.3516845703</ele>
        <time>2011-07-12T09:19:33Z</time>
      </trkpt>
      <trkpt lat="44.91619" lon="5.28748">
        <ele>1286.6169433594</ele>
        <time>2011-07-12T09:19:35Z</time>
      </trkpt>
      <trkpt lat="44.91633" lon="5.28756">
        <ele>1287.6390380859</ele>
        <time>2011-07-12T09:19:38Z</time>
      </trkpt>
      <trkpt lat="44.91659" lon="5.2877">
        <ele>1289.1516113281</ele>
        <time>2011-07-12T09:19:43Z</time>
      </trkpt>
      <trkpt lat="44.91685" lon="5.28781">
        <ele>1289.1960449219</ele>
        <time>2011-07-12T09:19:49Z</time>
      </trkpt>
      <trkpt lat="44.91713" lon="5.28787">
        <ele>1287.6337890625</ele>
        <time>2011-07-12T09:19:55Z</time>
      </trkpt>
      <trkpt lat="44.91752" lon="5.28795">
        <ele>1284.6879882812</ele>
        <time>2011-07-12T09:20:03Z</time>
      </trkpt>
      <trkpt lat="44.91791" lon="5.28808">
        <ele>1281.2606201172</ele>
        <time>2011-07-12T09:20:11Z</time>
      </trkpt>
      <trkpt lat="44.91823" lon="5.28828">
        <ele>1279.6942138672</ele>
        <time>2011-07-12T09:20:18Z</time>
      </trkpt>
      <trkpt lat="44.91831" lon="5.28837">
        <ele>1280.5422363281</ele>
        <time>2011-07-12T09:20:20Z</time>
      </trkpt>
      <trkpt lat="44.91846" lon="5.28868">
        <ele>1282.2799072266</ele>
        <time>2011-07-12T09:20:25Z</time>
      </trkpt>
      <trkpt lat="44.91845" lon="5.2889">
        <ele>1284.3015136719</ele>
        <time>2011-07-12T09:20:28Z</time>
      </trkpt>
      <trkpt lat="44.9183" lon="5.2893">
        <ele>1284.2894287109</ele>
        <time>2011-07-12T09:20:34Z</time>
      </trkpt>
      <trkpt lat="44.91825" lon="5.28935">
        <ele>1284.306640625</ele>
        <time>2011-07-12T09:20:35Z</time>
      </trkpt>
      <trkpt lat="44.91791" lon="5.28959">
        <ele>1285.0104980469</ele>
        <time>2011-07-12T09:20:41Z</time>
      </trkpt>
      <trkpt lat="44.91785" lon="5.28963">
        <ele>1285.0927734375</ele>
        <time>2011-07-12T09:20:42Z</time>
      </trkpt>
      <trkpt lat="44.91754" lon="5.28999">
        <ele>1283.0174560547</ele>
        <time>2011-07-12T09:20:48Z</time>
      </trkpt>
      <trkpt lat="44.9173" lon="5.29027">
        <ele>1280.1119384766</ele>
        <time>2011-07-12T09:20:52Z</time>
      </trkpt>
      <trkpt lat="44.91692" lon="5.2907">
        <ele>1279.0328369141</ele>
        <time>2011-07-12T09:20:58Z</time>
      </trkpt>
      <trkpt lat="44.91676" lon="5.29115">
        <ele>1278.12890625</ele>
        <time>2011-07-12T09:21:02Z</time>
      </trkpt>
      <trkpt lat="44.91685" lon="5.29152">
        <ele>1275.9675292969</ele>
        <time>2011-07-12T09:21:05Z</time>
      </trkpt>
      <trkpt lat="44.91703" lon="5.29178">
        <ele>1275.1906738281</ele>
        <time>2011-07-12T09:21:08Z</time>
      </trkpt>
      <trkpt lat="44.91714" lon="5.29187">
        <ele>1275.0499267578</ele>
        <time>2011-07-12T09:21:09Z</time>
      </trkpt>
      <trkpt lat="44.91766" lon="5.29246">
        <ele>1276.5340576172</ele>
        <time>2011-07-12T09:21:14Z</time>
      </trkpt>
      <trkpt lat="44.91777" lon="5.29255">
        <ele>1276.8293457031</ele>
        <time>2011-07-12T09:21:15Z</time>
      </trkpt>
      <trkpt lat="44.91811" lon="5.29263">
        <ele>1276.2637939453</ele>
        <time>2011-07-12T09:21:18Z</time>
      </trkpt>
      <trkpt lat="44.91825" lon="5.29261">
        <ele>1275.7651367188</ele>
        <time>2011-07-12T09:21:19Z</time>
      </trkpt>
      <trkpt lat="44.91906" lon="5.29254">
        <ele>1268.5880126953</ele>
        <time>2011-07-12T09:21:25Z</time>
      </trkpt>
      <trkpt lat="44.91977" lon="5.29244">
        <ele>1265.5799560547</ele>
        <time>2011-07-12T09:21:30Z</time>
      </trkpt>
      <trkpt lat="44.92034" lon="5.29216">
        <ele>1259.2741699219</ele>
        <time>2011-07-12T09:21:34Z</time>
      </trkpt>
      <trkpt lat="44.92109" lon="5.29182">
        <ele>1251.3336181641</ele>
        <time>2011-07-12T09:21:39Z</time>
      </trkpt>
      <trkpt lat="44.92156" lon="5.29162">
        <ele>1249.3571777344</ele>
        <time>2011-07-12T09:21:42Z</time>
      </trkpt>
      <trkpt lat="44.92171" lon="5.29153">
        <ele>1247.0341796875</ele>
        <time>2011-07-12T09:21:43Z</time>
      </trkpt>
      <trkpt lat="44.92252" lon="5.29115">
        <ele>1241.0544433594</ele>
        <time>2011-07-12T09:21:48Z</time>
      </trkpt>
      <trkpt lat="44.92319" lon="5.29095">
        <ele>1240.1701660156</ele>
        <time>2011-07-12T09:21:52Z</time>
      </trkpt>
      <trkpt lat="44.9237" lon="5.29093">
        <ele>1236.4432373047</ele>
        <time>2011-07-12T09:21:55Z</time>
      </trkpt>
      <trkpt lat="44.92439" lon="5.29106">
        <ele>1230.9669189453</ele>
        <time>2011-07-12T09:21:59Z</time>
      </trkpt>
      <trkpt lat="44.92488" lon="5.29066">
        <ele>1224.564453125</ele>
        <time>2011-07-12T09:22:02Z</time>
      </trkpt>
      <trkpt lat="44.925" lon="5.29053">
        <ele>1222.8002929688</ele>
        <time>2011-07-12T09:22:03Z</time>
      </trkpt>
      <trkpt lat="44.92537" lon="5.29036">
        <ele>1221.9674072266</ele>
        <time>2011-07-12T09:22:06Z</time>
      </trkpt>
      <trkpt lat="44.92552" lon="5.29036">
        <ele>1220.8482666016</ele>
        <time>2011-07-12T09:22:07Z</time>
      </trkpt>
      <trkpt lat="44.9265" lon="5.29028">
        <ele>1203.8907470703</ele>
        <time>2011-07-12T09:22:13Z</time>
      </trkpt>
      <trkpt lat="44.9272" lon="5.29012">
        <ele>1196.7921142578</ele>
        <time>2011-07-12T09:22:17Z</time>
      </trkpt>
      <trkpt lat="44.92772" lon="5.29001">
        <ele>1188.9373779297</ele>
        <time>2011-07-12T09:22:20Z</time>
      </trkpt>
      <trkpt lat="44.92806" lon="5.28994">
        <ele>1183.8321533203</ele>
        <time>2011-07-12T09:22:22Z</time>
      </trkpt>
      <trkpt lat="44.92875" lon="5.28985">
        <ele>1176.8291015625</ele>
        <time>2011-07-12T09:22:26Z</time>
      </trkpt>
      <trkpt lat="44.92908" lon="5.28983">
        <ele>1173.14453125</ele>
        <time>2011-07-12T09:22:28Z</time>
      </trkpt>
      <trkpt lat="44.9297" lon="5.29004">
        <ele>1172.546875</ele>
        <time>2011-07-12T09:22:32Z</time>
      </trkpt>
      <trkpt lat="44.93022" lon="5.29011">
        <ele>1175.2220458984</ele>
        <time>2011-07-12T09:22:35Z</time>
      </trkpt>
      <trkpt lat="44.93049" lon="5.2899">
        <ele>1173.8077392578</ele>
        <time>2011-07-12T09:22:37Z</time>
      </trkpt>
      <trkpt lat="44.93061" lon="5.28978">
        <ele>1172.2197265625</ele>
        <time>2011-07-12T09:22:38Z</time>
      </trkpt>
      <trkpt lat="44.93111" lon="5.28925">
        <ele>1166.5546875</ele>
        <time>2011-07-12T09:22:42Z</time>
      </trkpt>
      <trkpt lat="44.93135" lon="5.28898">
        <ele>1164.1058349609</ele>
        <time>2011-07-12T09:22:44Z</time>
      </trkpt>
      <trkpt lat="44.93155" lon="5.28867">
        <ele>1160.6525878906</ele>
        <time>2011-07-12T09:22:46Z</time>
      </trkpt>
      <trkpt lat="44.93198" lon="5.2881">
        <ele>1157.3619384766</ele>
        <time>2011-07-12T09:22:50Z</time>
      </trkpt>
      <trkpt lat="44.93224" lon="5.28792">
        <ele>1155.6953125</ele>
        <time>2011-07-12T09:22:52Z</time>
      </trkpt>
      <trkpt lat="44.93298" lon="5.2875">
        <ele>1155.6839599609</ele>
        <time>2011-07-12T09:22:57Z</time>
      </trkpt>
      <trkpt lat="44.93394" lon="5.28696">
        <ele>1148.2395019531</ele>
        <time>2011-07-12T09:23:04Z</time>
      </trkpt>
      <trkpt lat="44.93452" lon="5.2868">
        <ele>1146.1678466797</ele>
        <time>2011-07-12T09:23:08Z</time>
      </trkpt>
      <trkpt lat="44.93539" lon="5.28671">
        <ele>1141.2077636719</ele>
        <time>2011-07-12T09:23:14Z</time>
      </trkpt>
      <trkpt lat="44.9361" lon="5.28678">
        <ele>1137.1452636719</ele>
        <time>2011-07-12T09:23:19Z</time>
      </trkpt>
      <trkpt lat="44.93623" lon="5.28679">
        <ele>1135.0318603516</ele>
        <time>2011-07-12T09:23:20Z</time>
      </trkpt>
      <trkpt lat="44.93676" lon="5.28696">
        <ele>1129.1240234375</ele>
        <time>2011-07-12T09:23:24Z</time>
      </trkpt>
      <trkpt lat="44.93757" lon="5.28747">
        <ele>1126.4302978516</ele>
        <time>2011-07-12T09:23:30Z</time>
      </trkpt>
      <trkpt lat="44.93784" lon="5.28758">
        <ele>1124.1871337891</ele>
        <time>2011-07-12T09:23:32Z</time>
      </trkpt>
      <trkpt lat="44.93827" lon="5.28744">
        <ele>1119.2165527344</ele>
        <time>2011-07-12T09:23:36Z</time>
      </trkpt>
      <trkpt lat="44.93836" lon="5.28716">
        <ele>1113.94140625</ele>
        <time>2011-07-12T09:23:38Z</time>
      </trkpt>
      <trkpt lat="44.93864" lon="5.28677">
        <ele>1108.3942871094</ele>
        <time>2011-07-12T09:23:41Z</time>
      </trkpt>
      <trkpt lat="44.9393" lon="5.28614">
        <ele>1105.3519287109</ele>
        <time>2011-07-12T09:23:47Z</time>
      </trkpt>
      <trkpt lat="44.93971" lon="5.28564">
        <ele>1097.7490234375</ele>
        <time>2011-07-12T09:23:51Z</time>
      </trkpt>
      <trkpt lat="44.9401" lon="5.28543">
        <ele>1096.7513427734</ele>
        <time>2011-07-12T09:23:54Z</time>
      </trkpt>
      <trkpt lat="44.94065" lon="5.28525">
        <ele>1096.2603759766</ele>
        <time>2011-07-12T09:23:58Z</time>
      </trkpt>
      <trkpt lat="44.94108" lon="5.28517">
        <ele>1096.6612548828</ele>
        <time>2011-07-12T09:24:01Z</time>
      </trkpt>
      <trkpt lat="44.94136" lon="5.28518">
        <ele>1097.1042480469</ele>
        <time>2011-07-12T09:24:03Z</time>
      </trkpt>
      <trkpt lat="44.94203" lon="5.28527">
        <ele>1094.6115722656</ele>
        <time>2011-07-12T09:24:08Z</time>
      </trkpt>
      <trkpt lat="44.94255" lon="5.2854">
        <ele>1091.9228515625</ele>
        <time>2011-07-12T09:24:12Z</time>
      </trkpt>
      <trkpt lat="44.94291" lon="5.2855">
        <ele>1087.6107177734</ele>
        <time>2011-07-12T09:24:15Z</time>
      </trkpt>
      <trkpt lat="44.94333" lon="5.28581">
        <ele>1085.6596679688</ele>
        <time>2011-07-12T09:24:19Z</time>
      </trkpt>
      <trkpt lat="44.94347" lon="5.28605">
        <ele>1087.0837402344</ele>
        <time>2011-07-12T09:24:21Z</time>
      </trkpt>
      <trkpt lat="44.94387" lon="5.28651">
        <ele>1089.2877197266</ele>
        <time>2011-07-12T09:24:26Z</time>
      </trkpt>
      <trkpt lat="44.94405" lon="5.2865">
        <ele>1089.8489990234</ele>
        <time>2011-07-12T09:24:28Z</time>
      </trkpt>
      <trkpt lat="44.94468" lon="5.28638">
        <ele>1087.4638671875</ele>
        <time>2011-07-12T09:24:34Z</time>
      </trkpt>
      <trkpt lat="44.94521" lon="5.28632">
        <ele>1086.7346191406</ele>
        <time>2011-07-12T09:24:39Z</time>
      </trkpt>
      <trkpt lat="44.94554" lon="5.28639">
        <ele>1085.1018066406</ele>
        <time>2011-07-12T09:24:42Z</time>
      </trkpt>
      <trkpt lat="44.94564" lon="5.28643">
        <ele>1084.9013671875</ele>
        <time>2011-07-12T09:24:43Z</time>
      </trkpt>
      <trkpt lat="44.94638" lon="5.28683">
        <ele>1083.4956054688</ele>
        <time>2011-07-12T09:24:50Z</time>
      </trkpt>
      <trkpt lat="44.94686" lon="5.2872">
        <ele>1085.1198730469</ele>
        <time>2011-07-12T09:24:55Z</time>
      </trkpt>
      <trkpt lat="44.94695" lon="5.28728">
        <ele>1085.9538574219</ele>
        <time>2011-07-12T09:24:56Z</time>
      </trkpt>
      <trkpt lat="44.94727" lon="5.2874">
        <ele>1084.9505615234</ele>
        <time>2011-07-12T09:25:00Z</time>
      </trkpt>
      <trkpt lat="44.94734" lon="5.28741">
        <ele>1084.4493408203</ele>
        <time>2011-07-12T09:25:01Z</time>
      </trkpt>
      <trkpt lat="44.94765" lon="5.28753">
        <ele>1083.2059326172</ele>
        <time>2011-07-12T09:25:06Z</time>
      </trkpt>
      <trkpt lat="44.9479" lon="5.28771">
        <ele>1083.8100585938</ele>
        <time>2011-07-12T09:25:11Z</time>
      </trkpt>
      <trkpt lat="44.94808" lon="5.28795">
        <ele>1086.3040771484</ele>
        <time>2011-07-12T09:25:17Z</time>
      </trkpt>
      <trkpt lat="44.9482" lon="5.28815">
        <ele>1087.9937744141</ele>
        <time>2011-07-12T09:25:23Z</time>
      </trkpt>
      <trkpt lat="44.9483" lon="5.28842">
        <ele>1090.5225830078</ele>
        <time>2011-07-12T09:25:31Z</time>
      </trkpt>
      <trkpt lat="44.94831" lon="5.2885">
        <ele>1091.5662841797</ele>
        <time>2011-07-12T09:25:33Z</time>
      </trkpt>
      <trkpt lat="44.94836" lon="5.28879">
        <ele>1095.4761962891</ele>
        <time>2011-07-12T09:25:40Z</time>
      </trkpt>
      <trkpt lat="44.94838" lon="5.28906">
        <ele>1098.8028564453</ele>
        <time>2011-07-12T09:25:47Z</time>
      </trkpt>
      <trkpt lat="44.9484" lon="5.28923">
        <ele>1101.763671875</ele>
        <time>2011-07-12T09:25:52Z</time>
      </trkpt>
      <trkpt lat="44.94848" lon="5.28942">
        <ele>1106.9505615234</ele>
        <time>2011-07-12T09:25:58Z</time>
      </trkpt>
      <trkpt lat="44.94857" lon="5.28958">
        <ele>1109.6740722656</ele>
        <time>2011-07-12T09:26:03Z</time>
      </trkpt>
      <trkpt lat="44.94868" lon="5.28968">
        <ele>1110.69921875</ele>
        <time>2011-07-12T09:26:08Z</time>
      </trkpt>
      <trkpt lat="44.94879" lon="5.28975">
        <ele>1111.7939453125</ele>
        <time>2011-07-12T09:26:13Z</time>
      </trkpt>
      <trkpt lat="44.94888" lon="5.2898">
        <ele>1112.9923095703</ele>
        <time>2011-07-12T09:26:18Z</time>
      </trkpt>
      <trkpt lat="44.94901" lon="5.28985">
        <ele>1112.8282470703</ele>
        <time>2011-07-12T09:26:25Z</time>
      </trkpt>
      <trkpt lat="44.94913" lon="5.28991">
        <ele>1113.1097412109</ele>
        <time>2011-07-12T09:26:31Z</time>
      </trkpt>
      <trkpt lat="44.94925" lon="5.28996">
        <ele>1114.5223388672</ele>
        <time>2011-07-12T09:26:36Z</time>
      </trkpt>
      <trkpt lat="44.94935" lon="5.28999">
        <ele>1115.7755126953</ele>
        <time>2011-07-12T09:26:41Z</time>
      </trkpt>
      <trkpt lat="44.94947" lon="5.29005">
        <ele>1117.5385742188</ele>
        <time>2011-07-12T09:26:47Z</time>
      </trkpt>
      <trkpt lat="44.94959" lon="5.2901">
        <ele>1117.853515625</ele>
        <time>2011-07-12T09:26:53Z</time>
      </trkpt>
      <trkpt lat="44.94967" lon="5.29013">
        <ele>1118.2161865234</ele>
        <time>2011-07-12T09:26:57Z</time>
      </trkpt>
      <trkpt lat="44.94984" lon="5.29021">
        <ele>1119.1882324219</ele>
        <time>2011-07-12T09:27:04Z</time>
      </trkpt>
      <trkpt lat="44.94991" lon="5.29025">
        <ele>1119.6923828125</ele>
        <time>2011-07-12T09:27:08Z</time>
      </trkpt>
      <trkpt lat="44.95003" lon="5.29029">
        <ele>1120.2006835938</ele>
        <time>2011-07-12T09:27:14Z</time>
      </trkpt>
      <trkpt lat="44.95015" lon="5.29035">
        <ele>1121.3508300781</ele>
        <time>2011-07-12T09:27:20Z</time>
      </trkpt>
      <trkpt lat="44.95028" lon="5.29042">
        <ele>1122.6125488281</ele>
        <time>2011-07-12T09:27:26Z</time>
      </trkpt>
      <trkpt lat="44.95033" lon="5.29045">
        <ele>1122.4737548828</ele>
        <time>2011-07-12T09:27:28Z</time>
      </trkpt>
      <trkpt lat="44.95045" lon="5.29052">
        <ele>1122.3714599609</ele>
        <time>2011-07-12T09:27:33Z</time>
      </trkpt>
      <trkpt lat="44.9506" lon="5.29065">
        <ele>1122.6411132812</ele>
        <time>2011-07-12T09:27:39Z</time>
      </trkpt>
      <trkpt lat="44.95073" lon="5.29076">
        <ele>1121.2686767578</ele>
        <time>2011-07-12T09:27:44Z</time>
      </trkpt>
      <trkpt lat="44.95089" lon="5.29091">
        <ele>1120.5676269531</ele>
        <time>2011-07-12T09:27:51Z</time>
      </trkpt>
      <trkpt lat="44.95103" lon="5.29105">
        <ele>1120.4877929688</ele>
        <time>2011-07-12T09:27:57Z</time>
      </trkpt>
      <trkpt lat="44.95118" lon="5.29121">
        <ele>1123.5584716797</ele>
        <time>2011-07-12T09:28:04Z</time>
      </trkpt>
      <trkpt lat="44.9513" lon="5.29136">
        <ele>1128.4443359375</ele>
        <time>2011-07-12T09:28:10Z</time>
      </trkpt>
      <trkpt lat="44.95136" lon="5.29142">
        <ele>1130.6147460938</ele>
        <time>2011-07-12T09:28:13Z</time>
      </trkpt>
      <trkpt lat="44.9515" lon="5.29159">
        <ele>1134.2926025391</ele>
        <time>2011-07-12T09:28:20Z</time>
      </trkpt>
      <trkpt lat="44.95164" lon="5.29176">
        <ele>1135.4416503906</ele>
        <time>2011-07-12T09:28:26Z</time>
      </trkpt>
      <trkpt lat="44.95177" lon="5.29191">
        <ele>1137.6510009766</ele>
        <time>2011-07-12T09:28:32Z</time>
      </trkpt>
      <trkpt lat="44.95192" lon="5.29201">
        <ele>1139.0869140625</ele>
        <time>2011-07-12T09:28:38Z</time>
      </trkpt>
      <trkpt lat="44.95218" lon="5.2921">
        <ele>1137.1932373047</ele>
        <time>2011-07-12T09:28:47Z</time>
      </trkpt>
      <trkpt lat="44.95232" lon="5.29214">
        <ele>1136.1091308594</ele>
        <time>2011-07-12T09:28:53Z</time>
      </trkpt>
      <trkpt lat="44.95244" lon="5.29218">
        <ele>1136.1387939453</ele>
        <time>2011-07-12T09:28:58Z</time>
      </trkpt>
      <trkpt lat="44.95261" lon="5.29228">
        <ele>1137.0906982422</ele>
        <time>2011-07-12T09:29:04Z</time>
      </trkpt>
      <trkpt lat="44.95274" lon="5.29235">
        <ele>1137.4486083984</ele>
        <time>2011-07-12T09:29:10Z</time>
      </trkpt>
      <trkpt lat="44.95292" lon="5.2924">
        <ele>1135.2006835938</ele>
        <time>2011-07-12T09:29:15Z</time>
      </trkpt>
      <trkpt lat="44.95308" lon="5.29246">
        <ele>1133.4886474609</ele>
        <time>2011-07-12T09:29:21Z</time>
      </trkpt>
      <trkpt lat="44.95314" lon="5.29251">
        <ele>1134.9317626953</ele>
        <time>2011-07-12T09:29:24Z</time>
      </trkpt>
      <trkpt lat="44.95328" lon="5.29258">
        <ele>1136.9504394531</ele>
        <time>2011-07-12T09:29:30Z</time>
      </trkpt>
      <trkpt lat="44.95339" lon="5.29264">
        <ele>1138.9053955078</ele>
        <time>2011-07-12T09:29:36Z</time>
      </trkpt>
      <trkpt lat="44.95348" lon="5.29266">
        <ele>1138.5140380859</ele>
        <time>2011-07-12T09:29:41Z</time>
      </trkpt>
      <trkpt lat="44.95361" lon="5.29273">
        <ele>1139.8990478516</ele>
        <time>2011-07-12T09:29:47Z</time>
      </trkpt>
      <trkpt lat="44.95379" lon="5.29285">
        <ele>1143.8416748047</ele>
        <time>2011-07-12T09:29:53Z</time>
      </trkpt>
      <trkpt lat="44.9539" lon="5.29291">
        <ele>1145.5970458984</ele>
        <time>2011-07-12T09:29:57Z</time>
      </trkpt>
      <trkpt lat="44.95401" lon="5.29298">
        <ele>1147.9802246094</ele>
        <time>2011-07-12T09:30:03Z</time>
      </trkpt>
      <trkpt lat="44.95416" lon="5.29308">
        <ele>1151.9517822266</ele>
        <time>2011-07-12T09:30:08Z</time>
      </trkpt>
      <trkpt lat="44.95435" lon="5.29322">
        <ele>1153.689453125</ele>
        <time>2011-07-12T09:30:15Z</time>
      </trkpt>
      <trkpt lat="44.95448" lon="5.29333">
        <ele>1155.4593505859</ele>
        <time>2011-07-12T09:30:20Z</time>
      </trkpt>
      <trkpt lat="44.95471" lon="5.29348">
        <ele>1158.6320800781</ele>
        <time>2011-07-12T09:30:28Z</time>
      </trkpt>
      <trkpt lat="44.95495" lon="5.29366">
        <ele>1159.7321777344</ele>
        <time>2011-07-12T09:30:36Z</time>
      </trkpt>
      <trkpt lat="44.95515" lon="5.29379">
        <ele>1159.7027587891</ele>
        <time>2011-07-12T09:30:43Z</time>
      </trkpt>
      <trkpt lat="44.95527" lon="5.2939">
        <ele>1160.5931396484</ele>
        <time>2011-07-12T09:30:49Z</time>
      </trkpt>
      <trkpt lat="44.95546" lon="5.29401">
        <ele>1159.9213867188</ele>
        <time>2011-07-12T09:30:56Z</time>
      </trkpt>
      <trkpt lat="44.95562" lon="5.29411">
        <ele>1159.8452148438</ele>
        <time>2011-07-12T09:31:02Z</time>
      </trkpt>
      <trkpt lat="44.95579" lon="5.2942">
        <ele>1161.2319335938</ele>
        <time>2011-07-12T09:31:08Z</time>
      </trkpt>
      <trkpt lat="44.95598" lon="5.29431">
        <ele>1161.0753173828</ele>
        <time>2011-07-12T09:31:15Z</time>
      </trkpt>
      <trkpt lat="44.95613" lon="5.2944">
        <ele>1160.4790039062</ele>
        <time>2011-07-12T09:31:21Z</time>
      </trkpt>
      <trkpt lat="44.95625" lon="5.29449">
        <ele>1159.6218261719</ele>
        <time>2011-07-12T09:31:27Z</time>
      </trkpt>
      <trkpt lat="44.9564" lon="5.29458">
        <ele>1157.7691650391</ele>
        <time>2011-07-12T09:31:34Z</time>
      </trkpt>
      <trkpt lat="44.95656" lon="5.29467">
        <ele>1156.8614501953</ele>
        <time>2011-07-12T09:31:41Z</time>
      </trkpt>
      <trkpt lat="44.95671" lon="5.29482">
        <ele>1156.7513427734</ele>
        <time>2011-07-12T09:31:47Z</time>
      </trkpt>
      <trkpt lat="44.95677" lon="5.29503">
        <ele>1158.7009277344</ele>
        <time>2011-07-12T09:31:52Z</time>
      </trkpt>
      <trkpt lat="44.95683" lon="5.29539">
        <ele>1161.6530761719</ele>
        <time>2011-07-12T09:31:59Z</time>
      </trkpt>
      <trkpt lat="44.95684" lon="5.29545">
        <ele>1162.0150146484</ele>
        <time>2011-07-12T09:32:00Z</time>
      </trkpt>
      <trkpt lat="44.95691" lon="5.29568">
        <ele>1162.5338134766</ele>
        <time>2011-07-12T09:32:04Z</time>
      </trkpt>
      <trkpt lat="44.95701" lon="5.29593">
        <ele>1162.6727294922</ele>
        <time>2011-07-12T09:32:08Z</time>
      </trkpt>
      <trkpt lat="44.95707" lon="5.29607">
        <ele>1162.9301757812</ele>
        <time>2011-07-12T09:32:10Z</time>
      </trkpt>
      <trkpt lat="44.95723" lon="5.29648">
        <ele>1162.0546875</ele>
        <time>2011-07-12T09:32:16Z</time>
      </trkpt>
      <trkpt lat="44.95735" lon="5.29686">
        <ele>1152.9836425781</ele>
        <time>2011-07-12T09:32:21Z</time>
      </trkpt>
      <trkpt lat="44.95742" lon="5.29728">
        <ele>1147.0950927734</ele>
        <time>2011-07-12T09:32:26Z</time>
      </trkpt>
      <trkpt lat="44.95742" lon="5.29761">
        <ele>1146.0787353516</ele>
        <time>2011-07-12T09:32:30Z</time>
      </trkpt>
      <trkpt lat="44.95738" lon="5.29817">
        <ele>1148.4814453125</ele>
        <time>2011-07-12T09:32:36Z</time>
      </trkpt>
      <trkpt lat="44.95737" lon="5.29827">
        <ele>1149.0307617188</ele>
        <time>2011-07-12T09:32:37Z</time>
      </trkpt>
      <trkpt lat="44.95735" lon="5.29891">
        <ele>1149.5736083984</ele>
        <time>2011-07-12T09:32:43Z</time>
      </trkpt>
      <trkpt lat="44.95732" lon="5.29913">
        <ele>1149.5113525391</ele>
        <time>2011-07-12T09:32:45Z</time>
      </trkpt>
      <trkpt lat="44.95707" lon="5.29981">
        <ele>1152.0515136719</ele>
        <time>2011-07-12T09:32:51Z</time>
      </trkpt>
      <trkpt lat="44.95684" lon="5.30049">
        <ele>1150.8370361328</ele>
        <time>2011-07-12T09:32:57Z</time>
      </trkpt>
      <trkpt lat="44.95659" lon="5.30103">
        <ele>1152.1773681641</ele>
        <time>2011-07-12T09:33:02Z</time>
      </trkpt>
      <trkpt lat="44.95654" lon="5.30113">
        <ele>1151.9390869141</ele>
        <time>2011-07-12T09:33:03Z</time>
      </trkpt>
      <trkpt lat="44.95617" lon="5.30195">
        <ele>1152.0024414062</ele>
        <time>2011-07-12T09:33:10Z</time>
      </trkpt>
      <trkpt lat="44.95603" lon="5.30226">
        <ele>1151.5180664062</ele>
        <time>2011-07-12T09:33:13Z</time>
      </trkpt>
      <trkpt lat="44.95563" lon="5.30312">
        <ele>1148.9005126953</ele>
        <time>2011-07-12T09:33:21Z</time>
      </trkpt>
      <trkpt lat="44.95533" lon="5.30375">
        <ele>1148.4094238281</ele>
        <time>2011-07-12T09:33:27Z</time>
      </trkpt>
      <trkpt lat="44.95506" lon="5.30423">
        <ele>1148.373046875</ele>
        <time>2011-07-12T09:33:32Z</time>
      </trkpt>
      <trkpt lat="44.95499" lon="5.30432">
        <ele>1149.1887207031</ele>
        <time>2011-07-12T09:33:33Z</time>
      </trkpt>
      <trkpt lat="44.9546" lon="5.30479">
        <ele>1154.0866699219</ele>
        <time>2011-07-12T09:33:39Z</time>
      </trkpt>
      <trkpt lat="44.95422" lon="5.3053">
        <ele>1160.9428710938</ele>
        <time>2011-07-12T09:33:45Z</time>
      </trkpt>
      <trkpt lat="44.95388" lon="5.30589">
        <ele>1158.0925292969</ele>
        <time>2011-07-12T09:33:51Z</time>
      </trkpt>
      <trkpt lat="44.95375" lon="5.30607">
        <ele>1161.8605957031</ele>
        <time>2011-07-12T09:33:53Z</time>
      </trkpt>
      <trkpt lat="44.95348" lon="5.30658">
        <ele>1161.6727294922</ele>
        <time>2011-07-12T09:33:58Z</time>
      </trkpt>
      <trkpt lat="44.95322" lon="5.30687">
        <ele>1159.6022949219</ele>
        <time>2011-07-12T09:34:02Z</time>
      </trkpt>
      <trkpt lat="44.95314" lon="5.3069">
        <ele>1162.2303466797</ele>
        <time>2011-07-12T09:34:03Z</time>
      </trkpt>
      <trkpt lat="44.95295" lon="5.30696">
        <ele>1167.6079101562</ele>
        <time>2011-07-12T09:34:06Z</time>
      </trkpt>
      <trkpt lat="44.95272" lon="5.30711">
        <ele>1171.3033447266</ele>
        <time>2011-07-12T09:34:09Z</time>
      </trkpt>
      <trkpt lat="44.95247" lon="5.30744">
        <ele>1168.2813720703</ele>
        <time>2011-07-12T09:34:13Z</time>
      </trkpt>
      <trkpt lat="44.95238" lon="5.30754">
        <ele>1166.3386230469</ele>
        <time>2011-07-12T09:34:14Z</time>
      </trkpt>
      <trkpt lat="44.95201" lon="5.30794">
        <ele>1163.8962402344</ele>
        <time>2011-07-12T09:34:19Z</time>
      </trkpt>
      <trkpt lat="44.95148" lon="5.30827">
        <ele>1164.1607666016</ele>
        <time>2011-07-12T09:34:25Z</time>
      </trkpt>
      <trkpt lat="44.95121" lon="5.30847">
        <ele>1163.2956542969</ele>
        <time>2011-07-12T09:34:28Z</time>
      </trkpt>
      <trkpt lat="44.95113" lon="5.30855">
        <ele>1162.7326660156</ele>
        <time>2011-07-12T09:34:29Z</time>
      </trkpt>
      <trkpt lat="44.95073" lon="5.30877">
        <ele>1161.2027587891</ele>
        <time>2011-07-12T09:34:33Z</time>
      </trkpt>
      <trkpt lat="44.9503" lon="5.30893">
        <ele>1162.0620117188</ele>
        <time>2011-07-12T09:34:37Z</time>
      </trkpt>
      <trkpt lat="44.94985" lon="5.30909">
        <ele>1162.8972167969</ele>
        <time>2011-07-12T09:34:41Z</time>
      </trkpt>
      <trkpt lat="44.94968" lon="5.30913">
        <ele>1163.8269042969</ele>
        <time>2011-07-12T09:34:43Z</time>
      </trkpt>
      <trkpt lat="44.94926" lon="5.30938">
        <ele>1160.8974609375</ele>
        <time>2011-07-12T09:34:47Z</time>
      </trkpt>
      <trkpt lat="44.94884" lon="5.30967">
        <ele>1155.5693359375</ele>
        <time>2011-07-12T09:34:51Z</time>
      </trkpt>
      <trkpt lat="44.94835" lon="5.30988">
        <ele>1148.6578369141</ele>
        <time>2011-07-12T09:34:56Z</time>
      </trkpt>
      <trkpt lat="44.94815" lon="5.30992">
        <ele>1147.7109375</ele>
        <time>2011-07-12T09:34:58Z</time>
      </trkpt>
      <trkpt lat="44.9476" lon="5.31001">
        <ele>1145.2019042969</ele>
        <time>2011-07-12T09:35:03Z</time>
      </trkpt>
      <trkpt lat="44.9474" lon="5.31002">
        <ele>1143.7729492188</ele>
        <time>2011-07-12T09:35:05Z</time>
      </trkpt>
      <trkpt lat="44.94684" lon="5.31011">
        <ele>1135.8897705078</ele>
        <time>2011-07-12T09:35:10Z</time>
      </trkpt>
      <trkpt lat="44.94625" lon="5.31016">
        <ele>1128.23828125</ele>
        <time>2011-07-12T09:35:15Z</time>
      </trkpt>
      <trkpt lat="44.94579" lon="5.31012">
        <ele>1124.4478759766</ele>
        <time>2011-07-12T09:35:19Z</time>
      </trkpt>
      <trkpt lat="44.94567" lon="5.3101">
        <ele>1122.9953613281</ele>
        <time>2011-07-12T09:35:20Z</time>
      </trkpt>
      <trkpt lat="44.94535" lon="5.30997">
        <ele>1123.8369140625</ele>
        <time>2011-07-12T09:35:23Z</time>
      </trkpt>
      <trkpt lat="44.94474" lon="5.3096">
        <ele>1124.1900634766</ele>
        <time>2011-07-12T09:35:29Z</time>
      </trkpt>
      <trkpt lat="44.94455" lon="5.30946">
        <ele>1126.6439208984</ele>
        <time>2011-07-12T09:35:31Z</time>
      </trkpt>
      <trkpt lat="44.94408" lon="5.30918">
        <ele>1129.0614013672</ele>
        <time>2011-07-12T09:35:36Z</time>
      </trkpt>
      <trkpt lat="44.94362" lon="5.30887">
        <ele>1130.6842041016</ele>
        <time>2011-07-12T09:35:41Z</time>
      </trkpt>
      <trkpt lat="44.94342" lon="5.30879">
        <ele>1130.4442138672</ele>
        <time>2011-07-12T09:35:43Z</time>
      </trkpt>
      <trkpt lat="44.94268" lon="5.30873">
        <ele>1123.2668457031</ele>
        <time>2011-07-12T09:35:50Z</time>
      </trkpt>
      <trkpt lat="44.94218" lon="5.30874">
        <ele>1118.8117675781</ele>
        <time>2011-07-12T09:35:55Z</time>
      </trkpt>
      <trkpt lat="44.94189" lon="5.30874">
        <ele>1117.7049560547</ele>
        <time>2011-07-12T09:35:58Z</time>
      </trkpt>
      <trkpt lat="44.94162" lon="5.30873">
        <ele>1116.4350585938</ele>
        <time>2011-07-12T09:36:01Z</time>
      </trkpt>
      <trkpt lat="44.94144" lon="5.30871">
        <ele>1117.0942382812</ele>
        <time>2011-07-12T09:36:03Z</time>
      </trkpt>
      <trkpt lat="44.94129" lon="5.30879">
        <ele>1115.2105712891</ele>
        <time>2011-07-12T09:36:06Z</time>
      </trkpt>
      <trkpt lat="44.9413" lon="5.30892">
        <ele>1112.1130371094</ele>
        <time>2011-07-12T09:36:09Z</time>
      </trkpt>
      <trkpt lat="44.9414" lon="5.309">
        <ele>1109.4967041016</ele>
        <time>2011-07-12T09:36:12Z</time>
      </trkpt>
      <trkpt lat="44.94159" lon="5.309">
        <ele>1109.5791015625</ele>
        <time>2011-07-12T09:36:15Z</time>
      </trkpt>
      <trkpt lat="44.94181" lon="5.30903">
        <ele>1108.3177490234</ele>
        <time>2011-07-12T09:36:18Z</time>
      </trkpt>
      <trkpt lat="44.94223" lon="5.30905">
        <ele>1109.9573974609</ele>
        <time>2011-07-12T09:36:23Z</time>
      </trkpt>
      <trkpt lat="44.94239" lon="5.3091">
        <ele>1109.7951660156</ele>
        <time>2011-07-12T09:36:25Z</time>
      </trkpt>
      <trkpt lat="44.94287" lon="5.30933">
        <ele>1109.7579345703</ele>
        <time>2011-07-12T09:36:31Z</time>
      </trkpt>
      <trkpt lat="44.94335" lon="5.30958">
        <ele>1108.0364990234</ele>
        <time>2011-07-12T09:36:36Z</time>
      </trkpt>
      <trkpt lat="44.94366" lon="5.30977">
        <ele>1106.4270019531</ele>
        <time>2011-07-12T09:36:39Z</time>
      </trkpt>
      <trkpt lat="44.9438" lon="5.31001">
        <ele>1102.6467285156</ele>
        <time>2011-07-12T09:36:41Z</time>
      </trkpt>
      <trkpt lat="44.94388" lon="5.31011">
        <ele>1101.5593261719</ele>
        <time>2011-07-12T09:36:42Z</time>
      </trkpt>
      <trkpt lat="44.94402" lon="5.3103">
        <ele>1098.7836914062</ele>
        <time>2011-07-12T09:36:44Z</time>
      </trkpt>
      <trkpt lat="44.94445" lon="5.31074">
        <ele>1098.03515625</ele>
        <time>2011-07-12T09:36:49Z</time>
      </trkpt>
      <trkpt lat="44.94492" lon="5.31122">
        <ele>1095.3415527344</ele>
        <time>2011-07-12T09:36:54Z</time>
      </trkpt>
      <trkpt lat="44.94538" lon="5.31168">
        <ele>1098.7443847656</ele>
        <time>2011-07-12T09:36:59Z</time>
      </trkpt>
      <trkpt lat="44.94595" lon="5.3121">
        <ele>1099.4401855469</ele>
        <time>2011-07-12T09:37:05Z</time>
      </trkpt>
      <trkpt lat="44.94605" lon="5.31217">
        <ele>1099.1810302734</ele>
        <time>2011-07-12T09:37:06Z</time>
      </trkpt>
      <trkpt lat="44.94645" lon="5.31267">
        <ele>1098.2923583984</ele>
        <time>2011-07-12T09:37:11Z</time>
      </trkpt>
      <trkpt lat="44.94651" lon="5.31279">
        <ele>1097.9764404297</ele>
        <time>2011-07-12T09:37:12Z</time>
      </trkpt>
      <trkpt lat="44.94656" lon="5.31292">
        <ele>1097.6774902344</ele>
        <time>2011-07-12T09:37:13Z</time>
      </trkpt>
      <trkpt lat="44.94674" lon="5.3137">
        <ele>1096.5222167969</ele>
        <time>2011-07-12T09:37:19Z</time>
      </trkpt>
      <trkpt lat="44.94673" lon="5.31429">
        <ele>1095.4672851562</ele>
        <time>2011-07-12T09:37:24Z</time>
      </trkpt>
      <trkpt lat="44.94666" lon="5.31514">
        <ele>1093.0200195312</ele>
        <time>2011-07-12T09:37:32Z</time>
      </trkpt>
      <trkpt lat="44.94662" lon="5.31574">
        <ele>1092.236328125</ele>
        <time>2011-07-12T09:37:38Z</time>
      </trkpt>
      <trkpt lat="44.94656" lon="5.31646">
        <ele>1091.2478027344</ele>
        <time>2011-07-12T09:37:46Z</time>
      </trkpt>
      <trkpt lat="44.94651" lon="5.31694">
        <ele>1091.1257324219</ele>
        <time>2011-07-12T09:37:52Z</time>
      </trkpt>
      <trkpt lat="44.94647" lon="5.31743">
        <ele>1090.4278564453</ele>
        <time>2011-07-12T09:37:59Z</time>
      </trkpt>
      <trkpt lat="44.94641" lon="5.318">
        <ele>1089.7359619141</ele>
        <time>2011-07-12T09:38:07Z</time>
      </trkpt>
      <trkpt lat="44.9464" lon="5.31823">
        <ele>1089.2547607422</ele>
        <time>2011-07-12T09:38:10Z</time>
      </trkpt>
      <trkpt lat="44.94645" lon="5.31878">
        <ele>1087.833984375</ele>
        <time>2011-07-12T09:38:17Z</time>
      </trkpt>
      <trkpt lat="44.94652" lon="5.31903">
        <ele>1086.8023681641</ele>
        <time>2011-07-12T09:38:20Z</time>
      </trkpt>
      <trkpt lat="44.94679" lon="5.31955">
        <ele>1086.3005371094</ele>
        <time>2011-07-12T09:38:26Z</time>
      </trkpt>
      <trkpt lat="44.94706" lon="5.31987">
        <ele>1087.7015380859</ele>
        <time>2011-07-12T09:38:30Z</time>
      </trkpt>
      <trkpt lat="44.94772" lon="5.3203">
        <ele>1085.5113525391</ele>
        <time>2011-07-12T09:38:37Z</time>
      </trkpt>
      <trkpt lat="44.94835" lon="5.32074">
        <ele>1084.0634765625</ele>
        <time>2011-07-12T09:38:43Z</time>
      </trkpt>
      <trkpt lat="44.94845" lon="5.32084">
        <ele>1083.2248535156</ele>
        <time>2011-07-12T09:38:44Z</time>
      </trkpt>
      <trkpt lat="44.94872" lon="5.32118">
        <ele>1082.7528076172</ele>
        <time>2011-07-12T09:38:47Z</time>
      </trkpt>
      <trkpt lat="44.94904" lon="5.32169">
        <ele>1080</ele>
        <time>2011-07-12T09:38:51Z</time>
      </trkpt>
      <trkpt lat="44.94926" lon="5.32205">
        <ele>1080</ele>
        <time>2011-07-12T09:38:54Z</time>
      </trkpt>
      <trkpt lat="44.94942" lon="5.32226">
        <ele>1080</ele>
        <time>2011-07-12T09:38:56Z</time>
      </trkpt>
      <trkpt lat="44.9495" lon="5.32236">
        <ele>1080</ele>
        <time>2011-07-12T09:38:57Z</time>
      </trkpt>
      <trkpt lat="44.95007" lon="5.32283">
        <ele>1080</ele>
        <time>2011-07-12T09:39:03Z</time>
      </trkpt>
      <trkpt lat="44.9507" lon="5.32332">
        <ele>1080</ele>
        <time>2011-07-12T09:39:09Z</time>
      </trkpt>
      <trkpt lat="44.95139" lon="5.32387">
        <ele>1080</ele>
        <time>2011-07-12T09:39:15Z</time>
      </trkpt>
      <trkpt lat="44.95205" lon="5.32445">
        <ele>1080</ele>
        <time>2011-07-12T09:39:21Z</time>
      </trkpt>
      <trkpt lat="44.95259" lon="5.3248">
        <ele>1080</ele>
        <time>2011-07-12T09:39:26Z</time>
      </trkpt>
      <trkpt lat="44.95336" lon="5.32521">
        <ele>1080</ele>
        <time>2011-07-12T09:39:33Z</time>
      </trkpt>
      <trkpt lat="44.95382" lon="5.32562">
        <ele>1080</ele>
        <time>2011-07-12T09:39:38Z</time>
      </trkpt>
      <trkpt lat="44.95425" lon="5.32601">
        <ele>1080</ele>
        <time>2011-07-12T09:39:43Z</time>
      </trkpt>
      <trkpt lat="44.95452" lon="5.32624">
        <ele>1080</ele>
        <time>2011-07-12T09:39:46Z</time>
      </trkpt>
      <trkpt lat="44.95481" lon="5.32662">
        <ele>1079.1573486328</ele>
        <time>2011-07-12T09:39:50Z</time>
      </trkpt>
      <trkpt lat="44.95491" lon="5.32687">
        <ele>1079</ele>
        <time>2011-07-12T09:39:52Z</time>
      </trkpt>
      <trkpt lat="44.95504" lon="5.32736">
        <ele>1078.7603759766</ele>
        <time>2011-07-12T09:39:56Z</time>
      </trkpt>
      <trkpt lat="44.95512" lon="5.3276">
        <ele>1078.8920898438</ele>
        <time>2011-07-12T09:39:58Z</time>
      </trkpt>
      <trkpt lat="44.95544" lon="5.3281">
        <ele>1079.5031738281</ele>
        <time>2011-07-12T09:40:03Z</time>
      </trkpt>
      <trkpt lat="44.95584" lon="5.32853">
        <ele>1080.0382080078</ele>
        <time>2011-07-12T09:40:08Z</time>
      </trkpt>
      <trkpt lat="44.95601" lon="5.32872">
        <ele>1079.6179199219</ele>
        <time>2011-07-12T09:40:10Z</time>
      </trkpt>
      <trkpt lat="44.95628" lon="5.32934">
        <ele>1077.3897705078</ele>
        <time>2011-07-12T09:40:15Z</time>
      </trkpt>
      <trkpt lat="44.95637" lon="5.32976">
        <ele>1075.8740234375</ele>
        <time>2011-07-12T09:40:18Z</time>
      </trkpt>
      <trkpt lat="44.95655" lon="5.33022">
        <ele>1073.4006347656</ele>
        <time>2011-07-12T09:40:22Z</time>
      </trkpt>
      <trkpt lat="44.9568" lon="5.3304">
        <ele>1072.4114990234</ele>
        <time>2011-07-12T09:40:25Z</time>
      </trkpt>
      <trkpt lat="44.95698" lon="5.33045">
        <ele>1072.1496582031</ele>
        <time>2011-07-12T09:40:27Z</time>
      </trkpt>
      <trkpt lat="44.95774" lon="5.33061">
        <ele>1070.6392822266</ele>
        <time>2011-07-12T09:40:35Z</time>
      </trkpt>
      <trkpt lat="44.95803" lon="5.33065">
        <ele>1069.4517822266</ele>
        <time>2011-07-12T09:40:38Z</time>
      </trkpt>
      <trkpt lat="44.95832" lon="5.3306">
        <ele>1069.6574707031</ele>
        <time>2011-07-12T09:40:41Z</time>
      </trkpt>
      <trkpt lat="44.95876" lon="5.33029">
        <ele>1072.2584228516</ele>
        <time>2011-07-12T09:40:46Z</time>
      </trkpt>
      <trkpt lat="44.95922" lon="5.33">
        <ele>1074.8502197266</ele>
        <time>2011-07-12T09:40:51Z</time>
      </trkpt>
      <trkpt lat="44.95987" lon="5.3297">
        <ele>1076.2926025391</ele>
        <time>2011-07-12T09:40:58Z</time>
      </trkpt>
      <trkpt lat="44.96006" lon="5.32964">
        <ele>1077.1715087891</ele>
        <time>2011-07-12T09:41:00Z</time>
      </trkpt>
      <trkpt lat="44.96039" lon="5.32963">
        <ele>1078.6845703125</ele>
        <time>2011-07-12T09:41:04Z</time>
      </trkpt>
      <trkpt lat="44.96058" lon="5.32969">
        <ele>1079.9573974609</ele>
        <time>2011-07-12T09:41:06Z</time>
      </trkpt>
      <trkpt lat="44.96101" lon="5.32993">
        <ele>1083.3531494141</ele>
        <time>2011-07-12T09:41:11Z</time>
      </trkpt>
      <trkpt lat="44.96132" lon="5.33022">
        <ele>1083.7344970703</ele>
        <time>2011-07-12T09:41:15Z</time>
      </trkpt>
      <trkpt lat="44.96152" lon="5.33064">
        <ele>1079.4873046875</ele>
        <time>2011-07-12T09:41:19Z</time>
      </trkpt>
      <trkpt lat="44.96162" lon="5.33114">
        <ele>1073.3436279297</ele>
        <time>2011-07-12T09:41:23Z</time>
      </trkpt>
      <trkpt lat="44.96183" lon="5.33171">
        <ele>1068.0155029297</ele>
        <time>2011-07-12T09:41:28Z</time>
      </trkpt>
      <trkpt lat="44.96209" lon="5.33221">
        <ele>1063.7302246094</ele>
        <time>2011-07-12T09:41:33Z</time>
      </trkpt>
      <trkpt lat="44.96245" lon="5.33293">
        <ele>1060</ele>
        <time>2011-07-12T09:41:40Z</time>
      </trkpt>
      <trkpt lat="44.96257" lon="5.33313">
        <ele>1060.5500488281</ele>
        <time>2011-07-12T09:41:42Z</time>
      </trkpt>
      <trkpt lat="44.96272" lon="5.3333">
        <ele>1060.2938232422</ele>
        <time>2011-07-12T09:41:44Z</time>
      </trkpt>
      <trkpt lat="44.96315" lon="5.33359">
        <ele>1068.1925048828</ele>
        <time>2011-07-12T09:41:49Z</time>
      </trkpt>
      <trkpt lat="44.96379" lon="5.33397">
        <ele>1072.4760742188</ele>
        <time>2011-07-12T09:41:56Z</time>
      </trkpt>
      <trkpt lat="44.96389" lon="5.334">
        <ele>1072.8365478516</ele>
        <time>2011-07-12T09:41:57Z</time>
      </trkpt>
      <trkpt lat="44.96408" lon="5.33402">
        <ele>1072.9233398438</ele>
        <time>2011-07-12T09:41:59Z</time>
      </trkpt>
      <trkpt lat="44.96445" lon="5.33393">
        <ele>1073.7421875</ele>
        <time>2011-07-12T09:42:03Z</time>
      </trkpt>
      <trkpt lat="44.96488" lon="5.33397">
        <ele>1074.8743896484</ele>
        <time>2011-07-12T09:42:08Z</time>
      </trkpt>
      <trkpt lat="44.9652" lon="5.33427">
        <ele>1073.4361572266</ele>
        <time>2011-07-12T09:42:13Z</time>
      </trkpt>
      <trkpt lat="44.96563" lon="5.33458">
        <ele>1073.4912109375</ele>
        <time>2011-07-12T09:42:19Z</time>
      </trkpt>
      <trkpt lat="44.96612" lon="5.33469">
        <ele>1076.4072265625</ele>
        <time>2011-07-12T09:42:25Z</time>
      </trkpt>
      <trkpt lat="44.96657" lon="5.33476">
        <ele>1079.3576660156</ele>
        <time>2011-07-12T09:42:31Z</time>
      </trkpt>
      <trkpt lat="44.96669" lon="5.33481">
        <ele>1079.6242675781</ele>
        <time>2011-07-12T09:42:33Z</time>
      </trkpt>
      <trkpt lat="44.96697" lon="5.33496">
        <ele>1079.576171875</ele>
        <time>2011-07-12T09:42:38Z</time>
      </trkpt>
      <trkpt lat="44.96707" lon="5.33503">
        <ele>1078.5668945312</ele>
        <time>2011-07-12T09:42:40Z</time>
      </trkpt>
      <trkpt lat="44.96728" lon="5.33529">
        <ele>1074.8890380859</ele>
        <time>2011-07-12T09:42:45Z</time>
      </trkpt>
      <trkpt lat="44.96738" lon="5.33547">
        <ele>1072.9681396484</ele>
        <time>2011-07-12T09:42:48Z</time>
      </trkpt>
      <trkpt lat="44.96761" lon="5.33562">
        <ele>1070.787109375</ele>
        <time>2011-07-12T09:42:53Z</time>
      </trkpt>
      <trkpt lat="44.96791" lon="5.33564">
        <ele>1070.0942382812</ele>
        <time>2011-07-12T09:42:59Z</time>
      </trkpt>
      <trkpt lat="44.96814" lon="5.33553">
        <ele>1071.80078125</ele>
        <time>2011-07-12T09:43:04Z</time>
      </trkpt>
      <trkpt lat="44.96819" lon="5.33549">
        <ele>1071.9139404297</ele>
        <time>2011-07-12T09:43:05Z</time>
      </trkpt>
      <trkpt lat="44.96827" lon="5.33542">
        <ele>1071.9912109375</ele>
        <time>2011-07-12T09:43:07Z</time>
      </trkpt>
      <trkpt lat="44.96854" lon="5.33517">
        <ele>1073.6704101562</ele>
        <time>2011-07-12T09:43:14Z</time>
      </trkpt>
      <trkpt lat="44.96862" lon="5.33509">
        <ele>1073.9273681641</ele>
        <time>2011-07-12T09:43:16Z</time>
      </trkpt>
      <trkpt lat="44.96884" lon="5.33492">
        <ele>1071.4425048828</ele>
        <time>2011-07-12T09:43:21Z</time>
      </trkpt>
      <trkpt lat="44.96909" lon="5.3347">
        <ele>1066.9731445312</ele>
        <time>2011-07-12T09:43:27Z</time>
      </trkpt>
      <trkpt lat="44.96929" lon="5.33449">
        <ele>1063.7340087891</ele>
        <time>2011-07-12T09:43:32Z</time>
      </trkpt>
      <trkpt lat="44.96943" lon="5.33431">
        <ele>1061.6717529297</ele>
        <time>2011-07-12T09:43:37Z</time>
      </trkpt>
      <trkpt lat="44.96952" lon="5.33413">
        <ele>1062.7867431641</ele>
        <time>2011-07-12T09:43:41Z</time>
      </trkpt>
      <trkpt lat="44.96948" lon="5.33393">
        <ele>1061.8386230469</ele>
        <time>2011-07-12T09:43:45Z</time>
      </trkpt>
      <trkpt lat="44.96922" lon="5.33371">
        <ele>1062.7583007812</ele>
        <time>2011-07-12T09:43:51Z</time>
      </trkpt>
      <trkpt lat="44.96901" lon="5.33356">
        <ele>1065.2097167969</ele>
        <time>2011-07-12T09:43:56Z</time>
      </trkpt>
      <trkpt lat="44.96881" lon="5.33334">
        <ele>1068.7603759766</ele>
        <time>2011-07-12T09:44:01Z</time>
      </trkpt>
      <trkpt lat="44.96875" lon="5.33322">
        <ele>1070.1176757812</ele>
        <time>2011-07-12T09:44:03Z</time>
      </trkpt>
      <trkpt lat="44.96872" lon="5.33285">
        <ele>1072.8728027344</ele>
        <time>2011-07-12T09:44:08Z</time>
      </trkpt>
      <trkpt lat="44.96873" lon="5.3326">
        <ele>1074.4938964844</ele>
        <time>2011-07-12T09:44:11Z</time>
      </trkpt>
      <trkpt lat="44.96876" lon="5.33244">
        <ele>1075.8397216797</ele>
        <time>2011-07-12T09:44:13Z</time>
      </trkpt>
      <trkpt lat="44.96884" lon="5.33224">
        <ele>1077.8172607422</ele>
        <time>2011-07-12T09:44:16Z</time>
      </trkpt>
      <trkpt lat="44.96896" lon="5.33206">
        <ele>1077.9061279297</ele>
        <time>2011-07-12T09:44:19Z</time>
      </trkpt>
      <trkpt lat="44.9691" lon="5.33193">
        <ele>1078.083984375</ele>
        <time>2011-07-12T09:44:22Z</time>
      </trkpt>
      <trkpt lat="44.9693" lon="5.33178">
        <ele>1076.5302734375</ele>
        <time>2011-07-12T09:44:26Z</time>
      </trkpt>
      <trkpt lat="44.9697" lon="5.33155">
        <ele>1074.7952880859</ele>
        <time>2011-07-12T09:44:33Z</time>
      </trkpt>
      <trkpt lat="44.96986" lon="5.33142">
        <ele>1074.9410400391</ele>
        <time>2011-07-12T09:44:36Z</time>
      </trkpt>
      <trkpt lat="44.9702" lon="5.3312">
        <ele>1071.5194091797</ele>
        <time>2011-07-12T09:44:42Z</time>
      </trkpt>
      <trkpt lat="44.97037" lon="5.33112">
        <ele>1069.8916015625</ele>
        <time>2011-07-12T09:44:45Z</time>
      </trkpt>
      <trkpt lat="44.9705" lon="5.33107">
        <ele>1069.0344238281</ele>
        <time>2011-07-12T09:44:47Z</time>
      </trkpt>
      <trkpt lat="44.9707" lon="5.33079">
        <ele>1069.4317626953</ele>
        <time>2011-07-12T09:44:52Z</time>
      </trkpt>
      <trkpt lat="44.97062" lon="5.3306">
        <ele>1072.6264648438</ele>
        <time>2011-07-12T09:44:54Z</time>
      </trkpt>
      <trkpt lat="44.97044" lon="5.33049">
        <ele>1075.5858154297</ele>
        <time>2011-07-12T09:44:57Z</time>
      </trkpt>
      <trkpt lat="44.97025" lon="5.33047">
        <ele>1077.1502685547</ele>
        <time>2011-07-12T09:45:00Z</time>
      </trkpt>
      <trkpt lat="44.96981" lon="5.3304">
        <ele>1079.7225341797</ele>
        <time>2011-07-12T09:45:07Z</time>
      </trkpt>
      <trkpt lat="44.96964" lon="5.33035">
        <ele>1080</ele>
        <time>2011-07-12T09:45:10Z</time>
      </trkpt>
      <trkpt lat="44.96934" lon="5.33012">
        <ele>1080</ele>
        <time>2011-07-12T09:45:16Z</time>
      </trkpt>
      <trkpt lat="44.96925" lon="5.33006">
        <ele>1080</ele>
        <time>2011-07-12T09:45:18Z</time>
      </trkpt>
      <trkpt lat="44.96909" lon="5.32999">
        <ele>1080</ele>
        <time>2011-07-12T09:45:21Z</time>
      </trkpt>
      <trkpt lat="44.9688" lon="5.32988">
        <ele>1080.7108154297</ele>
        <time>2011-07-12T09:45:26Z</time>
      </trkpt>
      <trkpt lat="44.96821" lon="5.32973">
        <ele>1089.9494628906</ele>
        <time>2011-07-12T09:45:36Z</time>
      </trkpt>
      <trkpt lat="44.96811" lon="5.32969">
        <ele>1090.3220214844</ele>
        <time>2011-07-12T09:45:38Z</time>
      </trkpt>
      <trkpt lat="44.96793" lon="5.32945">
        <ele>1091.3681640625</ele>
        <time>2011-07-12T09:45:42Z</time>
      </trkpt>
      <trkpt lat="44.96791" lon="5.32919">
        <ele>1090.3216552734</ele>
        <time>2011-07-12T09:45:45Z</time>
      </trkpt>
      <trkpt lat="44.96792" lon="5.3291">
        <ele>1089.4865722656</ele>
        <time>2011-07-12T09:45:46Z</time>
      </trkpt>
      <trkpt lat="44.96798" lon="5.32886">
        <ele>1086.82421875</ele>
        <time>2011-07-12T09:45:49Z</time>
      </trkpt>
      <trkpt lat="44.96815" lon="5.3285">
        <ele>1084.0596923828</ele>
        <time>2011-07-12T09:45:54Z</time>
      </trkpt>
      <trkpt lat="44.96831" lon="5.32816">
        <ele>1083.0349121094</ele>
        <time>2011-07-12T09:45:59Z</time>
      </trkpt>
      <trkpt lat="44.96841" lon="5.32782">
        <ele>1083</ele>
        <time>2011-07-12T09:46:04Z</time>
      </trkpt>
      <trkpt lat="44.96852" lon="5.32756">
        <ele>1084.0205078125</ele>
        <time>2011-07-12T09:46:08Z</time>
      </trkpt>
      <trkpt lat="44.96872" lon="5.32735">
        <ele>1086.2979736328</ele>
        <time>2011-07-12T09:46:13Z</time>
      </trkpt>
      <trkpt lat="44.96877" lon="5.32732">
        <ele>1086.9213867188</ele>
        <time>2011-07-12T09:46:14Z</time>
      </trkpt>
      <trkpt lat="44.96895" lon="5.32717">
        <ele>1089.6735839844</ele>
        <time>2011-07-12T09:46:18Z</time>
      </trkpt>
      <trkpt lat="44.96919" lon="5.32689">
        <ele>1094.0180664062</ele>
        <time>2011-07-12T09:46:24Z</time>
      </trkpt>
      <trkpt lat="44.96934" lon="5.32678">
        <ele>1096.8098144531</ele>
        <time>2011-07-12T09:46:27Z</time>
      </trkpt>
      <trkpt lat="44.96955" lon="5.32674">
        <ele>1099.2847900391</ele>
        <time>2011-07-12T09:46:31Z</time>
      </trkpt>
      <trkpt lat="44.96969" lon="5.32676">
        <ele>1100.6031494141</ele>
        <time>2011-07-12T09:46:34Z</time>
      </trkpt>
      <trkpt lat="44.96977" lon="5.3268">
        <ele>1101.6995849609</ele>
        <time>2011-07-12T09:46:36Z</time>
      </trkpt>
      <trkpt lat="44.96992" lon="5.32687">
        <ele>1104.3912353516</ele>
        <time>2011-07-12T09:46:40Z</time>
      </trkpt>
      <trkpt lat="44.97016" lon="5.32694">
        <ele>1107.8913574219</ele>
        <time>2011-07-12T09:46:45Z</time>
      </trkpt>
      <trkpt lat="44.97025" lon="5.32695">
        <ele>1109.4136962891</ele>
        <time>2011-07-12T09:46:47Z</time>
      </trkpt>
      <trkpt lat="44.97055" lon="5.3269">
        <ele>1112.6442871094</ele>
        <time>2011-07-12T09:46:54Z</time>
      </trkpt>
      <trkpt lat="44.97074" lon="5.32688">
        <ele>1114.2242431641</ele>
        <time>2011-07-12T09:46:58Z</time>
      </trkpt>
      <trkpt lat="44.97091" lon="5.32696">
        <ele>1114.4600830078</ele>
        <time>2011-07-12T09:47:02Z</time>
      </trkpt>
      <trkpt lat="44.97104" lon="5.32722">
        <ele>1112.7172851562</ele>
        <time>2011-07-12T09:47:07Z</time>
      </trkpt>
      <trkpt lat="44.97102" lon="5.32735">
        <ele>1110.8016357422</ele>
        <time>2011-07-12T09:47:09Z</time>
      </trkpt>
      <trkpt lat="44.971" lon="5.32748">
        <ele>1108.9339599609</ele>
        <time>2011-07-12T09:47:11Z</time>
      </trkpt>
      <trkpt lat="44.97105" lon="5.32779">
        <ele>1104.6402587891</ele>
        <time>2011-07-12T09:47:16Z</time>
      </trkpt>
      <trkpt lat="44.97121" lon="5.32794">
        <ele>1102.6828613281</ele>
        <time>2011-07-12T09:47:20Z</time>
      </trkpt>
      <trkpt lat="44.97131" lon="5.32795">
        <ele>1102.0678710938</ele>
        <time>2011-07-12T09:47:22Z</time>
      </trkpt>
      <trkpt lat="44.97141" lon="5.32791">
        <ele>1101.8784179688</ele>
        <time>2011-07-12T09:47:24Z</time>
      </trkpt>
      <trkpt lat="44.97167" lon="5.32787">
        <ele>1098.9301757812</ele>
        <time>2011-07-12T09:47:29Z</time>
      </trkpt>
      <trkpt lat="44.97192" lon="5.32768">
        <ele>1099.1776123047</ele>
        <time>2011-07-12T09:47:34Z</time>
      </trkpt>
      <trkpt lat="44.97201" lon="5.32748">
        <ele>1101.79296875</ele>
        <time>2011-07-12T09:47:37Z</time>
      </trkpt>
      <trkpt lat="44.97206" lon="5.32725">
        <ele>1106.0570068359</ele>
        <time>2011-07-12T09:47:40Z</time>
      </trkpt>
      <trkpt lat="44.97215" lon="5.32706">
        <ele>1108.1865234375</ele>
        <time>2011-07-12T09:47:43Z</time>
      </trkpt>
      <trkpt lat="44.97231" lon="5.32687">
        <ele>1110.3199462891</ele>
        <time>2011-07-12T09:47:47Z</time>
      </trkpt>
      <trkpt lat="44.97257" lon="5.32671">
        <ele>1112.3850097656</ele>
        <time>2011-07-12T09:47:52Z</time>
      </trkpt>
      <trkpt lat="44.97269" lon="5.32658">
        <ele>1113.7790527344</ele>
        <time>2011-07-12T09:47:55Z</time>
      </trkpt>
      <trkpt lat="44.97303" lon="5.32629">
        <ele>1118.3685302734</ele>
        <time>2011-07-12T09:48:02Z</time>
      </trkpt>
      <trkpt lat="44.97333" lon="5.32614">
        <ele>1124.2122802734</ele>
        <time>2011-07-12T09:48:08Z</time>
      </trkpt>
      <trkpt lat="44.97357" lon="5.32605">
        <ele>1125.4821777344</ele>
        <time>2011-07-12T09:48:13Z</time>
      </trkpt>
      <trkpt lat="44.9739" lon="5.32594">
        <ele>1126.203125</ele>
        <time>2011-07-12T09:48:20Z</time>
      </trkpt>
      <trkpt lat="44.97401" lon="5.32594">
        <ele>1124.4930419922</ele>
        <time>2011-07-12T09:48:22Z</time>
      </trkpt>
      <trkpt lat="44.97426" lon="5.32602">
        <ele>1119.5178222656</ele>
        <time>2011-07-12T09:48:27Z</time>
      </trkpt>
      <trkpt lat="44.97445" lon="5.32609">
        <ele>1115.244140625</ele>
        <time>2011-07-12T09:48:31Z</time>
      </trkpt>
      <trkpt lat="44.97477" lon="5.32615">
        <ele>1106.3082275391</ele>
        <time>2011-07-12T09:48:38Z</time>
      </trkpt>
      <trkpt lat="44.97499" lon="5.32613">
        <ele>1104.9417724609</ele>
        <time>2011-07-12T09:48:43Z</time>
      </trkpt>
      <trkpt lat="44.97513" lon="5.32597">
        <ele>1106.2795410156</ele>
        <time>2011-07-12T09:48:47Z</time>
      </trkpt>
      <trkpt lat="44.97512" lon="5.32572">
        <ele>1109.3901367188</ele>
        <time>2011-07-12T09:48:51Z</time>
      </trkpt>
      <trkpt lat="44.97509" lon="5.32559">
        <ele>1110.4270019531</ele>
        <time>2011-07-12T09:48:53Z</time>
      </trkpt>
      <trkpt lat="44.97503" lon="5.32541">
        <ele>1113.0338134766</ele>
        <time>2011-07-12T09:48:56Z</time>
      </trkpt>
      <trkpt lat="44.97496" lon="5.32524">
        <ele>1115.2641601562</ele>
        <time>2011-07-12T09:48:59Z</time>
      </trkpt>
      <trkpt lat="44.97488" lon="5.32503">
        <ele>1116.8125</ele>
        <time>2011-07-12T09:49:03Z</time>
      </trkpt>
      <trkpt lat="44.97477" lon="5.32478">
        <ele>1119.3760986328</ele>
        <time>2011-07-12T09:49:08Z</time>
      </trkpt>
      <trkpt lat="44.97461" lon="5.32445">
        <ele>1128.6584472656</ele>
        <time>2011-07-12T09:49:14Z</time>
      </trkpt>
      <trkpt lat="44.97457" lon="5.32416">
        <ele>1133.6021728516</ele>
        <time>2011-07-12T09:49:18Z</time>
      </trkpt>
      <trkpt lat="44.97465" lon="5.32399">
        <ele>1137.3043212891</ele>
        <time>2011-07-12T09:49:21Z</time>
      </trkpt>
      <trkpt lat="44.97479" lon="5.32394">
        <ele>1138.7410888672</ele>
        <time>2011-07-12T09:49:24Z</time>
      </trkpt>
      <trkpt lat="44.97484" lon="5.32395">
        <ele>1138.5367431641</ele>
        <time>2011-07-12T09:49:25Z</time>
      </trkpt>
      <trkpt lat="44.97493" lon="5.32398">
        <ele>1137.8278808594</ele>
        <time>2011-07-12T09:49:27Z</time>
      </trkpt>
      <trkpt lat="44.97513" lon="5.324">
        <ele>1137.3873291016</ele>
        <time>2011-07-12T09:49:31Z</time>
      </trkpt>
      <trkpt lat="44.97535" lon="5.32394">
        <ele>1138.8282470703</ele>
        <time>2011-07-12T09:49:36Z</time>
      </trkpt>
      <trkpt lat="44.97552" lon="5.32391">
        <ele>1139.6315917969</ele>
        <time>2011-07-12T09:49:40Z</time>
      </trkpt>
      <trkpt lat="44.97564" lon="5.32402">
        <ele>1138.3010253906</ele>
        <time>2011-07-12T09:49:43Z</time>
      </trkpt>
      <trkpt lat="44.97573" lon="5.32418">
        <ele>1136.2761230469</ele>
        <time>2011-07-12T09:49:46Z</time>
      </trkpt>
      <trkpt lat="44.97586" lon="5.32438">
        <ele>1135.4697265625</ele>
        <time>2011-07-12T09:49:50Z</time>
      </trkpt>
      <trkpt lat="44.97613" lon="5.32465">
        <ele>1135.9323730469</ele>
        <time>2011-07-12T09:49:57Z</time>
      </trkpt>
      <trkpt lat="44.97616" lon="5.32469">
        <ele>1136.1219482422</ele>
        <time>2011-07-12T09:49:58Z</time>
      </trkpt>
      <trkpt lat="44.97632" lon="5.3249">
        <ele>1136.5258789062</ele>
        <time>2011-07-12T09:50:03Z</time>
      </trkpt>
      <trkpt lat="44.97643" lon="5.32502">
        <ele>1137.9880371094</ele>
        <time>2011-07-12T09:50:06Z</time>
      </trkpt>
      <trkpt lat="44.97664" lon="5.32545">
        <ele>1136.9194335938</ele>
        <time>2011-07-12T09:50:14Z</time>
      </trkpt>
      <trkpt lat="44.9767" lon="5.32561">
        <ele>1136.3876953125</ele>
        <time>2011-07-12T09:50:17Z</time>
      </trkpt>
      <trkpt lat="44.97688" lon="5.32595">
        <ele>1137.3553466797</ele>
        <time>2011-07-12T09:50:24Z</time>
      </trkpt>
      <trkpt lat="44.97709" lon="5.32624">
        <ele>1138.9283447266</ele>
        <time>2011-07-12T09:50:31Z</time>
      </trkpt>
      <trkpt lat="44.97714" lon="5.32633">
        <ele>1139.0393066406</ele>
        <time>2011-07-12T09:50:33Z</time>
      </trkpt>
      <trkpt lat="44.9772" lon="5.32642">
        <ele>1139.2010498047</ele>
        <time>2011-07-12T09:50:35Z</time>
      </trkpt>
      <trkpt lat="44.97741" lon="5.32679">
        <ele>1138.142578125</ele>
        <time>2011-07-12T09:50:43Z</time>
      </trkpt>
      <trkpt lat="44.97754" lon="5.32691">
        <ele>1137.9010009766</ele>
        <time>2011-07-12T09:50:47Z</time>
      </trkpt>
      <trkpt lat="44.9777" lon="5.32699">
        <ele>1138.6176757812</ele>
        <time>2011-07-12T09:50:51Z</time>
      </trkpt>
      <trkpt lat="44.97795" lon="5.32693">
        <ele>1141.4031982422</ele>
        <time>2011-07-12T09:50:57Z</time>
      </trkpt>
      <trkpt lat="44.97809" lon="5.32676">
        <ele>1143.8929443359</ele>
        <time>2011-07-12T09:51:01Z</time>
      </trkpt>
      <trkpt lat="44.97815" lon="5.32666">
        <ele>1144.6608886719</ele>
        <time>2011-07-12T09:51:03Z</time>
      </trkpt>
      <trkpt lat="44.97823" lon="5.32658">
        <ele>1144.9699707031</ele>
        <time>2011-07-12T09:51:05Z</time>
      </trkpt>
      <trkpt lat="44.97847" lon="5.32631">
        <ele>1146.2404785156</ele>
        <time>2011-07-12T09:51:12Z</time>
      </trkpt>
      <trkpt lat="44.97863" lon="5.32619">
        <ele>1146.140625</ele>
        <time>2011-07-12T09:51:16Z</time>
      </trkpt>
      <trkpt lat="44.9789" lon="5.32605">
        <ele>1142.9567871094</ele>
        <time>2011-07-12T09:51:22Z</time>
      </trkpt>
      <trkpt lat="44.97895" lon="5.32603">
        <ele>1142.7781982422</ele>
        <time>2011-07-12T09:51:23Z</time>
      </trkpt>
      <trkpt lat="44.97909" lon="5.32599">
        <ele>1142.2838134766</ele>
        <time>2011-07-12T09:51:26Z</time>
      </trkpt>
      <trkpt lat="44.97921" lon="5.32593">
        <ele>1142</ele>
        <time>2011-07-12T09:51:29Z</time>
      </trkpt>
      <trkpt lat="44.97936" lon="5.3258">
        <ele>1142</ele>
        <time>2011-07-12T09:51:33Z</time>
      </trkpt>
      <trkpt lat="44.97949" lon="5.32564">
        <ele>1142</ele>
        <time>2011-07-12T09:51:37Z</time>
      </trkpt>
      <trkpt lat="44.97959" lon="5.32535">
        <ele>1141.6146240234</ele>
        <time>2011-07-12T09:51:42Z</time>
      </trkpt>
      <trkpt lat="44.97966" lon="5.32466">
        <ele>1140.2102050781</ele>
        <time>2011-07-12T09:51:49Z</time>
      </trkpt>
      <trkpt lat="44.97968" lon="5.32441">
        <ele>1140.2896728516</ele>
        <time>2011-07-12T09:51:51Z</time>
      </trkpt>
      <trkpt lat="44.97982" lon="5.32389">
        <ele>1139.6608886719</ele>
        <time>2011-07-12T09:51:55Z</time>
      </trkpt>
      <trkpt lat="44.9799" lon="5.32376">
        <ele>1139.3724365234</ele>
        <time>2011-07-12T09:51:56Z</time>
      </trkpt>
      <trkpt lat="44.98004" lon="5.32358">
        <ele>1138.8355712891</ele>
        <time>2011-07-12T09:51:58Z</time>
      </trkpt>
      <trkpt lat="44.98011" lon="5.32324">
        <ele>1138.0158691406</ele>
        <time>2011-07-12T09:52:01Z</time>
      </trkpt>
      <trkpt lat="44.98009" lon="5.323">
        <ele>1137.6207275391</ele>
        <time>2011-07-12T09:52:03Z</time>
      </trkpt>
      <trkpt lat="44.98019" lon="5.32268">
        <ele>1136.5169677734</ele>
        <time>2011-07-12T09:52:06Z</time>
      </trkpt>
      <trkpt lat="44.98029" lon="5.32263">
        <ele>1135.9141845703</ele>
        <time>2011-07-12T09:52:07Z</time>
      </trkpt>
      <trkpt lat="44.98055" lon="5.32206">
        <ele>1133.4545898438</ele>
        <time>2011-07-12T09:52:12Z</time>
      </trkpt>
      <trkpt lat="44.98074" lon="5.32149">
        <ele>1131.5578613281</ele>
        <time>2011-07-12T09:52:16Z</time>
      </trkpt>
      <trkpt lat="44.98081" lon="5.32135">
        <ele>1130.9508056641</ele>
        <time>2011-07-12T09:52:17Z</time>
      </trkpt>
      <trkpt lat="44.98097" lon="5.32109">
        <ele>1128.9953613281</ele>
        <time>2011-07-12T09:52:19Z</time>
      </trkpt>
      <trkpt lat="44.98124" lon="5.32058">
        <ele>1125.2061767578</ele>
        <time>2011-07-12T09:52:23Z</time>
      </trkpt>
      <trkpt lat="44.98123" lon="5.31997">
        <ele>1122.4219970703</ele>
        <time>2011-07-12T09:52:27Z</time>
      </trkpt>
      <trkpt lat="44.98127" lon="5.31986">
        <ele>1121.6364746094</ele>
        <time>2011-07-12T09:52:28Z</time>
      </trkpt>
      <trkpt lat="44.98143" lon="5.31935">
        <ele>1119.8187255859</ele>
        <time>2011-07-12T09:52:32Z</time>
      </trkpt>
      <trkpt lat="44.98137" lon="5.31898">
        <ele>1118.7055664062</ele>
        <time>2011-07-12T09:52:35Z</time>
      </trkpt>
      <trkpt lat="44.98143" lon="5.31885">
        <ele>1118.1398925781</ele>
        <time>2011-07-12T09:52:37Z</time>
      </trkpt>
      <trkpt lat="44.98158" lon="5.31885">
        <ele>1118.1535644531</ele>
        <time>2011-07-12T09:52:39Z</time>
      </trkpt>
      <trkpt lat="44.98208" lon="5.31885">
        <ele>1117.1434326172</ele>
        <time>2011-07-12T09:52:44Z</time>
      </trkpt>
      <trkpt lat="44.98228" lon="5.31882">
        <ele>1116.0202636719</ele>
        <time>2011-07-12T09:52:46Z</time>
      </trkpt>
      <trkpt lat="44.98249" lon="5.3188">
        <ele>1115.3713378906</ele>
        <time>2011-07-12T09:52:48Z</time>
      </trkpt>
      <trkpt lat="44.98307" lon="5.31888">
        <ele>1111.0151367188</ele>
        <time>2011-07-12T09:52:53Z</time>
      </trkpt>
      <trkpt lat="44.98344" lon="5.31888">
        <ele>1108.3129882812</ele>
        <time>2011-07-12T09:52:56Z</time>
      </trkpt>
      <trkpt lat="44.98379" lon="5.31903">
        <ele>1102.9760742188</ele>
        <time>2011-07-12T09:52:59Z</time>
      </trkpt>
      <trkpt lat="44.98389" lon="5.31914">
        <ele>1100.4309082031</ele>
        <time>2011-07-12T09:53:00Z</time>
      </trkpt>
      <trkpt lat="44.98413" lon="5.3193">
        <ele>1099.5124511719</ele>
        <time>2011-07-12T09:53:02Z</time>
      </trkpt>
      <trkpt lat="44.9847" lon="5.31983">
        <ele>1095.4858398438</ele>
        <time>2011-07-12T09:53:07Z</time>
      </trkpt>
      <trkpt lat="44.98502" lon="5.32021">
        <ele>1085.4017333984</ele>
        <time>2011-07-12T09:53:10Z</time>
      </trkpt>
      <trkpt lat="44.98528" lon="5.32069">
        <ele>1080</ele>
        <time>2011-07-12T09:53:13Z</time>
      </trkpt>
      <trkpt lat="44.98566" lon="5.3213">
        <ele>1076.9895019531</ele>
        <time>2011-07-12T09:53:17Z</time>
      </trkpt>
      <trkpt lat="44.98574" lon="5.32146">
        <ele>1075.7902832031</ele>
        <time>2011-07-12T09:53:18Z</time>
      </trkpt>
      <trkpt lat="44.98603" lon="5.32193">
        <ele>1069.9171142578</ele>
        <time>2011-07-12T09:53:22Z</time>
      </trkpt>
      <trkpt lat="44.9864" lon="5.32199">
        <ele>1066.3646240234</ele>
        <time>2011-07-12T09:53:25Z</time>
      </trkpt>
      <trkpt lat="44.98653" lon="5.32198">
        <ele>1064.3063964844</ele>
        <time>2011-07-12T09:53:26Z</time>
      </trkpt>
      <trkpt lat="44.98714" lon="5.32215">
        <ele>1060.3258056641</ele>
        <time>2011-07-12T09:53:31Z</time>
      </trkpt>
      <trkpt lat="44.98725" lon="5.32225">
        <ele>1060.1925048828</ele>
        <time>2011-07-12T09:53:32Z</time>
      </trkpt>
      <trkpt lat="44.98785" lon="5.3226">
        <ele>1059.8681640625</ele>
        <time>2011-07-12T09:53:37Z</time>
      </trkpt>
      <trkpt lat="44.98798" lon="5.32266">
        <ele>1059.4630126953</ele>
        <time>2011-07-12T09:53:38Z</time>
      </trkpt>
      <trkpt lat="44.9884" lon="5.3227">
        <ele>1056.5101318359</ele>
        <time>2011-07-12T09:53:42Z</time>
      </trkpt>
      <trkpt lat="44.98872" lon="5.32226">
        <ele>1047.1911621094</ele>
        <time>2011-07-12T09:53:46Z</time>
      </trkpt>
      <trkpt lat="44.98891" lon="5.32214">
        <ele>1042.4901123047</ele>
        <time>2011-07-12T09:53:48Z</time>
      </trkpt>
      <trkpt lat="44.98903" lon="5.32213">
        <ele>1040.9378662109</ele>
        <time>2011-07-12T09:53:49Z</time>
      </trkpt>
      <trkpt lat="44.9898" lon="5.32217">
        <ele>1036.9851074219</ele>
        <time>2011-07-12T09:53:55Z</time>
      </trkpt>
      <trkpt lat="44.99021" lon="5.32218">
        <ele>1032.7657470703</ele>
        <time>2011-07-12T09:53:58Z</time>
      </trkpt>
      <trkpt lat="44.99076" lon="5.32234">
        <ele>1020.2807006836</ele>
        <time>2011-07-12T09:54:02Z</time>
      </trkpt>
      <trkpt lat="44.99131" lon="5.3225">
        <ele>1008.9905395508</ele>
        <time>2011-07-12T09:54:06Z</time>
      </trkpt>
      <trkpt lat="44.99173" lon="5.32285">
        <ele>1008.0114135742</ele>
        <time>2011-07-12T09:54:10Z</time>
      </trkpt>
      <trkpt lat="44.99222" lon="5.3234">
        <ele>1002.2528076172</ele>
        <time>2011-07-12T09:54:15Z</time>
      </trkpt>
      <trkpt lat="44.99239" lon="5.32369">
        <ele>1003.8745727539</ele>
        <time>2011-07-12T09:54:17Z</time>
      </trkpt>
      <trkpt lat="44.99252" lon="5.32433">
        <ele>1003.8814086914</ele>
        <time>2011-07-12T09:54:21Z</time>
      </trkpt>
      <trkpt lat="44.9924" lon="5.32478">
        <ele>1002.7344970703</ele>
        <time>2011-07-12T09:54:24Z</time>
      </trkpt>
      <trkpt lat="44.99232" lon="5.3249">
        <ele>1003.946472168</ele>
        <time>2011-07-12T09:54:25Z</time>
      </trkpt>
      <trkpt lat="44.99212" lon="5.32534">
        <ele>1007.2013549805</ele>
        <time>2011-07-12T09:54:29Z</time>
      </trkpt>
      <trkpt lat="44.99224" lon="5.32545">
        <ele>1000.9170532227</ele>
        <time>2011-07-12T09:54:31Z</time>
      </trkpt>
      <trkpt lat="44.99232" lon="5.32552">
        <ele>999.56585693359</ele>
        <time>2011-07-12T09:54:32Z</time>
      </trkpt>
      <trkpt lat="44.99246" lon="5.32564">
        <ele>998.22906494141</ele>
        <time>2011-07-12T09:54:34Z</time>
      </trkpt>
      <trkpt lat="44.99281" lon="5.32591">
        <ele>993.45520019531</ele>
        <time>2011-07-12T09:54:38Z</time>
      </trkpt>
      <trkpt lat="44.993" lon="5.3261">
        <ele>990.09991455078</ele>
        <time>2011-07-12T09:54:40Z</time>
      </trkpt>
      <trkpt lat="44.99344" lon="5.32631">
        <ele>985.95275878906</ele>
        <time>2011-07-12T09:54:44Z</time>
      </trkpt>
      <trkpt lat="44.99394" lon="5.32647">
        <ele>979.78723144531</ele>
        <time>2011-07-12T09:54:48Z</time>
      </trkpt>
      <trkpt lat="44.99405" lon="5.32657">
        <ele>979.02508544922</ele>
        <time>2011-07-12T09:54:49Z</time>
      </trkpt>
      <trkpt lat="44.99426" lon="5.32678">
        <ele>976.92260742188</ele>
        <time>2011-07-12T09:54:51Z</time>
      </trkpt>
      <trkpt lat="44.99474" lon="5.32706">
        <ele>973.52319335938</ele>
        <time>2011-07-12T09:54:55Z</time>
      </trkpt>
      <trkpt lat="44.99494" lon="5.32726">
        <ele>972.38110351562</ele>
        <time>2011-07-12T09:54:57Z</time>
      </trkpt>
      <trkpt lat="44.99507" lon="5.32754">
        <ele>975.25592041016</ele>
        <time>2011-07-12T09:54:59Z</time>
      </trkpt>
      <trkpt lat="44.99534" lon="5.32802">
        <ele>980.61706542969</ele>
        <time>2011-07-12T09:55:03Z</time>
      </trkpt>
      <trkpt lat="44.99556" lon="5.32805">
        <ele>980.97119140625</ele>
        <time>2011-07-12T09:55:05Z</time>
      </trkpt>
      <trkpt lat="44.99577" lon="5.32795">
        <ele>978.8359375</ele>
        <time>2011-07-12T09:55:07Z</time>
      </trkpt>
      <trkpt lat="44.99606" lon="5.32771">
        <ele>972.52478027344</ele>
        <time>2011-07-12T09:55:10Z</time>
      </trkpt>
      <trkpt lat="44.99626" lon="5.32758">
        <ele>969.56872558594</ele>
        <time>2011-07-12T09:55:12Z</time>
      </trkpt>
      <trkpt lat="44.99649" lon="5.32748">
        <ele>966.96447753906</ele>
        <time>2011-07-12T09:55:14Z</time>
      </trkpt>
      <trkpt lat="44.99699" lon="5.32722">
        <ele>960.83148193359</ele>
        <time>2011-07-12T09:55:18Z</time>
      </trkpt>
      <trkpt lat="44.99738" lon="5.32714">
        <ele>958.13043212891</ele>
        <time>2011-07-12T09:55:21Z</time>
      </trkpt>
      <trkpt lat="44.99764" lon="5.32716">
        <ele>956.03601074219</ele>
        <time>2011-07-12T09:55:23Z</time>
      </trkpt>
      <trkpt lat="44.99818" lon="5.32719">
        <ele>953.80682373047</ele>
        <time>2011-07-12T09:55:27Z</time>
      </trkpt>
      <trkpt lat="44.99856" lon="5.32725">
        <ele>947.67901611328</ele>
        <time>2011-07-12T09:55:30Z</time>
      </trkpt>
      <trkpt lat="44.99877" lon="5.32736">
        <ele>945.75659179688</ele>
        <time>2011-07-12T09:55:33Z</time>
      </trkpt>
      <trkpt lat="44.99878" lon="5.32723">
        <ele>943.71728515625</ele>
        <time>2011-07-12T09:55:35Z</time>
      </trkpt>
      <trkpt lat="44.99871" lon="5.32709">
        <ele>943.61334228516</ele>
        <time>2011-07-12T09:55:37Z</time>
      </trkpt>
      <trkpt lat="44.99854" lon="5.3269">
        <ele>945.21362304688</ele>
        <time>2011-07-12T09:55:40Z</time>
      </trkpt>
      <trkpt lat="44.99822" lon="5.32652">
        <ele>946.98187255859</ele>
        <time>2011-07-12T09:55:45Z</time>
      </trkpt>
      <trkpt lat="44.99807" lon="5.32634">
        <ele>946.41302490234</ele>
        <time>2011-07-12T09:55:47Z</time>
      </trkpt>
      <trkpt lat="44.99786" lon="5.32601">
        <ele>942.89501953125</ele>
        <time>2011-07-12T09:55:50Z</time>
      </trkpt>
      <trkpt lat="44.99779" lon="5.32588">
        <ele>941.54577636719</ele>
        <time>2011-07-12T09:55:51Z</time>
      </trkpt>
      <trkpt lat="44.99762" lon="5.32566">
        <ele>940.63922119141</ele>
        <time>2011-07-12T09:55:53Z</time>
      </trkpt>
      <trkpt lat="44.99746" lon="5.3254">
        <ele>939.09716796875</ele>
        <time>2011-07-12T09:55:55Z</time>
      </trkpt>
      <trkpt lat="44.99723" lon="5.32479">
        <ele>932.90246582031</ele>
        <time>2011-07-12T09:55:59Z</time>
      </trkpt>
      <trkpt lat="44.99709" lon="5.3245">
        <ele>929.78753662109</ele>
        <time>2011-07-12T09:56:01Z</time>
      </trkpt>
      <trkpt lat="44.99672" lon="5.32398">
        <ele>927.64202880859</ele>
        <time>2011-07-12T09:56:05Z</time>
      </trkpt>
      <trkpt lat="44.99657" lon="5.32372">
        <ele>929.05688476562</ele>
        <time>2011-07-12T09:56:07Z</time>
      </trkpt>
      <trkpt lat="44.99646" lon="5.32311">
        <ele>936.53717041016</ele>
        <time>2011-07-12T09:56:11Z</time>
      </trkpt>
      <trkpt lat="44.99659" lon="5.32284">
        <ele>937.37182617188</ele>
        <time>2011-07-12T09:56:13Z</time>
      </trkpt>
      <trkpt lat="44.99682" lon="5.32269">
        <ele>935.72998046875</ele>
        <time>2011-07-12T09:56:15Z</time>
      </trkpt>
      <trkpt lat="44.99694" lon="5.32266">
        <ele>934.39276123047</ele>
        <time>2011-07-12T09:56:16Z</time>
      </trkpt>
      <trkpt lat="44.99765" lon="5.32238">
        <ele>918.64996337891</ele>
        <time>2011-07-12T09:56:22Z</time>
      </trkpt>
      <trkpt lat="44.99817" lon="5.32217">
        <ele>912.66418457031</ele>
        <time>2011-07-12T09:56:26Z</time>
      </trkpt>
      <trkpt lat="44.9983" lon="5.32214">
        <ele>907.53759765625</ele>
        <time>2011-07-12T09:56:27Z</time>
      </trkpt>
      <trkpt lat="44.99844" lon="5.32211">
        <ele>902.89868164062</ele>
        <time>2011-07-12T09:56:28Z</time>
      </trkpt>
      <trkpt lat="44.99898" lon="5.32196">
        <ele>893.09375</ele>
        <time>2011-07-12T09:56:32Z</time>
      </trkpt>
      <trkpt lat="44.99932" lon="5.32175">
        <ele>887.41674804688</ele>
        <time>2011-07-12T09:56:35Z</time>
      </trkpt>
      <trkpt lat="44.99946" lon="5.32137">
        <ele>883.80029296875</ele>
        <time>2011-07-12T09:56:38Z</time>
      </trkpt>
      <trkpt lat="44.99945" lon="5.32123">
        <ele>883.91015625</ele>
        <time>2011-07-12T09:56:39Z</time>
      </trkpt>
      <trkpt lat="44.99949" lon="5.32081">
        <ele>883.36083984375</ele>
        <time>2011-07-12T09:56:42Z</time>
      </trkpt>
      <trkpt lat="44.99961" lon="5.3204">
        <ele>881.93811035156</ele>
        <time>2011-07-12T09:56:45Z</time>
      </trkpt>
      <trkpt lat="44.99971" lon="5.31992">
        <ele>884.58111572266</ele>
        <time>2011-07-12T09:56:48Z</time>
      </trkpt>
      <trkpt lat="44.99993" lon="5.3195">
        <ele>886.41040039062</ele>
        <time>2011-07-12T09:56:51Z</time>
      </trkpt>
      <trkpt lat="45.00003" lon="5.3194">
        <ele>885.7802734375</ele>
        <time>2011-07-12T09:56:52Z</time>
      </trkpt>
      <trkpt lat="45.00032" lon="5.31902">
        <ele>882.85357666016</ele>
        <time>2011-07-12T09:56:55Z</time>
      </trkpt>
      <trkpt lat="45.00077" lon="5.31856">
        <ele>875.86468505859</ele>
        <time>2011-07-12T09:56:59Z</time>
      </trkpt>
      <trkpt lat="45.00133" lon="5.31827">
        <ele>868.67028808594</ele>
        <time>2011-07-12T09:57:03Z</time>
      </trkpt>
      <trkpt lat="45.00176" lon="5.31821">
        <ele>863.88781738281</ele>
        <time>2011-07-12T09:57:06Z</time>
      </trkpt>
      <trkpt lat="45.00213" lon="5.3181">
        <ele>860.70166015625</ele>
        <time>2011-07-12T09:57:09Z</time>
      </trkpt>
      <trkpt lat="45.00254" lon="5.31785">
        <ele>846.36059570312</ele>
        <time>2011-07-12T09:57:13Z</time>
      </trkpt>
      <trkpt lat="45.00265" lon="5.31791">
        <ele>844.87744140625</ele>
        <time>2011-07-12T09:57:16Z</time>
      </trkpt>
      <trkpt lat="45.00257" lon="5.31803">
        <ele>845.92114257812</ele>
        <time>2011-07-12T09:57:18Z</time>
      </trkpt>
      <trkpt lat="45.00253" lon="5.31808">
        <ele>846.64324951172</ele>
        <time>2011-07-12T09:57:19Z</time>
      </trkpt>
      <trkpt lat="45.00232" lon="5.31849">
        <ele>855.455078125</ele>
        <time>2011-07-12T09:57:24Z</time>
      </trkpt>
      <trkpt lat="45.00237" lon="5.31873">
        <ele>853.13421630859</ele>
        <time>2011-07-12T09:57:26Z</time>
      </trkpt>
      <trkpt lat="45.00241" lon="5.31885">
        <ele>851.34893798828</ele>
        <time>2011-07-12T09:57:27Z</time>
      </trkpt>
      <trkpt lat="45.00247" lon="5.31912">
        <ele>848.39630126953</ele>
        <time>2011-07-12T09:57:29Z</time>
      </trkpt>
      <trkpt lat="45.00253" lon="5.31971">
        <ele>846.64404296875</ele>
        <time>2011-07-12T09:57:33Z</time>
      </trkpt>
      <trkpt lat="45.00258" lon="5.32002">
        <ele>846.14965820312</ele>
        <time>2011-07-12T09:57:35Z</time>
      </trkpt>
      <trkpt lat="45.00276" lon="5.3205">
        <ele>844.21331787109</ele>
        <time>2011-07-12T09:57:39Z</time>
      </trkpt>
      <trkpt lat="45.00294" lon="5.32053">
        <ele>841.70263671875</ele>
        <time>2011-07-12T09:57:41Z</time>
      </trkpt>
      <trkpt lat="45.00323" lon="5.32048">
        <ele>840</ele>
        <time>2011-07-12T09:57:46Z</time>
      </trkpt>
      <trkpt lat="45.00336" lon="5.32027">
        <ele>840.02807617188</ele>
        <time>2011-07-12T09:57:49Z</time>
      </trkpt>
      <trkpt lat="45.00354" lon="5.32002">
        <ele>841.86486816406</ele>
        <time>2011-07-12T09:57:52Z</time>
      </trkpt>
      <trkpt lat="45.00398" lon="5.3197">
        <ele>847.44982910156</ele>
        <time>2011-07-12T09:57:57Z</time>
      </trkpt>
      <trkpt lat="45.0042" lon="5.31964">
        <ele>848.50158691406</ele>
        <time>2011-07-12T09:57:59Z</time>
      </trkpt>
      <trkpt lat="45.0048" lon="5.31957">
        <ele>847.62536621094</ele>
        <time>2011-07-12T09:58:04Z</time>
      </trkpt>
      <trkpt lat="45.00544" lon="5.31951">
        <ele>846.54174804688</ele>
        <time>2011-07-12T09:58:09Z</time>
      </trkpt>
      <trkpt lat="45.00613" lon="5.31964">
        <ele>841.2587890625</ele>
        <time>2011-07-12T09:58:14Z</time>
      </trkpt>
      <trkpt lat="45.00671" lon="5.31971">
        <ele>831.4208984375</ele>
        <time>2011-07-12T09:58:18Z</time>
      </trkpt>
      <trkpt lat="45.0073" lon="5.31951">
        <ele>823.12341308594</ele>
        <time>2011-07-12T09:58:22Z</time>
      </trkpt>
      <trkpt lat="45.00806" lon="5.31929">
        <ele>799.90399169922</ele>
        <time>2011-07-12T09:58:27Z</time>
      </trkpt>
      <trkpt lat="45.0086" lon="5.31914">
        <ele>749.09765625</ele>
        <time>2011-07-12T09:58:31Z</time>
      </trkpt>
      <trkpt lat="45.00878" lon="5.31909">
        <ele>734.28186035156</ele>
        <time>2011-07-12T09:58:33Z</time>
      </trkpt>
      <trkpt lat="45.00893" lon="5.31892">
        <ele>716.75329589844</ele>
        <time>2011-07-12T09:58:36Z</time>
      </trkpt>
      <trkpt lat="45.00886" lon="5.31863">
        <ele>707.1552734375</ele>
        <time>2011-07-12T09:58:39Z</time>
      </trkpt>
      <trkpt lat="45.00874" lon="5.31845">
        <ele>709.92291259766</ele>
        <time>2011-07-12T09:58:41Z</time>
      </trkpt>
      <trkpt lat="45.00833" lon="5.31795">
        <ele>721.81182861328</ele>
        <time>2011-07-12T09:58:46Z</time>
      </trkpt>
      <trkpt lat="45.00801" lon="5.31736">
        <ele>724.98309326172</ele>
        <time>2011-07-12T09:58:50Z</time>
      </trkpt>
      <trkpt lat="45.00774" lon="5.31683">
        <ele>731.96514892578</ele>
        <time>2011-07-12T09:58:53Z</time>
      </trkpt>
      <trkpt lat="45.00745" lon="5.31625">
        <ele>741.97485351562</ele>
        <time>2011-07-12T09:58:56Z</time>
      </trkpt>
      <trkpt lat="45.00718" lon="5.31563">
        <ele>743.55133056641</ele>
        <time>2011-07-12T09:58:59Z</time>
      </trkpt>
      <trkpt lat="45.00695" lon="5.31495">
        <ele>741.95574951172</ele>
        <time>2011-07-12T09:59:02Z</time>
      </trkpt>
      <trkpt lat="45.00666" lon="5.31403">
        <ele>737.99322509766</ele>
        <time>2011-07-12T09:59:06Z</time>
      </trkpt>
      <trkpt lat="45.00639" lon="5.3131">
        <ele>721.6044921875</ele>
        <time>2011-07-12T09:59:10Z</time>
      </trkpt>
      <trkpt lat="45.00607" lon="5.31209">
        <ele>708.30712890625</ele>
        <time>2011-07-12T09:59:15Z</time>
      </trkpt>
      <trkpt lat="45.00603" lon="5.31193">
        <ele>706.00952148438</ele>
        <time>2011-07-12T09:59:16Z</time>
      </trkpt>
      <trkpt lat="45.0058" lon="5.31171">
        <ele>708.2978515625</ele>
        <time>2011-07-12T09:59:19Z</time>
      </trkpt>
      <trkpt lat="45.0056" lon="5.31175">
        <ele>713.98327636719</ele>
        <time>2011-07-12T09:59:21Z</time>
      </trkpt>
      <trkpt lat="45.00528" lon="5.31163">
        <ele>716.08038330078</ele>
        <time>2011-07-12T09:59:24Z</time>
      </trkpt>
      <trkpt lat="45.00518" lon="5.31153">
        <ele>715.91711425781</ele>
        <time>2011-07-12T09:59:25Z</time>
      </trkpt>
      <trkpt lat="45.00497" lon="5.31131">
        <ele>712.87072753906</ele>
        <time>2011-07-12T09:59:27Z</time>
      </trkpt>
      <trkpt lat="45.00451" lon="5.31085">
        <ele>703.63146972656</ele>
        <time>2011-07-12T09:59:31Z</time>
      </trkpt>
      <trkpt lat="45.00397" lon="5.31039">
        <ele>690.85852050781</ele>
        <time>2011-07-12T09:59:35Z</time>
      </trkpt>
      <trkpt lat="45.00328" lon="5.30975">
        <ele>679.75396728516</ele>
        <time>2011-07-12T09:59:40Z</time>
      </trkpt>
      <trkpt lat="45.0028" lon="5.30909">
        <ele>683.26159667969</ele>
        <time>2011-07-12T09:59:44Z</time>
      </trkpt>
      <trkpt lat="45.00269" lon="5.30893">
        <ele>686.13714599609</ele>
        <time>2011-07-12T09:59:45Z</time>
      </trkpt>
      <trkpt lat="45.00246" lon="5.30833">
        <ele>680.93420410156</ele>
        <time>2011-07-12T09:59:48Z</time>
      </trkpt>
      <trkpt lat="45.00225" lon="5.30701">
        <ele>654.52612304688</ele>
        <time>2011-07-12T09:59:54Z</time>
      </trkpt>
      <trkpt lat="45.00205" lon="5.30638">
        <ele>655.40606689453</ele>
        <time>2011-07-12T09:59:57Z</time>
      </trkpt>
      <trkpt lat="45.0016" lon="5.30571">
        <ele>657.1064453125</ele>
        <time>2011-07-12T10:00:01Z</time>
      </trkpt>
      <trkpt lat="45.00132" lon="5.30513">
        <ele>655.77471923828</ele>
        <time>2011-07-12T10:00:04Z</time>
      </trkpt>
      <trkpt lat="45.00127" lon="5.30491">
        <ele>649.24243164062</ele>
        <time>2011-07-12T10:00:05Z</time>
      </trkpt>
      <trkpt lat="45.00104" lon="5.3041">
        <ele>631.73736572266</ele>
        <time>2011-07-12T10:00:09Z</time>
      </trkpt>
      <trkpt lat="45.00069" lon="5.30366">
        <ele>627.51019287109</ele>
        <time>2011-07-12T10:00:12Z</time>
      </trkpt>
      <trkpt lat="44.99994" lon="5.30278">
        <ele>609.30041503906</ele>
        <time>2011-07-12T10:00:18Z</time>
      </trkpt>
      <trkpt lat="44.99939" lon="5.30232">
        <ele>595.69909667969</ele>
        <time>2011-07-12T10:00:22Z</time>
      </trkpt>
      <trkpt lat="44.99882" lon="5.30183">
        <ele>581.4677734375</ele>
        <time>2011-07-12T10:00:26Z</time>
      </trkpt>
      <trkpt lat="44.99835" lon="5.30147">
        <ele>575.97039794922</ele>
        <time>2011-07-12T10:00:29Z</time>
      </trkpt>
      <trkpt lat="44.9977" lon="5.30131">
        <ele>579.86694335938</ele>
        <time>2011-07-12T10:00:33Z</time>
      </trkpt>
      <trkpt lat="44.99754" lon="5.3013">
        <ele>583.27258300781</ele>
        <time>2011-07-12T10:00:34Z</time>
      </trkpt>
      <trkpt lat="44.9971" lon="5.30105">
        <ele>585.07580566406</ele>
        <time>2011-07-12T10:00:37Z</time>
      </trkpt>
      <trkpt lat="44.99657" lon="5.30053">
        <ele>583.08435058594</ele>
        <time>2011-07-12T10:00:41Z</time>
      </trkpt>
      <trkpt lat="44.9961" lon="5.30033">
        <ele>583.76696777344</ele>
        <time>2011-07-12T10:00:44Z</time>
      </trkpt>
      <trkpt lat="44.99556" lon="5.2999">
        <ele>587.3291015625</ele>
        <time>2011-07-12T10:00:48Z</time>
      </trkpt>
      <trkpt lat="44.99501" lon="5.29938">
        <ele>596.60021972656</ele>
        <time>2011-07-12T10:00:52Z</time>
      </trkpt>
      <trkpt lat="44.99488" lon="5.29928">
        <ele>599.83483886719</ele>
        <time>2011-07-12T10:00:53Z</time>
      </trkpt>
      <trkpt lat="44.99462" lon="5.29885">
        <ele>602.33599853516</ele>
        <time>2011-07-12T10:00:56Z</time>
      </trkpt>
      <trkpt lat="44.9946" lon="5.29847">
        <ele>595.98681640625</ele>
        <time>2011-07-12T10:00:58Z</time>
      </trkpt>
      <trkpt lat="44.99457" lon="5.29828">
        <ele>592.93884277344</ele>
        <time>2011-07-12T10:00:59Z</time>
      </trkpt>
      <trkpt lat="44.99429" lon="5.29711">
        <ele>583.68804931641</ele>
        <time>2011-07-12T10:01:05Z</time>
      </trkpt>
      <trkpt lat="44.99409" lon="5.29632">
        <ele>581.78674316406</ele>
        <time>2011-07-12T10:01:09Z</time>
      </trkpt>
      <trkpt lat="44.99399" lon="5.29597">
        <ele>584.86260986328</ele>
        <time>2011-07-12T10:01:11Z</time>
      </trkpt>
      <trkpt lat="44.99401" lon="5.29522">
        <ele>591.50482177734</ele>
        <time>2011-07-12T10:01:15Z</time>
      </trkpt>
      <trkpt lat="44.99431" lon="5.29493">
        <ele>587.63330078125</ele>
        <time>2011-07-12T10:01:18Z</time>
      </trkpt>
      <trkpt lat="44.99444" lon="5.29486">
        <ele>586.72863769531</ele>
        <time>2011-07-12T10:01:19Z</time>
      </trkpt>
      <trkpt lat="44.99469" lon="5.29467">
        <ele>587.66558837891</ele>
        <time>2011-07-12T10:01:21Z</time>
      </trkpt>
      <trkpt lat="44.9949" lon="5.29445">
        <ele>591.28729248047</ele>
        <time>2011-07-12T10:01:23Z</time>
      </trkpt>
      <trkpt lat="44.99546" lon="5.29427">
        <ele>591.36688232422</ele>
        <time>2011-07-12T10:01:27Z</time>
      </trkpt>
      <trkpt lat="44.99606" lon="5.29409">
        <ele>578.84643554688</ele>
        <time>2011-07-12T10:01:31Z</time>
      </trkpt>
      <trkpt lat="44.9962" lon="5.29405">
        <ele>573.99114990234</ele>
        <time>2011-07-12T10:01:32Z</time>
      </trkpt>
      <trkpt lat="44.99649" lon="5.29393">
        <ele>567.33233642578</ele>
        <time>2011-07-12T10:01:34Z</time>
      </trkpt>
      <trkpt lat="44.9969" lon="5.2939">
        <ele>554.05139160156</ele>
        <time>2011-07-12T10:01:37Z</time>
      </trkpt>
      <trkpt lat="44.9973" lon="5.29394">
        <ele>532.61267089844</ele>
        <time>2011-07-12T10:01:40Z</time>
      </trkpt>
      <trkpt lat="44.99766" lon="5.29371">
        <ele>510.13754272461</ele>
        <time>2011-07-12T10:01:43Z</time>
      </trkpt>
      <trkpt lat="44.99781" lon="5.29335">
        <ele>498.60751342773</ele>
        <time>2011-07-12T10:01:46Z</time>
      </trkpt>
      <trkpt lat="44.99775" lon="5.29322">
        <ele>502.04833984375</ele>
        <time>2011-07-12T10:01:47Z</time>
      </trkpt>
      <trkpt lat="44.99758" lon="5.29279">
        <ele>506.96810913086</ele>
        <time>2011-07-12T10:01:50Z</time>
      </trkpt>
      <trkpt lat="44.99731" lon="5.29242">
        <ele>513.87738037109</ele>
        <time>2011-07-12T10:01:53Z</time>
      </trkpt>
      <trkpt lat="44.99715" lon="5.29219">
        <ele>515.74206542969</ele>
        <time>2011-07-12T10:01:55Z</time>
      </trkpt>
      <trkpt lat="44.997" lon="5.29189">
        <ele>512.60211181641</ele>
        <time>2011-07-12T10:01:57Z</time>
      </trkpt>
      <trkpt lat="44.99675" lon="5.29125">
        <ele>502.25296020508</ele>
        <time>2011-07-12T10:02:01Z</time>
      </trkpt>
      <trkpt lat="44.99666" lon="5.29092">
        <ele>490.62640380859</ele>
        <time>2011-07-12T10:02:05Z</time>
      </trkpt>
      <trkpt lat="44.99679" lon="5.291">
        <ele>490.53311157227</ele>
        <time>2011-07-12T10:02:07Z</time>
      </trkpt>
      <trkpt lat="44.99684" lon="5.29109">
        <ele>492.91564941406</ele>
        <time>2011-07-12T10:02:08Z</time>
      </trkpt>
      <trkpt lat="44.99694" lon="5.29133">
        <ele>497.94427490234</ele>
        <time>2011-07-12T10:02:10Z</time>
      </trkpt>
      <trkpt lat="44.99721" lon="5.29183">
        <ele>503.49691772461</ele>
        <time>2011-07-12T10:02:14Z</time>
      </trkpt>
      <trkpt lat="44.99765" lon="5.29224">
        <ele>489.48031616211</ele>
        <time>2011-07-12T10:02:18Z</time>
      </trkpt>
      <trkpt lat="44.99799" lon="5.29257">
        <ele>477.3681640625</ele>
        <time>2011-07-12T10:02:21Z</time>
      </trkpt>
      <trkpt lat="44.99809" lon="5.29271">
        <ele>475.82391357422</ele>
        <time>2011-07-12T10:02:22Z</time>
      </trkpt>
      <trkpt lat="44.99841" lon="5.29339">
        <ele>466.42919921875</ele>
        <time>2011-07-12T10:02:26Z</time>
      </trkpt>
      <trkpt lat="44.99836" lon="5.29398">
        <ele>469.80541992188</ele>
        <time>2011-07-12T10:02:29Z</time>
      </trkpt>
      <trkpt lat="44.99819" lon="5.29451">
        <ele>478.77981567383</ele>
        <time>2011-07-12T10:02:32Z</time>
      </trkpt>
      <trkpt lat="44.99799" lon="5.2947">
        <ele>490.21343994141</ele>
        <time>2011-07-12T10:02:34Z</time>
      </trkpt>
      <trkpt lat="44.99747" lon="5.29527">
        <ele>497.82766723633</ele>
        <time>2011-07-12T10:02:39Z</time>
      </trkpt>
      <trkpt lat="44.99725" lon="5.29594">
        <ele>490.12124633789</ele>
        <time>2011-07-12T10:02:43Z</time>
      </trkpt>
      <trkpt lat="44.9974" lon="5.29631">
        <ele>481.01617431641</ele>
        <time>2011-07-12T10:02:45Z</time>
      </trkpt>
      <trkpt lat="44.99749" lon="5.29646">
        <ele>476.51889038086</ele>
        <time>2011-07-12T10:02:46Z</time>
      </trkpt>
      <trkpt lat="44.99775" lon="5.29691">
        <ele>459.31204223633</ele>
        <time>2011-07-12T10:02:49Z</time>
      </trkpt>
      <trkpt lat="44.99805" lon="5.29721">
        <ele>457.01751708984</ele>
        <time>2011-07-12T10:02:52Z</time>
      </trkpt>
      <trkpt lat="44.99818" lon="5.29726">
        <ele>456.69964599609</ele>
        <time>2011-07-12T10:02:53Z</time>
      </trkpt>
      <trkpt lat="44.99865" lon="5.29752">
        <ele>455.6708984375</ele>
        <time>2011-07-12T10:02:57Z</time>
      </trkpt>
      <trkpt lat="44.99903" lon="5.29763">
        <ele>453.67080688477</ele>
        <time>2011-07-12T10:03:00Z</time>
      </trkpt>
      <trkpt lat="44.99957" lon="5.29781">
        <ele>455.80487060547</ele>
        <time>2011-07-12T10:03:04Z</time>
      </trkpt>
      <trkpt lat="45.00013" lon="5.29772">
        <ele>458.34313964844</ele>
        <time>2011-07-12T10:03:08Z</time>
      </trkpt>
      <trkpt lat="45.00026" lon="5.29755">
        <ele>453.59790039062</ele>
        <time>2011-07-12T10:03:09Z</time>
      </trkpt>
      <trkpt lat="45.00093" lon="5.29713">
        <ele>438.53225708008</ele>
        <time>2011-07-12T10:03:14Z</time>
      </trkpt>
      <trkpt lat="45.00186" lon="5.29686">
        <ele>417.84310913086</ele>
        <time>2011-07-12T10:03:20Z</time>
      </trkpt>
      <trkpt lat="45.00232" lon="5.29669">
        <ele>406.44567871094</ele>
        <time>2011-07-12T10:03:23Z</time>
      </trkpt>
      <trkpt lat="45.0031" lon="5.29656">
        <ele>399.32955932617</ele>
        <time>2011-07-12T10:03:28Z</time>
      </trkpt>
      <trkpt lat="45.00343" lon="5.29654">
        <ele>394.53344726562</ele>
        <time>2011-07-12T10:03:30Z</time>
      </trkpt>
      <trkpt lat="45.00407" lon="5.29673">
        <ele>392.42333984375</ele>
        <time>2011-07-12T10:03:34Z</time>
      </trkpt>
      <trkpt lat="45.00437" lon="5.29696">
        <ele>395.27252197266</ele>
        <time>2011-07-12T10:03:36Z</time>
      </trkpt>
      <trkpt lat="45.00521" lon="5.29771">
        <ele>396.18539428711</ele>
        <time>2011-07-12T10:03:42Z</time>
      </trkpt>
      <trkpt lat="45.0058" lon="5.29812">
        <ele>387.99063110352</ele>
        <time>2011-07-12T10:03:46Z</time>
      </trkpt>
      <trkpt lat="45.00634" lon="5.29867">
        <ele>378.13842773438</ele>
        <time>2011-07-12T10:03:50Z</time>
      </trkpt>
      <trkpt lat="45.00646" lon="5.29881">
        <ele>377.04776000977</ele>
        <time>2011-07-12T10:03:51Z</time>
      </trkpt>
      <trkpt lat="45.00695" lon="5.29962">
        <ele>370.79525756836</ele>
        <time>2011-07-12T10:03:56Z</time>
      </trkpt>
      <trkpt lat="45.00729" lon="5.30031">
        <ele>368.97381591797</ele>
        <time>2011-07-12T10:04:00Z</time>
      </trkpt>
      <trkpt lat="45.00743" lon="5.30076">
        <ele>371.23739624023</ele>
        <time>2011-07-12T10:04:03Z</time>
      </trkpt>
      <trkpt lat="45.00749" lon="5.30104">
        <ele>372.61489868164</ele>
        <time>2011-07-12T10:04:06Z</time>
      </trkpt>
      <trkpt lat="45.00758" lon="5.30092">
        <ele>369.18841552734</ele>
        <time>2011-07-12T10:04:08Z</time>
      </trkpt>
      <trkpt lat="45.00759" lon="5.30065">
        <ele>365.96307373047</ele>
        <time>2011-07-12T10:04:10Z</time>
      </trkpt>
      <trkpt lat="45.00754" lon="5.30036">
        <ele>364.7604675293</ele>
        <time>2011-07-12T10:04:12Z</time>
      </trkpt>
      <trkpt lat="45.00746" lon="5.29986">
        <ele>361.09893798828</ele>
        <time>2011-07-12T10:04:15Z</time>
      </trkpt>
      <trkpt lat="45.00737" lon="5.29949">
        <ele>358.33746337891</ele>
        <time>2011-07-12T10:04:17Z</time>
      </trkpt>
      <trkpt lat="45.00715" lon="5.29872">
        <ele>354.03079223633</ele>
        <time>2011-07-12T10:04:21Z</time>
      </trkpt>
      <trkpt lat="45.00687" lon="5.29798">
        <ele>351.76638793945</ele>
        <time>2011-07-12T10:04:25Z</time>
      </trkpt>
      <trkpt lat="45.00671" lon="5.29759">
        <ele>349.77105712891</ele>
        <time>2011-07-12T10:04:27Z</time>
      </trkpt>
      <trkpt lat="45.00629" lon="5.29662">
        <ele>339.79608154297</ele>
        <time>2011-07-12T10:04:32Z</time>
      </trkpt>
      <trkpt lat="45.0061" lon="5.29599">
        <ele>336.62884521484</ele>
        <time>2011-07-12T10:04:35Z</time>
      </trkpt>
      <trkpt lat="45.00605" lon="5.29532">
        <ele>334.56729125977</ele>
        <time>2011-07-12T10:04:38Z</time>
      </trkpt>
      <trkpt lat="45.00626" lon="5.29469">
        <ele>329.64605712891</ele>
        <time>2011-07-12T10:04:41Z</time>
      </trkpt>
      <trkpt lat="45.00666" lon="5.29366">
        <ele>320.43905639648</ele>
        <time>2011-07-12T10:04:46Z</time>
      </trkpt>
      <trkpt lat="45.00699" lon="5.29316">
        <ele>314.24816894531</ele>
        <time>2011-07-12T10:04:49Z</time>
      </trkpt>
      <trkpt lat="45.00713" lon="5.29304">
        <ele>311.95510864258</ele>
        <time>2011-07-12T10:04:50Z</time>
      </trkpt>
      <trkpt lat="45.00816" lon="5.29233">
        <ele>301.87991333008</ele>
        <time>2011-07-12T10:04:57Z</time>
      </trkpt>
      <trkpt lat="45.00934" lon="5.2915">
        <ele>288.50805664062</ele>
        <time>2011-07-12T10:05:05Z</time>
      </trkpt>
      <trkpt lat="45.01021" lon="5.29088">
        <ele>280.29476928711</ele>
        <time>2011-07-12T10:05:11Z</time>
      </trkpt>
      <trkpt lat="45.01075" lon="5.29051">
        <ele>270.10266113281</ele>
        <time>2011-07-12T10:05:15Z</time>
      </trkpt>
      <trkpt lat="45.01128" lon="5.29037">
        <ele>266.33270263672</ele>
        <time>2011-07-12T10:05:19Z</time>
      </trkpt>
      <trkpt lat="45.01143" lon="5.29036">
        <ele>265.77825927734</ele>
        <time>2011-07-12T10:05:20Z</time>
      </trkpt>
      <trkpt lat="45.01237" lon="5.29067">
        <ele>261.58642578125</ele>
        <time>2011-07-12T10:05:27Z</time>
      </trkpt>
      <trkpt lat="45.013" lon="5.29085">
        <ele>258.57946777344</ele>
        <time>2011-07-12T10:05:32Z</time>
      </trkpt>
      <trkpt lat="45.01338" lon="5.29097">
        <ele>256.80099487305</ele>
        <time>2011-07-12T10:05:36Z</time>
      </trkpt>
      <trkpt lat="45.01353" lon="5.29086">
        <ele>255.48950195312</ele>
        <time>2011-07-12T10:05:39Z</time>
      </trkpt>
      <trkpt lat="45.01349" lon="5.29058">
        <ele>252.67132568359</ele>
        <time>2011-07-12T10:05:42Z</time>
      </trkpt>
      <trkpt lat="45.01345" lon="5.29048">
        <ele>252.02787780762</ele>
        <time>2011-07-12T10:05:43Z</time>
      </trkpt>
      <trkpt lat="45.01323" lon="5.28992">
        <ele>248.91735839844</ele>
        <time>2011-07-12T10:05:48Z</time>
      </trkpt>
      <trkpt lat="45.01292" lon="5.28915">
        <ele>243.84124755859</ele>
        <time>2011-07-12T10:05:54Z</time>
      </trkpt>
      <trkpt lat="45.01275" lon="5.28875">
        <ele>241.65795898438</ele>
        <time>2011-07-12T10:05:57Z</time>
      </trkpt>
      <trkpt lat="45.01259" lon="5.28854">
        <ele>240.40782165527</ele>
        <time>2011-07-12T10:05:59Z</time>
      </trkpt>
      <trkpt lat="45.01237" lon="5.28841">
        <ele>240.87663269043</ele>
        <time>2011-07-12T10:06:01Z</time>
      </trkpt>
      <trkpt lat="45.01183" lon="5.28819">
        <ele>240.14265441894</ele>
        <time>2011-07-12T10:06:06Z</time>
      </trkpt>
      <trkpt lat="45.01135" lon="5.28784">
        <ele>240.03083801269</ele>
        <time>2011-07-12T10:06:11Z</time>
      </trkpt>
      <trkpt lat="45.01125" lon="5.28777">
        <ele>240</ele>
        <time>2011-07-12T10:06:12Z</time>
      </trkpt>
      <trkpt lat="45.01089" lon="5.28746">
        <ele>240</ele>
        <time>2011-07-12T10:06:16Z</time>
      </trkpt>
      <trkpt lat="45.01038" lon="5.28706">
        <ele>240.73921203613</ele>
        <time>2011-07-12T10:06:22Z</time>
      </trkpt>
      <trkpt lat="45.00996" lon="5.2867">
        <ele>242.87707519531</ele>
        <time>2011-07-12T10:06:28Z</time>
      </trkpt>
      <trkpt lat="45.00965" lon="5.28644">
        <ele>245.72943115234</ele>
        <time>2011-07-12T10:06:33Z</time>
      </trkpt>
      <trkpt lat="45.00927" lon="5.28616">
        <ele>245.96723937988</ele>
        <time>2011-07-12T10:06:39Z</time>
      </trkpt>
      <trkpt lat="45.00914" lon="5.28607">
        <ele>246.03312683106</ele>
        <time>2011-07-12T10:06:41Z</time>
      </trkpt>
      <trkpt lat="45.00891" lon="5.28585">
        <ele>246.88970947266</ele>
        <time>2011-07-12T10:06:45Z</time>
      </trkpt>
      <trkpt lat="45.00835" lon="5.2854">
        <ele>246.37149047852</ele>
        <time>2011-07-12T10:06:53Z</time>
      </trkpt>
      <trkpt lat="45.00792" lon="5.28503">
        <ele>246.71940612793</ele>
        <time>2011-07-12T10:06:59Z</time>
      </trkpt>
      <trkpt lat="45.00726" lon="5.2845">
        <ele>247.07859802246</ele>
        <time>2011-07-12T10:07:08Z</time>
      </trkpt>
      <trkpt lat="45.00673" lon="5.28406">
        <ele>247.36712646484</ele>
        <time>2011-07-12T10:07:16Z</time>
      </trkpt>
      <trkpt lat="45.00624" lon="5.28365">
        <ele>249.96395874023</ele>
        <time>2011-07-12T10:07:24Z</time>
      </trkpt>
      <trkpt lat="45.00611" lon="5.28356">
        <ele>251.15701293945</ele>
        <time>2011-07-12T10:07:26Z</time>
      </trkpt>
      <trkpt lat="45.00601" lon="5.28346">
        <ele>252.28482055664</ele>
        <time>2011-07-12T10:07:28Z</time>
      </trkpt>
      <trkpt lat="45.00552" lon="5.28306">
        <ele>255.22763061523</ele>
        <time>2011-07-12T10:07:37Z</time>
      </trkpt>
      <trkpt lat="45.00526" lon="5.28282">
        <ele>257.11489868164</ele>
        <time>2011-07-12T10:07:42Z</time>
      </trkpt>
      <trkpt lat="45.0051" lon="5.28245">
        <ele>258.65283203125</ele>
        <time>2011-07-12T10:07:47Z</time>
      </trkpt>
      <trkpt lat="45.00508" lon="5.28228">
        <ele>258.70776367188</ele>
        <time>2011-07-12T10:07:49Z</time>
      </trkpt>
      <trkpt lat="45.00514" lon="5.28157">
        <ele>259.17828369141</ele>
        <time>2011-07-12T10:07:57Z</time>
      </trkpt>
      <trkpt lat="45.00518" lon="5.28099">
        <ele>259.6335144043</ele>
        <time>2011-07-12T10:08:03Z</time>
      </trkpt>
      <trkpt lat="45.00511" lon="5.28055">
        <ele>260</ele>
        <time>2011-07-12T10:08:08Z</time>
      </trkpt>
      <trkpt lat="45.00508" lon="5.28048">
        <ele>260</ele>
        <time>2011-07-12T10:08:09Z</time>
      </trkpt>
      <trkpt lat="45.00494" lon="5.28021">
        <ele>260.47412109375</ele>
        <time>2011-07-12T10:08:13Z</time>
      </trkpt>
      <trkpt lat="45.00462" lon="5.2799">
        <ele>263.09979248047</ele>
        <time>2011-07-12T10:08:20Z</time>
      </trkpt>
      <trkpt lat="45.00418" lon="5.27951">
        <ele>267.13442993164</ele>
        <time>2011-07-12T10:08:29Z</time>
      </trkpt>
      <trkpt lat="45.00385" lon="5.2792">
        <ele>271.53262329102</ele>
        <time>2011-07-12T10:08:36Z</time>
      </trkpt>
      <trkpt lat="45.00342" lon="5.27882">
        <ele>274.30987548828</ele>
        <time>2011-07-12T10:08:45Z</time>
      </trkpt>
      <trkpt lat="45.00305" lon="5.27849">
        <ele>276.8630065918</ele>
        <time>2011-07-12T10:08:53Z</time>
      </trkpt>
      <trkpt lat="45.00266" lon="5.27813">
        <ele>280.11306762695</ele>
        <time>2011-07-12T10:09:02Z</time>
      </trkpt>
      <trkpt lat="45.0023" lon="5.27781">
        <ele>280.49893188477</ele>
        <time>2011-07-12T10:09:10Z</time>
      </trkpt>
      <trkpt lat="45.0019" lon="5.27745">
        <ele>282.05108642578</ele>
        <time>2011-07-12T10:09:19Z</time>
      </trkpt>
      <trkpt lat="45.00161" lon="5.27717">
        <ele>282.11486816406</ele>
        <time>2011-07-12T10:09:26Z</time>
      </trkpt>
      <trkpt lat="45.00131" lon="5.27689">
        <ele>282.04150390625</ele>
        <time>2011-07-12T10:09:33Z</time>
      </trkpt>
      <trkpt lat="45.00085" lon="5.2765">
        <ele>278.72015380859</ele>
        <time>2011-07-12T10:09:43Z</time>
      </trkpt>
      <trkpt lat="45.00048" lon="5.27618">
        <ele>274.19360351562</ele>
        <time>2011-07-12T10:09:51Z</time>
      </trkpt>
      <trkpt lat="45.00013" lon="5.27586">
        <ele>271.2717590332</ele>
        <time>2011-07-12T10:09:59Z</time>
      </trkpt>
      <trkpt lat="44.99981" lon="5.27553">
        <ele>272.89392089844</ele>
        <time>2011-07-12T10:10:07Z</time>
      </trkpt>
      <trkpt lat="44.99965" lon="5.27539">
        <ele>273.07669067383</ele>
        <time>2011-07-12T10:10:11Z</time>
      </trkpt>
      <trkpt lat="44.99951" lon="5.27522">
        <ele>274.34503173828</ele>
        <time>2011-07-12T10:10:15Z</time>
      </trkpt>
      <trkpt lat="44.9994" lon="5.27508">
        <ele>275.86566162109</ele>
        <time>2011-07-12T10:10:18Z</time>
      </trkpt>
      <trkpt lat="44.99916" lon="5.27474">
        <ele>282.61126708984</ele>
        <time>2011-07-12T10:10:25Z</time>
      </trkpt>
      <trkpt lat="44.99901" lon="5.27455">
        <ele>286.72082519531</ele>
        <time>2011-07-12T10:10:29Z</time>
      </trkpt>
      <trkpt lat="44.9988" lon="5.27432">
        <ele>291.16906738281</ele>
        <time>2011-07-12T10:10:34Z</time>
      </trkpt>
      <trkpt lat="44.99857" lon="5.27418">
        <ele>293.84698486328</ele>
        <time>2011-07-12T10:10:39Z</time>
      </trkpt>
      <trkpt lat="44.99823" lon="5.27408">
        <ele>295.93811035156</ele>
        <time>2011-07-12T10:10:46Z</time>
      </trkpt>
      <trkpt lat="44.99802" lon="5.274">
        <ele>297.87860107422</ele>
        <time>2011-07-12T10:10:51Z</time>
      </trkpt>
      <trkpt lat="44.99781" lon="5.27398">
        <ele>299.705078125</ele>
        <time>2011-07-12T10:10:56Z</time>
      </trkpt>
      <trkpt lat="44.99768" lon="5.27405">
        <ele>298.56640625</ele>
        <time>2011-07-12T10:11:00Z</time>
      </trkpt>
      <trkpt lat="44.99742" lon="5.27416">
        <ele>296.64764404297</ele>
        <time>2011-07-12T10:11:08Z</time>
      </trkpt>
      <trkpt lat="44.99722" lon="5.27413">
        <ele>298.697265625</ele>
        <time>2011-07-12T10:11:14Z</time>
      </trkpt>
      <trkpt lat="44.99703" lon="5.27411">
        <ele>299.134765625</ele>
        <time>2011-07-12T10:11:20Z</time>
      </trkpt>
      <trkpt lat="44.99683" lon="5.27407">
        <ele>300.09262084961</ele>
        <time>2011-07-12T10:11:26Z</time>
      </trkpt>
      <trkpt lat="44.99662" lon="5.27403">
        <ele>300.9084777832</ele>
        <time>2011-07-12T10:11:32Z</time>
      </trkpt>
      <trkpt lat="44.9964" lon="5.27395">
        <ele>302.0041809082</ele>
        <time>2011-07-12T10:11:38Z</time>
      </trkpt>
      <trkpt lat="44.9962" lon="5.27387">
        <ele>303.16595458984</ele>
        <time>2011-07-12T10:11:43Z</time>
      </trkpt>
      <trkpt lat="44.99603" lon="5.27381">
        <ele>302.97674560547</ele>
        <time>2011-07-12T10:11:48Z</time>
      </trkpt>
      <trkpt lat="44.99577" lon="5.27367">
        <ele>302.5986328125</ele>
        <time>2011-07-12T10:11:55Z</time>
      </trkpt>
      <trkpt lat="44.99555" lon="5.27346">
        <ele>304.62506103516</ele>
        <time>2011-07-12T10:12:02Z</time>
      </trkpt>
      <trkpt lat="44.99532" lon="5.27322">
        <ele>311.00518798828</ele>
        <time>2011-07-12T10:12:10Z</time>
      </trkpt>
      <trkpt lat="44.99511" lon="5.27306">
        <ele>316.26959228516</ele>
        <time>2011-07-12T10:12:16Z</time>
      </trkpt>
      <trkpt lat="44.99488" lon="5.27289">
        <ele>319.1484375</ele>
        <time>2011-07-12T10:12:23Z</time>
      </trkpt>
      <trkpt lat="44.99475" lon="5.27278">
        <ele>320.03247070312</ele>
        <time>2011-07-12T10:12:27Z</time>
      </trkpt>
      <trkpt lat="44.99449" lon="5.27259">
        <ele>320.01583862305</ele>
        <time>2011-07-12T10:12:34Z</time>
      </trkpt>
      <trkpt lat="44.9943" lon="5.27243">
        <ele>319.89007568359</ele>
        <time>2011-07-12T10:12:39Z</time>
      </trkpt>
      <trkpt lat="44.99405" lon="5.27213">
        <ele>319.79931640625</ele>
        <time>2011-07-12T10:12:47Z</time>
      </trkpt>
      <trkpt lat="44.99382" lon="5.2718">
        <ele>322.97479248047</ele>
        <time>2011-07-12T10:12:55Z</time>
      </trkpt>
      <trkpt lat="44.99361" lon="5.27148">
        <ele>324.71307373047</ele>
        <time>2011-07-12T10:13:03Z</time>
      </trkpt>
      <trkpt lat="44.99341" lon="5.27121">
        <ele>326.28048706055</ele>
        <time>2011-07-12T10:13:11Z</time>
      </trkpt>
      <trkpt lat="44.99324" lon="5.27104">
        <ele>327.63787841797</ele>
        <time>2011-07-12T10:13:17Z</time>
      </trkpt>
      <trkpt lat="44.99304" lon="5.27083">
        <ele>328.93316650391</ele>
        <time>2011-07-12T10:13:25Z</time>
      </trkpt>
      <trkpt lat="44.9929" lon="5.27066">
        <ele>330.8913269043</ele>
        <time>2011-07-12T10:13:31Z</time>
      </trkpt>
      <trkpt lat="44.99277" lon="5.2705">
        <ele>331.12249755859</ele>
        <time>2011-07-12T10:13:36Z</time>
      </trkpt>
      <trkpt lat="44.9926" lon="5.27031">
        <ele>332.72973632812</ele>
        <time>2011-07-12T10:13:42Z</time>
      </trkpt>
      <trkpt lat="44.99245" lon="5.27008">
        <ele>333.89154052734</ele>
        <time>2011-07-12T10:13:48Z</time>
      </trkpt>
      <trkpt lat="44.99236" lon="5.26974">
        <ele>339.11959838867</ele>
        <time>2011-07-12T10:13:55Z</time>
      </trkpt>
      <trkpt lat="44.99225" lon="5.2694">
        <ele>342.74673461914</ele>
        <time>2011-07-12T10:14:02Z</time>
      </trkpt>
      <trkpt lat="44.99208" lon="5.26907">
        <ele>346.91467285156</ele>
        <time>2011-07-12T10:14:09Z</time>
      </trkpt>
      <trkpt lat="44.99188" lon="5.26876">
        <ele>350.03396606445</ele>
        <time>2011-07-12T10:14:16Z</time>
      </trkpt>
      <trkpt lat="44.99153" lon="5.26837">
        <ele>353.03524780273</ele>
        <time>2011-07-12T10:14:27Z</time>
      </trkpt>
      <trkpt lat="44.99129" lon="5.26811">
        <ele>354.43280029297</ele>
        <time>2011-07-12T10:14:34Z</time>
      </trkpt>
      <trkpt lat="44.99102" lon="5.2678">
        <ele>355.7414855957</ele>
        <time>2011-07-12T10:14:42Z</time>
      </trkpt>
      <trkpt lat="44.99073" lon="5.26747">
        <ele>355.73297119141</ele>
        <time>2011-07-12T10:14:50Z</time>
      </trkpt>
      <trkpt lat="44.99044" lon="5.26715">
        <ele>353.69027709961</ele>
        <time>2011-07-12T10:14:58Z</time>
      </trkpt>
      <trkpt lat="44.99018" lon="5.26685">
        <ele>352.39477539062</ele>
        <time>2011-07-12T10:15:05Z</time>
      </trkpt>
      <trkpt lat="44.98991" lon="5.26654">
        <ele>350.67950439453</ele>
        <time>2011-07-12T10:15:12Z</time>
      </trkpt>
      <trkpt lat="44.98983" lon="5.26644">
        <ele>349.50708007812</ele>
        <time>2011-07-12T10:15:14Z</time>
      </trkpt>
      <trkpt lat="44.9897" lon="5.26622">
        <ele>348.3483581543</ele>
        <time>2011-07-12T10:15:18Z</time>
      </trkpt>
      <trkpt lat="44.98964" lon="5.26602">
        <ele>348.15188598633</ele>
        <time>2011-07-12T10:15:21Z</time>
      </trkpt>
      <trkpt lat="44.9896" lon="5.26582">
        <ele>348.80746459961</ele>
        <time>2011-07-12T10:15:24Z</time>
      </trkpt>
      <trkpt lat="44.98953" lon="5.26532">
        <ele>351.23928833008</ele>
        <time>2011-07-12T10:15:31Z</time>
      </trkpt>
      <trkpt lat="44.98944" lon="5.26499">
        <ele>352.13851928711</ele>
        <time>2011-07-12T10:15:37Z</time>
      </trkpt>
      <trkpt lat="44.9894" lon="5.26478">
        <ele>352.77606201172</ele>
        <time>2011-07-12T10:15:42Z</time>
      </trkpt>
      <trkpt lat="44.98933" lon="5.26458">
        <ele>351.64593505859</ele>
        <time>2011-07-12T10:15:46Z</time>
      </trkpt>
      <trkpt lat="44.98924" lon="5.26418">
        <ele>350.98031616211</ele>
        <time>2011-07-12T10:15:54Z</time>
      </trkpt>
      <trkpt lat="44.98918" lon="5.26383">
        <ele>349.86602783203</ele>
        <time>2011-07-12T10:16:01Z</time>
      </trkpt>
      <trkpt lat="44.98917" lon="5.26356">
        <ele>351.1789855957</ele>
        <time>2011-07-12T10:16:06Z</time>
      </trkpt>
      <trkpt lat="44.98919" lon="5.26328">
        <ele>352.68133544922</ele>
        <time>2011-07-12T10:16:11Z</time>
      </trkpt>
      <trkpt lat="44.98935" lon="5.26291">
        <ele>357.29470825195</ele>
        <time>2011-07-12T10:16:19Z</time>
      </trkpt>
      <trkpt lat="44.98949" lon="5.26267">
        <ele>360.00650024414</ele>
        <time>2011-07-12T10:16:26Z</time>
      </trkpt>
      <trkpt lat="44.98964" lon="5.26243">
        <ele>362.05130004883</ele>
        <time>2011-07-12T10:16:33Z</time>
      </trkpt>
      <trkpt lat="44.98983" lon="5.26209">
        <ele>362.10229492188</ele>
        <time>2011-07-12T10:16:42Z</time>
      </trkpt>
      <trkpt lat="44.98996" lon="5.26187">
        <ele>363.04550170898</ele>
        <time>2011-07-12T10:16:48Z</time>
      </trkpt>
      <trkpt lat="44.99012" lon="5.26159">
        <ele>367.23236083984</ele>
        <time>2011-07-12T10:16:56Z</time>
      </trkpt>
      <trkpt lat="44.99028" lon="5.26142">
        <ele>369.8899230957</ele>
        <time>2011-07-12T10:17:02Z</time>
      </trkpt>
      <trkpt lat="44.99047" lon="5.26123">
        <ele>373.54058837891</ele>
        <time>2011-07-12T10:17:09Z</time>
      </trkpt>
      <trkpt lat="44.99063" lon="5.26109">
        <ele>375.85144042969</ele>
        <time>2011-07-12T10:17:15Z</time>
      </trkpt>
      <trkpt lat="44.99076" lon="5.26097">
        <ele>377.72082519531</ele>
        <time>2011-07-12T10:17:20Z</time>
      </trkpt>
      <trkpt lat="44.99095" lon="5.26086">
        <ele>379.32965087891</ele>
        <time>2011-07-12T10:17:26Z</time>
      </trkpt>
      <trkpt lat="44.99115" lon="5.26082">
        <ele>380</ele>
        <time>2011-07-12T10:17:32Z</time>
      </trkpt>
      <trkpt lat="44.99138" lon="5.2608">
        <ele>380</ele>
        <time>2011-07-12T10:17:39Z</time>
      </trkpt>
      <trkpt lat="44.99159" lon="5.26076">
        <ele>380</ele>
        <time>2011-07-12T10:17:45Z</time>
      </trkpt>
      <trkpt lat="44.99188" lon="5.26072">
        <ele>380</ele>
        <time>2011-07-12T10:17:53Z</time>
      </trkpt>
      <trkpt lat="44.99213" lon="5.26069">
        <ele>380</ele>
        <time>2011-07-12T10:18:00Z</time>
      </trkpt>
      <trkpt lat="44.99234" lon="5.26062">
        <ele>380</ele>
        <time>2011-07-12T10:18:06Z</time>
      </trkpt>
      <trkpt lat="44.99261" lon="5.26044">
        <ele>380</ele>
        <time>2011-07-12T10:18:14Z</time>
      </trkpt>
      <trkpt lat="44.99292" lon="5.26016">
        <ele>382.90533447266</ele>
        <time>2011-07-12T10:18:23Z</time>
      </trkpt>
      <trkpt lat="44.99315" lon="5.25994">
        <ele>387.70498657227</ele>
        <time>2011-07-12T10:18:30Z</time>
      </trkpt>
      <trkpt lat="44.99336" lon="5.25976">
        <ele>391.86172485352</ele>
        <time>2011-07-12T10:18:36Z</time>
      </trkpt>
      <trkpt lat="44.99354" lon="5.25967">
        <ele>394.62503051758</ele>
        <time>2011-07-12T10:18:41Z</time>
      </trkpt>
      <trkpt lat="44.99381" lon="5.25959">
        <ele>398.44088745117</ele>
        <time>2011-07-12T10:18:48Z</time>
      </trkpt>
      <trkpt lat="44.99399" lon="5.2595">
        <ele>399.86328125</ele>
        <time>2011-07-12T10:18:53Z</time>
      </trkpt>
      <trkpt lat="44.99432" lon="5.25933">
        <ele>400</ele>
        <time>2011-07-12T10:19:02Z</time>
      </trkpt>
      <trkpt lat="44.99466" lon="5.25922">
        <ele>400</ele>
        <time>2011-07-12T10:19:11Z</time>
      </trkpt>
      <trkpt lat="44.99488" lon="5.25919">
        <ele>400</ele>
        <time>2011-07-12T10:19:17Z</time>
      </trkpt>
      <trkpt lat="44.99515" lon="5.25914">
        <ele>400</ele>
        <time>2011-07-12T10:19:24Z</time>
      </trkpt>
      <trkpt lat="44.99537" lon="5.25909">
        <ele>400</ele>
        <time>2011-07-12T10:19:30Z</time>
      </trkpt>
      <trkpt lat="44.99543" lon="5.25908">
        <ele>400</ele>
        <time>2011-07-12T10:19:32Z</time>
      </trkpt>
      <trkpt lat="44.99559" lon="5.25903">
        <ele>400</ele>
        <time>2011-07-12T10:19:36Z</time>
      </trkpt>
      <trkpt lat="44.99579" lon="5.2589">
        <ele>400</ele>
        <time>2011-07-12T10:19:43Z</time>
      </trkpt>
      <trkpt lat="44.99589" lon="5.25876">
        <ele>401.36135864258</ele>
        <time>2011-07-12T10:19:48Z</time>
      </trkpt>
      <trkpt lat="44.99597" lon="5.25853">
        <ele>403.89508056641</ele>
        <time>2011-07-12T10:19:54Z</time>
      </trkpt>
      <trkpt lat="44.99606" lon="5.25823">
        <ele>407.45751953125</ele>
        <time>2011-07-12T10:20:01Z</time>
      </trkpt>
      <trkpt lat="44.99612" lon="5.25798">
        <ele>411.39666748047</ele>
        <time>2011-07-12T10:20:07Z</time>
      </trkpt>
      <trkpt lat="44.99611" lon="5.2579">
        <ele>412.83862304688</ele>
        <time>2011-07-12T10:20:09Z</time>
      </trkpt>
      <trkpt lat="44.99599" lon="5.25783">
        <ele>414.05743408203</ele>
        <time>2011-07-12T10:20:13Z</time>
      </trkpt>
      <trkpt lat="44.99588" lon="5.25795">
        <ele>411.86016845703</ele>
        <time>2011-07-12T10:20:17Z</time>
      </trkpt>
      <trkpt lat="44.99578" lon="5.25828">
        <ele>406.88394165039</ele>
        <time>2011-07-12T10:20:24Z</time>
      </trkpt>
      <trkpt lat="44.99567" lon="5.25846">
        <ele>405.25958251953</ele>
        <time>2011-07-12T10:20:29Z</time>
      </trkpt>
      <trkpt lat="44.99555" lon="5.25856">
        <ele>404.52944946289</ele>
        <time>2011-07-12T10:20:34Z</time>
      </trkpt>
      <trkpt lat="44.99538" lon="5.25858">
        <ele>404.30285644531</ele>
        <time>2011-07-12T10:20:40Z</time>
      </trkpt>
      <trkpt lat="44.99505" lon="5.25849">
        <ele>405.35342407227</ele>
        <time>2011-07-12T10:20:50Z</time>
      </trkpt>
      <trkpt lat="44.99479" lon="5.25834">
        <ele>406.89321899414</ele>
        <time>2011-07-12T10:20:58Z</time>
      </trkpt>
      <trkpt lat="44.99466" lon="5.25815">
        <ele>410.15811157227</ele>
        <time>2011-07-12T10:21:04Z</time>
      </trkpt>
      <trkpt lat="44.99459" lon="5.2579">
        <ele>414.30871582031</ele>
        <time>2011-07-12T10:21:10Z</time>
      </trkpt>
      <trkpt lat="44.99454" lon="5.25768">
        <ele>417.38082885742</ele>
        <time>2011-07-12T10:21:15Z</time>
      </trkpt>
      <trkpt lat="44.99441" lon="5.25742">
        <ele>420.66485595703</ele>
        <time>2011-07-12T10:21:22Z</time>
      </trkpt>
      <trkpt lat="44.99425" lon="5.25725">
        <ele>424.40362548828</ele>
        <time>2011-07-12T10:21:28Z</time>
      </trkpt>
      <trkpt lat="44.99402" lon="5.25712">
        <ele>427.23538208008</ele>
        <time>2011-07-12T10:21:35Z</time>
      </trkpt>
      <trkpt lat="44.9938" lon="5.25702">
        <ele>429.0608215332</ele>
        <time>2011-07-12T10:21:41Z</time>
      </trkpt>
      <trkpt lat="44.9935" lon="5.25689">
        <ele>430.97045898438</ele>
        <time>2011-07-12T10:21:50Z</time>
      </trkpt>
      <trkpt lat="44.99329" lon="5.25681">
        <ele>432.25939941406</ele>
        <time>2011-07-12T10:21:57Z</time>
      </trkpt>
      <trkpt lat="44.99308" lon="5.25675">
        <ele>434.71072387695</ele>
        <time>2011-07-12T10:22:04Z</time>
      </trkpt>
      <trkpt lat="44.99284" lon="5.25674">
        <ele>435.70559692383</ele>
        <time>2011-07-12T10:22:11Z</time>
      </trkpt>
      <trkpt lat="44.9926" lon="5.25676">
        <ele>436.95169067383</ele>
        <time>2011-07-12T10:22:18Z</time>
      </trkpt>
      <trkpt lat="44.99237" lon="5.25676">
        <ele>438.16815185547</ele>
        <time>2011-07-12T10:22:25Z</time>
      </trkpt>
      <trkpt lat="44.99215" lon="5.25672">
        <ele>439.64672851562</ele>
        <time>2011-07-12T10:22:32Z</time>
      </trkpt>
      <trkpt lat="44.99186" lon="5.25664">
        <ele>441.828125</ele>
        <time>2011-07-12T10:22:41Z</time>
      </trkpt>
      <trkpt lat="44.99165" lon="5.25656">
        <ele>441.89227294922</ele>
        <time>2011-07-12T10:22:48Z</time>
      </trkpt>
      <trkpt lat="44.99141" lon="5.25651">
        <ele>441.93176269531</ele>
        <time>2011-07-12T10:22:56Z</time>
      </trkpt>
      <trkpt lat="44.99122" lon="5.25651">
        <ele>440.93481445312</ele>
        <time>2011-07-12T10:23:02Z</time>
      </trkpt>
      <trkpt lat="44.99099" lon="5.25657">
        <ele>438.15405273438</ele>
        <time>2011-07-12T10:23:09Z</time>
      </trkpt>
      <trkpt lat="44.99079" lon="5.25649">
        <ele>438.08813476562</ele>
        <time>2011-07-12T10:23:15Z</time>
      </trkpt>
      <trkpt lat="44.99065" lon="5.25624">
        <ele>441.728515625</ele>
        <time>2011-07-12T10:23:21Z</time>
      </trkpt>
      <trkpt lat="44.99055" lon="5.2559">
        <ele>447.55816650391</ele>
        <time>2011-07-12T10:23:28Z</time>
      </trkpt>
      <trkpt lat="44.99043" lon="5.25558">
        <ele>451.82672119141</ele>
        <time>2011-07-12T10:23:35Z</time>
      </trkpt>
      <trkpt lat="44.9903" lon="5.25533">
        <ele>456.73089599609</ele>
        <time>2011-07-12T10:23:41Z</time>
      </trkpt>
      <trkpt lat="44.99015" lon="5.25513">
        <ele>459.32028198242</ele>
        <time>2011-07-12T10:23:47Z</time>
      </trkpt>
      <trkpt lat="44.98999" lon="5.25493">
        <ele>460.90664672852</ele>
        <time>2011-07-12T10:23:53Z</time>
      </trkpt>
      <trkpt lat="44.98976" lon="5.25468">
        <ele>459.55401611328</ele>
        <time>2011-07-12T10:24:02Z</time>
      </trkpt>
      <trkpt lat="44.98956" lon="5.25451">
        <ele>459.12554931641</ele>
        <time>2011-07-12T10:24:09Z</time>
      </trkpt>
      <trkpt lat="44.98923" lon="5.25425">
        <ele>458.44033813477</ele>
        <time>2011-07-12T10:24:20Z</time>
      </trkpt>
      <trkpt lat="44.98897" lon="5.2541">
        <ele>457.95791625977</ele>
        <time>2011-07-12T10:24:28Z</time>
      </trkpt>
      <trkpt lat="44.98872" lon="5.25396">
        <ele>458.5846862793</ele>
        <time>2011-07-12T10:24:35Z</time>
      </trkpt>
      <trkpt lat="44.98846" lon="5.25382">
        <ele>460.18954467773</ele>
        <time>2011-07-12T10:24:43Z</time>
      </trkpt>
      <trkpt lat="44.9882" lon="5.25372">
        <ele>462.80569458008</ele>
        <time>2011-07-12T10:24:51Z</time>
      </trkpt>
      <trkpt lat="44.98796" lon="5.25361">
        <ele>466.63739013672</ele>
        <time>2011-07-12T10:24:59Z</time>
      </trkpt>
      <trkpt lat="44.98768" lon="5.25353">
        <ele>469.56286621094</ele>
        <time>2011-07-12T10:25:08Z</time>
      </trkpt>
      <trkpt lat="44.9874" lon="5.25348">
        <ele>471.97525024414</ele>
        <time>2011-07-12T10:25:16Z</time>
      </trkpt>
      <trkpt lat="44.98707" lon="5.25342">
        <ele>471.33636474609</ele>
        <time>2011-07-12T10:25:25Z</time>
      </trkpt>
      <trkpt lat="44.9868" lon="5.25347">
        <ele>468.46615600586</ele>
        <time>2011-07-12T10:25:32Z</time>
      </trkpt>
      <trkpt lat="44.98649" lon="5.25362">
        <ele>463.77975463867</ele>
        <time>2011-07-12T10:25:41Z</time>
      </trkpt>
      <trkpt lat="44.98626" lon="5.25374">
        <ele>461.75735473633</ele>
        <time>2011-07-12T10:25:48Z</time>
      </trkpt>
      <trkpt lat="44.98606" lon="5.25383">
        <ele>461.59747314453</ele>
        <time>2011-07-12T10:25:55Z</time>
      </trkpt>
      <trkpt lat="44.98592" lon="5.25385">
        <ele>461.16833496094</ele>
        <time>2011-07-12T10:26:00Z</time>
      </trkpt>
      <trkpt lat="44.9858" lon="5.25375">
        <ele>460.37197875977</ele>
        <time>2011-07-12T10:26:05Z</time>
      </trkpt>
      <trkpt lat="44.98577" lon="5.25357">
        <ele>460</ele>
        <time>2011-07-12T10:26:09Z</time>
      </trkpt>
      <trkpt lat="44.98587" lon="5.25337">
        <ele>460.01446533203</ele>
        <time>2011-07-12T10:26:14Z</time>
      </trkpt>
      <trkpt lat="44.98603" lon="5.25313">
        <ele>460</ele>
        <time>2011-07-12T10:26:21Z</time>
      </trkpt>
      <trkpt lat="44.98618" lon="5.25292">
        <ele>460.90017700195</ele>
        <time>2011-07-12T10:26:28Z</time>
      </trkpt>
      <trkpt lat="44.98632" lon="5.2528">
        <ele>462.91372680664</ele>
        <time>2011-07-12T10:26:34Z</time>
      </trkpt>
      <trkpt lat="44.98638" lon="5.25277">
        <ele>463.951171875</ele>
        <time>2011-07-12T10:26:39Z</time>
      </trkpt>
      <trkpt lat="44.98638" lon="5.25272">
        <ele>464.34426879883</ele>
        <time>2011-07-12T10:27:05Z</time>
      </trkpt>
      <trkpt lat="44.98639" lon="5.25268">
        <ele>464.67947387695</ele>
        <time>2011-07-12T10:27:07Z</time>
      </trkpt>
      <trkpt lat="44.9865" lon="5.25251">
        <ele>468.31600952148</ele>
        <time>2011-07-12T10:27:14Z</time>
      </trkpt>
      <trkpt lat="44.98661" lon="5.25234">
        <ele>472.13681030273</ele>
        <time>2011-07-12T10:27:20Z</time>
      </trkpt>
      <trkpt lat="44.98672" lon="5.25212">
        <ele>475.1233215332</ele>
        <time>2011-07-12T10:27:26Z</time>
      </trkpt>
      <trkpt lat="44.98686" lon="5.25178">
        <ele>477.88763427734</ele>
        <time>2011-07-12T10:27:35Z</time>
      </trkpt>
      <trkpt lat="44.98695" lon="5.25155">
        <ele>479.03344726562</ele>
        <time>2011-07-12T10:27:41Z</time>
      </trkpt>
      <trkpt lat="44.98706" lon="5.25123">
        <ele>480.4602355957</ele>
        <time>2011-07-12T10:27:49Z</time>
      </trkpt>
      <trkpt lat="44.98712" lon="5.25094">
        <ele>484.30377197266</ele>
        <time>2011-07-12T10:27:56Z</time>
      </trkpt>
      <trkpt lat="44.98708" lon="5.25065">
        <ele>487.52307128906</ele>
        <time>2011-07-12T10:28:03Z</time>
      </trkpt>
      <trkpt lat="44.98701" lon="5.25039">
        <ele>490.01916503906</ele>
        <time>2011-07-12T10:28:09Z</time>
      </trkpt>
      <trkpt lat="44.98689" lon="5.25007">
        <ele>493.23266601562</ele>
        <time>2011-07-12T10:28:17Z</time>
      </trkpt>
      <trkpt lat="44.98674" lon="5.2499">
        <ele>495.87109375</ele>
        <time>2011-07-12T10:28:23Z</time>
      </trkpt>
      <trkpt lat="44.98655" lon="5.24983">
        <ele>497.02124023438</ele>
        <time>2011-07-12T10:28:30Z</time>
      </trkpt>
      <trkpt lat="44.98632" lon="5.24991">
        <ele>496.02520751953</ele>
        <time>2011-07-12T10:28:38Z</time>
      </trkpt>
      <trkpt lat="44.98612" lon="5.25004">
        <ele>495.54644775391</ele>
        <time>2011-07-12T10:28:45Z</time>
      </trkpt>
      <trkpt lat="44.9859" lon="5.2501">
        <ele>494.88763427734</ele>
        <time>2011-07-12T10:28:52Z</time>
      </trkpt>
      <trkpt lat="44.98567" lon="5.25011">
        <ele>497.14736938477</ele>
        <time>2011-07-12T10:28:59Z</time>
      </trkpt>
      <trkpt lat="44.98537" lon="5.2501">
        <ele>501.32821655273</ele>
        <time>2011-07-12T10:29:08Z</time>
      </trkpt>
      <trkpt lat="44.98516" lon="5.25009">
        <ele>503.01116943359</ele>
        <time>2011-07-12T10:29:15Z</time>
      </trkpt>
      <trkpt lat="44.98491" lon="5.25007">
        <ele>504.78704833984</ele>
        <time>2011-07-12T10:29:23Z</time>
      </trkpt>
      <trkpt lat="44.98469" lon="5.25006">
        <ele>507.49340820312</ele>
        <time>2011-07-12T10:29:30Z</time>
      </trkpt>
      <trkpt lat="44.98439" lon="5.25006">
        <ele>510.734375</ele>
        <time>2011-07-12T10:29:39Z</time>
      </trkpt>
      <trkpt lat="44.9841" lon="5.25006">
        <ele>512.56048583984</ele>
        <time>2011-07-12T10:29:48Z</time>
      </trkpt>
      <trkpt lat="44.98388" lon="5.25008">
        <ele>512.88952636719</ele>
        <time>2011-07-12T10:29:55Z</time>
      </trkpt>
      <trkpt lat="44.98367" lon="5.25017">
        <ele>513.16418457031</ele>
        <time>2011-07-12T10:30:02Z</time>
      </trkpt>
      <trkpt lat="44.98346" lon="5.25025">
        <ele>513.50750732422</ele>
        <time>2011-07-12T10:30:09Z</time>
      </trkpt>
      <trkpt lat="44.98323" lon="5.25028">
        <ele>514.02429199219</ele>
        <time>2011-07-12T10:30:16Z</time>
      </trkpt>
      <trkpt lat="44.98299" lon="5.25028">
        <ele>514.48071289062</ele>
        <time>2011-07-12T10:30:23Z</time>
      </trkpt>
      <trkpt lat="44.98275" lon="5.25029">
        <ele>515.90393066406</ele>
        <time>2011-07-12T10:30:30Z</time>
      </trkpt>
      <trkpt lat="44.98246" lon="5.25027">
        <ele>518.22692871094</ele>
        <time>2011-07-12T10:30:38Z</time>
      </trkpt>
      <trkpt lat="44.9822" lon="5.25017">
        <ele>520.20788574219</ele>
        <time>2011-07-12T10:30:46Z</time>
      </trkpt>
      <trkpt lat="44.98198" lon="5.25008">
        <ele>521.1142578125</ele>
        <time>2011-07-12T10:30:53Z</time>
      </trkpt>
      <trkpt lat="44.98168" lon="5.25002">
        <ele>521.73217773438</ele>
        <time>2011-07-12T10:31:01Z</time>
      </trkpt>
      <trkpt lat="44.98146" lon="5.25">
        <ele>520.619140625</ele>
        <time>2011-07-12T10:31:07Z</time>
      </trkpt>
      <trkpt lat="44.98127" lon="5.24995">
        <ele>521.02081298828</ele>
        <time>2011-07-12T10:31:13Z</time>
      </trkpt>
      <trkpt lat="44.98103" lon="5.24989">
        <ele>521.70263671875</ele>
        <time>2011-07-12T10:31:20Z</time>
      </trkpt>
      <trkpt lat="44.98065" lon="5.24981">
        <ele>522.56335449219</ele>
        <time>2011-07-12T10:31:31Z</time>
      </trkpt>
      <trkpt lat="44.98046" lon="5.24977">
        <ele>523.28216552734</ele>
        <time>2011-07-12T10:31:37Z</time>
      </trkpt>
      <trkpt lat="44.98024" lon="5.24976">
        <ele>523.64440917969</ele>
        <time>2011-07-12T10:31:43Z</time>
      </trkpt>
      <trkpt lat="44.97985" lon="5.24987">
        <ele>524.43920898438</ele>
        <time>2011-07-12T10:31:53Z</time>
      </trkpt>
      <trkpt lat="44.97963" lon="5.24992">
        <ele>524.50103759766</ele>
        <time>2011-07-12T10:31:59Z</time>
      </trkpt>
      <trkpt lat="44.97929" lon="5.25002">
        <ele>523.86267089844</ele>
        <time>2011-07-12T10:32:08Z</time>
      </trkpt>
      <trkpt lat="44.97909" lon="5.25007">
        <ele>523.13989257812</ele>
        <time>2011-07-12T10:32:14Z</time>
      </trkpt>
      <trkpt lat="44.9789" lon="5.25011">
        <ele>521.849609375</ele>
        <time>2011-07-12T10:32:20Z</time>
      </trkpt>
      <trkpt lat="44.97876" lon="5.25014">
        <ele>521.49621582031</ele>
        <time>2011-07-12T10:32:26Z</time>
      </trkpt>
      <trkpt lat="44.97861" lon="5.25013">
        <ele>521.55932617188</ele>
        <time>2011-07-12T10:32:32Z</time>
      </trkpt>
      <trkpt lat="44.97854" lon="5.25004">
        <ele>522.29577636719</ele>
        <time>2011-07-12T10:32:36Z</time>
      </trkpt>
      <trkpt lat="44.97853" lon="5.25001">
        <ele>522.60302734375</ele>
        <time>2011-07-12T10:32:37Z</time>
      </trkpt>
      <trkpt lat="44.9786" lon="5.24981">
        <ele>525.73364257812</ele>
        <time>2011-07-12T10:32:44Z</time>
      </trkpt>
      <trkpt lat="44.97866" lon="5.24972">
        <ele>527.12475585938</ele>
        <time>2011-07-12T10:32:47Z</time>
      </trkpt>
      <trkpt lat="44.97885" lon="5.24949">
        <ele>531.09869384766</ele>
        <time>2011-07-12T10:32:55Z</time>
      </trkpt>
      <trkpt lat="44.979" lon="5.24933">
        <ele>533.23553466797</ele>
        <time>2011-07-12T10:33:01Z</time>
      </trkpt>
      <trkpt lat="44.97908" lon="5.2493">
        <ele>533.59088134766</ele>
        <time>2011-07-12T10:33:04Z</time>
      </trkpt>
      <trkpt lat="44.97919" lon="5.24925">
        <ele>534.09039306641</ele>
        <time>2011-07-12T10:33:08Z</time>
      </trkpt>
      <trkpt lat="44.97934" lon="5.24923">
        <ele>534.33758544922</ele>
        <time>2011-07-12T10:33:13Z</time>
      </trkpt>
      <trkpt lat="44.97951" lon="5.24916">
        <ele>534.9130859375</ele>
        <time>2011-07-12T10:33:19Z</time>
      </trkpt>
      <trkpt lat="44.9797" lon="5.24899">
        <ele>536.61596679688</ele>
        <time>2011-07-12T10:33:26Z</time>
      </trkpt>
      <trkpt lat="44.97987" lon="5.24875">
        <ele>538.18695068359</ele>
        <time>2011-07-12T10:33:34Z</time>
      </trkpt>
      <trkpt lat="44.98001" lon="5.24856">
        <ele>539.90869140625</ele>
        <time>2011-07-12T10:33:41Z</time>
      </trkpt>
      <trkpt lat="44.98018" lon="5.24836">
        <ele>542.25067138672</ele>
        <time>2011-07-12T10:33:48Z</time>
      </trkpt>
      <trkpt lat="44.98032" lon="5.24821">
        <ele>544.68286132812</ele>
        <time>2011-07-12T10:33:54Z</time>
      </trkpt>
      <trkpt lat="44.98045" lon="5.24805">
        <ele>548.71960449219</ele>
        <time>2011-07-12T10:34:00Z</time>
      </trkpt>
      <trkpt lat="44.98061" lon="5.24786">
        <ele>553.78448486328</ele>
        <time>2011-07-12T10:34:07Z</time>
      </trkpt>
      <trkpt lat="44.98079" lon="5.24767">
        <ele>559.54669189453</ele>
        <time>2011-07-12T10:34:15Z</time>
      </trkpt>
      <trkpt lat="44.98096" lon="5.24747">
        <ele>563.75317382812</ele>
        <time>2011-07-12T10:34:23Z</time>
      </trkpt>
      <trkpt lat="44.98107" lon="5.24731">
        <ele>565.90411376953</ele>
        <time>2011-07-12T10:34:29Z</time>
      </trkpt>
      <trkpt lat="44.98116" lon="5.24709">
        <ele>569.21276855469</ele>
        <time>2011-07-12T10:34:36Z</time>
      </trkpt>
      <trkpt lat="44.98114" lon="5.2469">
        <ele>571.79284667969</ele>
        <time>2011-07-12T10:34:41Z</time>
      </trkpt>
      <trkpt lat="44.98103" lon="5.24682">
        <ele>572.59375</ele>
        <time>2011-07-12T10:34:45Z</time>
      </trkpt>
      <trkpt lat="44.98089" lon="5.24688">
        <ele>571.2724609375</ele>
        <time>2011-07-12T10:34:50Z</time>
      </trkpt>
      <trkpt lat="44.9807" lon="5.24705">
        <ele>568.04919433594</ele>
        <time>2011-07-12T10:34:57Z</time>
      </trkpt>
      <trkpt lat="44.98043" lon="5.24724">
        <ele>563.49456787109</ele>
        <time>2011-07-12T10:35:06Z</time>
      </trkpt>
      <trkpt lat="44.98014" lon="5.24736">
        <ele>559.30963134766</ele>
        <time>2011-07-12T10:35:15Z</time>
      </trkpt>
      <trkpt lat="44.97988" lon="5.24746">
        <ele>557.38684082031</ele>
        <time>2011-07-12T10:35:24Z</time>
      </trkpt>
      <trkpt lat="44.97964" lon="5.24749">
        <ele>557.6904296875</ele>
        <time>2011-07-12T10:35:32Z</time>
      </trkpt>
      <trkpt lat="44.97936" lon="5.24747">
        <ele>559.31475830078</ele>
        <time>2011-07-12T10:35:41Z</time>
      </trkpt>
      <trkpt lat="44.97927" lon="5.24747">
        <ele>559.36627197266</ele>
        <time>2011-07-12T10:35:44Z</time>
      </trkpt>
      <trkpt lat="44.97915" lon="5.24733">
        <ele>560.87322998047</ele>
        <time>2011-07-12T10:35:49Z</time>
      </trkpt>
      <trkpt lat="44.979" lon="5.24712">
        <ele>565.17547607422</ele>
        <time>2011-07-12T10:35:56Z</time>
      </trkpt>
      <trkpt lat="44.97894" lon="5.24697">
        <ele>568.92901611328</ele>
        <time>2011-07-12T10:36:01Z</time>
      </trkpt>
      <trkpt lat="44.97891" lon="5.24672">
        <ele>573.86505126953</ele>
        <time>2011-07-12T10:36:08Z</time>
      </trkpt>
      <trkpt lat="44.9789" lon="5.24647">
        <ele>577.69909667969</ele>
        <time>2011-07-12T10:36:15Z</time>
      </trkpt>
      <trkpt lat="44.97889" lon="5.24629">
        <ele>581.68005371094</ele>
        <time>2011-07-12T10:36:21Z</time>
      </trkpt>
      <trkpt lat="44.9788" lon="5.24611">
        <ele>587.70550537109</ele>
        <time>2011-07-12T10:36:27Z</time>
      </trkpt>
      <trkpt lat="44.97864" lon="5.24606">
        <ele>589.99530029297</ele>
        <time>2011-07-12T10:36:32Z</time>
      </trkpt>
      <trkpt lat="44.97843" lon="5.24609">
        <ele>590.23590087891</ele>
        <time>2011-07-12T10:36:39Z</time>
      </trkpt>
      <trkpt lat="44.97825" lon="5.2461">
        <ele>590.37744140625</ele>
        <time>2011-07-12T10:36:45Z</time>
      </trkpt>
      <trkpt lat="44.9781" lon="5.24602">
        <ele>592.42016601562</ele>
        <time>2011-07-12T10:36:50Z</time>
      </trkpt>
      <trkpt lat="44.97795" lon="5.24588">
        <ele>595.15686035156</ele>
        <time>2011-07-12T10:36:56Z</time>
      </trkpt>
      <trkpt lat="44.9778" lon="5.2457">
        <ele>598.65954589844</ele>
        <time>2011-07-12T10:37:03Z</time>
      </trkpt>
      <trkpt lat="44.97765" lon="5.24547">
        <ele>603.45330810547</ele>
        <time>2011-07-12T10:37:10Z</time>
      </trkpt>
      <trkpt lat="44.97749" lon="5.24522">
        <ele>607.46722412109</ele>
        <time>2011-07-12T10:37:18Z</time>
      </trkpt>
      <trkpt lat="44.97736" lon="5.24504">
        <ele>608.60705566406</ele>
        <time>2011-07-12T10:37:24Z</time>
      </trkpt>
      <trkpt lat="44.97723" lon="5.24483">
        <ele>611.08190917969</ele>
        <time>2011-07-12T10:37:31Z</time>
      </trkpt>
      <trkpt lat="44.97711" lon="5.24464">
        <ele>612.70727539062</ele>
        <time>2011-07-12T10:37:38Z</time>
      </trkpt>
      <trkpt lat="44.97694" lon="5.24445">
        <ele>612.93414306641</ele>
        <time>2011-07-12T10:37:46Z</time>
      </trkpt>
      <trkpt lat="44.97678" lon="5.24437">
        <ele>613.54602050781</ele>
        <time>2011-07-12T10:37:52Z</time>
      </trkpt>
      <trkpt lat="44.97654" lon="5.24432">
        <ele>612.83721923828</ele>
        <time>2011-07-12T10:38:01Z</time>
      </trkpt>
      <trkpt lat="44.97635" lon="5.24428">
        <ele>612.109375</ele>
        <time>2011-07-12T10:38:08Z</time>
      </trkpt>
      <trkpt lat="44.97616" lon="5.24421">
        <ele>611.73168945312</ele>
        <time>2011-07-12T10:38:15Z</time>
      </trkpt>
      <trkpt lat="44.97597" lon="5.24413">
        <ele>611.48223876953</ele>
        <time>2011-07-12T10:38:22Z</time>
      </trkpt>
      <trkpt lat="44.97577" lon="5.24395">
        <ele>612.88513183594</ele>
        <time>2011-07-12T10:38:30Z</time>
      </trkpt>
      <trkpt lat="44.97564" lon="5.24374">
        <ele>614.33874511719</ele>
        <time>2011-07-12T10:38:37Z</time>
      </trkpt>
      <trkpt lat="44.97554" lon="5.24353">
        <ele>615.83184814453</ele>
        <time>2011-07-12T10:38:44Z</time>
      </trkpt>
      <trkpt lat="44.97546" lon="5.24339">
        <ele>617.34588623047</ele>
        <time>2011-07-12T10:38:50Z</time>
      </trkpt>
      <trkpt lat="44.97536" lon="5.24329">
        <ele>618.30554199219</ele>
        <time>2011-07-12T10:38:55Z</time>
      </trkpt>
      <trkpt lat="44.97524" lon="5.24325">
        <ele>618.56988525391</ele>
        <time>2011-07-12T10:39:00Z</time>
      </trkpt>
      <trkpt lat="44.97508" lon="5.2433">
        <ele>618.27459716797</ele>
        <time>2011-07-12T10:39:06Z</time>
      </trkpt>
      <trkpt lat="44.97495" lon="5.2434">
        <ele>617.47839355469</ele>
        <time>2011-07-12T10:39:12Z</time>
      </trkpt>
      <trkpt lat="44.97485" lon="5.24358">
        <ele>615.74475097656</ele>
        <time>2011-07-12T10:39:18Z</time>
      </trkpt>
      <trkpt lat="44.97485" lon="5.24381">
        <ele>614.42687988281</ele>
        <time>2011-07-12T10:39:24Z</time>
      </trkpt>
      <trkpt lat="44.97492" lon="5.24402">
        <ele>612.89379882812</ele>
        <time>2011-07-12T10:39:30Z</time>
      </trkpt>
      <trkpt lat="44.975" lon="5.24422">
        <ele>611.404296875</ele>
        <time>2011-07-12T10:39:36Z</time>
      </trkpt>
      <trkpt lat="44.97494" lon="5.24432">
        <ele>610.21539306641</ele>
        <time>2011-07-12T10:39:40Z</time>
      </trkpt>
      <trkpt lat="44.97483" lon="5.24425">
        <ele>610.69262695312</ele>
        <time>2011-07-12T10:39:44Z</time>
      </trkpt>
      <trkpt lat="44.97464" lon="5.24404">
        <ele>611.83343505859</ele>
        <time>2011-07-12T10:39:52Z</time>
      </trkpt>
      <trkpt lat="44.97443" lon="5.2438">
        <ele>612.50109863281</ele>
        <time>2011-07-12T10:40:00Z</time>
      </trkpt>
      <trkpt lat="44.97433" lon="5.2435">
        <ele>614.49633789062</ele>
        <time>2011-07-12T10:40:07Z</time>
      </trkpt>
      <trkpt lat="44.97425" lon="5.24323">
        <ele>617.01007080078</ele>
        <time>2011-07-12T10:40:14Z</time>
      </trkpt>
      <trkpt lat="44.97414" lon="5.24297">
        <ele>619.01171875</ele>
        <time>2011-07-12T10:40:21Z</time>
      </trkpt>
      <trkpt lat="44.97403" lon="5.24276">
        <ele>620.78521728516</ele>
        <time>2011-07-12T10:40:27Z</time>
      </trkpt>
      <trkpt lat="44.97388" lon="5.24253">
        <ele>623.21020507812</ele>
        <time>2011-07-12T10:40:34Z</time>
      </trkpt>
      <trkpt lat="44.97375" lon="5.2423">
        <ele>623.78259277344</ele>
        <time>2011-07-12T10:40:41Z</time>
      </trkpt>
      <trkpt lat="44.9736" lon="5.24205">
        <ele>625.87872314453</ele>
        <time>2011-07-12T10:40:49Z</time>
      </trkpt>
      <trkpt lat="44.97345" lon="5.2418">
        <ele>627.67565917969</ele>
        <time>2011-07-12T10:40:56Z</time>
      </trkpt>
      <trkpt lat="44.9733" lon="5.24157">
        <ele>627.53466796875</ele>
        <time>2011-07-12T10:41:03Z</time>
      </trkpt>
      <trkpt lat="44.97309" lon="5.24132">
        <ele>623.69494628906</ele>
        <time>2011-07-12T10:41:12Z</time>
      </trkpt>
      <trkpt lat="44.97292" lon="5.24112">
        <ele>622.84869384766</ele>
        <time>2011-07-12T10:41:19Z</time>
      </trkpt>
      <trkpt lat="44.97275" lon="5.24092">
        <ele>618.30328369141</ele>
        <time>2011-07-12T10:41:26Z</time>
      </trkpt>
      <trkpt lat="44.97262" lon="5.24069">
        <ele>618.96392822266</ele>
        <time>2011-07-12T10:41:33Z</time>
      </trkpt>
      <trkpt lat="44.97246" lon="5.24037">
        <ele>617.02093505859</ele>
        <time>2011-07-12T10:41:42Z</time>
      </trkpt>
      <trkpt lat="44.97232" lon="5.24001">
        <ele>622.37976074219</ele>
        <time>2011-07-12T10:41:51Z</time>
      </trkpt>
      <trkpt lat="44.97227" lon="5.23965">
        <ele>629.54583740234</ele>
        <time>2011-07-12T10:41:59Z</time>
      </trkpt>
      <trkpt lat="44.97222" lon="5.23928">
        <ele>637.12286376953</ele>
        <time>2011-07-12T10:42:07Z</time>
      </trkpt>
      <trkpt lat="44.97216" lon="5.23888">
        <ele>645.07678222656</ele>
        <time>2011-07-12T10:42:16Z</time>
      </trkpt>
      <trkpt lat="44.97215" lon="5.23863">
        <ele>652.09924316406</ele>
        <time>2011-07-12T10:42:22Z</time>
      </trkpt>
      <trkpt lat="44.9721" lon="5.23829">
        <ele>651.29632568359</ele>
        <time>2011-07-12T10:42:31Z</time>
      </trkpt>
      <trkpt lat="44.97203" lon="5.23806">
        <ele>649.47338867188</ele>
        <time>2011-07-12T10:42:37Z</time>
      </trkpt>
      <trkpt lat="44.97194" lon="5.23779">
        <ele>649.07824707031</ele>
        <time>2011-07-12T10:42:44Z</time>
      </trkpt>
      <trkpt lat="44.97186" lon="5.23748">
        <ele>641.32183837891</ele>
        <time>2011-07-12T10:42:51Z</time>
      </trkpt>
      <trkpt lat="44.97185" lon="5.23714">
        <ele>643.30926513672</ele>
        <time>2011-07-12T10:42:58Z</time>
      </trkpt>
      <trkpt lat="44.97186" lon="5.23687">
        <ele>646.34143066406</ele>
        <time>2011-07-12T10:43:04Z</time>
      </trkpt>
      <trkpt lat="44.97184" lon="5.23654">
        <ele>650.25708007812</ele>
        <time>2011-07-12T10:43:11Z</time>
      </trkpt>
      <trkpt lat="44.97179" lon="5.23614">
        <ele>655.30419921875</ele>
        <time>2011-07-12T10:43:18Z</time>
      </trkpt>
      <trkpt lat="44.97178" lon="5.23602">
        <ele>656.68347167969</ele>
        <time>2011-07-12T10:43:20Z</time>
      </trkpt>
      <trkpt lat="44.9717" lon="5.2356">
        <ele>661.36529541016</ele>
        <time>2011-07-12T10:43:28Z</time>
      </trkpt>
      <trkpt lat="44.97162" lon="5.23526">
        <ele>661.77404785156</ele>
        <time>2011-07-12T10:43:36Z</time>
      </trkpt>
      <trkpt lat="44.97155" lon="5.23491">
        <ele>661.79364013672</ele>
        <time>2011-07-12T10:43:44Z</time>
      </trkpt>
      <trkpt lat="44.97148" lon="5.23455">
        <ele>663.30657958984</ele>
        <time>2011-07-12T10:43:52Z</time>
      </trkpt>
      <trkpt lat="44.97139" lon="5.23422">
        <ele>664.95440673828</ele>
        <time>2011-07-12T10:44:00Z</time>
      </trkpt>
      <trkpt lat="44.97129" lon="5.23386">
        <ele>666.26824951172</ele>
        <time>2011-07-12T10:44:09Z</time>
      </trkpt>
      <trkpt lat="44.9712" lon="5.23355">
        <ele>668.46594238281</ele>
        <time>2011-07-12T10:44:17Z</time>
      </trkpt>
      <trkpt lat="44.97111" lon="5.23328">
        <ele>669.51470947266</ele>
        <time>2011-07-12T10:44:24Z</time>
      </trkpt>
      <trkpt lat="44.97101" lon="5.23295">
        <ele>669.46502685547</ele>
        <time>2011-07-12T10:44:32Z</time>
      </trkpt>
      <trkpt lat="44.97088" lon="5.23257">
        <ele>667.97052001953</ele>
        <time>2011-07-12T10:44:41Z</time>
      </trkpt>
      <trkpt lat="44.97076" lon="5.23219">
        <ele>668.53851318359</ele>
        <time>2011-07-12T10:44:50Z</time>
      </trkpt>
      <trkpt lat="44.97062" lon="5.23177">
        <ele>664.88018798828</ele>
        <time>2011-07-12T10:45:00Z</time>
      </trkpt>
      <trkpt lat="44.97053" lon="5.23135">
        <ele>668.22991943359</ele>
        <time>2011-07-12T10:45:09Z</time>
      </trkpt>
      <trkpt lat="44.97047" lon="5.23094">
        <ele>673.12109375</ele>
        <time>2011-07-12T10:45:18Z</time>
      </trkpt>
      <trkpt lat="44.9704" lon="5.23047">
        <ele>678.26318359375</ele>
        <time>2011-07-12T10:45:29Z</time>
      </trkpt>
      <trkpt lat="44.97031" lon="5.23015">
        <ele>681.60778808594</ele>
        <time>2011-07-12T10:45:37Z</time>
      </trkpt>
      <trkpt lat="44.9702" lon="5.2299">
        <ele>679.80133056641</ele>
        <time>2011-07-12T10:45:45Z</time>
      </trkpt>
      <trkpt lat="44.97008" lon="5.22962">
        <ele>676.83660888672</ele>
        <time>2011-07-12T10:45:53Z</time>
      </trkpt>
      <trkpt lat="44.96994" lon="5.22937">
        <ele>675.02490234375</ele>
        <time>2011-07-12T10:46:01Z</time>
      </trkpt>
      <trkpt lat="44.96984" lon="5.22913">
        <ele>671.63580322266</ele>
        <time>2011-07-12T10:46:08Z</time>
      </trkpt>
      <trkpt lat="44.96976" lon="5.22888">
        <ele>669.83551025391</ele>
        <time>2011-07-12T10:46:15Z</time>
      </trkpt>
      <trkpt lat="44.96968" lon="5.22859">
        <ele>668.88287353516</ele>
        <time>2011-07-12T10:46:23Z</time>
      </trkpt>
      <trkpt lat="44.96965" lon="5.2284">
        <ele>669.60992431641</ele>
        <time>2011-07-12T10:46:28Z</time>
      </trkpt>
      <trkpt lat="44.96963" lon="5.2282">
        <ele>671.11224365234</ele>
        <time>2011-07-12T10:46:34Z</time>
      </trkpt>
      <trkpt lat="44.9696" lon="5.22794">
        <ele>672.349609375</ele>
        <time>2011-07-12T10:46:41Z</time>
      </trkpt>
      <trkpt lat="44.96959" lon="5.22764">
        <ele>673.59539794922</ele>
        <time>2011-07-12T10:46:49Z</time>
      </trkpt>
      <trkpt lat="44.96956" lon="5.22721">
        <ele>677.19586181641</ele>
        <time>2011-07-12T10:47:00Z</time>
      </trkpt>
      <trkpt lat="44.96958" lon="5.22684">
        <ele>680.84710693359</ele>
        <time>2011-07-12T10:47:09Z</time>
      </trkpt>
      <trkpt lat="44.96962" lon="5.22658">
        <ele>685.25518798828</ele>
        <time>2011-07-12T10:47:16Z</time>
      </trkpt>
      <trkpt lat="44.96966" lon="5.22635">
        <ele>689.6748046875</ele>
        <time>2011-07-12T10:47:22Z</time>
      </trkpt>
      <trkpt lat="44.96967" lon="5.22617">
        <ele>692.06665039062</ele>
        <time>2011-07-12T10:47:27Z</time>
      </trkpt>
      <trkpt lat="44.96962" lon="5.22596">
        <ele>693.33599853516</ele>
        <time>2011-07-12T10:47:32Z</time>
      </trkpt>
      <trkpt lat="44.9695" lon="5.2257">
        <ele>693.24566650391</ele>
        <time>2011-07-12T10:47:40Z</time>
      </trkpt>
      <trkpt lat="44.96938" lon="5.22546">
        <ele>694.69964599609</ele>
        <time>2011-07-12T10:47:47Z</time>
      </trkpt>
      <trkpt lat="44.9693" lon="5.22519">
        <ele>699.00622558594</ele>
        <time>2011-07-12T10:47:55Z</time>
      </trkpt>
      <trkpt lat="44.96925" lon="5.22496">
        <ele>703.32006835938</ele>
        <time>2011-07-12T10:48:02Z</time>
      </trkpt>
      <trkpt lat="44.96918" lon="5.22472">
        <ele>709.95611572266</ele>
        <time>2011-07-12T10:48:09Z</time>
      </trkpt>
      <trkpt lat="44.96909" lon="5.22443">
        <ele>718.9091796875</ele>
        <time>2011-07-12T10:48:17Z</time>
      </trkpt>
      <trkpt lat="44.96901" lon="5.22419">
        <ele>722.80590820312</ele>
        <time>2011-07-12T10:48:24Z</time>
      </trkpt>
      <trkpt lat="44.96886" lon="5.22393">
        <ele>727.78302001953</ele>
        <time>2011-07-12T10:48:32Z</time>
      </trkpt>
      <trkpt lat="44.9687" lon="5.22376">
        <ele>724.59692382812</ele>
        <time>2011-07-12T10:48:39Z</time>
      </trkpt>
      <trkpt lat="44.96848" lon="5.22364">
        <ele>720.68994140625</ele>
        <time>2011-07-12T10:48:47Z</time>
      </trkpt>
      <trkpt lat="44.96822" lon="5.22355">
        <ele>721.28851318359</ele>
        <time>2011-07-12T10:48:56Z</time>
      </trkpt>
      <trkpt lat="44.96802" lon="5.22354">
        <ele>720.68951416016</ele>
        <time>2011-07-12T10:49:03Z</time>
      </trkpt>
      <trkpt lat="44.96784" lon="5.22357">
        <ele>715.94506835938</ele>
        <time>2011-07-12T10:49:10Z</time>
      </trkpt>
      <trkpt lat="44.96765" lon="5.22364">
        <ele>712.08660888672</ele>
        <time>2011-07-12T10:49:17Z</time>
      </trkpt>
      <trkpt lat="44.96746" lon="5.2237">
        <ele>710.53503417969</ele>
        <time>2011-07-12T10:49:24Z</time>
      </trkpt>
      <trkpt lat="44.96724" lon="5.22377">
        <ele>708.73468017578</ele>
        <time>2011-07-12T10:49:32Z</time>
      </trkpt>
      <trkpt lat="44.96703" lon="5.22373">
        <ele>706.22393798828</ele>
        <time>2011-07-12T10:49:39Z</time>
      </trkpt>
      <trkpt lat="44.96682" lon="5.22358">
        <ele>707.62536621094</ele>
        <time>2011-07-12T10:49:46Z</time>
      </trkpt>
      <trkpt lat="44.96667" lon="5.22338">
        <ele>712.29284667969</ele>
        <time>2011-07-12T10:49:53Z</time>
      </trkpt>
      <trkpt lat="44.96659" lon="5.22321">
        <ele>716.34375</ele>
        <time>2011-07-12T10:49:58Z</time>
      </trkpt>
      <trkpt lat="44.96655" lon="5.223">
        <ele>721.09765625</ele>
        <time>2011-07-12T10:50:04Z</time>
      </trkpt>
      <trkpt lat="44.96649" lon="5.22277">
        <ele>723.43695068359</ele>
        <time>2011-07-12T10:50:10Z</time>
      </trkpt>
      <trkpt lat="44.96639" lon="5.22252">
        <ele>729.52709960938</ele>
        <time>2011-07-12T10:50:17Z</time>
      </trkpt>
      <trkpt lat="44.96628" lon="5.22224">
        <ele>729.34326171875</ele>
        <time>2011-07-12T10:50:24Z</time>
      </trkpt>
      <trkpt lat="44.96613" lon="5.22201">
        <ele>729.45574951172</ele>
        <time>2011-07-12T10:50:31Z</time>
      </trkpt>
      <trkpt lat="44.96598" lon="5.22177">
        <ele>730.09020996094</ele>
        <time>2011-07-12T10:50:38Z</time>
      </trkpt>
      <trkpt lat="44.96583" lon="5.22153">
        <ele>727.44482421875</ele>
        <time>2011-07-12T10:50:44Z</time>
      </trkpt>
      <trkpt lat="44.96565" lon="5.22138">
        <ele>724.16070556641</ele>
        <time>2011-07-12T10:50:49Z</time>
      </trkpt>
      <trkpt lat="44.96539" lon="5.22104">
        <ele>729.08648681641</ele>
        <time>2011-07-12T10:50:57Z</time>
      </trkpt>
      <trkpt lat="44.96523" lon="5.22078">
        <ele>732.46600341797</ele>
        <time>2011-07-12T10:51:02Z</time>
      </trkpt>
      <trkpt lat="44.96517" lon="5.22066">
        <ele>736.13940429688</ele>
        <time>2011-07-12T10:51:04Z</time>
      </trkpt>
      <trkpt lat="44.96492" lon="5.22026">
        <ele>745.21759033203</ele>
        <time>2011-07-12T10:51:11Z</time>
      </trkpt>
      <trkpt lat="44.96463" lon="5.21993">
        <ele>746.48742675781</ele>
        <time>2011-07-12T10:51:18Z</time>
      </trkpt>
      <trkpt lat="44.9645" lon="5.21981">
        <ele>748.77032470703</ele>
        <time>2011-07-12T10:51:21Z</time>
      </trkpt>
      <trkpt lat="44.96431" lon="5.21969">
        <ele>750.49060058594</ele>
        <time>2011-07-12T10:51:25Z</time>
      </trkpt>
      <trkpt lat="44.96412" lon="5.21962">
        <ele>748.58880615234</ele>
        <time>2011-07-12T10:51:29Z</time>
      </trkpt>
      <trkpt lat="44.96392" lon="5.21951">
        <ele>744.81567382812</ele>
        <time>2011-07-12T10:51:33Z</time>
      </trkpt>
      <trkpt lat="44.96373" lon="5.21937">
        <ele>745.90936279297</ele>
        <time>2011-07-12T10:51:38Z</time>
      </trkpt>
      <trkpt lat="44.96352" lon="5.21926">
        <ele>745.92608642578</ele>
        <time>2011-07-12T10:51:44Z</time>
      </trkpt>
      <trkpt lat="44.96338" lon="5.21919">
        <ele>745.76403808594</ele>
        <time>2011-07-12T10:51:49Z</time>
      </trkpt>
      <trkpt lat="44.96322" lon="5.21915">
        <ele>744.42620849609</ele>
        <time>2011-07-12T10:51:54Z</time>
      </trkpt>
      <trkpt lat="44.96289" lon="5.21899">
        <ele>741.80029296875</ele>
        <time>2011-07-12T10:52:03Z</time>
      </trkpt>
      <trkpt lat="44.96266" lon="5.21877">
        <ele>741.88336181641</ele>
        <time>2011-07-12T10:52:11Z</time>
      </trkpt>
      <trkpt lat="44.96246" lon="5.21851">
        <ele>743.79449462891</ele>
        <time>2011-07-12T10:52:19Z</time>
      </trkpt>
      <trkpt lat="44.96231" lon="5.21834">
        <ele>744.27899169922</ele>
        <time>2011-07-12T10:52:25Z</time>
      </trkpt>
      <trkpt lat="44.96215" lon="5.21815">
        <ele>743.21252441406</ele>
        <time>2011-07-12T10:52:32Z</time>
      </trkpt>
      <trkpt lat="44.96198" lon="5.21795">
        <ele>745.75067138672</ele>
        <time>2011-07-12T10:52:39Z</time>
      </trkpt>
      <trkpt lat="44.96183" lon="5.21779">
        <ele>748.45440673828</ele>
        <time>2011-07-12T10:52:45Z</time>
      </trkpt>
      <trkpt lat="44.96168" lon="5.21765">
        <ele>749.07165527344</ele>
        <time>2011-07-12T10:52:51Z</time>
      </trkpt>
      <trkpt lat="44.96143" lon="5.21744">
        <ele>749.39282226562</ele>
        <time>2011-07-12T10:52:59Z</time>
      </trkpt>
      <trkpt lat="44.9614" lon="5.21741">
        <ele>749.130859375</ele>
        <time>2011-07-12T10:53:00Z</time>
      </trkpt>
      <trkpt lat="44.96114" lon="5.21726">
        <ele>748.56011962891</ele>
        <time>2011-07-12T10:53:07Z</time>
      </trkpt>
      <trkpt lat="44.96093" lon="5.21706">
        <ele>751.02856445312</ele>
        <time>2011-07-12T10:53:13Z</time>
      </trkpt>
      <trkpt lat="44.96077" lon="5.2168">
        <ele>755.42767333984</ele>
        <time>2011-07-12T10:53:19Z</time>
      </trkpt>
      <trkpt lat="44.96056" lon="5.21647">
        <ele>762.51867675781</ele>
        <time>2011-07-12T10:53:27Z</time>
      </trkpt>
      <trkpt lat="44.96036" lon="5.2163">
        <ele>767.23803710938</ele>
        <time>2011-07-12T10:53:33Z</time>
      </trkpt>
      <trkpt lat="44.96009" lon="5.21619">
        <ele>768.40148925781</ele>
        <time>2011-07-12T10:53:40Z</time>
      </trkpt>
      <trkpt lat="44.95986" lon="5.21615">
        <ele>767.37854003906</ele>
        <time>2011-07-12T10:53:46Z</time>
      </trkpt>
      <trkpt lat="44.95954" lon="5.21608">
        <ele>768.91802978516</ele>
        <time>2011-07-12T10:53:54Z</time>
      </trkpt>
      <trkpt lat="44.95921" lon="5.216">
        <ele>767.18182373047</ele>
        <time>2011-07-12T10:54:02Z</time>
      </trkpt>
      <trkpt lat="44.95896" lon="5.21591">
        <ele>767.93664550781</ele>
        <time>2011-07-12T10:54:08Z</time>
      </trkpt>
      <trkpt lat="44.95888" lon="5.21586">
        <ele>768.85717773438</ele>
        <time>2011-07-12T10:54:10Z</time>
      </trkpt>
      <trkpt lat="44.95866" lon="5.21572">
        <ele>772.73345947266</ele>
        <time>2011-07-12T10:54:15Z</time>
      </trkpt>
      <trkpt lat="44.95845" lon="5.21561">
        <ele>777.22906494141</ele>
        <time>2011-07-12T10:54:20Z</time>
      </trkpt>
      <trkpt lat="44.95823" lon="5.21557">
        <ele>777.61926269531</ele>
        <time>2011-07-12T10:54:25Z</time>
      </trkpt>
      <trkpt lat="44.95795" lon="5.21565">
        <ele>769.48577880859</ele>
        <time>2011-07-12T10:54:31Z</time>
      </trkpt>
      <trkpt lat="44.95785" lon="5.21569">
        <ele>767.13360595703</ele>
        <time>2011-07-12T10:54:33Z</time>
      </trkpt>
      <trkpt lat="44.95753" lon="5.2159">
        <ele>752.81207275391</ele>
        <time>2011-07-12T10:54:40Z</time>
      </trkpt>
      <trkpt lat="44.95745" lon="5.21596">
        <ele>749.47906494141</ele>
        <time>2011-07-12T10:54:42Z</time>
      </trkpt>
      <trkpt lat="44.95737" lon="5.21598">
        <ele>746.74688720703</ele>
        <time>2011-07-12T10:54:44Z</time>
      </trkpt>
      <trkpt lat="44.95711" lon="5.21594">
        <ele>743.91076660156</ele>
        <time>2011-07-12T10:54:50Z</time>
      </trkpt>
      <trkpt lat="44.95687" lon="5.21592">
        <ele>741.94750976562</ele>
        <time>2011-07-12T10:54:56Z</time>
      </trkpt>
      <trkpt lat="44.95664" lon="5.21578">
        <ele>740.91015625</ele>
        <time>2011-07-12T10:55:01Z</time>
      </trkpt>
      <trkpt lat="44.95644" lon="5.21558">
        <ele>740.89447021484</ele>
        <time>2011-07-12T10:55:07Z</time>
      </trkpt>
      <trkpt lat="44.95631" lon="5.21536">
        <ele>741.49822998047</ele>
        <time>2011-07-12T10:55:13Z</time>
      </trkpt>
      <trkpt lat="44.95624" lon="5.21508">
        <ele>754.64758300781</ele>
        <time>2011-07-12T10:55:19Z</time>
      </trkpt>
      <trkpt lat="44.95614" lon="5.21481">
        <ele>771.43865966797</ele>
        <time>2011-07-12T10:55:25Z</time>
      </trkpt>
      <trkpt lat="44.95597" lon="5.21455">
        <ele>783.19866943359</ele>
        <time>2011-07-12T10:55:32Z</time>
      </trkpt>
      <trkpt lat="44.95573" lon="5.21429">
        <ele>794.49542236328</ele>
        <time>2011-07-12T10:55:40Z</time>
      </trkpt>
      <trkpt lat="44.95549" lon="5.21413">
        <ele>800.61151123047</ele>
        <time>2011-07-12T10:55:47Z</time>
      </trkpt>
      <trkpt lat="44.95527" lon="5.21406">
        <ele>798.86450195312</ele>
        <time>2011-07-12T10:55:53Z</time>
      </trkpt>
      <trkpt lat="44.95507" lon="5.21403">
        <ele>795.26477050781</ele>
        <time>2011-07-12T10:55:59Z</time>
      </trkpt>
      <trkpt lat="44.95491" lon="5.21405">
        <ele>789.3232421875</ele>
        <time>2011-07-12T10:56:04Z</time>
      </trkpt>
      <trkpt lat="44.95474" lon="5.21413">
        <ele>779.01373291016</ele>
        <time>2011-07-12T10:56:10Z</time>
      </trkpt>
      <trkpt lat="44.95457" lon="5.21411">
        <ele>774.11114501953</ele>
        <time>2011-07-12T10:56:16Z</time>
      </trkpt>
      <trkpt lat="44.95444" lon="5.21402">
        <ele>773.66912841797</ele>
        <time>2011-07-12T10:56:22Z</time>
      </trkpt>
      <trkpt lat="44.9543" lon="5.21388">
        <ele>774.24346923828</ele>
        <time>2011-07-12T10:56:29Z</time>
      </trkpt>
      <trkpt lat="44.95418" lon="5.21374">
        <ele>780.98553466797</ele>
        <time>2011-07-12T10:56:35Z</time>
      </trkpt>
      <trkpt lat="44.95409" lon="5.21371">
        <ele>781.59558105469</ele>
        <time>2011-07-12T10:56:39Z</time>
      </trkpt>
      <trkpt lat="44.95396" lon="5.21366">
        <ele>781.59558105469</ele>
        <time>2011-07-12T10:56:45Z</time>
      </trkpt>
      <trkpt lat="44.95375" lon="5.21361">
        <ele>779.09466552734</ele>
        <time>2011-07-12T10:56:53Z</time>
      </trkpt>
      <trkpt lat="44.95361" lon="5.21358">
        <ele>776.62060546875</ele>
        <time>2011-07-12T10:56:59Z</time>
      </trkpt>
      <trkpt lat="44.95346" lon="5.21353">
        <ele>773.29034423828</ele>
        <time>2011-07-12T10:57:06Z</time>
      </trkpt>
      <trkpt lat="44.95333" lon="5.21343">
        <ele>775.59930419922</ele>
        <time>2011-07-12T10:57:12Z</time>
      </trkpt>
      <trkpt lat="44.95319" lon="5.21335">
        <ele>777.78015136719</ele>
        <time>2011-07-12T10:57:18Z</time>
      </trkpt>
      <trkpt lat="44.95302" lon="5.2133">
        <ele>774.39172363281</ele>
        <time>2011-07-12T10:57:24Z</time>
      </trkpt>
      <trkpt lat="44.9528" lon="5.21329">
        <ele>768.52459716797</ele>
        <time>2011-07-12T10:57:31Z</time>
      </trkpt>
      <trkpt lat="44.95259" lon="5.21319">
        <ele>766.43316650391</ele>
        <time>2011-07-12T10:57:38Z</time>
      </trkpt>
      <trkpt lat="44.95238" lon="5.21303">
        <ele>765.70965576172</ele>
        <time>2011-07-12T10:57:45Z</time>
      </trkpt>
      <trkpt lat="44.95209" lon="5.21278">
        <ele>772.92169189453</ele>
        <time>2011-07-12T10:57:54Z</time>
      </trkpt>
      <trkpt lat="44.95182" lon="5.21253">
        <ele>774.95751953125</ele>
        <time>2011-07-12T10:58:02Z</time>
      </trkpt>
      <trkpt lat="44.95154" lon="5.21223">
        <ele>784.68829345703</ele>
        <time>2011-07-12T10:58:10Z</time>
      </trkpt>
      <trkpt lat="44.9512" lon="5.21192">
        <ele>789.02648925781</ele>
        <time>2011-07-12T10:58:19Z</time>
      </trkpt>
      <trkpt lat="44.951" lon="5.21187">
        <ele>785.98681640625</ele>
        <time>2011-07-12T10:58:25Z</time>
      </trkpt>
      <trkpt lat="44.95079" lon="5.21178">
        <ele>784.75347900391</ele>
        <time>2011-07-12T10:58:32Z</time>
      </trkpt>
      <trkpt lat="44.95066" lon="5.21177">
        <ele>778.64459228516</ele>
        <time>2011-07-12T10:58:38Z</time>
      </trkpt>
      <trkpt lat="44.95054" lon="5.21175">
        <ele>773.23577880859</ele>
        <time>2011-07-12T10:58:43Z</time>
      </trkpt>
      <trkpt lat="44.95038" lon="5.21171">
        <ele>771.17156982422</ele>
        <time>2011-07-12T10:58:49Z</time>
      </trkpt>
      <trkpt lat="44.95021" lon="5.21156">
        <ele>773.26654052734</ele>
        <time>2011-07-12T10:58:56Z</time>
      </trkpt>
      <trkpt lat="44.95011" lon="5.21141">
        <ele>777.50317382812</ele>
        <time>2011-07-12T10:59:02Z</time>
      </trkpt>
      <trkpt lat="44.95001" lon="5.21128">
        <ele>779.78833007812</ele>
        <time>2011-07-12T10:59:08Z</time>
      </trkpt>
      <trkpt lat="44.94983" lon="5.2112">
        <ele>779.58911132812</ele>
        <time>2011-07-12T10:59:15Z</time>
      </trkpt>
      <trkpt lat="44.94967" lon="5.2111">
        <ele>779.39245605469</ele>
        <time>2011-07-12T10:59:21Z</time>
      </trkpt>
      <trkpt lat="44.94953" lon="5.21092">
        <ele>783.20910644531</ele>
        <time>2011-07-12T10:59:28Z</time>
      </trkpt>
      <trkpt lat="44.94941" lon="5.21066">
        <ele>789.52752685547</ele>
        <time>2011-07-12T10:59:36Z</time>
      </trkpt>
      <trkpt lat="44.94924" lon="5.21046">
        <ele>792.32708740234</ele>
        <time>2011-07-12T10:59:43Z</time>
      </trkpt>
      <trkpt lat="44.94905" lon="5.21022">
        <ele>794.78039550781</ele>
        <time>2011-07-12T10:59:52Z</time>
      </trkpt>
      <trkpt lat="44.94891" lon="5.21006">
        <ele>796.58123779297</ele>
        <time>2011-07-12T10:59:59Z</time>
      </trkpt>
      <trkpt lat="44.94876" lon="5.20992">
        <ele>797.68719482422</ele>
        <time>2011-07-12T11:00:06Z</time>
      </trkpt>
      <trkpt lat="44.94874" lon="5.2099">
        <ele>797.5849609375</ele>
        <time>2011-07-12T11:00:07Z</time>
      </trkpt>
      <trkpt lat="44.94864" lon="5.2098">
        <ele>797.38055419922</ele>
        <time>2011-07-12T11:00:12Z</time>
      </trkpt>
      <trkpt lat="44.94852" lon="5.20974">
        <ele>796.57385253906</ele>
        <time>2011-07-12T11:00:17Z</time>
      </trkpt>
      <trkpt lat="44.94848" lon="5.20972">
        <ele>796.55322265625</ele>
        <time>2011-07-12T11:00:19Z</time>
      </trkpt>
      <trkpt lat="44.94831" lon="5.2097">
        <ele>795.40496826172</ele>
        <time>2011-07-12T11:00:26Z</time>
      </trkpt>
      <trkpt lat="44.94813" lon="5.20975">
        <ele>790.71624755859</ele>
        <time>2011-07-12T11:00:33Z</time>
      </trkpt>
      <trkpt lat="44.94797" lon="5.20969">
        <ele>790.85168457031</ele>
        <time>2011-07-12T11:00:39Z</time>
      </trkpt>
      <trkpt lat="44.9478" lon="5.20953">
        <ele>795.35748291016</ele>
        <time>2011-07-12T11:00:46Z</time>
      </trkpt>
      <trkpt lat="44.94767" lon="5.20934">
        <ele>802.61706542969</ele>
        <time>2011-07-12T11:00:54Z</time>
      </trkpt>
      <trkpt lat="44.9476" lon="5.20922">
        <ele>808.53594970703</ele>
        <time>2011-07-12T11:00:59Z</time>
      </trkpt>
      <trkpt lat="44.94755" lon="5.20911">
        <ele>813.46038818359</ele>
        <time>2011-07-12T11:01:04Z</time>
      </trkpt>
      <trkpt lat="44.94754" lon="5.20909">
        <ele>814.11773681641</ele>
        <time>2011-07-12T11:01:05Z</time>
      </trkpt>
      <trkpt lat="44.94736" lon="5.20901">
        <ele>814.16705322266</ele>
        <time>2011-07-12T11:01:12Z</time>
      </trkpt>
      <trkpt lat="44.94718" lon="5.20909">
        <ele>807.90612792969</ele>
        <time>2011-07-12T11:01:19Z</time>
      </trkpt>
      <trkpt lat="44.94703" lon="5.20915">
        <ele>805.52001953125</ele>
        <time>2011-07-12T11:01:24Z</time>
      </trkpt>
      <trkpt lat="44.94679" lon="5.2091">
        <ele>804.486328125</ele>
        <time>2011-07-12T11:01:32Z</time>
      </trkpt>
      <trkpt lat="44.94655" lon="5.20908">
        <ele>801.77386474609</ele>
        <time>2011-07-12T11:01:40Z</time>
      </trkpt>
      <trkpt lat="44.9463" lon="5.20905">
        <ele>800.93548583984</ele>
        <time>2011-07-12T11:01:48Z</time>
      </trkpt>
      <trkpt lat="44.94608" lon="5.20898">
        <ele>801.86871337891</ele>
        <time>2011-07-12T11:01:55Z</time>
      </trkpt>
      <trkpt lat="44.94585" lon="5.20887">
        <ele>798.91644287109</ele>
        <time>2011-07-12T11:02:02Z</time>
      </trkpt>
      <trkpt lat="44.94557" lon="5.20874">
        <ele>797.16625976562</ele>
        <time>2011-07-12T11:02:11Z</time>
      </trkpt>
      <trkpt lat="44.94532" lon="5.20862">
        <ele>797.99792480469</ele>
        <time>2011-07-12T11:02:19Z</time>
      </trkpt>
      <trkpt lat="44.94509" lon="5.20852">
        <ele>796.93280029297</ele>
        <time>2011-07-12T11:02:27Z</time>
      </trkpt>
      <trkpt lat="44.94487" lon="5.20837">
        <ele>796.50549316406</ele>
        <time>2011-07-12T11:02:35Z</time>
      </trkpt>
      <trkpt lat="44.94461" lon="5.20816">
        <ele>800.24987792969</ele>
        <time>2011-07-12T11:02:45Z</time>
      </trkpt>
      <trkpt lat="44.94446" lon="5.20797">
        <ele>804.30865478516</ele>
        <time>2011-07-12T11:02:52Z</time>
      </trkpt>
      <trkpt lat="44.94431" lon="5.20782">
        <ele>807.78424072266</ele>
        <time>2011-07-12T11:02:58Z</time>
      </trkpt>
      <trkpt lat="44.94408" lon="5.20769">
        <ele>806.42852783203</ele>
        <time>2011-07-12T11:03:05Z</time>
      </trkpt>
      <trkpt lat="44.94386" lon="5.20759">
        <ele>805.72625732422</ele>
        <time>2011-07-12T11:03:12Z</time>
      </trkpt>
      <trkpt lat="44.94364" lon="5.20749">
        <ele>805.67602539062</ele>
        <time>2011-07-12T11:03:19Z</time>
      </trkpt>
      <trkpt lat="44.94332" lon="5.20736">
        <ele>811.01342773438</ele>
        <time>2011-07-12T11:03:29Z</time>
      </trkpt>
      <trkpt lat="44.94321" lon="5.20732">
        <ele>812.17388916016</ele>
        <time>2011-07-12T11:03:34Z</time>
      </trkpt>
      <trkpt lat="44.94305" lon="5.2072">
        <ele>816.67395019531</ele>
        <time>2011-07-12T11:03:41Z</time>
      </trkpt>
      <trkpt lat="44.94292" lon="5.20705">
        <ele>819.07720947266</ele>
        <time>2011-07-12T11:03:47Z</time>
      </trkpt>
      <trkpt lat="44.94271" lon="5.20679">
        <ele>825.23608398438</ele>
        <time>2011-07-12T11:03:55Z</time>
      </trkpt>
      <trkpt lat="44.94248" lon="5.20651">
        <ele>833.83435058594</ele>
        <time>2011-07-12T11:04:04Z</time>
      </trkpt>
      <trkpt lat="44.94231" lon="5.20628">
        <ele>838.03851318359</ele>
        <time>2011-07-12T11:04:11Z</time>
      </trkpt>
      <trkpt lat="44.94212" lon="5.20601">
        <ele>842.94592285156</ele>
        <time>2011-07-12T11:04:20Z</time>
      </trkpt>
      <trkpt lat="44.94189" lon="5.20576">
        <ele>848.54296875</ele>
        <time>2011-07-12T11:04:29Z</time>
      </trkpt>
      <trkpt lat="44.94168" lon="5.20564">
        <ele>844.75708007812</ele>
        <time>2011-07-12T11:04:36Z</time>
      </trkpt>
      <trkpt lat="44.9414" lon="5.20554">
        <ele>839.07318115234</ele>
        <time>2011-07-12T11:04:44Z</time>
      </trkpt>
      <trkpt lat="44.94123" lon="5.20539">
        <ele>839.59094238281</ele>
        <time>2011-07-12T11:04:50Z</time>
      </trkpt>
      <trkpt lat="44.9411" lon="5.20527">
        <ele>840.26342773438</ele>
        <time>2011-07-12T11:04:55Z</time>
      </trkpt>
      <trkpt lat="44.94089" lon="5.20523">
        <ele>830.64367675781</ele>
        <time>2011-07-12T11:05:01Z</time>
      </trkpt>
      <trkpt lat="44.94065" lon="5.20517">
        <ele>824.81066894531</ele>
        <time>2011-07-12T11:05:08Z</time>
      </trkpt>
      <trkpt lat="44.94043" lon="5.20506">
        <ele>822.39813232422</ele>
        <time>2011-07-12T11:05:14Z</time>
      </trkpt>
      <trkpt lat="44.94027" lon="5.2049">
        <ele>820.54223632812</ele>
        <time>2011-07-12T11:05:20Z</time>
      </trkpt>
      <trkpt lat="44.94009" lon="5.20467">
        <ele>823.93676757812</ele>
        <time>2011-07-12T11:05:27Z</time>
      </trkpt>
      <trkpt lat="44.93999" lon="5.20459">
        <ele>826.17932128906</ele>
        <time>2011-07-12T11:05:30Z</time>
      </trkpt>
      <trkpt lat="44.93967" lon="5.20436">
        <ele>831.37890625</ele>
        <time>2011-07-12T11:05:38Z</time>
      </trkpt>
      <trkpt lat="44.93942" lon="5.20418">
        <ele>833.91436767578</ele>
        <time>2011-07-12T11:05:44Z</time>
      </trkpt>
      <trkpt lat="44.93917" lon="5.20401">
        <ele>840.3818359375</ele>
        <time>2011-07-12T11:05:50Z</time>
      </trkpt>
      <trkpt lat="44.93893" lon="5.2038">
        <ele>843.79699707031</ele>
        <time>2011-07-12T11:05:57Z</time>
      </trkpt>
      <trkpt lat="44.93879" lon="5.20354">
        <ele>856.56555175781</ele>
        <time>2011-07-12T11:06:03Z</time>
      </trkpt>
      <trkpt lat="44.93867" lon="5.20337">
        <ele>860.54919433594</ele>
        <time>2011-07-12T11:06:08Z</time>
      </trkpt>
      <trkpt lat="44.93854" lon="5.20328">
        <ele>862.26782226562</ele>
        <time>2011-07-12T11:06:13Z</time>
      </trkpt>
      <trkpt lat="44.93835" lon="5.20314">
        <ele>868.44763183594</ele>
        <time>2011-07-12T11:06:19Z</time>
      </trkpt>
      <trkpt lat="44.93817" lon="5.20302">
        <ele>871.68316650391</ele>
        <time>2011-07-12T11:06:25Z</time>
      </trkpt>
      <trkpt lat="44.93796" lon="5.20288">
        <ele>871.21844482422</ele>
        <time>2011-07-12T11:06:31Z</time>
      </trkpt>
      <trkpt lat="44.93765" lon="5.20269">
        <ele>868.98059082031</ele>
        <time>2011-07-12T11:06:39Z</time>
      </trkpt>
      <trkpt lat="44.93731" lon="5.2025">
        <ele>869.31994628906</ele>
        <time>2011-07-12T11:06:47Z</time>
      </trkpt>
      <trkpt lat="44.93695" lon="5.20226">
        <ele>879.24652099609</ele>
        <time>2011-07-12T11:06:56Z</time>
      </trkpt>
      <trkpt lat="44.93664" lon="5.20209">
        <ele>882.85852050781</ele>
        <time>2011-07-12T11:07:04Z</time>
      </trkpt>
      <trkpt lat="44.93628" lon="5.20189">
        <ele>886.02807617188</ele>
        <time>2011-07-12T11:07:13Z</time>
      </trkpt>
      <trkpt lat="44.936" lon="5.20173">
        <ele>892.11639404297</ele>
        <time>2011-07-12T11:07:20Z</time>
      </trkpt>
      <trkpt lat="44.93572" lon="5.20154">
        <ele>895.95428466797</ele>
        <time>2011-07-12T11:07:27Z</time>
      </trkpt>
      <trkpt lat="44.93568" lon="5.20151">
        <ele>896.7900390625</ele>
        <time>2011-07-12T11:07:28Z</time>
      </trkpt>
      <trkpt lat="44.93523" lon="5.20122">
        <ele>904.03619384766</ele>
        <time>2011-07-12T11:07:39Z</time>
      </trkpt>
      <trkpt lat="44.93506" lon="5.20114">
        <ele>905.79742431641</ele>
        <time>2011-07-12T11:07:43Z</time>
      </trkpt>
      <trkpt lat="44.93497" lon="5.20111">
        <ele>905.03118896484</ele>
        <time>2011-07-12T11:07:45Z</time>
      </trkpt>
      <trkpt lat="44.93481" lon="5.20105">
        <ele>902.00604248047</ele>
        <time>2011-07-12T11:07:49Z</time>
      </trkpt>
      <trkpt lat="44.93449" lon="5.20093">
        <ele>900.90826416016</ele>
        <time>2011-07-12T11:07:57Z</time>
      </trkpt>
      <trkpt lat="44.93415" lon="5.20073">
        <ele>904.15753173828</ele>
        <time>2011-07-12T11:08:06Z</time>
      </trkpt>
      <trkpt lat="44.93391" lon="5.20062">
        <ele>898.03698730469</ele>
        <time>2011-07-12T11:08:12Z</time>
      </trkpt>
      <trkpt lat="44.93366" lon="5.20047">
        <ele>900.55249023438</ele>
        <time>2011-07-12T11:08:19Z</time>
      </trkpt>
      <trkpt lat="44.9334" lon="5.20032">
        <ele>905.49621582031</ele>
        <time>2011-07-12T11:08:27Z</time>
      </trkpt>
      <trkpt lat="44.93319" lon="5.2002">
        <ele>904.40191650391</ele>
        <time>2011-07-12T11:08:34Z</time>
      </trkpt>
      <trkpt lat="44.93299" lon="5.20013">
        <ele>900.77313232422</ele>
        <time>2011-07-12T11:08:40Z</time>
      </trkpt>
      <trkpt lat="44.93274" lon="5.20011">
        <ele>894.10498046875</ele>
        <time>2011-07-12T11:08:47Z</time>
      </trkpt>
      <trkpt lat="44.93246" lon="5.2001">
        <ele>887.97778320312</ele>
        <time>2011-07-12T11:08:54Z</time>
      </trkpt>
      <trkpt lat="44.93215" lon="5.20007">
        <ele>881.86444091797</ele>
        <time>2011-07-12T11:09:02Z</time>
      </trkpt>
      <trkpt lat="44.932" lon="5.2">
        <ele>881.18811035156</ele>
        <time>2011-07-12T11:09:07Z</time>
      </trkpt>
      <trkpt lat="44.93179" lon="5.19987">
        <ele>883.54547119141</ele>
        <time>2011-07-12T11:09:13Z</time>
      </trkpt>
      <trkpt lat="44.93159" lon="5.1998">
        <ele>882.68853759766</ele>
        <time>2011-07-12T11:09:18Z</time>
      </trkpt>
      <trkpt lat="44.93134" lon="5.19975">
        <ele>881.33129882812</ele>
        <time>2011-07-12T11:09:24Z</time>
      </trkpt>
      <trkpt lat="44.9311" lon="5.19962">
        <ele>886.87329101562</ele>
        <time>2011-07-12T11:09:30Z</time>
      </trkpt>
      <trkpt lat="44.93097" lon="5.19953">
        <ele>891.00689697266</ele>
        <time>2011-07-12T11:09:33Z</time>
      </trkpt>
      <trkpt lat="44.93073" lon="5.19932">
        <ele>897.16027832031</ele>
        <time>2011-07-12T11:09:40Z</time>
      </trkpt>
      <trkpt lat="44.93051" lon="5.19916">
        <ele>899.25109863281</ele>
        <time>2011-07-12T11:09:46Z</time>
      </trkpt>
      <trkpt lat="44.93024" lon="5.19901">
        <ele>903.17291259766</ele>
        <time>2011-07-12T11:09:53Z</time>
      </trkpt>
      <trkpt lat="44.93016" lon="5.19896">
        <ele>904.11682128906</ele>
        <time>2011-07-12T11:09:55Z</time>
      </trkpt>
      <trkpt lat="44.92989" lon="5.19889">
        <ele>902.77392578125</ele>
        <time>2011-07-12T11:10:02Z</time>
      </trkpt>
      <trkpt lat="44.92967" lon="5.19887">
        <ele>899.8857421875</ele>
        <time>2011-07-12T11:10:08Z</time>
      </trkpt>
      <trkpt lat="44.92946" lon="5.1989">
        <ele>895.45050048828</ele>
        <time>2011-07-12T11:10:13Z</time>
      </trkpt>
      <trkpt lat="44.92911" lon="5.19896">
        <ele>888.04467773438</ele>
        <time>2011-07-12T11:10:21Z</time>
      </trkpt>
      <trkpt lat="44.92884" lon="5.19883">
        <ele>888.97003173828</ele>
        <time>2011-07-12T11:10:28Z</time>
      </trkpt>
      <trkpt lat="44.92863" lon="5.19878">
        <ele>887.54180908203</ele>
        <time>2011-07-12T11:10:34Z</time>
      </trkpt>
      <trkpt lat="44.92845" lon="5.19875">
        <ele>887.02868652344</ele>
        <time>2011-07-12T11:10:38Z</time>
      </trkpt>
      <trkpt lat="44.92821" lon="5.1987">
        <ele>886.43170166016</ele>
        <time>2011-07-12T11:10:43Z</time>
      </trkpt>
      <trkpt lat="44.92812" lon="5.19864">
        <ele>887.14581298828</ele>
        <time>2011-07-12T11:10:45Z</time>
      </trkpt>
      <trkpt lat="44.92785" lon="5.1985">
        <ele>889.53186035156</ele>
        <time>2011-07-12T11:10:51Z</time>
      </trkpt>
      <trkpt lat="44.9278" lon="5.19848">
        <ele>889.71911621094</ele>
        <time>2011-07-12T11:10:52Z</time>
      </trkpt>
      <trkpt lat="44.92764" lon="5.19841">
        <ele>892.52172851562</ele>
        <time>2011-07-12T11:10:55Z</time>
      </trkpt>
      <trkpt lat="44.9274" lon="5.19845">
        <ele>890.16253662109</ele>
        <time>2011-07-12T11:10:59Z</time>
      </trkpt>
      <trkpt lat="44.92728" lon="5.1985">
        <ele>886.33190917969</ele>
        <time>2011-07-12T11:11:01Z</time>
      </trkpt>
      <trkpt lat="44.92704" lon="5.19857">
        <ele>881.73260498047</ele>
        <time>2011-07-12T11:11:05Z</time>
      </trkpt>
      <trkpt lat="44.92679" lon="5.19851">
        <ele>884.40185546875</ele>
        <time>2011-07-12T11:11:09Z</time>
      </trkpt>
      <trkpt lat="44.92654" lon="5.19837">
        <ele>889.22021484375</ele>
        <time>2011-07-12T11:11:13Z</time>
      </trkpt>
      <trkpt lat="44.92617" lon="5.19834">
        <ele>887.88793945312</ele>
        <time>2011-07-12T11:11:19Z</time>
      </trkpt>
      <trkpt lat="44.92611" lon="5.19835">
        <ele>886.98486328125</ele>
        <time>2011-07-12T11:11:20Z</time>
      </trkpt>
      <trkpt lat="44.92599" lon="5.19834">
        <ele>887.69555664062</ele>
        <time>2011-07-12T11:11:22Z</time>
      </trkpt>
      <trkpt lat="44.92566" lon="5.19833">
        <ele>888.35321044922</ele>
        <time>2011-07-12T11:11:28Z</time>
      </trkpt>
      <trkpt lat="44.92531" lon="5.19832">
        <ele>888.62097167969</ele>
        <time>2011-07-12T11:11:34Z</time>
      </trkpt>
      <trkpt lat="44.92502" lon="5.1983">
        <ele>891.19256591797</ele>
        <time>2011-07-12T11:11:40Z</time>
      </trkpt>
      <trkpt lat="44.92467" lon="5.19826">
        <ele>891.27331542969</ele>
        <time>2011-07-12T11:11:47Z</time>
      </trkpt>
      <trkpt lat="44.92447" lon="5.19821">
        <ele>892.89556884766</ele>
        <time>2011-07-12T11:11:51Z</time>
      </trkpt>
      <trkpt lat="44.92416" lon="5.19812">
        <ele>895.77185058594</ele>
        <time>2011-07-12T11:11:58Z</time>
      </trkpt>
      <trkpt lat="44.92407" lon="5.1981">
        <ele>896.2431640625</ele>
        <time>2011-07-12T11:12:00Z</time>
      </trkpt>
      <trkpt lat="44.92382" lon="5.19808">
        <ele>895.28295898438</ele>
        <time>2011-07-12T11:12:05Z</time>
      </trkpt>
      <trkpt lat="44.92368" lon="5.1981">
        <ele>892.98956298828</ele>
        <time>2011-07-12T11:12:08Z</time>
      </trkpt>
      <trkpt lat="44.92353" lon="5.19814">
        <ele>889.67150878906</ele>
        <time>2011-07-12T11:12:11Z</time>
      </trkpt>
      <trkpt lat="44.92333" lon="5.19816">
        <ele>886.06402587891</ele>
        <time>2011-07-12T11:12:15Z</time>
      </trkpt>
      <trkpt lat="44.92309" lon="5.19812">
        <ele>885.56689453125</ele>
        <time>2011-07-12T11:12:20Z</time>
      </trkpt>
      <trkpt lat="44.92296" lon="5.19804">
        <ele>886.20849609375</ele>
        <time>2011-07-12T11:12:23Z</time>
      </trkpt>
      <trkpt lat="44.92279" lon="5.19789">
        <ele>887.70104980469</ele>
        <time>2011-07-12T11:12:27Z</time>
      </trkpt>
      <trkpt lat="44.92265" lon="5.19776">
        <ele>890.06457519531</ele>
        <time>2011-07-12T11:12:31Z</time>
      </trkpt>
      <trkpt lat="44.92225" lon="5.19756">
        <ele>892.22296142578</ele>
        <time>2011-07-12T11:12:40Z</time>
      </trkpt>
      <trkpt lat="44.92195" lon="5.19738">
        <ele>893.10931396484</ele>
        <time>2011-07-12T11:12:47Z</time>
      </trkpt>
      <trkpt lat="44.92182" lon="5.1973">
        <ele>892.88873291016</ele>
        <time>2011-07-12T11:12:50Z</time>
      </trkpt>
      <trkpt lat="44.92174" lon="5.19724">
        <ele>892.85900878906</ele>
        <time>2011-07-12T11:12:52Z</time>
      </trkpt>
      <trkpt lat="44.92166" lon="5.19717">
        <ele>893.48431396484</ele>
        <time>2011-07-12T11:12:54Z</time>
      </trkpt>
      <trkpt lat="44.92159" lon="5.19708">
        <ele>895.31604003906</ele>
        <time>2011-07-12T11:12:56Z</time>
      </trkpt>
      <trkpt lat="44.92134" lon="5.19685">
        <ele>900.89721679688</ele>
        <time>2011-07-12T11:13:03Z</time>
      </trkpt>
      <trkpt lat="44.9211" lon="5.19666">
        <ele>903.98962402344</ele>
        <time>2011-07-12T11:13:10Z</time>
      </trkpt>
      <trkpt lat="44.92094" lon="5.19655">
        <ele>903.41662597656</ele>
        <time>2011-07-12T11:13:15Z</time>
      </trkpt>
      <trkpt lat="44.92076" lon="5.19646">
        <ele>902.15277099609</ele>
        <time>2011-07-12T11:13:21Z</time>
      </trkpt>
      <trkpt lat="44.9206" lon="5.19633">
        <ele>903.34558105469</ele>
        <time>2011-07-12T11:13:26Z</time>
      </trkpt>
      <trkpt lat="44.92043" lon="5.19621">
        <ele>905.43884277344</ele>
        <time>2011-07-12T11:13:31Z</time>
      </trkpt>
      <trkpt lat="44.9202" lon="5.19601">
        <ele>906.85247802734</ele>
        <time>2011-07-12T11:13:38Z</time>
      </trkpt>
      <trkpt lat="44.91998" lon="5.19589">
        <ele>907.15374755859</ele>
        <time>2011-07-12T11:13:44Z</time>
      </trkpt>
      <trkpt lat="44.91979" lon="5.19583">
        <ele>902.85418701172</ele>
        <time>2011-07-12T11:13:49Z</time>
      </trkpt>
      <trkpt lat="44.91958" lon="5.1958">
        <ele>901.85870361328</ele>
        <time>2011-07-12T11:13:54Z</time>
      </trkpt>
      <trkpt lat="44.91933" lon="5.19574">
        <ele>902.46527099609</ele>
        <time>2011-07-12T11:14:00Z</time>
      </trkpt>
      <trkpt lat="44.91904" lon="5.19554">
        <ele>903.42852783203</ele>
        <time>2011-07-12T11:14:07Z</time>
      </trkpt>
      <trkpt lat="44.91893" lon="5.19544">
        <ele>905.96887207031</ele>
        <time>2011-07-12T11:14:10Z</time>
      </trkpt>
      <trkpt lat="44.91858" lon="5.19522">
        <ele>908.90325927734</ele>
        <time>2011-07-12T11:14:18Z</time>
      </trkpt>
      <trkpt lat="44.91822" lon="5.19496">
        <ele>911.19757080078</ele>
        <time>2011-07-12T11:14:26Z</time>
      </trkpt>
      <trkpt lat="44.9179" lon="5.19477">
        <ele>918.87585449219</ele>
        <time>2011-07-12T11:14:33Z</time>
      </trkpt>
      <trkpt lat="44.91781" lon="5.19472">
        <ele>920.52947998047</ele>
        <time>2011-07-12T11:14:35Z</time>
      </trkpt>
      <trkpt lat="44.91776" lon="5.19469">
        <ele>920.42633056641</ele>
        <time>2011-07-12T11:14:36Z</time>
      </trkpt>
      <trkpt lat="44.91741" lon="5.19451">
        <ele>920.62976074219</ele>
        <time>2011-07-12T11:14:44Z</time>
      </trkpt>
      <trkpt lat="44.91702" lon="5.19436">
        <ele>921.30895996094</ele>
        <time>2011-07-12T11:14:53Z</time>
      </trkpt>
      <trkpt lat="44.91679" lon="5.19428">
        <ele>921.52282714844</ele>
        <time>2011-07-12T11:14:59Z</time>
      </trkpt>
      <trkpt lat="44.91651" lon="5.19417">
        <ele>921.55688476562</ele>
        <time>2011-07-12T11:15:07Z</time>
      </trkpt>
      <trkpt lat="44.91631" lon="5.19409">
        <ele>923.22918701172</ele>
        <time>2011-07-12T11:15:13Z</time>
      </trkpt>
      <trkpt lat="44.91611" lon="5.19404">
        <ele>924.73724365234</ele>
        <time>2011-07-12T11:15:19Z</time>
      </trkpt>
      <trkpt lat="44.91587" lon="5.19395">
        <ele>926.02813720703</ele>
        <time>2011-07-12T11:15:26Z</time>
      </trkpt>
      <trkpt lat="44.91563" lon="5.19388">
        <ele>925.33056640625</ele>
        <time>2011-07-12T11:15:33Z</time>
      </trkpt>
      <trkpt lat="44.91528" lon="5.19377">
        <ele>927.30236816406</ele>
        <time>2011-07-12T11:15:43Z</time>
      </trkpt>
      <trkpt lat="44.91507" lon="5.19369">
        <ele>928.72332763672</ele>
        <time>2011-07-12T11:15:49Z</time>
      </trkpt>
      <trkpt lat="44.91474" lon="5.1935">
        <ele>932.60247802734</ele>
        <time>2011-07-12T11:15:59Z</time>
      </trkpt>
      <trkpt lat="44.91436" lon="5.19328">
        <ele>936.20520019531</ele>
        <time>2011-07-12T11:16:10Z</time>
      </trkpt>
      <trkpt lat="44.91403" lon="5.19309">
        <ele>937.50451660156</ele>
        <time>2011-07-12T11:16:20Z</time>
      </trkpt>
      <trkpt lat="44.91379" lon="5.19293">
        <ele>940.79992675781</ele>
        <time>2011-07-12T11:16:28Z</time>
      </trkpt>
      <trkpt lat="44.91351" lon="5.19275">
        <ele>944.00659179688</ele>
        <time>2011-07-12T11:16:37Z</time>
      </trkpt>
      <trkpt lat="44.91327" lon="5.19264">
        <ele>944.67364501953</ele>
        <time>2011-07-12T11:16:44Z</time>
      </trkpt>
      <trkpt lat="44.91305" lon="5.19259">
        <ele>943.98590087891</ele>
        <time>2011-07-12T11:16:50Z</time>
      </trkpt>
      <trkpt lat="44.91272" lon="5.19257">
        <ele>942.75256347656</ele>
        <time>2011-07-12T11:16:58Z</time>
      </trkpt>
      <trkpt lat="44.91247" lon="5.19256">
        <ele>941.71295166016</ele>
        <time>2011-07-12T11:17:04Z</time>
      </trkpt>
      <trkpt lat="44.91216" lon="5.19257">
        <ele>937.53356933594</ele>
        <time>2011-07-12T11:17:11Z</time>
      </trkpt>
      <trkpt lat="44.91182" lon="5.19258">
        <ele>935.01489257812</ele>
        <time>2011-07-12T11:17:18Z</time>
      </trkpt>
      <trkpt lat="44.91161" lon="5.19256">
        <ele>934.38592529297</ele>
        <time>2011-07-12T11:17:22Z</time>
      </trkpt>
      <trkpt lat="44.9112" lon="5.19247">
        <ele>935.24224853516</ele>
        <time>2011-07-12T11:17:29Z</time>
      </trkpt>
      <trkpt lat="44.91114" lon="5.19247">
        <ele>935.34161376953</ele>
        <time>2011-07-12T11:17:30Z</time>
      </trkpt>
      <trkpt lat="44.91084" lon="5.19237">
        <ele>936.435546875</ele>
        <time>2011-07-12T11:17:35Z</time>
      </trkpt>
      <trkpt lat="44.91062" lon="5.19235">
        <ele>938.20349121094</ele>
        <time>2011-07-12T11:17:39Z</time>
      </trkpt>
      <trkpt lat="44.91051" lon="5.1925">
        <ele>937.39324951172</ele>
        <time>2011-07-12T11:17:42Z</time>
      </trkpt>
      <trkpt lat="44.9105" lon="5.19255">
        <ele>936.71966552734</ele>
        <time>2011-07-12T11:17:43Z</time>
      </trkpt>
      <trkpt lat="44.91048" lon="5.19259">
        <ele>936.19598388672</ele>
        <time>2011-07-12T11:17:46Z</time>
      </trkpt>
      <trkpt lat="44.91043" lon="5.19259">
        <ele>936.46734619141</ele>
        <time>2011-07-12T11:24:13Z</time>
      </trkpt>
      <trkpt lat="44.91042" lon="5.19259">
        <ele>936.43682861328</ele>
        <time>2011-07-12T11:24:14Z</time>
      </trkpt>
      <trkpt lat="44.91033" lon="5.1925">
        <ele>938.54357910156</ele>
        <time>2011-07-12T11:24:20Z</time>
      </trkpt>
      <trkpt lat="44.91033" lon="5.19247">
        <ele>938.9931640625</ele>
        <time>2011-07-12T11:24:21Z</time>
      </trkpt>
      <trkpt lat="44.9103" lon="5.19226">
        <ele>941.49426269531</ele>
        <time>2011-07-12T11:24:27Z</time>
      </trkpt>
      <trkpt lat="44.9102" lon="5.19219">
        <ele>942.59411621094</ele>
        <time>2011-07-12T11:24:31Z</time>
      </trkpt>
      <trkpt lat="44.90997" lon="5.19212">
        <ele>944.13671875</ele>
        <time>2011-07-12T11:24:38Z</time>
      </trkpt>
      <trkpt lat="44.90974" lon="5.19206">
        <ele>946.80603027344</ele>
        <time>2011-07-12T11:24:45Z</time>
      </trkpt>
      <trkpt lat="44.90945" lon="5.1921">
        <ele>947.21496582031</ele>
        <time>2011-07-12T11:24:54Z</time>
      </trkpt>
      <trkpt lat="44.90925" lon="5.19217">
        <ele>945.88592529297</ele>
        <time>2011-07-12T11:25:01Z</time>
      </trkpt>
      <trkpt lat="44.90897" lon="5.19225">
        <ele>945.36627197266</ele>
        <time>2011-07-12T11:25:10Z</time>
      </trkpt>
      <trkpt lat="44.90865" lon="5.1923">
        <ele>946.57879638672</ele>
        <time>2011-07-12T11:25:20Z</time>
      </trkpt>
      <trkpt lat="44.9084" lon="5.19235">
        <ele>946.16125488281</ele>
        <time>2011-07-12T11:25:28Z</time>
      </trkpt>
      <trkpt lat="44.9081" lon="5.19242">
        <ele>946.88592529297</ele>
        <time>2011-07-12T11:25:37Z</time>
      </trkpt>
      <trkpt lat="44.90775" lon="5.1925">
        <ele>946.26525878906</ele>
        <time>2011-07-12T11:25:46Z</time>
      </trkpt>
      <trkpt lat="44.90747" lon="5.19256">
        <ele>948.08764648438</ele>
        <time>2011-07-12T11:25:53Z</time>
      </trkpt>
      <trkpt lat="44.90722" lon="5.19261">
        <ele>949.13006591797</ele>
        <time>2011-07-12T11:26:00Z</time>
      </trkpt>
      <trkpt lat="44.90706" lon="5.19265">
        <ele>948.51202392578</ele>
        <time>2011-07-12T11:26:04Z</time>
      </trkpt>
      <trkpt lat="44.90666" lon="5.19276">
        <ele>947.57806396484</ele>
        <time>2011-07-12T11:26:13Z</time>
      </trkpt>
      <trkpt lat="44.90629" lon="5.19288">
        <ele>947.11016845703</ele>
        <time>2011-07-12T11:26:21Z</time>
      </trkpt>
      <trkpt lat="44.90581" lon="5.19305">
        <ele>946.34924316406</ele>
        <time>2011-07-12T11:26:31Z</time>
      </trkpt>
      <trkpt lat="44.9054" lon="5.19319">
        <ele>946.611328125</ele>
        <time>2011-07-12T11:26:40Z</time>
      </trkpt>
      <trkpt lat="44.90494" lon="5.19335">
        <ele>944.59197998047</ele>
        <time>2011-07-12T11:26:50Z</time>
      </trkpt>
      <trkpt lat="44.90451" lon="5.19347">
        <ele>942.10974121094</ele>
        <time>2011-07-12T11:26:59Z</time>
      </trkpt>
      <trkpt lat="44.90409" lon="5.19356">
        <ele>940.19445800781</ele>
        <time>2011-07-12T11:27:08Z</time>
      </trkpt>
      <trkpt lat="44.90371" lon="5.19361">
        <ele>939.04724121094</ele>
        <time>2011-07-12T11:27:16Z</time>
      </trkpt>
      <trkpt lat="44.90332" lon="5.19362">
        <ele>938.86901855469</ele>
        <time>2011-07-12T11:27:24Z</time>
      </trkpt>
      <trkpt lat="44.90298" lon="5.19359">
        <ele>939.54833984375</ele>
        <time>2011-07-12T11:27:31Z</time>
      </trkpt>
      <trkpt lat="44.9027" lon="5.19358">
        <ele>939.80926513672</ele>
        <time>2011-07-12T11:27:36Z</time>
      </trkpt>
      <trkpt lat="44.90246" lon="5.1936">
        <ele>939.31488037109</ele>
        <time>2011-07-12T11:27:40Z</time>
      </trkpt>
      <trkpt lat="44.90208" lon="5.19369">
        <ele>937.30841064453</ele>
        <time>2011-07-12T11:27:47Z</time>
      </trkpt>
      <trkpt lat="44.90183" lon="5.19377">
        <ele>935.69921875</ele>
        <time>2011-07-12T11:27:52Z</time>
      </trkpt>
      <trkpt lat="44.90143" lon="5.19389">
        <ele>934.04443359375</ele>
        <time>2011-07-12T11:28:00Z</time>
      </trkpt>
      <trkpt lat="44.90114" lon="5.19391">
        <ele>931.65478515625</ele>
        <time>2011-07-12T11:28:06Z</time>
      </trkpt>
      <trkpt lat="44.90082" lon="5.19386">
        <ele>932.31762695312</ele>
        <time>2011-07-12T11:28:13Z</time>
      </trkpt>
      <trkpt lat="44.90047" lon="5.19378">
        <ele>930.9443359375</ele>
        <time>2011-07-12T11:28:21Z</time>
      </trkpt>
      <trkpt lat="44.90001" lon="5.19367">
        <ele>931.03326416016</ele>
        <time>2011-07-12T11:28:31Z</time>
      </trkpt>
      <trkpt lat="44.89978" lon="5.1936">
        <ele>929.73675537109</ele>
        <time>2011-07-12T11:28:37Z</time>
      </trkpt>
      <trkpt lat="44.89948" lon="5.19352">
        <ele>929.21295166016</ele>
        <time>2011-07-12T11:28:44Z</time>
      </trkpt>
      <trkpt lat="44.89944" lon="5.19351">
        <ele>929.23449707031</ele>
        <time>2011-07-12T11:28:45Z</time>
      </trkpt>
      <trkpt lat="44.89908" lon="5.19338">
        <ele>929.32635498047</ele>
        <time>2011-07-12T11:28:54Z</time>
      </trkpt>
      <trkpt lat="44.89888" lon="5.19329">
        <ele>928.69952392578</ele>
        <time>2011-07-12T11:28:59Z</time>
      </trkpt>
      <trkpt lat="44.89838" lon="5.19306">
        <ele>926.9609375</ele>
        <time>2011-07-12T11:29:11Z</time>
      </trkpt>
      <trkpt lat="44.89795" lon="5.19285">
        <ele>926.48388671875</ele>
        <time>2011-07-12T11:29:22Z</time>
      </trkpt>
      <trkpt lat="44.89746" lon="5.19259">
        <ele>926.49884033203</ele>
        <time>2011-07-12T11:29:34Z</time>
      </trkpt>
      <trkpt lat="44.89709" lon="5.19237">
        <ele>923.95458984375</ele>
        <time>2011-07-12T11:29:43Z</time>
      </trkpt>
      <trkpt lat="44.89675" lon="5.19216">
        <ele>923.72778320312</ele>
        <time>2011-07-12T11:29:51Z</time>
      </trkpt>
      <trkpt lat="44.89637" lon="5.19191">
        <ele>923.16442871094</ele>
        <time>2011-07-12T11:30:00Z</time>
      </trkpt>
      <trkpt lat="44.89592" lon="5.19161">
        <ele>921.69641113281</ele>
        <time>2011-07-12T11:30:11Z</time>
      </trkpt>
      <trkpt lat="44.89557" lon="5.19138">
        <ele>920.28247070312</ele>
        <time>2011-07-12T11:30:20Z</time>
      </trkpt>
      <trkpt lat="44.89523" lon="5.19117">
        <ele>921.3359375</ele>
        <time>2011-07-12T11:30:29Z</time>
      </trkpt>
      <trkpt lat="44.89492" lon="5.19098">
        <ele>920</ele>
        <time>2011-07-12T11:30:37Z</time>
      </trkpt>
      <trkpt lat="44.89468" lon="5.19085">
        <ele>920</ele>
        <time>2011-07-12T11:30:43Z</time>
      </trkpt>
      <trkpt lat="44.89437" lon="5.19067">
        <ele>920</ele>
        <time>2011-07-12T11:30:51Z</time>
      </trkpt>
      <trkpt lat="44.89405" lon="5.19051">
        <ele>920</ele>
        <time>2011-07-12T11:30:59Z</time>
      </trkpt>
      <trkpt lat="44.89386" lon="5.1904">
        <ele>920</ele>
        <time>2011-07-12T11:31:05Z</time>
      </trkpt>
      <trkpt lat="44.89382" lon="5.19038">
        <ele>920</ele>
        <time>2011-07-12T11:31:06Z</time>
      </trkpt>
      <trkpt lat="44.89351" lon="5.1902">
        <ele>920</ele>
        <time>2011-07-12T11:31:14Z</time>
      </trkpt>
      <trkpt lat="44.89321" lon="5.19003">
        <ele>920</ele>
        <time>2011-07-12T11:31:22Z</time>
      </trkpt>
      <trkpt lat="44.89288" lon="5.18982">
        <ele>920.22979736328</ele>
        <time>2011-07-12T11:31:31Z</time>
      </trkpt>
      <trkpt lat="44.89248" lon="5.18955">
        <ele>921.23529052734</ele>
        <time>2011-07-12T11:31:41Z</time>
      </trkpt>
      <trkpt lat="44.89211" lon="5.18927">
        <ele>922.66375732422</ele>
        <time>2011-07-12T11:31:50Z</time>
      </trkpt>
      <trkpt lat="44.89168" lon="5.1889">
        <ele>925.90600585938</ele>
        <time>2011-07-12T11:32:01Z</time>
      </trkpt>
      <trkpt lat="44.89142" lon="5.18866">
        <ele>928.54052734375</ele>
        <time>2011-07-12T11:32:08Z</time>
      </trkpt>
      <trkpt lat="44.89108" lon="5.18833">
        <ele>930.99761962891</ele>
        <time>2011-07-12T11:32:17Z</time>
      </trkpt>
      <trkpt lat="44.89082" lon="5.1881">
        <ele>931.85168457031</ele>
        <time>2011-07-12T11:32:24Z</time>
      </trkpt>
      <trkpt lat="44.89061" lon="5.1879">
        <ele>932.56665039062</ele>
        <time>2011-07-12T11:32:30Z</time>
      </trkpt>
      <trkpt lat="44.89032" lon="5.18763">
        <ele>933.92852783203</ele>
        <time>2011-07-12T11:32:38Z</time>
      </trkpt>
      <trkpt lat="44.88999" lon="5.18733">
        <ele>936.04339599609</ele>
        <time>2011-07-12T11:32:47Z</time>
      </trkpt>
      <trkpt lat="44.88965" lon="5.18701">
        <ele>937.265625</ele>
        <time>2011-07-12T11:32:56Z</time>
      </trkpt>
      <trkpt lat="44.88953" lon="5.1869">
        <ele>937.83709716797</ele>
        <time>2011-07-12T11:32:59Z</time>
      </trkpt>
      <trkpt lat="44.88924" lon="5.18661">
        <ele>939.74877929688</ele>
        <time>2011-07-12T11:33:07Z</time>
      </trkpt>
      <trkpt lat="44.88904" lon="5.18644">
        <ele>940</ele>
        <time>2011-07-12T11:33:13Z</time>
      </trkpt>
      <trkpt lat="44.88879" lon="5.18623">
        <ele>940</ele>
        <time>2011-07-12T11:33:20Z</time>
      </trkpt>
      <trkpt lat="44.88851" lon="5.18601">
        <ele>940</ele>
        <time>2011-07-12T11:33:28Z</time>
      </trkpt>
      <trkpt lat="44.88828" lon="5.18583">
        <ele>940</ele>
        <time>2011-07-12T11:33:34Z</time>
      </trkpt>
      <trkpt lat="44.88809" lon="5.18568">
        <ele>940</ele>
        <time>2011-07-12T11:33:39Z</time>
      </trkpt>
      <trkpt lat="44.88783" lon="5.18547">
        <ele>940</ele>
        <time>2011-07-12T11:33:46Z</time>
      </trkpt>
      <trkpt lat="44.88755" lon="5.18524">
        <ele>940</ele>
        <time>2011-07-12T11:33:53Z</time>
      </trkpt>
      <trkpt lat="44.88739" lon="5.18511">
        <ele>940</ele>
        <time>2011-07-12T11:33:57Z</time>
      </trkpt>
      <trkpt lat="44.88719" lon="5.18491">
        <ele>940</ele>
        <time>2011-07-12T11:34:02Z</time>
      </trkpt>
      <trkpt lat="44.88711" lon="5.18466">
        <ele>940</ele>
        <time>2011-07-12T11:34:06Z</time>
      </trkpt>
      <trkpt lat="44.88713" lon="5.18453">
        <ele>940</ele>
        <time>2011-07-12T11:34:08Z</time>
      </trkpt>
      <trkpt lat="44.88732" lon="5.18394">
        <ele>940</ele>
        <time>2011-07-12T11:34:18Z</time>
      </trkpt>
      <trkpt lat="44.88738" lon="5.18358">
        <ele>940</ele>
        <time>2011-07-12T11:34:25Z</time>
      </trkpt>
      <trkpt lat="44.88736" lon="5.18332">
        <ele>940</ele>
        <time>2011-07-12T11:34:30Z</time>
      </trkpt>
      <trkpt lat="44.88727" lon="5.18304">
        <ele>940</ele>
        <time>2011-07-12T11:34:36Z</time>
      </trkpt>
      <trkpt lat="44.88707" lon="5.18286">
        <ele>940</ele>
        <time>2011-07-12T11:34:42Z</time>
      </trkpt>
      <trkpt lat="44.88689" lon="5.18264">
        <ele>940</ele>
        <time>2011-07-12T11:34:48Z</time>
      </trkpt>
      <trkpt lat="44.88668" lon="5.18221">
        <ele>940</ele>
        <time>2011-07-12T11:34:56Z</time>
      </trkpt>
      <trkpt lat="44.88658" lon="5.18193">
        <ele>940</ele>
        <time>2011-07-12T11:35:00Z</time>
      </trkpt>
      <trkpt lat="44.88638" lon="5.18154">
        <ele>940.01873779297</ele>
        <time>2011-07-12T11:35:07Z</time>
      </trkpt>
      <trkpt lat="44.88623" lon="5.18136">
        <ele>941.44293212891</ele>
        <time>2011-07-12T11:35:13Z</time>
      </trkpt>
      <trkpt lat="44.886" lon="5.18115">
        <ele>946.9765625</ele>
        <time>2011-07-12T11:35:22Z</time>
      </trkpt>
      <trkpt lat="44.88583" lon="5.18101">
        <ele>951.92816162109</ele>
        <time>2011-07-12T11:35:29Z</time>
      </trkpt>
      <trkpt lat="44.88567" lon="5.1809">
        <ele>956.06860351562</ele>
        <time>2011-07-12T11:35:35Z</time>
      </trkpt>
      <trkpt lat="44.88544" lon="5.18079">
        <ele>959.91937255859</ele>
        <time>2011-07-12T11:35:43Z</time>
      </trkpt>
      <trkpt lat="44.88526" lon="5.18071">
        <ele>961.46783447266</ele>
        <time>2011-07-12T11:35:49Z</time>
      </trkpt>
      <trkpt lat="44.88499" lon="5.18062">
        <ele>964.28582763672</ele>
        <time>2011-07-12T11:35:58Z</time>
      </trkpt>
      <trkpt lat="44.88475" lon="5.18057">
        <ele>965.75439453125</ele>
        <time>2011-07-12T11:36:06Z</time>
      </trkpt>
      <trkpt lat="44.88451" lon="5.18054">
        <ele>966.26226806641</ele>
        <time>2011-07-12T11:36:14Z</time>
      </trkpt>
      <trkpt lat="44.88419" lon="5.18052">
        <ele>966.68432617188</ele>
        <time>2011-07-12T11:36:24Z</time>
      </trkpt>
      <trkpt lat="44.88393" lon="5.18051">
        <ele>968.74737548828</ele>
        <time>2011-07-12T11:36:32Z</time>
      </trkpt>
      <trkpt lat="44.8837" lon="5.18049">
        <ele>969.31262207031</ele>
        <time>2011-07-12T11:36:39Z</time>
      </trkpt>
      <trkpt lat="44.88346" lon="5.1805">
        <ele>969.28173828125</ele>
        <time>2011-07-12T11:36:47Z</time>
      </trkpt>
      <trkpt lat="44.88329" lon="5.18049">
        <ele>969.57330322266</ele>
        <time>2011-07-12T11:36:53Z</time>
      </trkpt>
      <trkpt lat="44.88327" lon="5.18048">
        <ele>969.93817138672</ele>
        <time>2011-07-12T11:36:54Z</time>
      </trkpt>
      <trkpt lat="44.88326" lon="5.18037">
        <ele>972.54321289062</ele>
        <time>2011-07-12T11:36:58Z</time>
      </trkpt>
      <trkpt lat="44.88332" lon="5.18035">
        <ele>972.65618896484</ele>
        <time>2011-07-12T11:37:00Z</time>
      </trkpt>
      <trkpt lat="44.88353" lon="5.18031">
        <ele>973.32952880859</ele>
        <time>2011-07-12T11:37:08Z</time>
      </trkpt>
      <trkpt lat="44.88383" lon="5.18021">
        <ele>975.42034912109</ele>
        <time>2011-07-12T11:37:18Z</time>
      </trkpt>
      <trkpt lat="44.88411" lon="5.1801">
        <ele>976.23864746094</ele>
        <time>2011-07-12T11:37:28Z</time>
      </trkpt>
      <trkpt lat="44.88432" lon="5.18002">
        <ele>977.4990234375</ele>
        <time>2011-07-12T11:37:36Z</time>
      </trkpt>
      <trkpt lat="44.88449" lon="5.17996">
        <ele>978.27380371094</ele>
        <time>2011-07-12T11:37:43Z</time>
      </trkpt>
      <trkpt lat="44.88465" lon="5.1799">
        <ele>978.34594726562</ele>
        <time>2011-07-12T11:37:50Z</time>
      </trkpt>
      <trkpt lat="44.8848" lon="5.17984">
        <ele>977.97503662109</ele>
        <time>2011-07-12T11:37:56Z</time>
      </trkpt>
      <trkpt lat="44.88494" lon="5.17975">
        <ele>977.326171875</ele>
        <time>2011-07-12T11:38:02Z</time>
      </trkpt>
      <trkpt lat="44.88511" lon="5.17965">
        <ele>976.92077636719</ele>
        <time>2011-07-12T11:38:09Z</time>
      </trkpt>
      <trkpt lat="44.88525" lon="5.17955">
        <ele>976.76965332031</ele>
        <time>2011-07-12T11:38:16Z</time>
      </trkpt>
      <trkpt lat="44.8854" lon="5.17945">
        <ele>975.65594482422</ele>
        <time>2011-07-12T11:38:24Z</time>
      </trkpt>
      <trkpt lat="44.88554" lon="5.17936">
        <ele>973.95025634766</ele>
        <time>2011-07-12T11:38:31Z</time>
      </trkpt>
      <trkpt lat="44.8857" lon="5.17926">
        <ele>972.21203613281</ele>
        <time>2011-07-12T11:38:39Z</time>
      </trkpt>
      <trkpt lat="44.88585" lon="5.17917">
        <ele>970.95642089844</ele>
        <time>2011-07-12T11:38:46Z</time>
      </trkpt>
      <trkpt lat="44.88596" lon="5.17902">
        <ele>971.91619873047</ele>
        <time>2011-07-12T11:38:54Z</time>
      </trkpt>
      <trkpt lat="44.88597" lon="5.17899">
        <ele>972.12030029297</ele>
        <time>2011-07-12T11:38:55Z</time>
      </trkpt>
      <trkpt lat="44.88595" lon="5.17882">
        <ele>973.72906494141</ele>
        <time>2011-07-12T11:39:01Z</time>
      </trkpt>
      <trkpt lat="44.88594" lon="5.1788">
        <ele>974.02185058594</ele>
        <time>2011-07-12T11:39:02Z</time>
      </trkpt>
      <trkpt lat="44.8858" lon="5.1787">
        <ele>975.88305664062</ele>
        <time>2011-07-12T11:39:09Z</time>
      </trkpt>
      <trkpt lat="44.8856" lon="5.17861">
        <ele>979.40307617188</ele>
        <time>2011-07-12T11:39:17Z</time>
      </trkpt>
      <trkpt lat="44.88543" lon="5.17853">
        <ele>983.55816650391</ele>
        <time>2011-07-12T11:39:24Z</time>
      </trkpt>
      <trkpt lat="44.88523" lon="5.17841">
        <ele>987.95947265625</ele>
        <time>2011-07-12T11:39:32Z</time>
      </trkpt>
      <trkpt lat="44.88509" lon="5.17829">
        <ele>990.53302001953</ele>
        <time>2011-07-12T11:39:38Z</time>
      </trkpt>
      <trkpt lat="44.88494" lon="5.17809">
        <ele>993.67083740234</ele>
        <time>2011-07-12T11:39:46Z</time>
      </trkpt>
      <trkpt lat="44.88481" lon="5.17782">
        <ele>995.71856689453</ele>
        <time>2011-07-12T11:39:55Z</time>
      </trkpt>
      <trkpt lat="44.88478" lon="5.17756">
        <ele>998.40509033203</ele>
        <time>2011-07-12T11:40:02Z</time>
      </trkpt>
      <trkpt lat="44.88486" lon="5.17735">
        <ele>1000.3068847656</ele>
        <time>2011-07-12T11:40:08Z</time>
      </trkpt>
      <trkpt lat="44.88498" lon="5.17728">
        <ele>1000.6720581055</ele>
        <time>2011-07-12T11:40:13Z</time>
      </trkpt>
      <trkpt lat="44.88511" lon="5.17724">
        <ele>1000.4783935547</ele>
        <time>2011-07-12T11:40:18Z</time>
      </trkpt>
      <trkpt lat="44.88524" lon="5.17718">
        <ele>1000.4016113281</ele>
        <time>2011-07-12T11:40:24Z</time>
      </trkpt>
      <trkpt lat="44.88534" lon="5.17711">
        <ele>1000.5835571289</ele>
        <time>2011-07-12T11:40:29Z</time>
      </trkpt>
      <trkpt lat="44.88548" lon="5.17688">
        <ele>1001.7302246094</ele>
        <time>2011-07-12T11:40:38Z</time>
      </trkpt>
      <trkpt lat="44.88555" lon="5.17661">
        <ele>1003.2287597656</ele>
        <time>2011-07-12T11:40:47Z</time>
      </trkpt>
      <trkpt lat="44.88559" lon="5.17635">
        <ele>1003.9846801758</ele>
        <time>2011-07-12T11:40:55Z</time>
      </trkpt>
      <trkpt lat="44.88563" lon="5.17607">
        <ele>1005.4599609375</ele>
        <time>2011-07-12T11:41:04Z</time>
      </trkpt>
      <trkpt lat="44.88568" lon="5.17586">
        <ele>1006.037902832</ele>
        <time>2011-07-12T11:41:11Z</time>
      </trkpt>
      <trkpt lat="44.8857" lon="5.17582">
        <ele>1005.9823608398</ele>
        <time>2011-07-12T11:41:13Z</time>
      </trkpt>
      <trkpt lat="44.8858" lon="5.17563">
        <ele>1005.2682495117</ele>
        <time>2011-07-12T11:41:21Z</time>
      </trkpt>
      <trkpt lat="44.8859" lon="5.17551">
        <ele>1004.6909790039</ele>
        <time>2011-07-12T11:41:28Z</time>
      </trkpt>
      <trkpt lat="44.88597" lon="5.17542">
        <ele>1004.4729614258</ele>
        <time>2011-07-12T11:41:34Z</time>
      </trkpt>
      <trkpt lat="44.88608" lon="5.17534">
        <ele>1004.0009155273</ele>
        <time>2011-07-12T11:41:41Z</time>
      </trkpt>
      <trkpt lat="44.8861" lon="5.17534">
        <ele>1003.8892822266</ele>
        <time>2011-07-12T11:41:44Z</time>
      </trkpt>
      <trkpt lat="44.8861" lon="5.17533">
        <ele>1003.9013061523</ele>
        <time>2011-07-12T11:42:00Z</time>
      </trkpt>
      <trkpt lat="44.88609" lon="5.17528">
        <ele>1004.1657104492</ele>
        <time>2011-07-12T11:42:19Z</time>
      </trkpt>
      <trkpt lat="44.88607" lon="5.17518">
        <ele>1004.639465332</ele>
        <time>2011-07-12T11:42:24Z</time>
      </trkpt>
      <trkpt lat="44.88601" lon="5.17506">
        <ele>1005.4909057617</ele>
        <time>2011-07-12T11:42:29Z</time>
      </trkpt>
      <trkpt lat="44.88593" lon="5.17501">
        <ele>1006.2908325195</ele>
        <time>2011-07-12T11:42:33Z</time>
      </trkpt>
      <trkpt lat="44.88576" lon="5.17491">
        <ele>1008.3280639648</ele>
        <time>2011-07-12T11:42:41Z</time>
      </trkpt>
      <trkpt lat="44.88557" lon="5.17479">
        <ele>1010.870300293</ele>
        <time>2011-07-12T11:42:50Z</time>
      </trkpt>
      <trkpt lat="44.88544" lon="5.17465">
        <ele>1012.3453979492</ele>
        <time>2011-07-12T11:42:57Z</time>
      </trkpt>
      <trkpt lat="44.88535" lon="5.17447">
        <ele>1013.4616088867</ele>
        <time>2011-07-12T11:43:04Z</time>
      </trkpt>
      <trkpt lat="44.88532" lon="5.17428">
        <ele>1014.2808837891</ele>
        <time>2011-07-12T11:43:10Z</time>
      </trkpt>
      <trkpt lat="44.8853" lon="5.17408">
        <ele>1014.8148193359</ele>
        <time>2011-07-12T11:43:16Z</time>
      </trkpt>
      <trkpt lat="44.88529" lon="5.17385">
        <ele>1015.0404052734</ele>
        <time>2011-07-12T11:43:22Z</time>
      </trkpt>
      <trkpt lat="44.88529" lon="5.17344">
        <ele>1015.928527832</ele>
        <time>2011-07-12T11:43:31Z</time>
      </trkpt>
      <trkpt lat="44.88535" lon="5.17302">
        <ele>1016.4907226562</ele>
        <time>2011-07-12T11:43:39Z</time>
      </trkpt>
      <trkpt lat="44.88541" lon="5.17272">
        <ele>1016.7516479492</ele>
        <time>2011-07-12T11:43:44Z</time>
      </trkpt>
      <trkpt lat="44.88551" lon="5.17229">
        <ele>1017.1795654297</ele>
        <time>2011-07-12T11:43:51Z</time>
      </trkpt>
      <trkpt lat="44.88563" lon="5.17186">
        <ele>1017.7456665039</ele>
        <time>2011-07-12T11:43:59Z</time>
      </trkpt>
      <trkpt lat="44.88572" lon="5.17159">
        <ele>1017.9901123047</ele>
        <time>2011-07-12T11:44:05Z</time>
      </trkpt>
      <trkpt lat="44.88582" lon="5.17127">
        <ele>1018.4956054688</ele>
        <time>2011-07-12T11:44:12Z</time>
      </trkpt>
      <trkpt lat="44.88593" lon="5.17092">
        <ele>1019.0731201172</ele>
        <time>2011-07-12T11:44:20Z</time>
      </trkpt>
      <trkpt lat="44.88602" lon="5.17064">
        <ele>1019.102722168</ele>
        <time>2011-07-12T11:44:27Z</time>
      </trkpt>
      <trkpt lat="44.88609" lon="5.17037">
        <ele>1019.8225708008</ele>
        <time>2011-07-12T11:44:34Z</time>
      </trkpt>
      <trkpt lat="44.88613" lon="5.17007">
        <ele>1021.5845947266</ele>
        <time>2011-07-12T11:44:42Z</time>
      </trkpt>
      <trkpt lat="44.88614" lon="5.16982">
        <ele>1023.9761352539</ele>
        <time>2011-07-12T11:44:49Z</time>
      </trkpt>
      <trkpt lat="44.88613" lon="5.16955">
        <ele>1025.6486816406</ele>
        <time>2011-07-12T11:44:57Z</time>
      </trkpt>
      <trkpt lat="44.88613" lon="5.16939">
        <ele>1026.6685791016</ele>
        <time>2011-07-12T11:45:02Z</time>
      </trkpt>
      <trkpt lat="44.88613" lon="5.16918">
        <ele>1028.8597412109</ele>
        <time>2011-07-12T11:45:08Z</time>
      </trkpt>
      <trkpt lat="44.88612" lon="5.16895">
        <ele>1030.583984375</ele>
        <time>2011-07-12T11:45:15Z</time>
      </trkpt>
      <trkpt lat="44.88611" lon="5.16874">
        <ele>1032.0900878906</ele>
        <time>2011-07-12T11:45:22Z</time>
      </trkpt>
      <trkpt lat="44.88609" lon="5.16857">
        <ele>1033.3673095703</ele>
        <time>2011-07-12T11:45:29Z</time>
      </trkpt>
      <trkpt lat="44.88605" lon="5.16839">
        <ele>1034.8435058594</ele>
        <time>2011-07-12T11:45:37Z</time>
      </trkpt>
      <trkpt lat="44.88597" lon="5.16818">
        <ele>1036.65625</ele>
        <time>2011-07-12T11:45:46Z</time>
      </trkpt>
      <trkpt lat="44.88587" lon="5.168">
        <ele>1038.2872314453</ele>
        <time>2011-07-12T11:45:54Z</time>
      </trkpt>
      <trkpt lat="44.88576" lon="5.16782">
        <ele>1039.6687011719</ele>
        <time>2011-07-12T11:46:02Z</time>
      </trkpt>
      <trkpt lat="44.88565" lon="5.16767">
        <ele>1040.8050537109</ele>
        <time>2011-07-12T11:46:09Z</time>
      </trkpt>
      <trkpt lat="44.88559" lon="5.16756">
        <ele>1041.5535888672</ele>
        <time>2011-07-12T11:46:14Z</time>
      </trkpt>
      <trkpt lat="44.88548" lon="5.16738">
        <ele>1042.4393310547</ele>
        <time>2011-07-12T11:46:21Z</time>
      </trkpt>
      <trkpt lat="44.88538" lon="5.16712">
        <ele>1043.8420410156</ele>
        <time>2011-07-12T11:46:30Z</time>
      </trkpt>
      <trkpt lat="44.88533" lon="5.1668">
        <ele>1045.6983642578</ele>
        <time>2011-07-12T11:46:40Z</time>
      </trkpt>
      <trkpt lat="44.88533" lon="5.16661">
        <ele>1046.5949707031</ele>
        <time>2011-07-12T11:46:46Z</time>
      </trkpt>
      <trkpt lat="44.88536" lon="5.16636">
        <ele>1048.5227050781</ele>
        <time>2011-07-12T11:46:54Z</time>
      </trkpt>
      <trkpt lat="44.88545" lon="5.16604">
        <ele>1051.4987792969</ele>
        <time>2011-07-12T11:47:04Z</time>
      </trkpt>
      <trkpt lat="44.88556" lon="5.16583">
        <ele>1053.1005859375</ele>
        <time>2011-07-12T11:47:11Z</time>
      </trkpt>
      <trkpt lat="44.88573" lon="5.16561">
        <ele>1056.3779296875</ele>
        <time>2011-07-12T11:47:21Z</time>
      </trkpt>
      <trkpt lat="44.88588" lon="5.16539">
        <ele>1059.5244140625</ele>
        <time>2011-07-12T11:47:31Z</time>
      </trkpt>
      <trkpt lat="44.88599" lon="5.16519">
        <ele>1061.7800292969</ele>
        <time>2011-07-12T11:47:39Z</time>
      </trkpt>
      <trkpt lat="44.88609" lon="5.16501">
        <ele>1063.7575683594</ele>
        <time>2011-07-12T11:47:46Z</time>
      </trkpt>
      <trkpt lat="44.88616" lon="5.16483">
        <ele>1065.7425537109</ele>
        <time>2011-07-12T11:47:53Z</time>
      </trkpt>
      <trkpt lat="44.8862" lon="5.16473">
        <ele>1066.8927001953</ele>
        <time>2011-07-12T11:47:57Z</time>
      </trkpt>
      <trkpt lat="44.88623" lon="5.16455">
        <ele>1067.9388427734</ele>
        <time>2011-07-12T11:48:03Z</time>
      </trkpt>
      <trkpt lat="44.88624" lon="5.1644">
        <ele>1068.7215576172</ele>
        <time>2011-07-12T11:48:08Z</time>
      </trkpt>
      <trkpt lat="44.88624" lon="5.16434">
        <ele>1069.3585205078</ele>
        <time>2011-07-12T11:48:11Z</time>
      </trkpt>
      <trkpt lat="44.88624" lon="5.16414">
        <ele>1071.0238037109</ele>
        <time>2011-07-12T11:48:18Z</time>
      </trkpt>
      <trkpt lat="44.88624" lon="5.16393">
        <ele>1072.1488037109</ele>
        <time>2011-07-12T11:48:25Z</time>
      </trkpt>
      <trkpt lat="44.88623" lon="5.16375">
        <ele>1073.5714111328</ele>
        <time>2011-07-12T11:48:31Z</time>
      </trkpt>
      <trkpt lat="44.88624" lon="5.1635">
        <ele>1075.6126708984</ele>
        <time>2011-07-12T11:48:39Z</time>
      </trkpt>
      <trkpt lat="44.88626" lon="5.16326">
        <ele>1077.4119873047</ele>
        <time>2011-07-12T11:48:47Z</time>
      </trkpt>
      <trkpt lat="44.88631" lon="5.16297">
        <ele>1079.3305664062</ele>
        <time>2011-07-12T11:48:57Z</time>
      </trkpt>
      <trkpt lat="44.88637" lon="5.16273">
        <ele>1080.7982177734</ele>
        <time>2011-07-12T11:49:05Z</time>
      </trkpt>
      <trkpt lat="44.88641" lon="5.16241">
        <ele>1081.3549804688</ele>
        <time>2011-07-12T11:49:15Z</time>
      </trkpt>
      <trkpt lat="44.88639" lon="5.16215">
        <ele>1081.9926757812</ele>
        <time>2011-07-12T11:49:23Z</time>
      </trkpt>
      <trkpt lat="44.8863" lon="5.16187">
        <ele>1081.5070800781</ele>
        <time>2011-07-12T11:49:32Z</time>
      </trkpt>
      <trkpt lat="44.88621" lon="5.16169">
        <ele>1081.0275878906</ele>
        <time>2011-07-12T11:49:39Z</time>
      </trkpt>
      <trkpt lat="44.88609" lon="5.16146">
        <ele>1081</ele>
        <time>2011-07-12T11:49:48Z</time>
      </trkpt>
      <trkpt lat="44.88598" lon="5.16126">
        <ele>1081</ele>
        <time>2011-07-12T11:49:56Z</time>
      </trkpt>
      <trkpt lat="44.88586" lon="5.16103">
        <ele>1081</ele>
        <time>2011-07-12T11:50:05Z</time>
      </trkpt>
      <trkpt lat="44.88579" lon="5.16084">
        <ele>1081</ele>
        <time>2011-07-12T11:50:12Z</time>
      </trkpt>
      <trkpt lat="44.88581" lon="5.16061">
        <ele>1080.2138671875</ele>
        <time>2011-07-12T11:50:19Z</time>
      </trkpt>
      <trkpt lat="44.88592" lon="5.16043">
        <ele>1080</ele>
        <time>2011-07-12T11:50:26Z</time>
      </trkpt>
      <trkpt lat="44.88608" lon="5.16018">
        <ele>1080</ele>
        <time>2011-07-12T11:50:35Z</time>
      </trkpt>
      <trkpt lat="44.88621" lon="5.15995">
        <ele>1080</ele>
        <time>2011-07-12T11:50:42Z</time>
      </trkpt>
      <trkpt lat="44.8863" lon="5.1598">
        <ele>1080</ele>
        <time>2011-07-12T11:50:48Z</time>
      </trkpt>
      <trkpt lat="44.88638" lon="5.15964">
        <ele>1080</ele>
        <time>2011-07-12T11:50:53Z</time>
      </trkpt>
      <trkpt lat="44.88648" lon="5.15947">
        <ele>1080</ele>
        <time>2011-07-12T11:50:59Z</time>
      </trkpt>
      <trkpt lat="44.88657" lon="5.1592">
        <ele>1080</ele>
        <time>2011-07-12T11:51:06Z</time>
      </trkpt>
      <trkpt lat="44.88666" lon="5.15893">
        <ele>1080</ele>
        <time>2011-07-12T11:51:13Z</time>
      </trkpt>
      <trkpt lat="44.88674" lon="5.15869">
        <ele>1080</ele>
        <time>2011-07-12T11:51:19Z</time>
      </trkpt>
      <trkpt lat="44.88684" lon="5.15846">
        <ele>1080</ele>
        <time>2011-07-12T11:51:25Z</time>
      </trkpt>
      <trkpt lat="44.88694" lon="5.15824">
        <ele>1080</ele>
        <time>2011-07-12T11:51:30Z</time>
      </trkpt>
      <trkpt lat="44.88712" lon="5.15796">
        <ele>1076.8814697266</ele>
        <time>2011-07-12T11:51:35Z</time>
      </trkpt>
      <trkpt lat="44.88727" lon="5.15761">
        <ele>1073.0626220703</ele>
        <time>2011-07-12T11:51:39Z</time>
      </trkpt>
      <trkpt lat="44.88733" lon="5.15725">
        <ele>1070.3663330078</ele>
        <time>2011-07-12T11:51:42Z</time>
      </trkpt>
      <trkpt lat="44.88752" lon="5.15659">
        <ele>1067.6140136719</ele>
        <time>2011-07-12T11:51:47Z</time>
      </trkpt>
      <trkpt lat="44.88778" lon="5.15623">
        <ele>1067.8078613281</ele>
        <time>2011-07-12T11:51:50Z</time>
      </trkpt>
      <trkpt lat="44.88789" lon="5.15571">
        <ele>1066.3471679688</ele>
        <time>2011-07-12T11:51:53Z</time>
      </trkpt>
      <trkpt lat="44.88806" lon="5.15485">
        <ele>1061.0402832031</ele>
        <time>2011-07-12T11:51:58Z</time>
      </trkpt>
      <trkpt lat="44.88825" lon="5.15461">
        <ele>1061.7275390625</ele>
        <time>2011-07-12T11:52:00Z</time>
      </trkpt>
      <trkpt lat="44.88862" lon="5.15411">
        <ele>1060.4822998047</ele>
        <time>2011-07-12T11:52:04Z</time>
      </trkpt>
      <trkpt lat="44.88868" lon="5.15394">
        <ele>1059.0531005859</ele>
        <time>2011-07-12T11:52:05Z</time>
      </trkpt>
      <trkpt lat="44.88879" lon="5.15337">
        <ele>1055.7589111328</ele>
        <time>2011-07-12T11:52:08Z</time>
      </trkpt>
      <trkpt lat="44.88893" lon="5.15241">
        <ele>1049.3247070312</ele>
        <time>2011-07-12T11:52:13Z</time>
      </trkpt>
      <trkpt lat="44.8891" lon="5.15125">
        <ele>1042.0129394531</ele>
        <time>2011-07-12T11:52:19Z</time>
      </trkpt>
      <trkpt lat="44.88929" lon="5.14979">
        <ele>1040</ele>
        <time>2011-07-12T11:52:27Z</time>
      </trkpt>
      <trkpt lat="44.88932" lon="5.14961">
        <ele>1040</ele>
        <time>2011-07-12T11:52:28Z</time>
      </trkpt>
      <trkpt lat="44.88937" lon="5.14924">
        <ele>1040</ele>
        <time>2011-07-12T11:52:30Z</time>
      </trkpt>
      <trkpt lat="44.88959" lon="5.14863">
        <ele>1039</ele>
        <time>2011-07-12T11:52:34Z</time>
      </trkpt>
      <trkpt lat="44.88989" lon="5.14799">
        <ele>1039</ele>
        <time>2011-07-12T11:52:39Z</time>
      </trkpt>
      <trkpt lat="44.88993" lon="5.14786">
        <ele>1039</ele>
        <time>2011-07-12T11:52:40Z</time>
      </trkpt>
      <trkpt lat="44.89012" lon="5.14706">
        <ele>1038</ele>
        <time>2011-07-12T11:52:46Z</time>
      </trkpt>
      <trkpt lat="44.89019" lon="5.14682">
        <ele>1037.6829833984</ele>
        <time>2011-07-12T11:52:48Z</time>
      </trkpt>
      <trkpt lat="44.89026" lon="5.14617">
        <ele>1037.0546875</ele>
        <time>2011-07-12T11:52:53Z</time>
      </trkpt>
      <trkpt lat="44.89031" lon="5.14545">
        <ele>1031.7373046875</ele>
        <time>2011-07-12T11:52:59Z</time>
      </trkpt>
      <trkpt lat="44.89032" lon="5.14514">
        <ele>1029.3739013672</ele>
        <time>2011-07-12T11:53:02Z</time>
      </trkpt>
      <trkpt lat="44.8902" lon="5.14476">
        <ele>1026.4094238281</ele>
        <time>2011-07-12T11:53:06Z</time>
      </trkpt>
      <trkpt lat="44.89004" lon="5.14466">
        <ele>1025.5980224609</ele>
        <time>2011-07-12T11:53:08Z</time>
      </trkpt>
      <trkpt lat="44.88995" lon="5.14465">
        <ele>1025.1390380859</ele>
        <time>2011-07-12T11:53:09Z</time>
      </trkpt>
      <trkpt lat="44.88968" lon="5.14452">
        <ele>1022.3818359375</ele>
        <time>2011-07-12T11:53:12Z</time>
      </trkpt>
      <trkpt lat="44.88944" lon="5.14421">
        <ele>1017.5972290039</ele>
        <time>2011-07-12T11:53:15Z</time>
      </trkpt>
      <trkpt lat="44.88934" lon="5.14413">
        <ele>1015.6465454102</ele>
        <time>2011-07-12T11:53:16Z</time>
      </trkpt>
      <trkpt lat="44.88902" lon="5.14393">
        <ele>1009.6658325195</ele>
        <time>2011-07-12T11:53:19Z</time>
      </trkpt>
      <trkpt lat="44.88866" lon="5.14384">
        <ele>1005.7230834961</ele>
        <time>2011-07-12T11:53:22Z</time>
      </trkpt>
      <trkpt lat="44.88854" lon="5.14387">
        <ele>1005.4643554688</ele>
        <time>2011-07-12T11:53:23Z</time>
      </trkpt>
      <trkpt lat="44.88793" lon="5.14388">
        <ele>1004.0095214844</ele>
        <time>2011-07-12T11:53:28Z</time>
      </trkpt>
      <trkpt lat="44.8877" lon="5.14372">
        <ele>1001.2291259766</ele>
        <time>2011-07-12T11:53:30Z</time>
      </trkpt>
      <trkpt lat="44.88719" lon="5.1434">
        <ele>997.18963623047</ele>
        <time>2011-07-12T11:53:35Z</time>
      </trkpt>
      <trkpt lat="44.88707" lon="5.14333">
        <ele>997.05041503906</ele>
        <time>2011-07-12T11:53:37Z</time>
      </trkpt>
      <trkpt lat="44.88713" lon="5.14323">
        <ele>995.66485595703</ele>
        <time>2011-07-12T11:53:39Z</time>
      </trkpt>
      <trkpt lat="44.88726" lon="5.14321">
        <ele>994.73449707031</ele>
        <time>2011-07-12T11:53:41Z</time>
      </trkpt>
      <trkpt lat="44.88734" lon="5.14323">
        <ele>995.02081298828</ele>
        <time>2011-07-12T11:53:42Z</time>
      </trkpt>
      <trkpt lat="44.88778" lon="5.1433">
        <ele>997.89050292969</ele>
        <time>2011-07-12T11:53:47Z</time>
      </trkpt>
      <trkpt lat="44.88799" lon="5.14332">
        <ele>997.95916748047</ele>
        <time>2011-07-12T11:53:49Z</time>
      </trkpt>
      <trkpt lat="44.88842" lon="5.14319">
        <ele>997.48022460938</ele>
        <time>2011-07-12T11:53:53Z</time>
      </trkpt>
      <trkpt lat="44.88852" lon="5.14311">
        <ele>997.18841552734</ele>
        <time>2011-07-12T11:53:54Z</time>
      </trkpt>
      <trkpt lat="44.88914" lon="5.14256">
        <ele>994.55249023438</ele>
        <time>2011-07-12T11:54:00Z</time>
      </trkpt>
      <trkpt lat="44.88932" lon="5.14233">
        <ele>994.48669433594</ele>
        <time>2011-07-12T11:54:02Z</time>
      </trkpt>
      <trkpt lat="44.8894" lon="5.1418">
        <ele>991.49157714844</ele>
        <time>2011-07-12T11:54:05Z</time>
      </trkpt>
      <trkpt lat="44.88928" lon="5.14146">
        <ele>987.73217773438</ele>
        <time>2011-07-12T11:54:07Z</time>
      </trkpt>
      <trkpt lat="44.88913" lon="5.14095">
        <ele>981.90435791016</ele>
        <time>2011-07-12T11:54:10Z</time>
      </trkpt>
      <trkpt lat="44.88914" lon="5.14059">
        <ele>979.32434082031</ele>
        <time>2011-07-12T11:54:12Z</time>
      </trkpt>
      <trkpt lat="44.88914" lon="5.14005">
        <ele>974.50842285156</ele>
        <time>2011-07-12T11:54:15Z</time>
      </trkpt>
      <trkpt lat="44.88899" lon="5.13974">
        <ele>971.50939941406</ele>
        <time>2011-07-12T11:54:17Z</time>
      </trkpt>
      <trkpt lat="44.8885" lon="5.1391">
        <ele>967.39727783203</ele>
        <time>2011-07-12T11:54:22Z</time>
      </trkpt>
      <trkpt lat="44.88811" lon="5.13855">
        <ele>961.43469238281</ele>
        <time>2011-07-12T11:54:26Z</time>
      </trkpt>
      <trkpt lat="44.88802" lon="5.13841">
        <ele>959.45031738281</ele>
        <time>2011-07-12T11:54:27Z</time>
      </trkpt>
      <trkpt lat="44.88754" lon="5.1381">
        <ele>954.59405517578</ele>
        <time>2011-07-12T11:54:31Z</time>
      </trkpt>
      <trkpt lat="44.88741" lon="5.13807">
        <ele>954.54449462891</ele>
        <time>2011-07-12T11:54:32Z</time>
      </trkpt>
      <trkpt lat="44.88663" lon="5.13797">
        <ele>950.18560791016</ele>
        <time>2011-07-12T11:54:38Z</time>
      </trkpt>
      <trkpt lat="44.88652" lon="5.13797">
        <ele>949.38909912109</ele>
        <time>2011-07-12T11:54:39Z</time>
      </trkpt>
      <trkpt lat="44.88634" lon="5.13787">
        <ele>946.01379394531</ele>
        <time>2011-07-12T11:54:42Z</time>
      </trkpt>
      <trkpt lat="44.88643" lon="5.13774">
        <ele>944.69750976562</ele>
        <time>2011-07-12T11:54:44Z</time>
      </trkpt>
      <trkpt lat="44.88658" lon="5.1377">
        <ele>945.22619628906</ele>
        <time>2011-07-12T11:54:46Z</time>
      </trkpt>
      <trkpt lat="44.88683" lon="5.13762">
        <ele>945.60925292969</ele>
        <time>2011-07-12T11:54:49Z</time>
      </trkpt>
      <trkpt lat="44.88702" lon="5.13751">
        <ele>945.32916259766</ele>
        <time>2011-07-12T11:54:51Z</time>
      </trkpt>
      <trkpt lat="44.88736" lon="5.13711">
        <ele>939.89886474609</ele>
        <time>2011-07-12T11:54:55Z</time>
      </trkpt>
      <trkpt lat="44.88781" lon="5.1365">
        <ele>939</ele>
        <time>2011-07-12T11:55:00Z</time>
      </trkpt>
      <trkpt lat="44.8881" lon="5.13613">
        <ele>939</ele>
        <time>2011-07-12T11:55:03Z</time>
      </trkpt>
      <trkpt lat="44.88829" lon="5.13587">
        <ele>939</ele>
        <time>2011-07-12T11:55:05Z</time>
      </trkpt>
      <trkpt lat="44.88867" lon="5.13537">
        <ele>932.48114013672</ele>
        <time>2011-07-12T11:55:09Z</time>
      </trkpt>
      <trkpt lat="44.8892" lon="5.13455">
        <ele>921.30810546875</ele>
        <time>2011-07-12T11:55:15Z</time>
      </trkpt>
      <trkpt lat="44.88963" lon="5.13411">
        <ele>904.01385498047</ele>
        <time>2011-07-12T11:55:19Z</time>
      </trkpt>
      <trkpt lat="44.88974" lon="5.13403">
        <ele>902.71014404297</ele>
        <time>2011-07-12T11:55:20Z</time>
      </trkpt>
      <trkpt lat="44.88991" lon="5.13364">
        <ele>896.79663085938</ele>
        <time>2011-07-12T11:55:23Z</time>
      </trkpt>
      <trkpt lat="44.88988" lon="5.13348">
        <ele>893.33551025391</ele>
        <time>2011-07-12T11:55:24Z</time>
      </trkpt>
      <trkpt lat="44.88974" lon="5.13321">
        <ele>887.72320556641</ele>
        <time>2011-07-12T11:55:26Z</time>
      </trkpt>
      <trkpt lat="44.8895" lon="5.13282">
        <ele>884.70385742188</ele>
        <time>2011-07-12T11:55:29Z</time>
      </trkpt>
      <trkpt lat="44.88942" lon="5.13248">
        <ele>882.08618164062</ele>
        <time>2011-07-12T11:55:31Z</time>
      </trkpt>
      <trkpt lat="44.88942" lon="5.13193">
        <ele>874.23596191406</ele>
        <time>2011-07-12T11:55:34Z</time>
      </trkpt>
      <trkpt lat="44.8894" lon="5.13175">
        <ele>871.03466796875</ele>
        <time>2011-07-12T11:55:35Z</time>
      </trkpt>
      <trkpt lat="44.88927" lon="5.13143">
        <ele>867.76599121094</ele>
        <time>2011-07-12T11:55:37Z</time>
      </trkpt>
      <trkpt lat="44.88898" lon="5.13111">
        <ele>871.06658935547</ele>
        <time>2011-07-12T11:55:40Z</time>
      </trkpt>
      <trkpt lat="44.88877" lon="5.13095">
        <ele>874.22100830078</ele>
        <time>2011-07-12T11:55:42Z</time>
      </trkpt>
      <trkpt lat="44.88837" lon="5.13083">
        <ele>889.43078613281</ele>
        <time>2011-07-12T11:55:46Z</time>
      </trkpt>
      <trkpt lat="44.88831" lon="5.13071">
        <ele>890.44940185547</ele>
        <time>2011-07-12T11:55:48Z</time>
      </trkpt>
      <trkpt lat="44.88843" lon="5.13066">
        <ele>885.38214111328</ele>
        <time>2011-07-12T11:55:50Z</time>
      </trkpt>
      <trkpt lat="44.88866" lon="5.13074">
        <ele>875.79809570312</ele>
        <time>2011-07-12T11:55:53Z</time>
      </trkpt>
      <trkpt lat="44.88875" lon="5.13077">
        <ele>873.09759521484</ele>
        <time>2011-07-12T11:55:54Z</time>
      </trkpt>
      <trkpt lat="44.88894" lon="5.13082">
        <ele>867.57373046875</ele>
        <time>2011-07-12T11:55:56Z</time>
      </trkpt>
      <trkpt lat="44.88926" lon="5.13082">
        <ele>858.53759765625</ele>
        <time>2011-07-12T11:55:59Z</time>
      </trkpt>
      <trkpt lat="44.88959" lon="5.13098">
        <ele>846.37518310547</ele>
        <time>2011-07-12T11:56:02Z</time>
      </trkpt>
      <trkpt lat="44.88982" lon="5.13142">
        <ele>843.81726074219</ele>
        <time>2011-07-12T11:56:05Z</time>
      </trkpt>
      <trkpt lat="44.88992" lon="5.13178">
        <ele>850.6748046875</ele>
        <time>2011-07-12T11:56:07Z</time>
      </trkpt>
      <trkpt lat="44.88994" lon="5.13197">
        <ele>855.52740478516</ele>
        <time>2011-07-12T11:56:08Z</time>
      </trkpt>
      <trkpt lat="44.89013" lon="5.13262">
        <ele>868.75061035156</ele>
        <time>2011-07-12T11:56:12Z</time>
      </trkpt>
      <trkpt lat="44.89034" lon="5.13261">
        <ele>865.27484130859</ele>
        <time>2011-07-12T11:56:14Z</time>
      </trkpt>
      <trkpt lat="44.89047" lon="5.13237">
        <ele>855.71032714844</ele>
        <time>2011-07-12T11:56:16Z</time>
      </trkpt>
      <trkpt lat="44.89046" lon="5.13209">
        <ele>846.90100097656</ele>
        <time>2011-07-12T11:56:18Z</time>
      </trkpt>
      <trkpt lat="44.89036" lon="5.13169">
        <ele>836.62091064453</ele>
        <time>2011-07-12T11:56:21Z</time>
      </trkpt>
      <trkpt lat="44.8901" lon="5.13092">
        <ele>820.01336669922</ele>
        <time>2011-07-12T11:56:26Z</time>
      </trkpt>
      <trkpt lat="44.89003" lon="5.1302">
        <ele>804.8671875</ele>
        <time>2011-07-12T11:56:30Z</time>
      </trkpt>
      <trkpt lat="44.89011" lon="5.12906">
        <ele>797.37237548828</ele>
        <time>2011-07-12T11:56:36Z</time>
      </trkpt>
      <trkpt lat="44.89019" lon="5.12809">
        <ele>793.87463378906</ele>
        <time>2011-07-12T11:56:41Z</time>
      </trkpt>
      <trkpt lat="44.89013" lon="5.12749">
        <ele>792.14965820312</ele>
        <time>2011-07-12T11:56:44Z</time>
      </trkpt>
      <trkpt lat="44.89005" lon="5.12733">
        <ele>792.69989013672</ele>
        <time>2011-07-12T11:56:45Z</time>
      </trkpt>
      <trkpt lat="44.88956" lon="5.12633">
        <ele>794.25952148438</ele>
        <time>2011-07-12T11:56:51Z</time>
      </trkpt>
      <trkpt lat="44.88923" lon="5.12598">
        <ele>798.68310546875</ele>
        <time>2011-07-12T11:56:54Z</time>
      </trkpt>
      <trkpt lat="44.88887" lon="5.12563">
        <ele>804.63812255859</ele>
        <time>2011-07-12T11:56:57Z</time>
      </trkpt>
      <trkpt lat="44.88873" lon="5.12526">
        <ele>799.82629394531</ele>
        <time>2011-07-12T11:56:59Z</time>
      </trkpt>
      <trkpt lat="44.88854" lon="5.12469">
        <ele>796.04553222656</ele>
        <time>2011-07-12T11:57:02Z</time>
      </trkpt>
      <trkpt lat="44.88841" lon="5.12387">
        <ele>782.82836914062</ele>
        <time>2011-07-12T11:57:06Z</time>
      </trkpt>
      <trkpt lat="44.88836" lon="5.1231">
        <ele>768.98895263672</ele>
        <time>2011-07-12T11:57:10Z</time>
      </trkpt>
      <trkpt lat="44.88832" lon="5.12289">
        <ele>767.68267822266</ele>
        <time>2011-07-12T11:57:12Z</time>
      </trkpt>
      <trkpt lat="44.88847" lon="5.12292">
        <ele>755.97375488281</ele>
        <time>2011-07-12T11:57:15Z</time>
      </trkpt>
      <trkpt lat="44.88851" lon="5.1231">
        <ele>756.90832519531</ele>
        <time>2011-07-12T11:57:17Z</time>
      </trkpt>
      <trkpt lat="44.88856" lon="5.12381">
        <ele>772.70629882812</ele>
        <time>2011-07-12T11:57:23Z</time>
      </trkpt>
      <trkpt lat="44.88861" lon="5.12424">
        <ele>781.53491210938</ele>
        <time>2011-07-12T11:57:26Z</time>
      </trkpt>
      <trkpt lat="44.88869" lon="5.12452">
        <ele>783.80950927734</ele>
        <time>2011-07-12T11:57:28Z</time>
      </trkpt>
      <trkpt lat="44.8889" lon="5.12488">
        <ele>783.59399414062</ele>
        <time>2011-07-12T11:57:31Z</time>
      </trkpt>
      <trkpt lat="44.88907" lon="5.12532">
        <ele>787.23797607422</ele>
        <time>2011-07-12T11:57:34Z</time>
      </trkpt>
      <trkpt lat="44.88928" lon="5.12553">
        <ele>786.07196044922</ele>
        <time>2011-07-12T11:57:36Z</time>
      </trkpt>
      <trkpt lat="44.88955" lon="5.1256">
        <ele>777.82653808594</ele>
        <time>2011-07-12T11:57:38Z</time>
      </trkpt>
      <trkpt lat="44.88969" lon="5.1256">
        <ele>772.57208251953</ele>
        <time>2011-07-12T11:57:39Z</time>
      </trkpt>
      <trkpt lat="44.8902" lon="5.12575">
        <ele>762.53796386719</ele>
        <time>2011-07-12T11:57:43Z</time>
      </trkpt>
      <trkpt lat="44.89031" lon="5.12585">
        <ele>761.26629638672</ele>
        <time>2011-07-12T11:57:44Z</time>
      </trkpt>
      <trkpt lat="44.89096" lon="5.12651">
        <ele>752.92626953125</ele>
        <time>2011-07-12T11:57:50Z</time>
      </trkpt>
      <trkpt lat="44.89126" lon="5.12693">
        <ele>743.77227783203</ele>
        <time>2011-07-12T11:57:53Z</time>
      </trkpt>
      <trkpt lat="44.89141" lon="5.12744">
        <ele>732.65905761719</ele>
        <time>2011-07-12T11:57:56Z</time>
      </trkpt>
      <trkpt lat="44.8914" lon="5.12782">
        <ele>730.35583496094</ele>
        <time>2011-07-12T11:57:58Z</time>
      </trkpt>
      <trkpt lat="44.89137" lon="5.12802">
        <ele>730.61474609375</ele>
        <time>2011-07-12T11:57:59Z</time>
      </trkpt>
      <trkpt lat="44.8913" lon="5.12839">
        <ele>735.84985351562</ele>
        <time>2011-07-12T11:58:01Z</time>
      </trkpt>
      <trkpt lat="44.89128" lon="5.12896">
        <ele>737.90264892578</ele>
        <time>2011-07-12T11:58:04Z</time>
      </trkpt>
      <trkpt lat="44.89142" lon="5.12955">
        <ele>733.18682861328</ele>
        <time>2011-07-12T11:58:08Z</time>
      </trkpt>
      <trkpt lat="44.89164" lon="5.12967">
        <ele>726.96197509766</ele>
        <time>2011-07-12T11:58:10Z</time>
      </trkpt>
      <trkpt lat="44.8923" lon="5.13005">
        <ele>706.30389404297</ele>
        <time>2011-07-12T11:58:15Z</time>
      </trkpt>
      <trkpt lat="44.89265" lon="5.13059">
        <ele>706.04608154297</ele>
        <time>2011-07-12T11:58:19Z</time>
      </trkpt>
      <trkpt lat="44.89273" lon="5.13093">
        <ele>705.67449951172</ele>
        <time>2011-07-12T11:58:21Z</time>
      </trkpt>
      <trkpt lat="44.89287" lon="5.13145">
        <ele>707.83880615234</ele>
        <time>2011-07-12T11:58:24Z</time>
      </trkpt>
      <trkpt lat="44.89316" lon="5.13227">
        <ele>707.20379638672</ele>
        <time>2011-07-12T11:58:29Z</time>
      </trkpt>
      <trkpt lat="44.89325" lon="5.13282">
        <ele>709.64318847656</ele>
        <time>2011-07-12T11:58:32Z</time>
      </trkpt>
      <trkpt lat="44.89331" lon="5.13298">
        <ele>709.03894042969</ele>
        <time>2011-07-12T11:58:33Z</time>
      </trkpt>
      <trkpt lat="44.89347" lon="5.13329">
        <ele>705.54150390625</ele>
        <time>2011-07-12T11:58:35Z</time>
      </trkpt>
      <trkpt lat="44.89369" lon="5.13395">
        <ele>699.70635986328</ele>
        <time>2011-07-12T11:58:39Z</time>
      </trkpt>
      <trkpt lat="44.89392" lon="5.13486">
        <ele>697.86614990234</ele>
        <time>2011-07-12T11:58:44Z</time>
      </trkpt>
      <trkpt lat="44.89406" lon="5.13563">
        <ele>690.75134277344</ele>
        <time>2011-07-12T11:58:48Z</time>
      </trkpt>
      <trkpt lat="44.89423" lon="5.13659">
        <ele>684.49884033203</ele>
        <time>2011-07-12T11:58:53Z</time>
      </trkpt>
      <trkpt lat="44.89442" lon="5.13777">
        <ele>679.20056152344</ele>
        <time>2011-07-12T11:58:59Z</time>
      </trkpt>
      <trkpt lat="44.89446" lon="5.13909">
        <ele>678.52551269531</ele>
        <time>2011-07-12T11:59:06Z</time>
      </trkpt>
      <trkpt lat="44.89443" lon="5.1394">
        <ele>681.01098632812</ele>
        <time>2011-07-12T11:59:10Z</time>
      </trkpt>
      <trkpt lat="44.89456" lon="5.13921">
        <ele>676.29638671875</ele>
        <time>2011-07-12T11:59:12Z</time>
      </trkpt>
      <trkpt lat="44.89458" lon="5.13905">
        <ele>675.24774169922</ele>
        <time>2011-07-12T11:59:14Z</time>
      </trkpt>
      <trkpt lat="44.89465" lon="5.13832">
        <ele>671.31036376953</ele>
        <time>2011-07-12T11:59:20Z</time>
      </trkpt>
      <trkpt lat="44.89469" lon="5.13757">
        <ele>668.21789550781</ele>
        <time>2011-07-12T11:59:25Z</time>
      </trkpt>
      <trkpt lat="44.89475" lon="5.13667">
        <ele>660.28863525391</ele>
        <time>2011-07-12T11:59:30Z</time>
      </trkpt>
      <trkpt lat="44.89477" lon="5.13575">
        <ele>654.62884521484</ele>
        <time>2011-07-12T11:59:35Z</time>
      </trkpt>
      <trkpt lat="44.89474" lon="5.1348">
        <ele>651.31799316406</ele>
        <time>2011-07-12T11:59:40Z</time>
      </trkpt>
      <trkpt lat="44.89463" lon="5.13382">
        <ele>651.04455566406</ele>
        <time>2011-07-12T11:59:45Z</time>
      </trkpt>
      <trkpt lat="44.8945" lon="5.1328">
        <ele>652.79553222656</ele>
        <time>2011-07-12T11:59:50Z</time>
      </trkpt>
      <trkpt lat="44.89447" lon="5.13236">
        <ele>651.95220947266</ele>
        <time>2011-07-12T11:59:52Z</time>
      </trkpt>
      <trkpt lat="44.89468" lon="5.13164">
        <ele>643.09124755859</ele>
        <time>2011-07-12T11:59:56Z</time>
      </trkpt>
      <trkpt lat="44.89486" lon="5.1311">
        <ele>633.29180908203</ele>
        <time>2011-07-12T11:59:59Z</time>
      </trkpt>
      <trkpt lat="44.89484" lon="5.13074">
        <ele>631.57745361328</ele>
        <time>2011-07-12T12:00:01Z</time>
      </trkpt>
      <trkpt lat="44.89467" lon="5.13055">
        <ele>636.89801025391</ele>
        <time>2011-07-12T12:00:03Z</time>
      </trkpt>
      <trkpt lat="44.89436" lon="5.13036">
        <ele>641.01196289062</ele>
        <time>2011-07-12T12:00:06Z</time>
      </trkpt>
      <trkpt lat="44.8942" lon="5.12994">
        <ele>639.00439453125</ele>
        <time>2011-07-12T12:00:09Z</time>
      </trkpt>
      <trkpt lat="44.89424" lon="5.12959">
        <ele>630.77069091797</ele>
        <time>2011-07-12T12:00:11Z</time>
      </trkpt>
      <trkpt lat="44.8943" lon="5.12943">
        <ele>624.85144042969</ele>
        <time>2011-07-12T12:00:12Z</time>
      </trkpt>
      <trkpt lat="44.89446" lon="5.12896">
        <ele>608.62896728516</ele>
        <time>2011-07-12T12:00:15Z</time>
      </trkpt>
      <trkpt lat="44.89442" lon="5.12869">
        <ele>602.79058837891</ele>
        <time>2011-07-12T12:00:17Z</time>
      </trkpt>
      <trkpt lat="44.89423" lon="5.12851">
        <ele>606.22937011719</ele>
        <time>2011-07-12T12:00:19Z</time>
      </trkpt>
      <trkpt lat="44.89383" lon="5.128">
        <ele>612.46997070312</ele>
        <time>2011-07-12T12:00:24Z</time>
      </trkpt>
      <trkpt lat="44.89381" lon="5.12784">
        <ele>611.30242919922</ele>
        <time>2011-07-12T12:00:25Z</time>
      </trkpt>
      <trkpt lat="44.89391" lon="5.12697">
        <ele>607.0341796875</ele>
        <time>2011-07-12T12:00:30Z</time>
      </trkpt>
      <trkpt lat="44.89417" lon="5.1266">
        <ele>599.15344238281</ele>
        <time>2011-07-12T12:00:33Z</time>
      </trkpt>
      <trkpt lat="44.89462" lon="5.12587">
        <ele>584.65222167969</ele>
        <time>2011-07-12T12:00:38Z</time>
      </trkpt>
      <trkpt lat="44.89466" lon="5.12532">
        <ele>582.09027099609</ele>
        <time>2011-07-12T12:00:41Z</time>
      </trkpt>
      <trkpt lat="44.89448" lon="5.12484">
        <ele>581.84436035156</ele>
        <time>2011-07-12T12:00:44Z</time>
      </trkpt>
      <trkpt lat="44.89418" lon="5.12449">
        <ele>587.90356445312</ele>
        <time>2011-07-12T12:00:47Z</time>
      </trkpt>
      <trkpt lat="44.89383" lon="5.12426">
        <ele>596.78546142578</ele>
        <time>2011-07-12T12:00:50Z</time>
      </trkpt>
      <trkpt lat="44.89364" lon="5.12376">
        <ele>588.859375</ele>
        <time>2011-07-12T12:00:53Z</time>
      </trkpt>
      <trkpt lat="44.89364" lon="5.12357">
        <ele>583.94519042969</ele>
        <time>2011-07-12T12:00:54Z</time>
      </trkpt>
      <trkpt lat="44.89354" lon="5.12265">
        <ele>570.79913330078</ele>
        <time>2011-07-12T12:00:59Z</time>
      </trkpt>
      <trkpt lat="44.89327" lon="5.12222">
        <ele>574.11676025391</ele>
        <time>2011-07-12T12:01:02Z</time>
      </trkpt>
      <trkpt lat="44.89317" lon="5.1221">
        <ele>575.65716552734</ele>
        <time>2011-07-12T12:01:03Z</time>
      </trkpt>
      <trkpt lat="44.89277" lon="5.12158">
        <ele>571.6318359375</ele>
        <time>2011-07-12T12:01:07Z</time>
      </trkpt>
      <trkpt lat="44.89243" lon="5.12127">
        <ele>570.61676025391</ele>
        <time>2011-07-12T12:01:10Z</time>
      </trkpt>
      <trkpt lat="44.89229" lon="5.12122">
        <ele>570.13610839844</ele>
        <time>2011-07-12T12:01:11Z</time>
      </trkpt>
      <trkpt lat="44.89183" lon="5.12097">
        <ele>573.35443115234</ele>
        <time>2011-07-12T12:01:15Z</time>
      </trkpt>
      <trkpt lat="44.89175" lon="5.12081">
        <ele>572.37255859375</ele>
        <time>2011-07-12T12:01:17Z</time>
      </trkpt>
      <trkpt lat="44.89186" lon="5.12075">
        <ele>568.01177978516</ele>
        <time>2011-07-12T12:01:19Z</time>
      </trkpt>
      <trkpt lat="44.89199" lon="5.12085">
        <ele>567.55133056641</ele>
        <time>2011-07-12T12:01:21Z</time>
      </trkpt>
      <trkpt lat="44.8924" lon="5.12102">
        <ele>565.42785644531</ele>
        <time>2011-07-12T12:01:26Z</time>
      </trkpt>
      <trkpt lat="44.89259" lon="5.12102">
        <ele>563.17095947266</ele>
        <time>2011-07-12T12:01:28Z</time>
      </trkpt>
      <trkpt lat="44.89311" lon="5.12121">
        <ele>561.02996826172</ele>
        <time>2011-07-12T12:01:33Z</time>
      </trkpt>
      <trkpt lat="44.89322" lon="5.12125">
        <ele>559.77722167969</ele>
        <time>2011-07-12T12:01:34Z</time>
      </trkpt>
      <trkpt lat="44.89344" lon="5.12128">
        <ele>554.50225830078</ele>
        <time>2011-07-12T12:01:36Z</time>
      </trkpt>
      <trkpt lat="44.89368" lon="5.12124">
        <ele>547.42352294922</ele>
        <time>2011-07-12T12:01:38Z</time>
      </trkpt>
      <trkpt lat="44.89405" lon="5.12133">
        <ele>543.94415283203</ele>
        <time>2011-07-12T12:01:41Z</time>
      </trkpt>
      <trkpt lat="44.89424" lon="5.12157">
        <ele>543.55334472656</ele>
        <time>2011-07-12T12:01:43Z</time>
      </trkpt>
      <trkpt lat="44.89452" lon="5.12207">
        <ele>544.88348388672</ele>
        <time>2011-07-12T12:01:47Z</time>
      </trkpt>
      <trkpt lat="44.8947" lon="5.12211">
        <ele>543.09704589844</ele>
        <time>2011-07-12T12:01:50Z</time>
      </trkpt>
      <trkpt lat="44.8947" lon="5.12195">
        <ele>541.35784912109</ele>
        <time>2011-07-12T12:01:52Z</time>
      </trkpt>
      <trkpt lat="44.89467" lon="5.12186">
        <ele>540.64166259766</ele>
        <time>2011-07-12T12:01:53Z</time>
      </trkpt>
      <trkpt lat="44.89458" lon="5.12169">
        <ele>539.78759765625</ele>
        <time>2011-07-12T12:01:55Z</time>
      </trkpt>
      <trkpt lat="44.89445" lon="5.12137">
        <ele>539.53582763672</ele>
        <time>2011-07-12T12:01:58Z</time>
      </trkpt>
      <trkpt lat="44.89426" lon="5.12091">
        <ele>534.62384033203</ele>
        <time>2011-07-12T12:02:02Z</time>
      </trkpt>
      <trkpt lat="44.89413" lon="5.12067">
        <ele>530.66143798828</ele>
        <time>2011-07-12T12:02:04Z</time>
      </trkpt>
      <trkpt lat="44.8938" lon="5.12031">
        <ele>525.67114257812</ele>
        <time>2011-07-12T12:02:08Z</time>
      </trkpt>
      <trkpt lat="44.89371" lon="5.12024">
        <ele>525.43646240234</ele>
        <time>2011-07-12T12:02:09Z</time>
      </trkpt>
      <trkpt lat="44.89359" lon="5.12001">
        <ele>522.93432617188</ele>
        <time>2011-07-12T12:02:11Z</time>
      </trkpt>
      <trkpt lat="44.89357" lon="5.11974">
        <ele>517.90405273438</ele>
        <time>2011-07-12T12:02:13Z</time>
      </trkpt>
      <trkpt lat="44.89343" lon="5.11955">
        <ele>518.74847412109</ele>
        <time>2011-07-12T12:02:15Z</time>
      </trkpt>
      <trkpt lat="44.89322" lon="5.1195">
        <ele>523.37164306641</ele>
        <time>2011-07-12T12:02:17Z</time>
      </trkpt>
      <trkpt lat="44.89305" lon="5.11931">
        <ele>527.17028808594</ele>
        <time>2011-07-12T12:02:19Z</time>
      </trkpt>
      <trkpt lat="44.89298" lon="5.11902">
        <ele>526.44610595703</ele>
        <time>2011-07-12T12:02:21Z</time>
      </trkpt>
      <trkpt lat="44.89299" lon="5.11871">
        <ele>525.10070800781</ele>
        <time>2011-07-12T12:02:23Z</time>
      </trkpt>
      <trkpt lat="44.89302" lon="5.1184">
        <ele>523.50274658203</ele>
        <time>2011-07-12T12:02:25Z</time>
      </trkpt>
      <trkpt lat="44.89321" lon="5.11799">
        <ele>520.80194091797</ele>
        <time>2011-07-12T12:02:28Z</time>
      </trkpt>
      <trkpt lat="44.89348" lon="5.11792">
        <ele>520.77899169922</ele>
        <time>2011-07-12T12:02:30Z</time>
      </trkpt>
      <trkpt lat="44.89389" lon="5.11796">
        <ele>521.34936523438</ele>
        <time>2011-07-12T12:02:33Z</time>
      </trkpt>
      <trkpt lat="44.89401" lon="5.118">
        <ele>521.26641845703</ele>
        <time>2011-07-12T12:02:34Z</time>
      </trkpt>
      <trkpt lat="44.89461" lon="5.11828">
        <ele>518.85101318359</ele>
        <time>2011-07-12T12:02:39Z</time>
      </trkpt>
      <trkpt lat="44.89497" lon="5.11848">
        <ele>506.50036621094</ele>
        <time>2011-07-12T12:02:42Z</time>
      </trkpt>
      <trkpt lat="44.89536" lon="5.11864">
        <ele>498.45373535156</ele>
        <time>2011-07-12T12:02:45Z</time>
      </trkpt>
      <trkpt lat="44.89589" lon="5.1186">
        <ele>494.13653564453</ele>
        <time>2011-07-12T12:02:49Z</time>
      </trkpt>
      <trkpt lat="44.89623" lon="5.11835">
        <ele>494.26638793945</ele>
        <time>2011-07-12T12:02:52Z</time>
      </trkpt>
      <trkpt lat="44.89645" lon="5.11813">
        <ele>495.11822509766</ele>
        <time>2011-07-12T12:02:54Z</time>
      </trkpt>
      <trkpt lat="44.89684" lon="5.11793">
        <ele>488.9631652832</ele>
        <time>2011-07-12T12:02:57Z</time>
      </trkpt>
      <trkpt lat="44.89736" lon="5.11776">
        <ele>478.65014648438</ele>
        <time>2011-07-12T12:03:01Z</time>
      </trkpt>
      <trkpt lat="44.8978" lon="5.11741">
        <ele>473.07583618164</ele>
        <time>2011-07-12T12:03:05Z</time>
      </trkpt>
      <trkpt lat="44.89787" lon="5.11707">
        <ele>470.98480224609</ele>
        <time>2011-07-12T12:03:07Z</time>
      </trkpt>
      <trkpt lat="44.89786" lon="5.11689">
        <ele>471.09634399414</ele>
        <time>2011-07-12T12:03:08Z</time>
      </trkpt>
      <trkpt lat="44.89783" lon="5.11621">
        <ele>475.07720947266</ele>
        <time>2011-07-12T12:03:12Z</time>
      </trkpt>
      <trkpt lat="44.89776" lon="5.11554">
        <ele>482.97814941406</ele>
        <time>2011-07-12T12:03:16Z</time>
      </trkpt>
      <trkpt lat="44.89776" lon="5.11507">
        <ele>491.10903930664</ele>
        <time>2011-07-12T12:03:19Z</time>
      </trkpt>
      <trkpt lat="44.89784" lon="5.11496">
        <ele>490.73498535156</ele>
        <time>2011-07-12T12:03:20Z</time>
      </trkpt>
      <trkpt lat="44.89807" lon="5.11486">
        <ele>486.07385253906</ele>
        <time>2011-07-12T12:03:22Z</time>
      </trkpt>
      <trkpt lat="44.89835" lon="5.11465">
        <ele>483.93850708008</ele>
        <time>2011-07-12T12:03:25Z</time>
      </trkpt>
      <trkpt lat="44.89863" lon="5.11438">
        <ele>484.05590820312</ele>
        <time>2011-07-12T12:03:28Z</time>
      </trkpt>
      <trkpt lat="44.89916" lon="5.11401">
        <ele>476.80834960938</ele>
        <time>2011-07-12T12:03:33Z</time>
      </trkpt>
      <trkpt lat="44.89955" lon="5.11356">
        <ele>483.57897949219</ele>
        <time>2011-07-12T12:03:37Z</time>
      </trkpt>
      <trkpt lat="44.90001" lon="5.11326">
        <ele>473.03594970703</ele>
        <time>2011-07-12T12:03:41Z</time>
      </trkpt>
      <trkpt lat="44.90039" lon="5.1131">
        <ele>465.28060913086</ele>
        <time>2011-07-12T12:03:44Z</time>
      </trkpt>
      <trkpt lat="44.90096" lon="5.11268">
        <ele>474.52899169922</ele>
        <time>2011-07-12T12:03:49Z</time>
      </trkpt>
      <trkpt lat="44.90173" lon="5.11207">
        <ele>491.36874389648</ele>
        <time>2011-07-12T12:03:56Z</time>
      </trkpt>
      <trkpt lat="44.90223" lon="5.11185">
        <ele>497.22442626953</ele>
        <time>2011-07-12T12:04:00Z</time>
      </trkpt>
      <trkpt lat="44.9025" lon="5.1118">
        <ele>503.50427246094</ele>
        <time>2011-07-12T12:04:02Z</time>
      </trkpt>
      <trkpt lat="44.90318" lon="5.11176">
        <ele>504.96954345703</ele>
        <time>2011-07-12T12:04:07Z</time>
      </trkpt>
      <trkpt lat="44.9038" lon="5.11186">
        <ele>504.55795288086</ele>
        <time>2011-07-12T12:04:12Z</time>
      </trkpt>
      <trkpt lat="44.90426" lon="5.11205">
        <ele>498.41979980469</ele>
        <time>2011-07-12T12:04:16Z</time>
      </trkpt>
      <trkpt lat="44.90491" lon="5.11234">
        <ele>485.70397949219</ele>
        <time>2011-07-12T12:04:22Z</time>
      </trkpt>
      <trkpt lat="44.90551" lon="5.11252">
        <ele>455.47018432617</ele>
        <time>2011-07-12T12:04:27Z</time>
      </trkpt>
      <trkpt lat="44.90629" lon="5.1126">
        <ele>443.2014465332</ele>
        <time>2011-07-12T12:04:33Z</time>
      </trkpt>
      <trkpt lat="44.90696" lon="5.11265">
        <ele>436.97119140625</ele>
        <time>2011-07-12T12:04:38Z</time>
      </trkpt>
      <trkpt lat="44.9078" lon="5.11287">
        <ele>424.95013427734</ele>
        <time>2011-07-12T12:04:44Z</time>
      </trkpt>
      <trkpt lat="44.90881" lon="5.11326">
        <ele>416.73181152344</ele>
        <time>2011-07-12T12:04:51Z</time>
      </trkpt>
      <trkpt lat="44.90924" lon="5.11341">
        <ele>405.56216430664</ele>
        <time>2011-07-12T12:04:54Z</time>
      </trkpt>
      <trkpt lat="44.90981" lon="5.11338">
        <ele>400.25790405273</ele>
        <time>2011-07-12T12:04:58Z</time>
      </trkpt>
      <trkpt lat="44.91008" lon="5.11327">
        <ele>400</ele>
        <time>2011-07-12T12:05:00Z</time>
      </trkpt>
      <trkpt lat="44.9102" lon="5.1132">
        <ele>400</ele>
        <time>2011-07-12T12:05:01Z</time>
      </trkpt>
      <trkpt lat="44.91102" lon="5.11271">
        <ele>400</ele>
        <time>2011-07-12T12:05:08Z</time>
      </trkpt>
      <trkpt lat="44.91134" lon="5.11251">
        <ele>400</ele>
        <time>2011-07-12T12:05:11Z</time>
      </trkpt>
      <trkpt lat="44.91192" lon="5.11212">
        <ele>399.61709594727</ele>
        <time>2011-07-12T12:05:17Z</time>
      </trkpt>
      <trkpt lat="44.91239" lon="5.11179">
        <ele>399</ele>
        <time>2011-07-12T12:05:23Z</time>
      </trkpt>
      <trkpt lat="44.9131" lon="5.11126">
        <ele>396.62380981445</ele>
        <time>2011-07-12T12:05:33Z</time>
      </trkpt>
      <trkpt lat="44.9134" lon="5.11089">
        <ele>394.63598632812</ele>
        <time>2011-07-12T12:05:38Z</time>
      </trkpt>
      <trkpt lat="44.91367" lon="5.11044">
        <ele>392.99468994141</ele>
        <time>2011-07-12T12:05:43Z</time>
      </trkpt>
      <trkpt lat="44.91376" lon="5.11024">
        <ele>392.85394287109</ele>
        <time>2011-07-12T12:05:45Z</time>
      </trkpt>
      <trkpt lat="44.91391" lon="5.10971">
        <ele>391.02014160156</ele>
        <time>2011-07-12T12:05:50Z</time>
      </trkpt>
      <trkpt lat="44.91393" lon="5.10959">
        <ele>390.09832763672</ele>
        <time>2011-07-12T12:05:51Z</time>
      </trkpt>
      <trkpt lat="44.91401" lon="5.10882">
        <ele>384.12451171875</ele>
        <time>2011-07-12T12:05:57Z</time>
      </trkpt>
      <trkpt lat="44.91401" lon="5.10868">
        <ele>382.58297729492</ele>
        <time>2011-07-12T12:05:58Z</time>
      </trkpt>
      <trkpt lat="44.91415" lon="5.10825">
        <ele>380.65908813477</ele>
        <time>2011-07-12T12:06:01Z</time>
      </trkpt>
      <trkpt lat="44.9143" lon="5.10804">
        <ele>380.91821289062</ele>
        <time>2011-07-12T12:06:03Z</time>
      </trkpt>
      <trkpt lat="44.91452" lon="5.10781">
        <ele>380.57580566406</ele>
        <time>2011-07-12T12:06:06Z</time>
      </trkpt>
      <trkpt lat="44.91481" lon="5.1076">
        <ele>380.75729370117</ele>
        <time>2011-07-12T12:06:10Z</time>
      </trkpt>
      <trkpt lat="44.91487" lon="5.10752">
        <ele>380.65283203125</ele>
        <time>2011-07-12T12:06:11Z</time>
      </trkpt>
      <trkpt lat="44.91519" lon="5.10708">
        <ele>379.32717895508</ele>
        <time>2011-07-12T12:06:16Z</time>
      </trkpt>
      <trkpt lat="44.91547" lon="5.10671">
        <ele>378.8173828125</ele>
        <time>2011-07-12T12:06:20Z</time>
      </trkpt>
      <trkpt lat="44.91568" lon="5.10644">
        <ele>378.17736816406</ele>
        <time>2011-07-12T12:06:23Z</time>
      </trkpt>
      <trkpt lat="44.91581" lon="5.10623">
        <ele>377.94375610352</ele>
        <time>2011-07-12T12:06:25Z</time>
      </trkpt>
      <trkpt lat="44.91586" lon="5.10612">
        <ele>378.00366210938</ele>
        <time>2011-07-12T12:06:26Z</time>
      </trkpt>
      <trkpt lat="44.91589" lon="5.1058">
        <ele>376.90643310547</ele>
        <time>2011-07-12T12:06:29Z</time>
      </trkpt>
      <trkpt lat="44.91591" lon="5.1053">
        <ele>375.34124755859</ele>
        <time>2011-07-12T12:06:33Z</time>
      </trkpt>
      <trkpt lat="44.91605" lon="5.10482">
        <ele>374.76611328125</ele>
        <time>2011-07-12T12:06:37Z</time>
      </trkpt>
      <trkpt lat="44.91618" lon="5.10454">
        <ele>374.50439453125</ele>
        <time>2011-07-12T12:06:40Z</time>
      </trkpt>
      <trkpt lat="44.91626" lon="5.10438">
        <ele>374.31393432617</ele>
        <time>2011-07-12T12:06:43Z</time>
      </trkpt>
      <trkpt lat="44.91628" lon="5.10426">
        <ele>373.94314575195</ele>
        <time>2011-07-12T12:06:46Z</time>
      </trkpt>
      <trkpt lat="44.91641" lon="5.10406">
        <ele>373.69766235352</ele>
        <time>2011-07-12T12:06:50Z</time>
      </trkpt>
      <trkpt lat="44.91663" lon="5.1037">
        <ele>373.88098144531</ele>
        <time>2011-07-12T12:06:56Z</time>
      </trkpt>
      <trkpt lat="44.91671" lon="5.10356">
        <ele>373.84790039062</ele>
        <time>2011-07-12T12:06:58Z</time>
      </trkpt>
      <trkpt lat="44.91677" lon="5.10315">
        <ele>372.7321472168</ele>
        <time>2011-07-12T12:07:03Z</time>
      </trkpt>
      <trkpt lat="44.91676" lon="5.10307">
        <ele>372.37850952148</ele>
        <time>2011-07-12T12:07:04Z</time>
      </trkpt>
      <trkpt lat="44.9167" lon="5.10283">
        <ele>372.12817382812</ele>
        <time>2011-07-12T12:07:07Z</time>
      </trkpt>
      <trkpt lat="44.9167" lon="5.1024">
        <ele>371.07357788086</ele>
        <time>2011-07-12T12:07:12Z</time>
      </trkpt>
      <trkpt lat="44.91676" lon="5.10224">
        <ele>371.02499389648</ele>
        <time>2011-07-12T12:07:14Z</time>
      </trkpt>
      <trkpt lat="44.91704" lon="5.10173">
        <ele>370.54702758789</ele>
        <time>2011-07-12T12:07:21Z</time>
      </trkpt>
      <trkpt lat="44.91707" lon="5.10164">
        <ele>370.44653320312</ele>
        <time>2011-07-12T12:07:22Z</time>
      </trkpt>
      <trkpt lat="44.9172" lon="5.10098">
        <ele>369.87252807617</ele>
        <time>2011-07-12T12:07:30Z</time>
      </trkpt>
      <trkpt lat="44.91735" lon="5.10062">
        <ele>370.02169799805</ele>
        <time>2011-07-12T12:07:35Z</time>
      </trkpt>
      <trkpt lat="44.91757" lon="5.10045">
        <ele>370.71081542969</ele>
        <time>2011-07-12T12:07:39Z</time>
      </trkpt>
      <trkpt lat="44.91763" lon="5.10042">
        <ele>370.74639892578</ele>
        <time>2011-07-12T12:07:40Z</time>
      </trkpt>
      <trkpt lat="44.91817" lon="5.1003">
        <ele>373.83068847656</ele>
        <time>2011-07-12T12:07:49Z</time>
      </trkpt>
      <trkpt lat="44.91839" lon="5.10025">
        <ele>374.90774536133</ele>
        <time>2011-07-12T12:07:54Z</time>
      </trkpt>
      <trkpt lat="44.91858" lon="5.10021">
        <ele>374.76354980469</ele>
        <time>2011-07-12T12:08:00Z</time>
      </trkpt>
      <trkpt lat="44.91882" lon="5.10018">
        <ele>376.12094116211</ele>
        <time>2011-07-12T12:08:08Z</time>
      </trkpt>
      <trkpt lat="44.91902" lon="5.10014">
        <ele>377.46334838867</ele>
        <time>2011-07-12T12:08:15Z</time>
      </trkpt>
      <trkpt lat="44.9193" lon="5.10009">
        <ele>378.65454101562</ele>
        <time>2011-07-12T12:08:25Z</time>
      </trkpt>
      <trkpt lat="44.91953" lon="5.10005">
        <ele>379</ele>
        <time>2011-07-12T12:08:33Z</time>
      </trkpt>
      <trkpt lat="44.91975" lon="5.1">
        <ele>379</ele>
        <time>2011-07-12T12:08:41Z</time>
      </trkpt>
      <trkpt lat="44.91989" lon="5.09997">
        <ele>379</ele>
        <time>2011-07-12T12:08:46Z</time>
      </trkpt>
      <trkpt lat="44.92009" lon="5.09993">
        <ele>377.55490112305</ele>
        <time>2011-07-12T12:08:52Z</time>
      </trkpt>
      <trkpt lat="44.92013" lon="5.09992">
        <ele>376.89855957031</ele>
        <time>2011-07-12T12:08:53Z</time>
      </trkpt>
      <trkpt lat="44.92027" lon="5.09989">
        <ele>374.94644165039</ele>
        <time>2011-07-12T12:08:56Z</time>
      </trkpt>
      <trkpt lat="44.9205" lon="5.09976">
        <ele>373.25201416016</ele>
        <time>2011-07-12T12:09:00Z</time>
      </trkpt>
      <trkpt lat="44.92087" lon="5.09953">
        <ele>371.1623840332</ele>
        <time>2011-07-12T12:09:05Z</time>
      </trkpt>
      <trkpt lat="44.92106" lon="5.0995">
        <ele>370.40707397461</ele>
        <time>2011-07-12T12:09:07Z</time>
      </trkpt>
      <trkpt lat="44.92126" lon="5.09948">
        <ele>368.57080078125</ele>
        <time>2011-07-12T12:09:09Z</time>
      </trkpt>
      <trkpt lat="44.92166" lon="5.09927">
        <ele>366.52828979492</ele>
        <time>2011-07-12T12:09:13Z</time>
      </trkpt>
      <trkpt lat="44.92194" lon="5.09901">
        <ele>367.416015625</ele>
        <time>2011-07-12T12:09:16Z</time>
      </trkpt>
      <trkpt lat="44.92219" lon="5.099">
        <ele>364.28268432617</ele>
        <time>2011-07-12T12:09:18Z</time>
      </trkpt>
      <trkpt lat="44.92226" lon="5.09906">
        <ele>362.61279296875</ele>
        <time>2011-07-12T12:09:19Z</time>
      </trkpt>
      <trkpt lat="44.92282" lon="5.09919">
        <ele>353.86099243164</ele>
        <time>2011-07-12T12:09:24Z</time>
      </trkpt>
      <trkpt lat="44.92312" lon="5.09889">
        <ele>353.93966674805</ele>
        <time>2011-07-12T12:09:27Z</time>
      </trkpt>
      <trkpt lat="44.92375" lon="5.09804">
        <ele>350.03213500977</ele>
        <time>2011-07-12T12:09:34Z</time>
      </trkpt>
      <trkpt lat="44.92401" lon="5.09772">
        <ele>349.33203125</ele>
        <time>2011-07-12T12:09:37Z</time>
      </trkpt>
      <trkpt lat="44.92407" lon="5.09764">
        <ele>349.48651123047</ele>
        <time>2011-07-12T12:09:38Z</time>
      </trkpt>
      <trkpt lat="44.92419" lon="5.09767">
        <ele>347.74407958984</ele>
        <time>2011-07-12T12:09:41Z</time>
      </trkpt>
      <trkpt lat="44.92418" lon="5.09774">
        <ele>347.16213989258</ele>
        <time>2011-07-12T12:09:42Z</time>
      </trkpt>
      <trkpt lat="44.9241" lon="5.09786">
        <ele>347.2633972168</ele>
        <time>2011-07-12T12:09:44Z</time>
      </trkpt>
      <trkpt lat="44.92386" lon="5.09818">
        <ele>348.28884887695</ele>
        <time>2011-07-12T12:09:49Z</time>
      </trkpt>
      <trkpt lat="44.92366" lon="5.09865">
        <ele>345.39642333984</ele>
        <time>2011-07-12T12:09:54Z</time>
      </trkpt>
      <trkpt lat="44.92335" lon="5.09927">
        <ele>343.16201782227</ele>
        <time>2011-07-12T12:10:00Z</time>
      </trkpt>
      <trkpt lat="44.9233" lon="5.09939">
        <ele>342.8766784668</ele>
        <time>2011-07-12T12:10:01Z</time>
      </trkpt>
      <trkpt lat="44.92327" lon="5.09952">
        <ele>341.51510620117</ele>
        <time>2011-07-12T12:10:02Z</time>
      </trkpt>
      <trkpt lat="44.92339" lon="5.09992">
        <ele>336.00671386719</ele>
        <time>2011-07-12T12:10:05Z</time>
      </trkpt>
      <trkpt lat="44.92358" lon="5.09992">
        <ele>335.1435546875</ele>
        <time>2011-07-12T12:10:07Z</time>
      </trkpt>
      <trkpt lat="44.92367" lon="5.09988">
        <ele>334.68771362305</ele>
        <time>2011-07-12T12:10:08Z</time>
      </trkpt>
      <trkpt lat="44.92385" lon="5.09977">
        <ele>333.45825195312</ele>
        <time>2011-07-12T12:10:10Z</time>
      </trkpt>
      <trkpt lat="44.9245" lon="5.09941">
        <ele>323.27935791016</ele>
        <time>2011-07-12T12:10:17Z</time>
      </trkpt>
      <trkpt lat="44.92459" lon="5.09936">
        <ele>321.57409667969</ele>
        <time>2011-07-12T12:10:18Z</time>
      </trkpt>
      <trkpt lat="44.925" lon="5.09914">
        <ele>318.09521484375</ele>
        <time>2011-07-12T12:10:22Z</time>
      </trkpt>
      <trkpt lat="44.92531" lon="5.09899">
        <ele>318</ele>
        <time>2011-07-12T12:10:25Z</time>
      </trkpt>
      <trkpt lat="44.92575" lon="5.09891">
        <ele>316.66708374023</ele>
        <time>2011-07-12T12:10:29Z</time>
      </trkpt>
      <trkpt lat="44.92597" lon="5.09895">
        <ele>315.24884033203</ele>
        <time>2011-07-12T12:10:31Z</time>
      </trkpt>
      <trkpt lat="44.92651" lon="5.09915">
        <ele>313.88055419922</ele>
        <time>2011-07-12T12:10:36Z</time>
      </trkpt>
      <trkpt lat="44.92691" lon="5.09911">
        <ele>313.37905883789</ele>
        <time>2011-07-12T12:10:40Z</time>
      </trkpt>
      <trkpt lat="44.92708" lon="5.099">
        <ele>312.44589233398</ele>
        <time>2011-07-12T12:10:42Z</time>
      </trkpt>
      <trkpt lat="44.92769" lon="5.09865">
        <ele>308.61831665039</ele>
        <time>2011-07-12T12:10:49Z</time>
      </trkpt>
      <trkpt lat="44.92822" lon="5.09842">
        <ele>310.08776855469</ele>
        <time>2011-07-12T12:10:55Z</time>
      </trkpt>
      <trkpt lat="44.92873" lon="5.09813">
        <ele>311.39981079102</ele>
        <time>2011-07-12T12:11:01Z</time>
      </trkpt>
      <trkpt lat="44.92899" lon="5.09795">
        <ele>310.59951782227</ele>
        <time>2011-07-12T12:11:04Z</time>
      </trkpt>
      <trkpt lat="44.92952" lon="5.09767">
        <ele>309.68188476562</ele>
        <time>2011-07-12T12:11:10Z</time>
      </trkpt>
      <trkpt lat="44.92979" lon="5.09763">
        <ele>310.30700683594</ele>
        <time>2011-07-12T12:11:13Z</time>
      </trkpt>
      <trkpt lat="44.93024" lon="5.09776">
        <ele>311.7262878418</ele>
        <time>2011-07-12T12:11:19Z</time>
      </trkpt>
      <trkpt lat="44.93059" lon="5.09791">
        <ele>311.36477661133</ele>
        <time>2011-07-12T12:11:25Z</time>
      </trkpt>
      <trkpt lat="44.93077" lon="5.098">
        <ele>308.74523925781</ele>
        <time>2011-07-12T12:11:29Z</time>
      </trkpt>
      <trkpt lat="44.93081" lon="5.09803">
        <ele>308.15472412109</ele>
        <time>2011-07-12T12:11:30Z</time>
      </trkpt>
      <trkpt lat="44.9309" lon="5.09806">
        <ele>307.60647583008</ele>
        <time>2011-07-12T12:11:32Z</time>
      </trkpt>
      <trkpt lat="44.93113" lon="5.09816">
        <ele>307.12573242188</ele>
        <time>2011-07-12T12:11:37Z</time>
      </trkpt>
      <trkpt lat="44.93131" lon="5.09822">
        <ele>307.75402832031</ele>
        <time>2011-07-12T12:11:40Z</time>
      </trkpt>
      <trkpt lat="44.93143" lon="5.09822">
        <ele>307.93829345703</ele>
        <time>2011-07-12T12:11:42Z</time>
      </trkpt>
      <trkpt lat="44.93172" lon="5.09807">
        <ele>308.52865600586</ele>
        <time>2011-07-12T12:11:47Z</time>
      </trkpt>
      <trkpt lat="44.93193" lon="5.09788">
        <ele>308.64196777344</ele>
        <time>2011-07-12T12:11:51Z</time>
      </trkpt>
      <trkpt lat="44.93206" lon="5.09781">
        <ele>308.60089111328</ele>
        <time>2011-07-12T12:11:53Z</time>
      </trkpt>
      <trkpt lat="44.93253" lon="5.09766">
        <ele>308.25848388672</ele>
        <time>2011-07-12T12:12:00Z</time>
      </trkpt>
      <trkpt lat="44.93301" lon="5.09753">
        <ele>308.28570556641</ele>
        <time>2011-07-12T12:12:07Z</time>
      </trkpt>
      <trkpt lat="44.93366" lon="5.09733">
        <ele>305.77667236328</ele>
        <time>2011-07-12T12:12:16Z</time>
      </trkpt>
      <trkpt lat="44.93419" lon="5.09717">
        <ele>305.49389648438</ele>
        <time>2011-07-12T12:12:24Z</time>
      </trkpt>
      <trkpt lat="44.93476" lon="5.097">
        <ele>304.6787109375</ele>
        <time>2011-07-12T12:12:33Z</time>
      </trkpt>
      <trkpt lat="44.93525" lon="5.09674">
        <ele>305.54919433594</ele>
        <time>2011-07-12T12:12:41Z</time>
      </trkpt>
      <trkpt lat="44.93553" lon="5.09657">
        <ele>313.78680419922</ele>
        <time>2011-07-12T12:12:47Z</time>
      </trkpt>
      <trkpt lat="44.93571" lon="5.09645">
        <ele>315.88009643555</ele>
        <time>2011-07-12T12:12:53Z</time>
      </trkpt>
      <trkpt lat="44.93584" lon="5.09636">
        <ele>316.91607666016</ele>
        <time>2011-07-12T12:12:59Z</time>
      </trkpt>
      <trkpt lat="44.93601" lon="5.09625">
        <ele>317.14093017578</ele>
        <time>2011-07-12T12:13:06Z</time>
      </trkpt>
      <trkpt lat="44.9362" lon="5.09614">
        <ele>317.09680175781</ele>
        <time>2011-07-12T12:13:12Z</time>
      </trkpt>
      <trkpt lat="44.93658" lon="5.09599">
        <ele>315.19592285156</ele>
        <time>2011-07-12T12:13:22Z</time>
      </trkpt>
      <trkpt lat="44.93692" lon="5.09582">
        <ele>313.0666809082</ele>
        <time>2011-07-12T12:13:30Z</time>
      </trkpt>
      <trkpt lat="44.9371" lon="5.0956">
        <ele>311.63330078125</ele>
        <time>2011-07-12T12:13:36Z</time>
      </trkpt>
      <trkpt lat="44.93714" lon="5.09543">
        <ele>310.82479858398</ele>
        <time>2011-07-12T12:13:39Z</time>
      </trkpt>
      <trkpt lat="44.9372" lon="5.09494">
        <ele>309.87298583984</ele>
        <time>2011-07-12T12:13:47Z</time>
      </trkpt>
      <trkpt lat="44.93729" lon="5.09433">
        <ele>307.4384765625</ele>
        <time>2011-07-12T12:13:57Z</time>
      </trkpt>
      <trkpt lat="44.93735" lon="5.09402">
        <ele>306.76727294922</ele>
        <time>2011-07-12T12:14:03Z</time>
      </trkpt>
      <trkpt lat="44.93745" lon="5.09358">
        <ele>305.1611328125</ele>
        <time>2011-07-12T12:14:11Z</time>
      </trkpt>
      <trkpt lat="44.93748" lon="5.09346">
        <ele>305.03845214844</ele>
        <time>2011-07-12T12:14:13Z</time>
      </trkpt>
      <trkpt lat="44.93753" lon="5.09327">
        <ele>304.68789672852</ele>
        <time>2011-07-12T12:14:16Z</time>
      </trkpt>
      <trkpt lat="44.93756" lon="5.09312">
        <ele>304.19540405273</ele>
        <time>2011-07-12T12:14:18Z</time>
      </trkpt>
      <trkpt lat="44.93765" lon="5.09273">
        <ele>302.8212890625</ele>
        <time>2011-07-12T12:14:23Z</time>
      </trkpt>
      <trkpt lat="44.93767" lon="5.09265">
        <ele>302.53634643555</ele>
        <time>2011-07-12T12:14:24Z</time>
      </trkpt>
      <trkpt lat="44.9377" lon="5.09248">
        <ele>302</ele>
        <time>2011-07-12T12:14:26Z</time>
      </trkpt>
      <trkpt lat="44.93772" lon="5.0924">
        <ele>302</ele>
        <time>2011-07-12T12:14:27Z</time>
      </trkpt>
      <trkpt lat="44.93783" lon="5.09207">
        <ele>301.4660949707</ele>
        <time>2011-07-12T12:14:31Z</time>
      </trkpt>
      <trkpt lat="44.93794" lon="5.09183">
        <ele>301</ele>
        <time>2011-07-12T12:14:34Z</time>
      </trkpt>
      <trkpt lat="44.93799" lon="5.09176">
        <ele>301</ele>
        <time>2011-07-12T12:14:35Z</time>
      </trkpt>
      <trkpt lat="44.93811" lon="5.09169">
        <ele>300.83004760742</ele>
        <time>2011-07-12T12:14:37Z</time>
      </trkpt>
      <trkpt lat="44.93858" lon="5.09155">
        <ele>300</ele>
        <time>2011-07-12T12:14:44Z</time>
      </trkpt>
      <trkpt lat="44.93893" lon="5.09151">
        <ele>300</ele>
        <time>2011-07-12T12:14:49Z</time>
      </trkpt>
      <trkpt lat="44.93939" lon="5.09133">
        <ele>300</ele>
        <time>2011-07-12T12:14:55Z</time>
      </trkpt>
      <trkpt lat="44.93977" lon="5.09128">
        <ele>298.89376831055</ele>
        <time>2011-07-12T12:14:59Z</time>
      </trkpt>
      <trkpt lat="44.94029" lon="5.09114">
        <ele>295.78289794922</ele>
        <time>2011-07-12T12:15:04Z</time>
      </trkpt>
      <trkpt lat="44.94051" lon="5.09109">
        <ele>290.92553710938</ele>
        <time>2011-07-12T12:15:06Z</time>
      </trkpt>
      <trkpt lat="44.94119" lon="5.09092">
        <ele>291.27972412109</ele>
        <time>2011-07-12T12:15:12Z</time>
      </trkpt>
      <trkpt lat="44.94164" lon="5.09085">
        <ele>292.05670166016</ele>
        <time>2011-07-12T12:15:16Z</time>
      </trkpt>
      <trkpt lat="44.94174" lon="5.09083">
        <ele>292.27389526367</ele>
        <time>2011-07-12T12:15:17Z</time>
      </trkpt>
      <trkpt lat="44.94184" lon="5.09082">
        <ele>292.58676147461</ele>
        <time>2011-07-12T12:15:18Z</time>
      </trkpt>
      <trkpt lat="44.94212" lon="5.09069">
        <ele>292.80642700195</ele>
        <time>2011-07-12T12:15:22Z</time>
      </trkpt>
      <trkpt lat="44.94215" lon="5.09068">
        <ele>292.85369873047</ele>
        <time>2011-07-12T12:15:24Z</time>
      </trkpt>
      <trkpt lat="44.94223" lon="5.09055">
        <ele>292.96997070312</ele>
        <time>2011-07-12T12:15:30Z</time>
      </trkpt>
      <trkpt lat="44.94226" lon="5.09047">
        <ele>292.73126220703</ele>
        <time>2011-07-12T12:15:32Z</time>
      </trkpt>
      <trkpt lat="44.94241" lon="5.09013">
        <ele>292.32098388672</ele>
        <time>2011-07-12T12:15:38Z</time>
      </trkpt>
      <trkpt lat="44.94269" lon="5.08973">
        <ele>291.01007080078</ele>
        <time>2011-07-12T12:15:45Z</time>
      </trkpt>
      <trkpt lat="44.94274" lon="5.08968">
        <ele>291</ele>
        <time>2011-07-12T12:15:46Z</time>
      </trkpt>
      <trkpt lat="44.9429" lon="5.08957">
        <ele>291.20156860352</ele>
        <time>2011-07-12T12:15:49Z</time>
      </trkpt>
      <trkpt lat="44.94333" lon="5.08948">
        <ele>291.13803100586</ele>
        <time>2011-07-12T12:15:56Z</time>
      </trkpt>
      <trkpt lat="44.9439" lon="5.08945">
        <ele>291.02301025391</ele>
        <time>2011-07-12T12:16:05Z</time>
      </trkpt>
      <trkpt lat="44.94452" lon="5.08941">
        <ele>291.24807739258</ele>
        <time>2011-07-12T12:16:14Z</time>
      </trkpt>
      <trkpt lat="44.9453" lon="5.08934">
        <ele>291.62817382812</ele>
        <time>2011-07-12T12:16:25Z</time>
      </trkpt>
      <trkpt lat="44.94562" lon="5.08907">
        <ele>291</ele>
        <time>2011-07-12T12:16:30Z</time>
      </trkpt>
      <trkpt lat="44.94594" lon="5.08851">
        <ele>289.63613891602</ele>
        <time>2011-07-12T12:16:36Z</time>
      </trkpt>
      <trkpt lat="44.94621" lon="5.0882">
        <ele>288.52032470703</ele>
        <time>2011-07-12T12:16:40Z</time>
      </trkpt>
      <trkpt lat="44.94668" lon="5.08784">
        <ele>287.2248840332</ele>
        <time>2011-07-12T12:16:46Z</time>
      </trkpt>
      <trkpt lat="44.94726" lon="5.08741">
        <ele>285.66558837891</ele>
        <time>2011-07-12T12:16:53Z</time>
      </trkpt>
      <trkpt lat="44.94766" lon="5.08712">
        <ele>284.62188720703</ele>
        <time>2011-07-12T12:16:58Z</time>
      </trkpt>
      <trkpt lat="44.94839" lon="5.08657">
        <ele>283.66668701172</ele>
        <time>2011-07-12T12:17:07Z</time>
      </trkpt>
      <trkpt lat="44.94918" lon="5.08602">
        <ele>281.98791503906</ele>
        <time>2011-07-12T12:17:16Z</time>
      </trkpt>
      <trkpt lat="44.94956" lon="5.08598">
        <ele>281.31558227539</ele>
        <time>2011-07-12T12:17:20Z</time>
      </trkpt>
      <trkpt lat="44.94983" lon="5.08612">
        <ele>281.03588867188</ele>
        <time>2011-07-12T12:17:23Z</time>
      </trkpt>
      <trkpt lat="44.95028" lon="5.08643">
        <ele>281.16229248047</ele>
        <time>2011-07-12T12:17:28Z</time>
      </trkpt>
      <trkpt lat="44.95067" lon="5.0865">
        <ele>280.24612426758</ele>
        <time>2011-07-12T12:17:32Z</time>
      </trkpt>
      <trkpt lat="44.95076" lon="5.08644">
        <ele>280.04782104492</ele>
        <time>2011-07-12T12:17:33Z</time>
      </trkpt>
      <trkpt lat="44.95084" lon="5.08635">
        <ele>279.85266113281</ele>
        <time>2011-07-12T12:17:34Z</time>
      </trkpt>
      <trkpt lat="44.95136" lon="5.08566">
        <ele>277.35876464844</ele>
        <time>2011-07-12T12:17:41Z</time>
      </trkpt>
      <trkpt lat="44.95204" lon="5.08474">
        <ele>274.6803894043</ele>
        <time>2011-07-12T12:17:50Z</time>
      </trkpt>
      <trkpt lat="44.95274" lon="5.0838">
        <ele>272.66567993164</ele>
        <time>2011-07-12T12:17:59Z</time>
      </trkpt>
      <trkpt lat="44.95345" lon="5.08285">
        <ele>270.25650024414</ele>
        <time>2011-07-12T12:18:08Z</time>
      </trkpt>
      <trkpt lat="44.9536" lon="5.08264">
        <ele>270</ele>
        <time>2011-07-12T12:18:10Z</time>
      </trkpt>
      <trkpt lat="44.95393" lon="5.08223">
        <ele>269.04550170898</ele>
        <time>2011-07-12T12:18:14Z</time>
      </trkpt>
      <trkpt lat="44.95434" lon="5.08205">
        <ele>268.59771728516</ele>
        <time>2011-07-12T12:18:18Z</time>
      </trkpt>
      <trkpt lat="44.95499" lon="5.08199">
        <ele>268.0032043457</ele>
        <time>2011-07-12T12:18:24Z</time>
      </trkpt>
      <trkpt lat="44.9555" lon="5.08171">
        <ele>267.15893554688</ele>
        <time>2011-07-12T12:18:29Z</time>
      </trkpt>
      <trkpt lat="44.9556" lon="5.08164">
        <ele>266.91516113281</ele>
        <time>2011-07-12T12:18:30Z</time>
      </trkpt>
      <trkpt lat="44.95641" lon="5.08108">
        <ele>264.88442993164</ele>
        <time>2011-07-12T12:18:38Z</time>
      </trkpt>
      <trkpt lat="44.95719" lon="5.08052">
        <ele>261.99700927734</ele>
        <time>2011-07-12T12:18:46Z</time>
      </trkpt>
      <trkpt lat="44.95756" lon="5.08028">
        <ele>260.79287719727</ele>
        <time>2011-07-12T12:18:50Z</time>
      </trkpt>
      <trkpt lat="44.95818" lon="5.07993">
        <ele>259</ele>
        <time>2011-07-12T12:18:57Z</time>
      </trkpt>
      <trkpt lat="44.95876" lon="5.07965">
        <ele>258.75518798828</ele>
        <time>2011-07-12T12:19:03Z</time>
      </trkpt>
      <trkpt lat="44.95907" lon="5.07961">
        <ele>258.85763549805</ele>
        <time>2011-07-12T12:19:06Z</time>
      </trkpt>
      <trkpt lat="44.95967" lon="5.07972">
        <ele>258.98864746094</ele>
        <time>2011-07-12T12:19:12Z</time>
      </trkpt>
      <trkpt lat="44.95986" lon="5.07973">
        <ele>259.01229858398</ele>
        <time>2011-07-12T12:19:14Z</time>
      </trkpt>
      <trkpt lat="44.96036" lon="5.0796">
        <ele>258</ele>
        <time>2011-07-12T12:19:19Z</time>
      </trkpt>
      <trkpt lat="44.96096" lon="5.07946">
        <ele>257.07366943359</ele>
        <time>2011-07-12T12:19:25Z</time>
      </trkpt>
      <trkpt lat="44.96136" lon="5.07953">
        <ele>257.30712890625</ele>
        <time>2011-07-12T12:19:29Z</time>
      </trkpt>
      <trkpt lat="44.96146" lon="5.07957">
        <ele>257.18121337891</ele>
        <time>2011-07-12T12:19:30Z</time>
      </trkpt>
      <trkpt lat="44.96183" lon="5.07977">
        <ele>257</ele>
        <time>2011-07-12T12:19:34Z</time>
      </trkpt>
      <trkpt lat="44.96224" lon="5.07978">
        <ele>256.20922851562</ele>
        <time>2011-07-12T12:19:38Z</time>
      </trkpt>
      <trkpt lat="44.96234" lon="5.07975">
        <ele>256.05529785156</ele>
        <time>2011-07-12T12:19:39Z</time>
      </trkpt>
      <trkpt lat="44.96274" lon="5.07959">
        <ele>255.06591796875</ele>
        <time>2011-07-12T12:19:43Z</time>
      </trkpt>
      <trkpt lat="44.96314" lon="5.0796">
        <ele>254.24685668945</ele>
        <time>2011-07-12T12:19:47Z</time>
      </trkpt>
      <trkpt lat="44.9637" lon="5.07982">
        <ele>253.79325866699</ele>
        <time>2011-07-12T12:19:53Z</time>
      </trkpt>
      <trkpt lat="44.96397" lon="5.07995">
        <ele>253.57722473144</ele>
        <time>2011-07-12T12:19:56Z</time>
      </trkpt>
      <trkpt lat="44.96422" lon="5.08018">
        <ele>253.63314819336</ele>
        <time>2011-07-12T12:20:00Z</time>
      </trkpt>
      <trkpt lat="44.96428" lon="5.08011">
        <ele>253.40655517578</ele>
        <time>2011-07-12T12:20:02Z</time>
      </trkpt>
      <trkpt lat="44.96429" lon="5.08004">
        <ele>253.14735412598</ele>
        <time>2011-07-12T12:20:03Z</time>
      </trkpt>
      <trkpt lat="44.96434" lon="5.0798">
        <ele>253</ele>
        <time>2011-07-12T12:20:06Z</time>
      </trkpt>
      <trkpt lat="44.96449" lon="5.07918">
        <ele>252</ele>
        <time>2011-07-12T12:20:12Z</time>
      </trkpt>
      <trkpt lat="44.9646" lon="5.07876">
        <ele>250.52450561523</ele>
        <time>2011-07-12T12:20:16Z</time>
      </trkpt>
      <trkpt lat="44.9648" lon="5.07815">
        <ele>249.32553100586</ele>
        <time>2011-07-12T12:20:22Z</time>
      </trkpt>
      <trkpt lat="44.96488" lon="5.07796">
        <ele>248.80622863769</ele>
        <time>2011-07-12T12:20:24Z</time>
      </trkpt>
      <trkpt lat="44.96494" lon="5.0778">
        <ele>248.26570129394</ele>
        <time>2011-07-12T12:20:26Z</time>
      </trkpt>
      <trkpt lat="44.9651" lon="5.07775">
        <ele>247.96144104004</ele>
        <time>2011-07-12T12:20:30Z</time>
      </trkpt>
      <trkpt lat="44.96518" lon="5.07782">
        <ele>248.14106750488</ele>
        <time>2011-07-12T12:20:32Z</time>
      </trkpt>
      <trkpt lat="44.96534" lon="5.07806">
        <ele>248.79118347168</ele>
        <time>2011-07-12T12:20:36Z</time>
      </trkpt>
      <trkpt lat="44.9656" lon="5.07836">
        <ele>249</ele>
        <time>2011-07-12T12:20:41Z</time>
      </trkpt>
      <trkpt lat="44.96593" lon="5.07855">
        <ele>248.92010498047</ele>
        <time>2011-07-12T12:20:46Z</time>
      </trkpt>
      <trkpt lat="44.96623" lon="5.07865">
        <ele>248.63224792481</ele>
        <time>2011-07-12T12:20:50Z</time>
      </trkpt>
      <trkpt lat="44.96656" lon="5.07879">
        <ele>248.62922668457</ele>
        <time>2011-07-12T12:20:56Z</time>
      </trkpt>
      <trkpt lat="44.96678" lon="5.07894">
        <ele>249.11946105957</ele>
        <time>2011-07-12T12:21:00Z</time>
      </trkpt>
      <trkpt lat="44.96724" lon="5.07925">
        <ele>249</ele>
        <time>2011-07-12T12:21:08Z</time>
      </trkpt>
      <trkpt lat="44.96756" lon="5.07941">
        <ele>248.97483825684</ele>
        <time>2011-07-12T12:21:13Z</time>
      </trkpt>
      <trkpt lat="44.96793" lon="5.07961">
        <ele>249.27107238769</ele>
        <time>2011-07-12T12:21:19Z</time>
      </trkpt>
      <trkpt lat="44.96817" lon="5.07969">
        <ele>248.95643615723</ele>
        <time>2011-07-12T12:21:23Z</time>
      </trkpt>
      <trkpt lat="44.96842" lon="5.07959">
        <ele>248.36962890625</ele>
        <time>2011-07-12T12:21:27Z</time>
      </trkpt>
      <trkpt lat="44.96848" lon="5.07954">
        <ele>248.150390625</ele>
        <time>2011-07-12T12:21:28Z</time>
      </trkpt>
      <trkpt lat="44.96886" lon="5.07911">
        <ele>246.82609558106</ele>
        <time>2011-07-12T12:21:34Z</time>
      </trkpt>
      <trkpt lat="44.96944" lon="5.07856">
        <ele>244.80868530273</ele>
        <time>2011-07-12T12:21:42Z</time>
      </trkpt>
      <trkpt lat="44.96989" lon="5.07835">
        <ele>243.42413330078</ele>
        <time>2011-07-12T12:21:47Z</time>
      </trkpt>
      <trkpt lat="44.97055" lon="5.07836">
        <ele>242.11387634277</ele>
        <time>2011-07-12T12:21:54Z</time>
      </trkpt>
      <trkpt lat="44.97132" lon="5.0785">
        <ele>241.70353698731</ele>
        <time>2011-07-12T12:22:02Z</time>
      </trkpt>
      <trkpt lat="44.972" lon="5.07847">
        <ele>241.49626159668</ele>
        <time>2011-07-12T12:22:09Z</time>
      </trkpt>
      <trkpt lat="44.97244" lon="5.07834">
        <ele>241.0276184082</ele>
        <time>2011-07-12T12:22:14Z</time>
      </trkpt>
      <trkpt lat="44.97253" lon="5.0783">
        <ele>241</ele>
        <time>2011-07-12T12:22:15Z</time>
      </trkpt>
      <trkpt lat="44.97285" lon="5.07805">
        <ele>240.74652099609</ele>
        <time>2011-07-12T12:22:19Z</time>
      </trkpt>
      <trkpt lat="44.97299" lon="5.07788">
        <ele>240.09175109863</ele>
        <time>2011-07-12T12:22:21Z</time>
      </trkpt>
      <trkpt lat="44.97332" lon="5.07763">
        <ele>239.4969329834</ele>
        <time>2011-07-12T12:22:25Z</time>
      </trkpt>
      <trkpt lat="44.97342" lon="5.0776">
        <ele>239.36001586914</ele>
        <time>2011-07-12T12:22:26Z</time>
      </trkpt>
      <trkpt lat="44.97411" lon="5.07751">
        <ele>239</ele>
        <time>2011-07-12T12:22:33Z</time>
      </trkpt>
      <trkpt lat="44.97461" lon="5.07761">
        <ele>238.38919067383</ele>
        <time>2011-07-12T12:22:38Z</time>
      </trkpt>
      <trkpt lat="44.97529" lon="5.07778">
        <ele>237.96179199219</ele>
        <time>2011-07-12T12:22:45Z</time>
      </trkpt>
      <trkpt lat="44.97594" lon="5.07794">
        <ele>236.82934570312</ele>
        <time>2011-07-12T12:22:52Z</time>
      </trkpt>
      <trkpt lat="44.97672" lon="5.07808">
        <ele>236.0920715332</ele>
        <time>2011-07-12T12:23:00Z</time>
      </trkpt>
      <trkpt lat="44.97741" lon="5.0782">
        <ele>236.5263671875</ele>
        <time>2011-07-12T12:23:07Z</time>
      </trkpt>
      <trkpt lat="44.97801" lon="5.07822">
        <ele>236.10188293457</ele>
        <time>2011-07-12T12:23:13Z</time>
      </trkpt>
      <trkpt lat="44.9786" lon="5.07815">
        <ele>235.02789306641</ele>
        <time>2011-07-12T12:23:19Z</time>
      </trkpt>
      <trkpt lat="44.97961" lon="5.07802">
        <ele>233.34481811523</ele>
        <time>2011-07-12T12:23:29Z</time>
      </trkpt>
      <trkpt lat="44.98022" lon="5.07785">
        <ele>231.20513916016</ele>
        <time>2011-07-12T12:23:35Z</time>
      </trkpt>
      <trkpt lat="44.98102" lon="5.0776">
        <ele>229.66751098633</ele>
        <time>2011-07-12T12:23:43Z</time>
      </trkpt>
      <trkpt lat="44.98171" lon="5.07742">
        <ele>227.83557128906</ele>
        <time>2011-07-12T12:23:50Z</time>
      </trkpt>
      <trkpt lat="44.98257" lon="5.07727">
        <ele>226.1184387207</ele>
        <time>2011-07-12T12:23:59Z</time>
      </trkpt>
      <trkpt lat="44.98306" lon="5.07718">
        <ele>225.00158691406</ele>
        <time>2011-07-12T12:24:05Z</time>
      </trkpt>
      <trkpt lat="44.98313" lon="5.07718">
        <ele>224.72692871094</ele>
        <time>2011-07-12T12:24:06Z</time>
      </trkpt>
      <trkpt lat="44.98336" lon="5.07717">
        <ele>223.98071289062</ele>
        <time>2011-07-12T12:24:09Z</time>
      </trkpt>
      <trkpt lat="44.98367" lon="5.07724">
        <ele>223.77685546875</ele>
        <time>2011-07-12T12:24:13Z</time>
      </trkpt>
      <trkpt lat="44.98433" lon="5.07759">
        <ele>223</ele>
        <time>2011-07-12T12:24:21Z</time>
      </trkpt>
      <trkpt lat="44.98476" lon="5.07782">
        <ele>222.13874816894</ele>
        <time>2011-07-12T12:24:26Z</time>
      </trkpt>
      <trkpt lat="44.98545" lon="5.0782">
        <ele>221.68328857422</ele>
        <time>2011-07-12T12:24:34Z</time>
      </trkpt>
      <trkpt lat="44.98554" lon="5.07824">
        <ele>221.67147827148</ele>
        <time>2011-07-12T12:24:35Z</time>
      </trkpt>
      <trkpt lat="44.9859" lon="5.0782">
        <ele>221</ele>
        <time>2011-07-12T12:24:39Z</time>
      </trkpt>
      <trkpt lat="44.98608" lon="5.07795">
        <ele>220.66331481934</ele>
        <time>2011-07-12T12:24:42Z</time>
      </trkpt>
      <trkpt lat="44.98645" lon="5.07716">
        <ele>219.39991760254</ele>
        <time>2011-07-12T12:24:50Z</time>
      </trkpt>
      <trkpt lat="44.98681" lon="5.0766">
        <ele>217.37802124023</ele>
        <time>2011-07-12T12:24:56Z</time>
      </trkpt>
      <trkpt lat="44.98738" lon="5.07596">
        <ele>216</ele>
        <time>2011-07-12T12:25:04Z</time>
      </trkpt>
      <trkpt lat="44.98796" lon="5.07534">
        <ele>214.47912597656</ele>
        <time>2011-07-12T12:25:12Z</time>
      </trkpt>
      <trkpt lat="44.98811" lon="5.07517">
        <ele>213.93235778809</ele>
        <time>2011-07-12T12:25:14Z</time>
      </trkpt>
      <trkpt lat="44.98874" lon="5.07441">
        <ele>211.93809509277</ele>
        <time>2011-07-12T12:25:23Z</time>
      </trkpt>
      <trkpt lat="44.98915" lon="5.07372">
        <ele>210.07012939453</ele>
        <time>2011-07-12T12:25:30Z</time>
      </trkpt>
      <trkpt lat="44.98949" lon="5.07306">
        <ele>209</ele>
        <time>2011-07-12T12:25:37Z</time>
      </trkpt>
      <trkpt lat="44.98958" lon="5.07289">
        <ele>209</ele>
        <time>2011-07-12T12:25:39Z</time>
      </trkpt>
      <trkpt lat="44.99001" lon="5.07205">
        <ele>208</ele>
        <time>2011-07-12T12:25:49Z</time>
      </trkpt>
      <trkpt lat="44.99027" lon="5.07158">
        <ele>207</ele>
        <time>2011-07-12T12:25:55Z</time>
      </trkpt>
      <trkpt lat="44.99065" lon="5.07108">
        <ele>207.93344116211</ele>
        <time>2011-07-12T12:26:02Z</time>
      </trkpt>
      <trkpt lat="44.99108" lon="5.07053">
        <ele>215.71977233887</ele>
        <time>2011-07-12T12:26:09Z</time>
      </trkpt>
      <trkpt lat="44.9916" lon="5.06987">
        <ele>216.53884887695</ele>
        <time>2011-07-12T12:26:17Z</time>
      </trkpt>
      <trkpt lat="44.99212" lon="5.06923">
        <ele>214.51551818848</ele>
        <time>2011-07-12T12:26:24Z</time>
      </trkpt>
      <trkpt lat="44.9926" lon="5.06875">
        <ele>212.14837646484</ele>
        <time>2011-07-12T12:26:30Z</time>
      </trkpt>
      <trkpt lat="44.99326" lon="5.06811">
        <ele>207.45513916016</ele>
        <time>2011-07-12T12:26:38Z</time>
      </trkpt>
      <trkpt lat="44.99364" lon="5.06766">
        <ele>204.4665222168</ele>
        <time>2011-07-12T12:26:43Z</time>
      </trkpt>
      <trkpt lat="44.99395" lon="5.067">
        <ele>201.21513366699</ele>
        <time>2011-07-12T12:26:49Z</time>
      </trkpt>
      <trkpt lat="44.99401" lon="5.0669">
        <ele>200.93374633789</ele>
        <time>2011-07-12T12:26:50Z</time>
      </trkpt>
      <trkpt lat="44.99434" lon="5.06653">
        <ele>200</ele>
        <time>2011-07-12T12:26:55Z</time>
      </trkpt>
      <trkpt lat="44.99442" lon="5.0665">
        <ele>200</ele>
        <time>2011-07-12T12:26:56Z</time>
      </trkpt>
      <trkpt lat="44.99499" lon="5.06642">
        <ele>199.12258911133</ele>
        <time>2011-07-12T12:27:03Z</time>
      </trkpt>
      <trkpt lat="44.9956" lon="5.06639">
        <ele>199.01443481445</ele>
        <time>2011-07-12T12:27:10Z</time>
      </trkpt>
      <trkpt lat="44.9963" lon="5.06634">
        <ele>198.25415039062</ele>
        <time>2011-07-12T12:27:18Z</time>
      </trkpt>
      <trkpt lat="44.99639" lon="5.06633">
        <ele>197.96533203125</ele>
        <time>2011-07-12T12:27:19Z</time>
      </trkpt>
      <trkpt lat="44.99665" lon="5.06625">
        <ele>194.28491210938</ele>
        <time>2011-07-12T12:27:22Z</time>
      </trkpt>
      <trkpt lat="44.99718" lon="5.06587">
        <ele>193.16235351562</ele>
        <time>2011-07-12T12:27:29Z</time>
      </trkpt>
      <trkpt lat="44.99768" lon="5.06547">
        <ele>193</ele>
        <time>2011-07-12T12:27:36Z</time>
      </trkpt>
      <trkpt lat="44.99811" lon="5.06511">
        <ele>192.52159118652</ele>
        <time>2011-07-12T12:27:43Z</time>
      </trkpt>
      <trkpt lat="44.99844" lon="5.06477">
        <ele>193.33624267578</ele>
        <time>2011-07-12T12:27:49Z</time>
      </trkpt>
      <trkpt lat="44.99891" lon="5.06428">
        <ele>195.03028869629</ele>
        <time>2011-07-12T12:27:57Z</time>
      </trkpt>
      <trkpt lat="44.99924" lon="5.06403">
        <ele>195</ele>
        <time>2011-07-12T12:28:02Z</time>
      </trkpt>
      <trkpt lat="44.99971" lon="5.06372">
        <ele>195</ele>
        <time>2011-07-12T12:28:09Z</time>
      </trkpt>
      <trkpt lat="45.00006" lon="5.06337">
        <ele>194</ele>
        <time>2011-07-12T12:28:15Z</time>
      </trkpt>
      <trkpt lat="45.00045" lon="5.06291">
        <ele>193</ele>
        <time>2011-07-12T12:28:22Z</time>
      </trkpt>
      <trkpt lat="45.00051" lon="5.06285">
        <ele>193</ele>
        <time>2011-07-12T12:28:23Z</time>
      </trkpt>
      <trkpt lat="45.00089" lon="5.06267">
        <ele>192.42700195312</ele>
        <time>2011-07-12T12:28:28Z</time>
      </trkpt>
      <trkpt lat="45.00156" lon="5.06259">
        <ele>194.34161376953</ele>
        <time>2011-07-12T12:28:35Z</time>
      </trkpt>
      <trkpt lat="45.00224" lon="5.06265">
        <ele>194.5578918457</ele>
        <time>2011-07-12T12:28:42Z</time>
      </trkpt>
      <trkpt lat="45.0029" lon="5.06271">
        <ele>193.88856506348</ele>
        <time>2011-07-12T12:28:49Z</time>
      </trkpt>
      <trkpt lat="45.00367" lon="5.06277">
        <ele>192.98361206055</ele>
        <time>2011-07-12T12:28:57Z</time>
      </trkpt>
      <trkpt lat="45.00452" lon="5.06283">
        <ele>191.79261779785</ele>
        <time>2011-07-12T12:29:06Z</time>
      </trkpt>
      <trkpt lat="45.00533" lon="5.06289">
        <ele>190.33767700195</ele>
        <time>2011-07-12T12:29:15Z</time>
      </trkpt>
      <trkpt lat="45.0061" lon="5.06293">
        <ele>190</ele>
        <time>2011-07-12T12:29:24Z</time>
      </trkpt>
      <trkpt lat="45.00652" lon="5.06284">
        <ele>190.1003112793</ele>
        <time>2011-07-12T12:29:29Z</time>
      </trkpt>
      <trkpt lat="45.00708" lon="5.06256">
        <ele>192.5936126709</ele>
        <time>2011-07-12T12:29:36Z</time>
      </trkpt>
      <trkpt lat="45.00761" lon="5.06234">
        <ele>192.77093505859</ele>
        <time>2011-07-12T12:29:43Z</time>
      </trkpt>
      <trkpt lat="45.00826" lon="5.06223">
        <ele>192.74212646484</ele>
        <time>2011-07-12T12:29:51Z</time>
      </trkpt>
      <trkpt lat="45.00893" lon="5.06218">
        <ele>193</ele>
        <time>2011-07-12T12:29:59Z</time>
      </trkpt>
      <trkpt lat="45.00935" lon="5.0623">
        <ele>193</ele>
        <time>2011-07-12T12:30:04Z</time>
      </trkpt>
      <trkpt lat="45.0101" lon="5.06262">
        <ele>193.27262878418</ele>
        <time>2011-07-12T12:30:13Z</time>
      </trkpt>
      <trkpt lat="45.01061" lon="5.06274">
        <ele>193</ele>
        <time>2011-07-12T12:30:19Z</time>
      </trkpt>
      <trkpt lat="45.0113" lon="5.06287">
        <ele>193</ele>
        <time>2011-07-12T12:30:27Z</time>
      </trkpt>
      <trkpt lat="45.01163" lon="5.06291">
        <ele>193</ele>
        <time>2011-07-12T12:30:31Z</time>
      </trkpt>
      <trkpt lat="45.01197" lon="5.0628">
        <ele>193</ele>
        <time>2011-07-12T12:30:35Z</time>
      </trkpt>
      <trkpt lat="45.01264" lon="5.06238">
        <ele>192</ele>
        <time>2011-07-12T12:30:44Z</time>
      </trkpt>
      <trkpt lat="45.01309" lon="5.06211">
        <ele>192</ele>
        <time>2011-07-12T12:30:51Z</time>
      </trkpt>
      <trkpt lat="45.01349" lon="5.06192">
        <ele>192</ele>
        <time>2011-07-12T12:30:57Z</time>
      </trkpt>
      <trkpt lat="45.01407" lon="5.06173">
        <ele>192</ele>
        <time>2011-07-12T12:31:05Z</time>
      </trkpt>
      <trkpt lat="45.01493" lon="5.06148">
        <ele>191</ele>
        <time>2011-07-12T12:31:16Z</time>
      </trkpt>
      <trkpt lat="45.01546" lon="5.06135">
        <ele>190.30569458008</ele>
        <time>2011-07-12T12:31:23Z</time>
      </trkpt>
      <trkpt lat="45.01592" lon="5.06124">
        <ele>190</ele>
        <time>2011-07-12T12:31:30Z</time>
      </trkpt>
      <trkpt lat="45.01646" lon="5.06114">
        <ele>190</ele>
        <time>2011-07-12T12:31:38Z</time>
      </trkpt>
      <trkpt lat="45.01699" lon="5.06104">
        <ele>190</ele>
        <time>2011-07-12T12:31:46Z</time>
      </trkpt>
      <trkpt lat="45.01735" lon="5.06098">
        <ele>190</ele>
        <time>2011-07-12T12:31:52Z</time>
      </trkpt>
      <trkpt lat="45.01742" lon="5.06097">
        <ele>190</ele>
        <time>2011-07-12T12:31:53Z</time>
      </trkpt>
      <trkpt lat="45.01791" lon="5.0609">
        <ele>190</ele>
        <time>2011-07-12T12:32:01Z</time>
      </trkpt>
      <trkpt lat="45.0184" lon="5.06083">
        <ele>190</ele>
        <time>2011-07-12T12:32:09Z</time>
      </trkpt>
      <trkpt lat="45.01886" lon="5.06076">
        <ele>190</ele>
        <time>2011-07-12T12:32:16Z</time>
      </trkpt>
      <trkpt lat="45.01935" lon="5.06068">
        <ele>190</ele>
        <time>2011-07-12T12:32:24Z</time>
      </trkpt>
      <trkpt lat="45.0197" lon="5.06061">
        <ele>190</ele>
        <time>2011-07-12T12:32:30Z</time>
      </trkpt>
      <trkpt lat="45.02013" lon="5.06052">
        <ele>190</ele>
        <time>2011-07-12T12:32:38Z</time>
      </trkpt>
      <trkpt lat="45.02056" lon="5.06042">
        <ele>190</ele>
        <time>2011-07-12T12:32:47Z</time>
      </trkpt>
      <trkpt lat="45.02093" lon="5.06034">
        <ele>190</ele>
        <time>2011-07-12T12:32:54Z</time>
      </trkpt>
      <trkpt lat="45.02128" lon="5.06025">
        <ele>190</ele>
        <time>2011-07-12T12:33:00Z</time>
      </trkpt>
      <trkpt lat="45.02171" lon="5.06016">
        <ele>190</ele>
        <time>2011-07-12T12:33:06Z</time>
      </trkpt>
      <trkpt lat="45.02215" lon="5.06006">
        <ele>190</ele>
        <time>2011-07-12T12:33:11Z</time>
      </trkpt>
      <trkpt lat="45.02225" lon="5.06004">
        <ele>190</ele>
        <time>2011-07-12T12:33:12Z</time>
      </trkpt>
      <trkpt lat="45.02268" lon="5.05993">
        <ele>190</ele>
        <time>2011-07-12T12:33:17Z</time>
      </trkpt>
      <trkpt lat="45.02315" lon="5.05982">
        <ele>190</ele>
        <time>2011-07-12T12:33:23Z</time>
      </trkpt>
      <trkpt lat="45.02356" lon="5.05974">
        <ele>188.34362792969</ele>
        <time>2011-07-12T12:33:29Z</time>
      </trkpt>
      <trkpt lat="45.02391" lon="5.05967">
        <ele>186.81677246094</ele>
        <time>2011-07-12T12:33:34Z</time>
      </trkpt>
      <trkpt lat="45.02425" lon="5.05966">
        <ele>184.37231445312</ele>
        <time>2011-07-12T12:33:39Z</time>
      </trkpt>
      <trkpt lat="45.02461" lon="5.0598">
        <ele>182.29917907715</ele>
        <time>2011-07-12T12:33:44Z</time>
      </trkpt>
      <trkpt lat="45.02513" lon="5.06007">
        <ele>180</ele>
        <time>2011-07-12T12:33:51Z</time>
      </trkpt>
      <trkpt lat="45.02528" lon="5.06014">
        <ele>180</ele>
        <time>2011-07-12T12:33:53Z</time>
      </trkpt>
      <trkpt lat="45.02555" lon="5.06039">
        <ele>180</ele>
        <time>2011-07-12T12:33:57Z</time>
      </trkpt>
      <trkpt lat="45.02586" lon="5.06067">
        <ele>179</ele>
        <time>2011-07-12T12:34:02Z</time>
      </trkpt>
      <trkpt lat="45.02599" lon="5.06054">
        <ele>179</ele>
        <time>2011-07-12T12:34:04Z</time>
      </trkpt>
      <trkpt lat="45.02606" lon="5.06032">
        <ele>179</ele>
        <time>2011-07-12T12:34:06Z</time>
      </trkpt>
      <trkpt lat="45.02624" lon="5.05953">
        <ele>179</ele>
        <time>2011-07-12T12:34:12Z</time>
      </trkpt>
      <trkpt lat="45.02642" lon="5.05879">
        <ele>178.69879150391</ele>
        <time>2011-07-12T12:34:17Z</time>
      </trkpt>
      <trkpt lat="45.02644" lon="5.05866">
        <ele>178.49279785156</ele>
        <time>2011-07-12T12:34:18Z</time>
      </trkpt>
      <trkpt lat="45.02657" lon="5.05853">
        <ele>177.10809326172</ele>
        <time>2011-07-12T12:34:21Z</time>
      </trkpt>
      <trkpt lat="45.02661" lon="5.05858">
        <ele>176.62275695801</ele>
        <time>2011-07-12T12:34:22Z</time>
      </trkpt>
      <trkpt lat="45.02658" lon="5.05872">
        <ele>176.96844482422</ele>
        <time>2011-07-12T12:34:24Z</time>
      </trkpt>
      <trkpt lat="45.02655" lon="5.05881">
        <ele>177.2568359375</ele>
        <time>2011-07-12T12:34:25Z</time>
      </trkpt>
      <trkpt lat="45.02641" lon="5.05938">
        <ele>178.73999023438</ele>
        <time>2011-07-12T12:34:31Z</time>
      </trkpt>
      <trkpt lat="45.02655" lon="5.0597">
        <ele>177.2568359375</ele>
        <time>2011-07-12T12:34:34Z</time>
      </trkpt>
      <trkpt lat="45.02674" lon="5.05976">
        <ele>175.77891540527</ele>
        <time>2011-07-12T12:34:36Z</time>
      </trkpt>
      <trkpt lat="45.02692" lon="5.05978">
        <ele>175.26950073242</ele>
        <time>2011-07-12T12:34:38Z</time>
      </trkpt>
      <trkpt lat="45.02722" lon="5.05976">
        <ele>173.16084289551</ele>
        <time>2011-07-12T12:34:41Z</time>
      </trkpt>
      <trkpt lat="45.02749" lon="5.05973">
        <ele>172.04479980469</ele>
        <time>2011-07-12T12:34:44Z</time>
      </trkpt>
      <trkpt lat="45.02789" lon="5.05973">
        <ele>170.60971069336</ele>
        <time>2011-07-12T12:34:49Z</time>
      </trkpt>
      <trkpt lat="45.02846" lon="5.05976">
        <ele>169.12603759766</ele>
        <time>2011-07-12T12:34:57Z</time>
      </trkpt>
      <trkpt lat="45.02859" lon="5.05976">
        <ele>169.14320373535</ele>
        <time>2011-07-12T12:34:59Z</time>
      </trkpt>
      <trkpt lat="45.02872" lon="5.05977">
        <ele>168.78073120117</ele>
        <time>2011-07-12T12:35:01Z</time>
      </trkpt>
      <trkpt lat="45.02918" lon="5.05979">
        <ele>168.1842956543</ele>
        <time>2011-07-12T12:35:09Z</time>
      </trkpt>
      <trkpt lat="45.02951" lon="5.05979">
        <ele>167.25820922852</ele>
        <time>2011-07-12T12:35:15Z</time>
      </trkpt>
      <trkpt lat="45.02979" lon="5.05979">
        <ele>167.22903442383</ele>
        <time>2011-07-12T12:35:20Z</time>
      </trkpt>
      <trkpt lat="45.02996" lon="5.0598">
        <ele>167.28053283691</ele>
        <time>2011-07-12T12:35:23Z</time>
      </trkpt>
      <trkpt lat="45.03013" lon="5.05964">
        <ele>167</ele>
        <time>2011-07-12T12:35:27Z</time>
      </trkpt>
      <trkpt lat="45.03039" lon="5.05923">
        <ele>166.13418579102</ele>
        <time>2011-07-12T12:35:33Z</time>
      </trkpt>
      <trkpt lat="45.03044" lon="5.05916">
        <ele>166</ele>
        <time>2011-07-12T12:35:34Z</time>
      </trkpt>
      <trkpt lat="45.03069" lon="5.05898">
        <ele>166</ele>
        <time>2011-07-12T12:35:38Z</time>
      </trkpt>
      <trkpt lat="45.0309" lon="5.05888">
        <ele>165.96746826172</ele>
        <time>2011-07-12T12:35:41Z</time>
      </trkpt>
      <trkpt lat="45.03104" lon="5.05882">
        <ele>165.75117492676</ele>
        <time>2011-07-12T12:35:43Z</time>
      </trkpt>
      <trkpt lat="45.03118" lon="5.05875">
        <ele>165.61080932617</ele>
        <time>2011-07-12T12:35:45Z</time>
      </trkpt>
      <trkpt lat="45.03163" lon="5.05848">
        <ele>165.58712768555</ele>
        <time>2011-07-12T12:35:52Z</time>
      </trkpt>
      <trkpt lat="45.03168" lon="5.05843">
        <ele>165.34355163574</ele>
        <time>2011-07-12T12:35:53Z</time>
      </trkpt>
      <trkpt lat="45.03193" lon="5.05806">
        <ele>165</ele>
        <time>2011-07-12T12:35:59Z</time>
      </trkpt>
      <trkpt lat="45.03214" lon="5.05769">
        <ele>164.28649902344</ele>
        <time>2011-07-12T12:36:05Z</time>
      </trkpt>
      <trkpt lat="45.03243" lon="5.05715">
        <ele>164</ele>
        <time>2011-07-12T12:36:13Z</time>
      </trkpt>
      <trkpt lat="45.03273" lon="5.05671">
        <ele>163.15789794922</ele>
        <time>2011-07-12T12:36:20Z</time>
      </trkpt>
      <trkpt lat="45.0331" lon="5.05634">
        <ele>162.6823425293</ele>
        <time>2011-07-12T12:36:27Z</time>
      </trkpt>
      <trkpt lat="45.0335" lon="5.05613">
        <ele>162</ele>
        <time>2011-07-12T12:36:34Z</time>
      </trkpt>
      <trkpt lat="45.03379" lon="5.05602">
        <ele>161.35388183594</ele>
        <time>2011-07-12T12:36:39Z</time>
      </trkpt>
      <trkpt lat="45.03392" lon="5.05599">
        <ele>161</ele>
        <time>2011-07-12T12:36:41Z</time>
      </trkpt>
      <trkpt lat="45.03438" lon="5.05583">
        <ele>160.99087524414</ele>
        <time>2011-07-12T12:36:49Z</time>
      </trkpt>
      <trkpt lat="45.03474" lon="5.05577">
        <ele>160.69784545898</ele>
        <time>2011-07-12T12:36:55Z</time>
      </trkpt>
      <trkpt lat="45.0351" lon="5.05573">
        <ele>159.64349365234</ele>
        <time>2011-07-12T12:37:00Z</time>
      </trkpt>
      <trkpt lat="45.03551" lon="5.05563">
        <ele>157.34814453125</ele>
        <time>2011-07-12T12:37:05Z</time>
      </trkpt>
      <trkpt lat="45.03597" lon="5.05529">
        <ele>154.49865722656</ele>
        <time>2011-07-12T12:37:11Z</time>
      </trkpt>
      <trkpt lat="45.03634" lon="5.05486">
        <ele>153.16656494141</ele>
        <time>2011-07-12T12:37:17Z</time>
      </trkpt>
      <trkpt lat="45.03643" lon="5.05476">
        <ele>152.86444091797</ele>
        <time>2011-07-12T12:37:19Z</time>
      </trkpt>
      <trkpt lat="45.03651" lon="5.05466">
        <ele>152.31715393066</ele>
        <time>2011-07-12T12:37:23Z</time>
      </trkpt>
      <trkpt lat="45.03653" lon="5.05465">
        <ele>152.21929931641</ele>
        <time>2011-07-12T12:37:26Z</time>
      </trkpt>
      <trkpt lat="45.03656" lon="5.05461">
        <ele>151.97383117676</ele>
        <time>2011-07-12T12:37:52Z</time>
      </trkpt>
      <trkpt lat="45.03659" lon="5.05459">
        <ele>151.79357910156</ele>
        <time>2011-07-12T12:37:53Z</time>
      </trkpt>
      <trkpt lat="45.03674" lon="5.05444">
        <ele>151</ele>
        <time>2011-07-12T12:37:57Z</time>
      </trkpt>
      <trkpt lat="45.03678" lon="5.05438">
        <ele>151</ele>
        <time>2011-07-12T12:37:58Z</time>
      </trkpt>
      <trkpt lat="45.03692" lon="5.05418">
        <ele>151</ele>
        <time>2011-07-12T12:38:01Z</time>
      </trkpt>
      <trkpt lat="45.03708" lon="5.05402">
        <ele>151</ele>
        <time>2011-07-12T12:38:04Z</time>
      </trkpt>
      <trkpt lat="45.03751" lon="5.05356">
        <ele>150.10711669922</ele>
        <time>2011-07-12T12:38:12Z</time>
      </trkpt>
      <trkpt lat="45.03789" lon="5.05316">
        <ele>152.38354492188</ele>
        <time>2011-07-12T12:38:19Z</time>
      </trkpt>
      <trkpt lat="45.03807" lon="5.05304">
        <ele>152</ele>
        <time>2011-07-12T12:38:22Z</time>
      </trkpt>
      <trkpt lat="45.0383" lon="5.0531">
        <ele>152.15353393555</ele>
        <time>2011-07-12T12:38:26Z</time>
      </trkpt>
      <trkpt lat="45.03838" lon="5.0531">
        <ele>152.1569519043</ele>
        <time>2011-07-12T12:38:28Z</time>
      </trkpt>
      <trkpt lat="45.03848" lon="5.05294">
        <ele>152</ele>
        <time>2011-07-12T12:38:31Z</time>
      </trkpt>
      <trkpt lat="45.03881" lon="5.05253">
        <ele>150.40071105957</ele>
        <time>2011-07-12T12:38:37Z</time>
      </trkpt>
      <trkpt lat="45.03915" lon="5.05207">
        <ele>147.10472106934</ele>
        <time>2011-07-12T12:38:43Z</time>
      </trkpt>
      <trkpt lat="45.03954" lon="5.0515">
        <ele>143.822265625</ele>
        <time>2011-07-12T12:38:50Z</time>
      </trkpt>
      <trkpt lat="45.03962" lon="5.05131">
        <ele>142.42338562012</ele>
        <time>2011-07-12T12:38:54Z</time>
      </trkpt>
      <trkpt lat="45.03967" lon="5.0512">
        <ele>141.68437194824</ele>
        <time>2011-07-12T12:38:57Z</time>
      </trkpt>
      <trkpt lat="45.03986" lon="5.05086">
        <ele>140.5185546875</ele>
        <time>2011-07-12T12:39:02Z</time>
      </trkpt>
      <trkpt lat="45.04007" lon="5.05055">
        <ele>140</ele>
        <time>2011-07-12T12:39:06Z</time>
      </trkpt>
      <trkpt lat="45.04018" lon="5.0502">
        <ele>140</ele>
        <time>2011-07-12T12:39:10Z</time>
      </trkpt>
      <trkpt lat="45.04047" lon="5.0497">
        <ele>139.90205383301</ele>
        <time>2011-07-12T12:39:16Z</time>
      </trkpt>
      <trkpt lat="45.04077" lon="5.0493">
        <ele>138.23638916016</ele>
        <time>2011-07-12T12:39:21Z</time>
      </trkpt>
      <trkpt lat="45.04082" lon="5.04928">
        <ele>138.03039550781</ele>
        <time>2011-07-12T12:39:23Z</time>
      </trkpt>
      <trkpt lat="45.04086" lon="5.04926">
        <ele>138</ele>
        <time>2011-07-12T12:39:24Z</time>
      </trkpt>
      <trkpt lat="45.0409" lon="5.049">
        <ele>138</ele>
        <time>2011-07-12T12:39:28Z</time>
      </trkpt>
      <trkpt lat="45.04088" lon="5.04864">
        <ele>138</ele>
        <time>2011-07-12T12:39:32Z</time>
      </trkpt>
      <trkpt lat="45.04096" lon="5.04846">
        <ele>138</ele>
        <time>2011-07-12T12:39:36Z</time>
      </trkpt>
      <trkpt lat="45.04101" lon="5.04848">
        <ele>138</ele>
        <time>2011-07-12T12:39:37Z</time>
      </trkpt>
      <trkpt lat="45.0411" lon="5.04852">
        <ele>138</ele>
        <time>2011-07-12T12:39:42Z</time>
      </trkpt>
      <trkpt lat="45.04118" lon="5.04852">
        <ele>138</ele>
        <time>2011-07-12T12:39:46Z</time>
      </trkpt>
      <trkpt lat="45.04126" lon="5.04852">
        <ele>138</ele>
        <time>2011-07-12T12:39:48Z</time>
      </trkpt>
      <trkpt lat="45.04155" lon="5.04855">
        <ele>138</ele>
        <time>2011-07-12T12:39:54Z</time>
      </trkpt>
      <trkpt lat="45.04173" lon="5.04856">
        <ele>138</ele>
        <time>2011-07-12T12:39:57Z</time>
      </trkpt>
      <trkpt lat="45.04211" lon="5.04859">
        <ele>138.58386230469</ele>
        <time>2011-07-12T12:40:04Z</time>
      </trkpt>
      <trkpt lat="45.0423" lon="5.04854">
        <ele>139</ele>
        <time>2011-07-12T12:40:08Z</time>
      </trkpt>
      <trkpt lat="45.04232" lon="5.0483">
        <ele>139</ele>
        <time>2011-07-12T12:40:11Z</time>
      </trkpt>
      <trkpt lat="45.04231" lon="5.04821">
        <ele>139</ele>
        <time>2011-07-12T12:40:12Z</time>
      </trkpt>
      <trkpt lat="45.04228" lon="5.04766">
        <ele>139.21557617188</ele>
        <time>2011-07-12T12:40:18Z</time>
      </trkpt>
      <trkpt lat="45.04223" lon="5.04687">
        <ele>139.29431152344</ele>
        <time>2011-07-12T12:40:26Z</time>
      </trkpt>
      <trkpt lat="45.04222" lon="5.04642">
        <ele>139.98022460938</ele>
        <time>2011-07-12T12:40:31Z</time>
      </trkpt>
      <trkpt lat="45.04237" lon="5.04604">
        <ele>140</ele>
        <time>2011-07-12T12:40:36Z</time>
      </trkpt>
      <trkpt lat="45.04248" lon="5.04597">
        <ele>140</ele>
        <time>2011-07-12T12:40:38Z</time>
      </trkpt>
      <trkpt lat="45.04303" lon="5.04571">
        <ele>140</ele>
        <time>2011-07-12T12:40:46Z</time>
      </trkpt>
      <trkpt lat="45.04309" lon="5.04568">
        <ele>140.28137207031</ele>
        <time>2011-07-12T12:40:47Z</time>
      </trkpt>
      <trkpt lat="45.0433" lon="5.04543">
        <ele>141.76452636719</ele>
        <time>2011-07-12T12:40:51Z</time>
      </trkpt>
      <trkpt lat="45.04337" lon="5.04517">
        <ele>142.76840209961</ele>
        <time>2011-07-12T12:40:54Z</time>
      </trkpt>
      <trkpt lat="45.0435" lon="5.04453">
        <ele>145.47799682617</ele>
        <time>2011-07-12T12:41:01Z</time>
      </trkpt>
      <trkpt lat="45.04359" lon="5.0438">
        <ele>148.11468505859</ele>
        <time>2011-07-12T12:41:09Z</time>
      </trkpt>
      <trkpt lat="45.04368" lon="5.043">
        <ele>150.68798828125</ele>
        <time>2011-07-12T12:41:19Z</time>
      </trkpt>
      <trkpt lat="45.0437" lon="5.0427">
        <ele>151.83578491211</ele>
        <time>2011-07-12T12:41:23Z</time>
      </trkpt>
      <trkpt lat="45.04376" lon="5.04227">
        <ele>153.36785888672</ele>
        <time>2011-07-12T12:41:29Z</time>
      </trkpt>
      <trkpt lat="45.04389" lon="5.04183">
        <ele>154.42434692383</ele>
        <time>2011-07-12T12:41:36Z</time>
      </trkpt>
      <trkpt lat="45.04391" lon="5.04177">
        <ele>154.72132873535</ele>
        <time>2011-07-12T12:41:37Z</time>
      </trkpt>
      <trkpt lat="45.04397" lon="5.04167">
        <ele>155.29925537109</ele>
        <time>2011-07-12T12:41:39Z</time>
      </trkpt>
      <trkpt lat="45.04419" lon="5.04143">
        <ele>156.12579345703</ele>
        <time>2011-07-12T12:41:45Z</time>
      </trkpt>
      <trkpt lat="45.04439" lon="5.0414">
        <ele>157.57423400879</ele>
        <time>2011-07-12T12:41:50Z</time>
      </trkpt>
      <trkpt lat="45.04448" lon="5.04149">
        <ele>157.81121826172</ele>
        <time>2011-07-12T12:41:54Z</time>
      </trkpt>
      <trkpt lat="45.04458" lon="5.04152">
        <ele>158.23666381836</ele>
        <time>2011-07-12T12:41:59Z</time>
      </trkpt>
      <trkpt lat="45.04471" lon="5.04139">
        <ele>158.94934082031</ele>
        <time>2011-07-12T12:42:03Z</time>
      </trkpt>
      <trkpt lat="45.04472" lon="5.04133">
        <ele>159.00463867188</ele>
        <time>2011-07-12T12:42:04Z</time>
      </trkpt>
      <trkpt lat="45.04474" lon="5.04118">
        <ele>159.0595703125</ele>
        <time>2011-07-12T12:42:06Z</time>
      </trkpt>
      <trkpt lat="45.0448" lon="5.04074">
        <ele>159.52810668945</ele>
        <time>2011-07-12T12:42:12Z</time>
      </trkpt>
      <trkpt lat="45.04478" lon="5.0406">
        <ele>159.87962341309</ele>
        <time>2011-07-12T12:42:14Z</time>
      </trkpt>
      <trkpt lat="45.04471" lon="5.04032">
        <ele>159.8994140625</ele>
        <time>2011-07-12T12:42:18Z</time>
      </trkpt>
      <trkpt lat="45.04466" lon="5.03999">
        <ele>159.78491210938</ele>
        <time>2011-07-12T12:42:23Z</time>
      </trkpt>
      <trkpt lat="45.04466" lon="5.0396">
        <ele>159.78491210938</ele>
        <time>2011-07-12T12:42:30Z</time>
      </trkpt>
      <trkpt lat="45.0447" lon="5.03935">
        <ele>159.90850830078</ele>
        <time>2011-07-12T12:42:35Z</time>
      </trkpt>
      <trkpt lat="45.04473" lon="5.03904">
        <ele>160</ele>
        <time>2011-07-12T12:42:42Z</time>
      </trkpt>
      <trkpt lat="45.04473" lon="5.03879">
        <ele>160</ele>
        <time>2011-07-12T12:42:47Z</time>
      </trkpt>
      <trkpt lat="45.0447" lon="5.03848">
        <ele>160</ele>
        <time>2011-07-12T12:42:54Z</time>
      </trkpt>
      <trkpt lat="45.04466" lon="5.03812">
        <ele>160</ele>
        <time>2011-07-12T12:43:02Z</time>
      </trkpt>
      <trkpt lat="45.04462" lon="5.03784">
        <ele>160</ele>
        <time>2011-07-12T12:43:08Z</time>
      </trkpt>
      <trkpt lat="45.04455" lon="5.03753">
        <ele>160</ele>
        <time>2011-07-12T12:43:15Z</time>
      </trkpt>
      <trkpt lat="45.04452" lon="5.03729">
        <ele>160</ele>
        <time>2011-07-12T12:43:20Z</time>
      </trkpt>
      <trkpt lat="45.0445" lon="5.03702">
        <ele>160</ele>
        <time>2011-07-12T12:43:25Z</time>
      </trkpt>
      <trkpt lat="45.04444" lon="5.0368">
        <ele>160</ele>
        <time>2011-07-12T12:43:29Z</time>
      </trkpt>
      <trkpt lat="45.04443" lon="5.03662">
        <ele>160</ele>
        <time>2011-07-12T12:43:32Z</time>
      </trkpt>
      <trkpt lat="45.04436" lon="5.03616">
        <ele>160</ele>
        <time>2011-07-12T12:43:39Z</time>
      </trkpt>
      <trkpt lat="45.04426" lon="5.03566">
        <ele>160</ele>
        <time>2011-07-12T12:43:47Z</time>
      </trkpt>
      <trkpt lat="45.04423" lon="5.03553">
        <ele>160</ele>
        <time>2011-07-12T12:43:49Z</time>
      </trkpt>
      <trkpt lat="45.04417" lon="5.03525">
        <ele>160</ele>
        <time>2011-07-12T12:43:53Z</time>
      </trkpt>
      <trkpt lat="45.04414" lon="5.03475">
        <ele>160</ele>
        <time>2011-07-12T12:44:00Z</time>
      </trkpt>
      <trkpt lat="45.04399" lon="5.03423">
        <ele>160</ele>
        <time>2011-07-12T12:44:07Z</time>
      </trkpt>
      <trkpt lat="45.04388" lon="5.03368">
        <ele>161</ele>
        <time>2011-07-12T12:44:14Z</time>
      </trkpt>
      <trkpt lat="45.04384" lon="5.03346">
        <ele>161</ele>
        <time>2011-07-12T12:44:17Z</time>
      </trkpt>
      <trkpt lat="45.0438" lon="5.03319">
        <ele>161</ele>
        <time>2011-07-12T12:44:21Z</time>
      </trkpt>
      <trkpt lat="45.04376" lon="5.03293">
        <ele>161</ele>
        <time>2011-07-12T12:44:25Z</time>
      </trkpt>
      <trkpt lat="45.04373" lon="5.03272">
        <ele>161</ele>
        <time>2011-07-12T12:44:29Z</time>
      </trkpt>
      <trkpt lat="45.0438" lon="5.03269">
        <ele>161</ele>
        <time>2011-07-12T12:44:33Z</time>
      </trkpt>
      <trkpt lat="45.04399" lon="5.03284">
        <ele>161</ele>
        <time>2011-07-12T12:44:39Z</time>
      </trkpt>
      <trkpt lat="45.04414" lon="5.03292">
        <ele>161</ele>
        <time>2011-07-12T12:44:43Z</time>
      </trkpt>
      <trkpt lat="45.04428" lon="5.03298">
        <ele>161</ele>
        <time>2011-07-12T12:44:46Z</time>
      </trkpt>
      <trkpt lat="45.04445" lon="5.03309">
        <ele>161</ele>
        <time>2011-07-12T12:44:50Z</time>
      </trkpt>
      <trkpt lat="45.04483" lon="5.03333">
        <ele>161</ele>
        <time>2011-07-12T12:44:58Z</time>
      </trkpt>
      <trkpt lat="45.04512" lon="5.03352">
        <ele>161</ele>
        <time>2011-07-12T12:45:04Z</time>
      </trkpt>
      <trkpt lat="45.04525" lon="5.03362">
        <ele>161</ele>
        <time>2011-07-12T12:45:07Z</time>
      </trkpt>
      <trkpt lat="45.04533" lon="5.03368">
        <ele>161</ele>
        <time>2011-07-12T12:45:09Z</time>
      </trkpt>
      <trkpt lat="45.04549" lon="5.0338">
        <ele>161</ele>
        <time>2011-07-12T12:45:13Z</time>
      </trkpt>
      <trkpt lat="45.04562" lon="5.03385">
        <ele>161</ele>
        <time>2011-07-12T12:45:16Z</time>
      </trkpt>
      <trkpt lat="45.04588" lon="5.0341">
        <ele>160.23635864258</ele>
        <time>2011-07-12T12:45:22Z</time>
      </trkpt>
      <trkpt lat="45.0462" lon="5.03444">
        <ele>160</ele>
        <time>2011-07-12T12:45:29Z</time>
      </trkpt>
      <trkpt lat="45.04651" lon="5.03479">
        <ele>160</ele>
        <time>2011-07-12T12:45:36Z</time>
      </trkpt>
      <trkpt lat="45.04678" lon="5.03514">
        <ele>160</ele>
        <time>2011-07-12T12:45:43Z</time>
      </trkpt>
      <trkpt lat="45.04697" lon="5.0354">
        <ele>160</ele>
        <time>2011-07-12T12:45:49Z</time>
      </trkpt>
      <trkpt lat="45.04721" lon="5.03571">
        <ele>160</ele>
        <time>2011-07-12T12:45:56Z</time>
      </trkpt>
      <trkpt lat="45.04733" lon="5.03589">
        <ele>160</ele>
        <time>2011-07-12T12:46:00Z</time>
      </trkpt>
      <trkpt lat="45.0474" lon="5.03597">
        <ele>160</ele>
        <time>2011-07-12T12:46:02Z</time>
      </trkpt>
      <trkpt lat="45.0475" lon="5.03612">
        <ele>160</ele>
        <time>2011-07-12T12:46:05Z</time>
      </trkpt>
      <trkpt lat="45.04768" lon="5.03617">
        <ele>160</ele>
        <time>2011-07-12T12:46:09Z</time>
      </trkpt>
      <trkpt lat="45.04776" lon="5.03609">
        <ele>160</ele>
        <time>2011-07-12T12:46:11Z</time>
      </trkpt>
      <trkpt lat="45.04782" lon="5.03598">
        <ele>160</ele>
        <time>2011-07-12T12:46:13Z</time>
      </trkpt>
      <trkpt lat="45.04799" lon="5.0358">
        <ele>160</ele>
        <time>2011-07-12T12:46:17Z</time>
      </trkpt>
      <trkpt lat="45.04827" lon="5.03553">
        <ele>160</ele>
        <time>2011-07-12T12:46:23Z</time>
      </trkpt>
      <trkpt lat="45.04863" lon="5.03527">
        <ele>160</ele>
        <time>2011-07-12T12:46:30Z</time>
      </trkpt>
      <trkpt lat="45.04896" lon="5.03505">
        <ele>160</ele>
        <time>2011-07-12T12:46:36Z</time>
      </trkpt>
      <trkpt lat="45.04933" lon="5.0348">
        <ele>160</ele>
        <time>2011-07-12T12:46:43Z</time>
      </trkpt>
      <trkpt lat="45.04952" lon="5.03468">
        <ele>160</ele>
        <time>2011-07-12T12:46:47Z</time>
      </trkpt>
      <trkpt lat="45.04981" lon="5.03452">
        <ele>160</ele>
        <time>2011-07-12T12:46:54Z</time>
      </trkpt>
      <trkpt lat="45.04998" lon="5.03448">
        <ele>160</ele>
        <time>2011-07-12T12:46:58Z</time>
      </trkpt>
      <trkpt lat="45.05017" lon="5.03454">
        <ele>160.41975402832</ele>
        <time>2011-07-12T12:47:02Z</time>
      </trkpt>
      <trkpt lat="45.05027" lon="5.03468">
        <ele>160.1350402832</ele>
        <time>2011-07-12T12:47:06Z</time>
      </trkpt>
      <trkpt lat="45.05026" lon="5.0348">
        <ele>160</ele>
        <time>2011-07-12T12:47:09Z</time>
      </trkpt>
      <trkpt lat="45.05018" lon="5.03498">
        <ele>160</ele>
        <time>2011-07-12T12:47:15Z</time>
      </trkpt>
      <trkpt lat="45.05014" lon="5.03499">
        <ele>160</ele>
        <time>2011-07-12T12:47:19Z</time>
      </trkpt>
      <trkpt lat="45.05016" lon="5.03502">
        <ele>160</ele>
        <time>2011-07-12T12:47:42Z</time>
      </trkpt>
      <trkpt lat="45.05021" lon="5.03488">
        <ele>160</ele>
        <time>2011-07-12T12:47:47Z</time>
      </trkpt>
      <trkpt lat="45.05027" lon="5.03463">
        <ele>160.32676696777</ele>
        <time>2011-07-12T12:47:53Z</time>
      </trkpt>
      <trkpt lat="45.05038" lon="5.03434">
        <ele>161</ele>
        <time>2011-07-12T12:47:59Z</time>
      </trkpt>
      <trkpt lat="45.05047" lon="5.03405">
        <ele>161</ele>
        <time>2011-07-12T12:48:04Z</time>
      </trkpt>
      <trkpt lat="45.05064" lon="5.03363">
        <ele>161</ele>
        <time>2011-07-12T12:48:11Z</time>
      </trkpt>
      <trkpt lat="45.05074" lon="5.03339">
        <ele>161</ele>
        <time>2011-07-12T12:48:15Z</time>
      </trkpt>
      <trkpt lat="45.05087" lon="5.03307">
        <ele>161</ele>
        <time>2011-07-12T12:48:20Z</time>
      </trkpt>
      <trkpt lat="45.05097" lon="5.03274">
        <ele>161</ele>
        <time>2011-07-12T12:48:25Z</time>
      </trkpt>
      <trkpt lat="45.05116" lon="5.03227">
        <ele>161</ele>
        <time>2011-07-12T12:48:32Z</time>
      </trkpt>
      <trkpt lat="45.05147" lon="5.03168">
        <ele>161</ele>
        <time>2011-07-12T12:48:41Z</time>
      </trkpt>
      <trkpt lat="45.05184" lon="5.03114">
        <ele>162.23303222656</ele>
        <time>2011-07-12T12:48:50Z</time>
      </trkpt>
      <trkpt lat="45.05211" lon="5.03072">
        <ele>163</ele>
        <time>2011-07-12T12:48:57Z</time>
      </trkpt>
      <trkpt lat="45.05239" lon="5.03029">
        <ele>163</ele>
        <time>2011-07-12T12:49:04Z</time>
      </trkpt>
      <trkpt lat="45.05269" lon="5.02967">
        <ele>163</ele>
        <time>2011-07-12T12:49:13Z</time>
      </trkpt>
      <trkpt lat="45.05289" lon="5.02921">
        <ele>163.40679931641</ele>
        <time>2011-07-12T12:49:20Z</time>
      </trkpt>
      <trkpt lat="45.0531" lon="5.02865">
        <ele>164</ele>
        <time>2011-07-12T12:49:29Z</time>
      </trkpt>
      <trkpt lat="45.05337" lon="5.02794">
        <ele>164</ele>
        <time>2011-07-12T12:49:40Z</time>
      </trkpt>
      <trkpt lat="45.05365" lon="5.02745">
        <ele>164</ele>
        <time>2011-07-12T12:49:48Z</time>
      </trkpt>
      <trkpt lat="45.05368" lon="5.02739">
        <ele>164</ele>
        <time>2011-07-12T12:49:49Z</time>
      </trkpt>
      <trkpt lat="45.05386" lon="5.02683">
        <ele>164</ele>
        <time>2011-07-12T12:49:57Z</time>
      </trkpt>
      <trkpt lat="45.05397" lon="5.02622">
        <ele>164.27947998047</ele>
        <time>2011-07-12T12:50:05Z</time>
      </trkpt>
      <trkpt lat="45.05412" lon="5.02562">
        <ele>165</ele>
        <time>2011-07-12T12:50:13Z</time>
      </trkpt>
      <trkpt lat="45.05423" lon="5.02507">
        <ele>165</ele>
        <time>2011-07-12T12:50:20Z</time>
      </trkpt>
      <trkpt lat="45.05428" lon="5.02461">
        <ele>165</ele>
        <time>2011-07-12T12:50:26Z</time>
      </trkpt>
      <trkpt lat="45.05425" lon="5.02405">
        <ele>165</ele>
        <time>2011-07-12T12:50:33Z</time>
      </trkpt>
      <trkpt lat="45.05422" lon="5.02342">
        <ele>165</ele>
        <time>2011-07-12T12:50:41Z</time>
      </trkpt>
      <trkpt lat="45.05427" lon="5.0229">
        <ele>165</ele>
        <time>2011-07-12T12:50:48Z</time>
      </trkpt>
      <trkpt lat="45.05436" lon="5.02248">
        <ele>165</ele>
        <time>2011-07-12T12:50:55Z</time>
      </trkpt>
      <trkpt lat="45.05445" lon="5.02209">
        <ele>165</ele>
        <time>2011-07-12T12:51:02Z</time>
      </trkpt>
      <trkpt lat="45.05461" lon="5.0217">
        <ele>165</ele>
        <time>2011-07-12T12:51:09Z</time>
      </trkpt>
      <trkpt lat="45.05466" lon="5.02144">
        <ele>165</ele>
        <time>2011-07-12T12:51:13Z</time>
      </trkpt>
      <trkpt lat="45.05486" lon="5.02079">
        <ele>165</ele>
        <time>2011-07-12T12:51:22Z</time>
      </trkpt>
      <trkpt lat="45.05489" lon="5.02072">
        <ele>165</ele>
        <time>2011-07-12T12:51:23Z</time>
      </trkpt>
      <trkpt lat="45.05505" lon="5.02034">
        <ele>165.193359375</ele>
        <time>2011-07-12T12:51:28Z</time>
      </trkpt>
      <trkpt lat="45.05506" lon="5.02025">
        <ele>165.22082519531</ele>
        <time>2011-07-12T12:51:29Z</time>
      </trkpt>
      <trkpt lat="45.0551" lon="5.01966">
        <ele>165.35815429688</ele>
        <time>2011-07-12T12:51:35Z</time>
      </trkpt>
      <trkpt lat="45.05516" lon="5.01889">
        <ele>165.59161376953</ele>
        <time>2011-07-12T12:51:42Z</time>
      </trkpt>
      <trkpt lat="45.05523" lon="5.01821">
        <ele>166.24871826172</ele>
        <time>2011-07-12T12:51:48Z</time>
      </trkpt>
      <trkpt lat="45.05536" lon="5.0175">
        <ele>167</ele>
        <time>2011-07-12T12:51:55Z</time>
      </trkpt>
      <trkpt lat="45.0555" lon="5.01703">
        <ele>167</ele>
        <time>2011-07-12T12:52:00Z</time>
      </trkpt>
      <trkpt lat="45.05571" lon="5.01629">
        <ele>166.84690856934</ele>
        <time>2011-07-12T12:52:08Z</time>
      </trkpt>
      <trkpt lat="45.05587" lon="5.0155">
        <ele>166</ele>
        <time>2011-07-12T12:52:16Z</time>
      </trkpt>
      <trkpt lat="45.05605" lon="5.01433">
        <ele>165.91398620606</ele>
        <time>2011-07-12T12:52:28Z</time>
      </trkpt>
      <trkpt lat="45.05624" lon="5.01316">
        <ele>165</ele>
        <time>2011-07-12T12:52:40Z</time>
      </trkpt>
      <trkpt lat="45.05644" lon="5.01221">
        <ele>165.14431762695</ele>
        <time>2011-07-12T12:52:50Z</time>
      </trkpt>
      <trkpt lat="45.0565" lon="5.01162">
        <ele>164.41186523438</ele>
        <time>2011-07-12T12:52:56Z</time>
      </trkpt>
      <trkpt lat="45.05654" lon="5.01106">
        <ele>164.53546142578</ele>
        <time>2011-07-12T12:53:02Z</time>
      </trkpt>
      <trkpt lat="45.05657" lon="5.01036">
        <ele>163.95077514648</ele>
        <time>2011-07-12T12:53:10Z</time>
      </trkpt>
      <trkpt lat="45.05661" lon="5.00958">
        <ele>163.78265380859</ele>
        <time>2011-07-12T12:53:19Z</time>
      </trkpt>
      <trkpt lat="45.05666" lon="5.00897">
        <ele>163.96118164062</ele>
        <time>2011-07-12T12:53:26Z</time>
      </trkpt>
      <trkpt lat="45.05676" lon="5.00826">
        <ele>163</ele>
        <time>2011-07-12T12:53:34Z</time>
      </trkpt>
      <trkpt lat="45.05693" lon="5.00751">
        <ele>163</ele>
        <time>2011-07-12T12:53:42Z</time>
      </trkpt>
      <trkpt lat="45.05715" lon="5.00656">
        <ele>162.73272705078</ele>
        <time>2011-07-12T12:53:52Z</time>
      </trkpt>
      <trkpt lat="45.05733" lon="5.00561">
        <ele>162</ele>
        <time>2011-07-12T12:54:02Z</time>
      </trkpt>
      <trkpt lat="45.05745" lon="5.00473">
        <ele>161</ele>
        <time>2011-07-12T12:54:11Z</time>
      </trkpt>
      <trkpt lat="45.05753" lon="5.00398">
        <ele>160.31655883789</ele>
        <time>2011-07-12T12:54:19Z</time>
      </trkpt>
      <trkpt lat="45.05766" lon="5.00313">
        <ele>160</ele>
        <time>2011-07-12T12:54:28Z</time>
      </trkpt>
      <trkpt lat="45.05785" lon="5.00237">
        <ele>160</ele>
        <time>2011-07-12T12:54:36Z</time>
      </trkpt>
      <trkpt lat="45.05808" lon="5.00152">
        <ele>160</ele>
        <time>2011-07-12T12:54:45Z</time>
      </trkpt>
      <trkpt lat="45.05833" lon="5.00061">
        <ele>160</ele>
        <time>2011-07-12T12:54:55Z</time>
      </trkpt>
      <trkpt lat="45.0585" lon="5.00001">
        <ele>160</ele>
        <time>2011-07-12T12:55:02Z</time>
      </trkpt>
      <trkpt lat="45.05873" lon="4.9994">
        <ele>157.81918334961</ele>
        <time>2011-07-12T12:55:10Z</time>
      </trkpt>
      <trkpt lat="45.05903" lon="4.99876">
        <ele>158.7566986084</ele>
        <time>2011-07-12T12:55:18Z</time>
      </trkpt>
      <trkpt lat="45.05928" lon="4.9983">
        <ele>159.13189697266</ele>
        <time>2011-07-12T12:55:24Z</time>
      </trkpt>
      <trkpt lat="45.05954" lon="4.9978">
        <ele>159.44317626953</ele>
        <time>2011-07-12T12:55:31Z</time>
      </trkpt>
      <trkpt lat="45.05976" lon="4.9973">
        <ele>159.95822143555</ele>
        <time>2011-07-12T12:55:38Z</time>
      </trkpt>
      <trkpt lat="45.05995" lon="4.99674">
        <ele>160.84571838379</ele>
        <time>2011-07-12T12:55:45Z</time>
      </trkpt>
      <trkpt lat="45.06014" lon="4.99606">
        <ele>161.85331726074</ele>
        <time>2011-07-12T12:55:54Z</time>
      </trkpt>
      <trkpt lat="45.06026" lon="4.99547">
        <ele>162.14038085938</ele>
        <time>2011-07-12T12:56:02Z</time>
      </trkpt>
      <trkpt lat="45.06037" lon="4.99484">
        <ele>162.15054321289</ele>
        <time>2011-07-12T12:56:10Z</time>
      </trkpt>
      <trkpt lat="45.06049" lon="4.99418">
        <ele>161.60466003418</ele>
        <time>2011-07-12T12:56:17Z</time>
      </trkpt>
      <trkpt lat="45.06059" lon="4.99359">
        <ele>160.52679443359</ele>
        <time>2011-07-12T12:56:23Z</time>
      </trkpt>
      <trkpt lat="45.0607" lon="4.99304">
        <ele>160.18290710449</ele>
        <time>2011-07-12T12:56:29Z</time>
      </trkpt>
      <trkpt lat="45.06081" lon="4.99246">
        <ele>160.96917724609</ele>
        <time>2011-07-12T12:56:36Z</time>
      </trkpt>
      <trkpt lat="45.06091" lon="4.99189">
        <ele>162.04066467285</ele>
        <time>2011-07-12T12:56:43Z</time>
      </trkpt>
      <trkpt lat="45.06102" lon="4.99128">
        <ele>162.82969665527</ele>
        <time>2011-07-12T12:56:51Z</time>
      </trkpt>
      <trkpt lat="45.06107" lon="4.99073">
        <ele>163.86674499512</ele>
        <time>2011-07-12T12:56:58Z</time>
      </trkpt>
      <trkpt lat="45.06108" lon="4.9903">
        <ele>165.18786621094</ele>
        <time>2011-07-12T12:57:04Z</time>
      </trkpt>
      <trkpt lat="45.06108" lon="4.99018">
        <ele>165.50921630859</ele>
        <time>2011-07-12T12:57:06Z</time>
      </trkpt>
      <trkpt lat="45.06106" lon="4.98966">
        <ele>167.25592041016</ele>
        <time>2011-07-12T12:57:14Z</time>
      </trkpt>
      <trkpt lat="45.06099" lon="4.9889">
        <ele>168.42022705078</ele>
        <time>2011-07-12T12:57:24Z</time>
      </trkpt>
      <trkpt lat="45.06096" lon="4.98845">
        <ele>167.54025268555</ele>
        <time>2011-07-12T12:57:30Z</time>
      </trkpt>
      <trkpt lat="45.06092" lon="4.98791">
        <ele>165.28894042969</ele>
        <time>2011-07-12T12:57:37Z</time>
      </trkpt>
      <trkpt lat="45.06091" lon="4.98721">
        <ele>163.23915100098</ele>
        <time>2011-07-12T12:57:45Z</time>
      </trkpt>
      <trkpt lat="45.06091" lon="4.98655">
        <ele>162.76861572266</ele>
        <time>2011-07-12T12:57:52Z</time>
      </trkpt>
      <trkpt lat="45.0609" lon="4.98586">
        <ele>162.42028808594</ele>
        <time>2011-07-12T12:57:59Z</time>
      </trkpt>
      <trkpt lat="45.0609" lon="4.98518">
        <ele>161.35261535644</ele>
        <time>2011-07-12T12:58:06Z</time>
      </trkpt>
      <trkpt lat="45.06084" lon="4.9846">
        <ele>161.01330566406</ele>
        <time>2011-07-12T12:58:12Z</time>
      </trkpt>
      <trkpt lat="45.06068" lon="4.98366">
        <ele>161.23495483398</ele>
        <time>2011-07-12T12:58:22Z</time>
      </trkpt>
      <trkpt lat="45.06059" lon="4.98307">
        <ele>161.17811584473</ele>
        <time>2011-07-12T12:58:28Z</time>
      </trkpt>
      <trkpt lat="45.06042" lon="4.98206">
        <ele>159.44221496582</ele>
        <time>2011-07-12T12:58:38Z</time>
      </trkpt>
      <trkpt lat="45.06027" lon="4.98108">
        <ele>159.02029418945</ele>
        <time>2011-07-12T12:58:48Z</time>
      </trkpt>
      <trkpt lat="45.06017" lon="4.98046">
        <ele>159.28668212891</ele>
        <time>2011-07-12T12:58:55Z</time>
      </trkpt>
      <trkpt lat="45.06007" lon="4.97975">
        <ele>158.85511779785</ele>
        <time>2011-07-12T12:59:03Z</time>
      </trkpt>
      <trkpt lat="45.06005" lon="4.97926">
        <ele>158.22625732422</ele>
        <time>2011-07-12T12:59:08Z</time>
      </trkpt>
      <trkpt lat="45.06002" lon="4.97893">
        <ele>157.79399108887</ele>
        <time>2011-07-12T12:59:12Z</time>
      </trkpt>
      <trkpt lat="45.06001" lon="4.97861">
        <ele>157.38446044922</ele>
        <time>2011-07-12T12:59:17Z</time>
      </trkpt>
      <trkpt lat="45.06002" lon="4.97807">
        <ele>157.40887451172</ele>
        <time>2011-07-12T12:59:24Z</time>
      </trkpt>
      <trkpt lat="45.06005" lon="4.97732">
        <ele>158.40438842773</ele>
        <time>2011-07-12T12:59:33Z</time>
      </trkpt>
      <trkpt lat="45.06007" lon="4.97669">
        <ele>159.21405029297</ele>
        <time>2011-07-12T12:59:41Z</time>
      </trkpt>
      <trkpt lat="45.06006" lon="4.97617">
        <ele>159.86521911621</ele>
        <time>2011-07-12T12:59:48Z</time>
      </trkpt>
      <trkpt lat="45.05999" lon="4.97571">
        <ele>159.8000793457</ele>
        <time>2011-07-12T12:59:55Z</time>
      </trkpt>
      <trkpt lat="45.05991" lon="4.97537">
        <ele>159.04507446289</ele>
        <time>2011-07-12T13:00:01Z</time>
      </trkpt>
      <trkpt lat="45.05981" lon="4.97486">
        <ele>159.04487609863</ele>
        <time>2011-07-12T13:00:08Z</time>
      </trkpt>
      <trkpt lat="45.05967" lon="4.97425">
        <ele>161.59434509277</ele>
        <time>2011-07-12T13:00:16Z</time>
      </trkpt>
      <trkpt lat="45.05952" lon="4.97362">
        <ele>162.44563293457</ele>
        <time>2011-07-12T13:00:24Z</time>
      </trkpt>
      <trkpt lat="45.05951" lon="4.97354">
        <ele>162.54405212402</ele>
        <time>2011-07-12T13:00:25Z</time>
      </trkpt>
      <trkpt lat="45.05946" lon="4.9733">
        <ele>162.92677307129</ele>
        <time>2011-07-12T13:00:28Z</time>
      </trkpt>
      <trkpt lat="45.05919" lon="4.97264">
        <ele>163.75038146973</ele>
        <time>2011-07-12T13:00:37Z</time>
      </trkpt>
      <trkpt lat="45.05884" lon="4.97195">
        <ele>164.36447143555</ele>
        <time>2011-07-12T13:00:47Z</time>
      </trkpt>
      <trkpt lat="45.05845" lon="4.97118">
        <ele>162.95547485352</ele>
        <time>2011-07-12T13:00:58Z</time>
      </trkpt>
      <trkpt lat="45.05819" lon="4.97064">
        <ele>162.36560058594</ele>
        <time>2011-07-12T13:01:06Z</time>
      </trkpt>
      <trkpt lat="45.05814" lon="4.97052">
        <ele>162.34648132324</ele>
        <time>2011-07-12T13:01:08Z</time>
      </trkpt>
      <trkpt lat="45.05793" lon="4.96998">
        <ele>161.65940856934</ele>
        <time>2011-07-12T13:01:17Z</time>
      </trkpt>
      <trkpt lat="45.05783" lon="4.96974">
        <ele>160.40829467773</ele>
        <time>2011-07-12T13:01:21Z</time>
      </trkpt>
      <trkpt lat="45.05773" lon="4.96942">
        <ele>159.05633544922</ele>
        <time>2011-07-12T13:01:27Z</time>
      </trkpt>
      <trkpt lat="45.05768" lon="4.9692">
        <ele>158.58726501465</ele>
        <time>2011-07-12T13:01:31Z</time>
      </trkpt>
      <trkpt lat="45.05766" lon="4.96909">
        <ele>158.45614624023</ele>
        <time>2011-07-12T13:01:33Z</time>
      </trkpt>
      <trkpt lat="45.05771" lon="4.96888">
        <ele>159.65069580078</ele>
        <time>2011-07-12T13:01:37Z</time>
      </trkpt>
      <trkpt lat="45.05779" lon="4.96866">
        <ele>161.20857238769</ele>
        <time>2011-07-12T13:01:41Z</time>
      </trkpt>
      <trkpt lat="45.05794" lon="4.96816">
        <ele>163.34729003906</ele>
        <time>2011-07-12T13:01:49Z</time>
      </trkpt>
      <trkpt lat="45.05808" lon="4.96775">
        <ele>163.68098449707</ele>
        <time>2011-07-12T13:01:55Z</time>
      </trkpt>
      <trkpt lat="45.05814" lon="4.96755">
        <ele>163.58392333984</ele>
        <time>2011-07-12T13:01:58Z</time>
      </trkpt>
      <trkpt lat="45.05827" lon="4.96722">
        <ele>163.19505310059</ele>
        <time>2011-07-12T13:02:03Z</time>
      </trkpt>
      <trkpt lat="45.05847" lon="4.96675">
        <ele>162.59468078613</ele>
        <time>2011-07-12T13:02:10Z</time>
      </trkpt>
      <trkpt lat="45.05854" lon="4.96662">
        <ele>162.69969177246</ele>
        <time>2011-07-12T13:02:12Z</time>
      </trkpt>
      <trkpt lat="45.05881" lon="4.96612">
        <ele>163.89385986328</ele>
        <time>2011-07-12T13:02:20Z</time>
      </trkpt>
      <trkpt lat="45.05914" lon="4.96567">
        <ele>164.29063415527</ele>
        <time>2011-07-12T13:02:28Z</time>
      </trkpt>
      <trkpt lat="45.05945" lon="4.96533">
        <ele>163.85220336914</ele>
        <time>2011-07-12T13:02:34Z</time>
      </trkpt>
      <trkpt lat="45.05985" lon="4.96487">
        <ele>162.96423339844</ele>
        <time>2011-07-12T13:02:41Z</time>
      </trkpt>
      <trkpt lat="45.05998" lon="4.96458">
        <ele>161.4846496582</ele>
        <time>2011-07-12T13:02:45Z</time>
      </trkpt>
      <trkpt lat="45.06004" lon="4.96447">
        <ele>160.72627258301</ele>
        <time>2011-07-12T13:02:48Z</time>
      </trkpt>
      <trkpt lat="45.06011" lon="4.96447">
        <ele>160.58781433106</ele>
        <time>2011-07-12T13:02:50Z</time>
      </trkpt>
      <trkpt lat="45.06041" lon="4.96447">
        <ele>160.02795410156</ele>
        <time>2011-07-12T13:02:56Z</time>
      </trkpt>
      <trkpt lat="45.06074" lon="4.96444">
        <ele>159.18270874023</ele>
        <time>2011-07-12T13:03:01Z</time>
      </trkpt>
      <trkpt lat="45.06114" lon="4.9644">
        <ele>160.58103942871</ele>
        <time>2011-07-12T13:03:07Z</time>
      </trkpt>
      <trkpt lat="45.06169" lon="4.96427">
        <ele>162.39991760254</ele>
        <time>2011-07-12T13:03:15Z</time>
      </trkpt>
      <trkpt lat="45.06176" lon="4.96424">
        <ele>162.61534118652</ele>
        <time>2011-07-12T13:03:16Z</time>
      </trkpt>
      <trkpt lat="45.06236" lon="4.96397">
        <ele>163.60858154297</ele>
        <time>2011-07-12T13:03:24Z</time>
      </trkpt>
      <trkpt lat="45.06283" lon="4.96379">
        <ele>162.42974853516</ele>
        <time>2011-07-12T13:03:30Z</time>
      </trkpt>
      <trkpt lat="45.06323" lon="4.96372">
        <ele>161.92437744141</ele>
        <time>2011-07-12T13:03:35Z</time>
      </trkpt>
      <trkpt lat="45.06384" lon="4.96371">
        <ele>159.78224182129</ele>
        <time>2011-07-12T13:03:42Z</time>
      </trkpt>
      <trkpt lat="45.06448" lon="4.96369">
        <ele>157.27093505859</ele>
        <time>2011-07-12T13:03:49Z</time>
      </trkpt>
      <trkpt lat="45.06518" lon="4.96363">
        <ele>156.27098083496</ele>
        <time>2011-07-12T13:03:57Z</time>
      </trkpt>
      <trkpt lat="45.0656" lon="4.9635">
        <ele>157.17379760742</ele>
        <time>2011-07-12T13:04:02Z</time>
      </trkpt>
      <trkpt lat="45.0661" lon="4.96323">
        <ele>156.46095275879</ele>
        <time>2011-07-12T13:04:08Z</time>
      </trkpt>
      <trkpt lat="45.06627" lon="4.96313">
        <ele>156.4274597168</ele>
        <time>2011-07-12T13:04:10Z</time>
      </trkpt>
      <trkpt lat="45.06693" lon="4.96272">
        <ele>155.99485778809</ele>
        <time>2011-07-12T13:04:18Z</time>
      </trkpt>
      <trkpt lat="45.06717" lon="4.96261">
        <ele>156.40145874023</ele>
        <time>2011-07-12T13:04:21Z</time>
      </trkpt>
      <trkpt lat="45.06778" lon="4.96238">
        <ele>157.64274597168</ele>
        <time>2011-07-12T13:04:29Z</time>
      </trkpt>
      <trkpt lat="45.0681" lon="4.96214">
        <ele>158.68125915527</ele>
        <time>2011-07-12T13:04:34Z</time>
      </trkpt>
      <trkpt lat="45.06834" lon="4.96177">
        <ele>160.19244384766</ele>
        <time>2011-07-12T13:04:39Z</time>
      </trkpt>
      <trkpt lat="45.06867" lon="4.96114">
        <ele>160.29547119141</ele>
        <time>2011-07-12T13:04:46Z</time>
      </trkpt>
      <trkpt lat="45.06904" lon="4.96064">
        <ele>158.29627990723</ele>
        <time>2011-07-12T13:04:52Z</time>
      </trkpt>
      <trkpt lat="45.06949" lon="4.96028">
        <ele>157.77276611328</ele>
        <time>2011-07-12T13:04:58Z</time>
      </trkpt>
      <trkpt lat="45.07036" lon="4.9597">
        <ele>158.25811767578</ele>
        <time>2011-07-12T13:05:09Z</time>
      </trkpt>
      <trkpt lat="45.07097" lon="4.95922">
        <ele>156.77612304688</ele>
        <time>2011-07-12T13:05:17Z</time>
      </trkpt>
      <trkpt lat="45.0714" lon="4.95883">
        <ele>156.27131652832</ele>
        <time>2011-07-12T13:05:23Z</time>
      </trkpt>
      <trkpt lat="45.07184" lon="4.95861">
        <ele>156.76684570312</ele>
        <time>2011-07-12T13:05:29Z</time>
      </trkpt>
      <trkpt lat="45.07246" lon="4.95844">
        <ele>158.51795959473</ele>
        <time>2011-07-12T13:05:37Z</time>
      </trkpt>
      <trkpt lat="45.07285" lon="4.9585">
        <ele>159.55908203125</ele>
        <time>2011-07-12T13:05:42Z</time>
      </trkpt>
      <trkpt lat="45.0736" lon="4.95866">
        <ele>162.04759216309</ele>
        <time>2011-07-12T13:05:52Z</time>
      </trkpt>
      <trkpt lat="45.07419" lon="4.95869">
        <ele>162.68630981445</ele>
        <time>2011-07-12T13:06:00Z</time>
      </trkpt>
      <trkpt lat="45.07469" lon="4.95861">
        <ele>161.49394226074</ele>
        <time>2011-07-12T13:06:07Z</time>
      </trkpt>
      <trkpt lat="45.0749" lon="4.9584">
        <ele>161.03495788574</ele>
        <time>2011-07-12T13:06:11Z</time>
      </trkpt>
      <trkpt lat="45.07505" lon="4.95808">
        <ele>160.94807434082</ele>
        <time>2011-07-12T13:06:15Z</time>
      </trkpt>
      <trkpt lat="45.07513" lon="4.95793">
        <ele>160.77380371094</ele>
        <time>2011-07-12T13:06:17Z</time>
      </trkpt>
      <trkpt lat="45.07537" lon="4.95746">
        <ele>159.60797119141</ele>
        <time>2011-07-12T13:06:24Z</time>
      </trkpt>
      <trkpt lat="45.07556" lon="4.95707">
        <ele>158.64031982422</ele>
        <time>2011-07-12T13:06:30Z</time>
      </trkpt>
      <trkpt lat="45.07572" lon="4.95674">
        <ele>158.16188049316</ele>
        <time>2011-07-12T13:06:35Z</time>
      </trkpt>
      <trkpt lat="45.07584" lon="4.95646">
        <ele>157.99200439453</ele>
        <time>2011-07-12T13:06:40Z</time>
      </trkpt>
      <trkpt lat="45.0759" lon="4.95636">
        <ele>157.91418457031</ele>
        <time>2011-07-12T13:06:42Z</time>
      </trkpt>
      <trkpt lat="45.07613" lon="4.95612">
        <ele>157.63952636719</ele>
        <time>2011-07-12T13:06:47Z</time>
      </trkpt>
      <trkpt lat="45.07643" lon="4.95601">
        <ele>157.28247070312</ele>
        <time>2011-07-12T13:06:52Z</time>
      </trkpt>
      <trkpt lat="45.0767" lon="4.95606">
        <ele>157.05406188965</ele>
        <time>2011-07-12T13:06:56Z</time>
      </trkpt>
      <trkpt lat="45.07684" lon="4.95614">
        <ele>157.27645874023</ele>
        <time>2011-07-12T13:06:58Z</time>
      </trkpt>
      <trkpt lat="45.07724" lon="4.95643">
        <ele>158.17582702637</ele>
        <time>2011-07-12T13:07:05Z</time>
      </trkpt>
      <trkpt lat="45.07738" lon="4.9565">
        <ele>158.53213500977</ele>
        <time>2011-07-12T13:07:09Z</time>
      </trkpt>
      <trkpt lat="45.07742" lon="4.95649">
        <ele>158.61898803711</ele>
        <time>2011-07-12T13:07:11Z</time>
      </trkpt>
      <trkpt lat="45.07762" lon="4.95646">
        <ele>158.78799438477</ele>
        <time>2011-07-12T13:07:16Z</time>
      </trkpt>
      <trkpt lat="45.07793" lon="4.95634">
        <ele>158.81355285644</ele>
        <time>2011-07-12T13:07:22Z</time>
      </trkpt>
      <trkpt lat="45.07826" lon="4.9562">
        <ele>158.94952392578</ele>
        <time>2011-07-12T13:07:28Z</time>
      </trkpt>
      <trkpt lat="45.07878" lon="4.95596">
        <ele>159.53735351562</ele>
        <time>2011-07-12T13:07:37Z</time>
      </trkpt>
      <trkpt lat="45.07921" lon="4.95576">
        <ele>160</ele>
        <time>2011-07-12T13:07:44Z</time>
      </trkpt>
      <trkpt lat="45.07964" lon="4.95556">
        <ele>160</ele>
        <time>2011-07-12T13:07:51Z</time>
      </trkpt>
      <trkpt lat="45.08004" lon="4.95539">
        <ele>160.13293457031</ele>
        <time>2011-07-12T13:07:58Z</time>
      </trkpt>
      <trkpt lat="45.0801" lon="4.95537">
        <ele>160.29853820801</ele>
        <time>2011-07-12T13:07:59Z</time>
      </trkpt>
      <trkpt lat="45.0803" lon="4.95529">
        <ele>160.94187927246</ele>
        <time>2011-07-12T13:08:03Z</time>
      </trkpt>
      <trkpt lat="45.08053" lon="4.95525">
        <ele>161.71063232422</ele>
        <time>2011-07-12T13:08:08Z</time>
      </trkpt>
      <trkpt lat="45.08061" lon="4.95517">
        <ele>162.03855895996</ele>
        <time>2011-07-12T13:08:10Z</time>
      </trkpt>
      <trkpt lat="45.08069" lon="4.95506">
        <ele>162.42861938477</ele>
        <time>2011-07-12T13:08:12Z</time>
      </trkpt>
      <trkpt lat="45.08106" lon="4.95475">
        <ele>162.21495056152</ele>
        <time>2011-07-12T13:08:18Z</time>
      </trkpt>
      <trkpt lat="45.08174" lon="4.95424">
        <ele>161.17169189453</ele>
        <time>2011-07-12T13:08:28Z</time>
      </trkpt>
      <trkpt lat="45.08206" lon="4.9539">
        <ele>161.4909362793</ele>
        <time>2011-07-12T13:08:33Z</time>
      </trkpt>
      <trkpt lat="45.0824" lon="4.9534">
        <ele>161.17964172363</ele>
        <time>2011-07-12T13:08:39Z</time>
      </trkpt>
      <trkpt lat="45.08282" lon="4.95287">
        <ele>161</ele>
        <time>2011-07-12T13:08:46Z</time>
      </trkpt>
      <trkpt lat="45.08327" lon="4.95246">
        <ele>161.07992553711</ele>
        <time>2011-07-12T13:08:53Z</time>
      </trkpt>
      <trkpt lat="45.08373" lon="4.95212">
        <ele>162.17817687988</ele>
        <time>2011-07-12T13:09:00Z</time>
      </trkpt>
      <trkpt lat="45.08454" lon="4.9516">
        <ele>163.04399108887</ele>
        <time>2011-07-12T13:09:12Z</time>
      </trkpt>
      <trkpt lat="45.08514" lon="4.95123">
        <ele>163</ele>
        <time>2011-07-12T13:09:21Z</time>
      </trkpt>
      <trkpt lat="45.08571" lon="4.95091">
        <ele>163</ele>
        <time>2011-07-12T13:09:29Z</time>
      </trkpt>
      <trkpt lat="45.08645" lon="4.95062">
        <ele>162.93368530273</ele>
        <time>2011-07-12T13:09:39Z</time>
      </trkpt>
      <trkpt lat="45.08729" lon="4.95031">
        <ele>163.46453857422</ele>
        <time>2011-07-12T13:09:50Z</time>
      </trkpt>
      <trkpt lat="45.08799" lon="4.95005">
        <ele>165.13977050781</ele>
        <time>2011-07-12T13:09:59Z</time>
      </trkpt>
      <trkpt lat="45.08851" lon="4.94986">
        <ele>165.90577697754</ele>
        <time>2011-07-12T13:10:06Z</time>
      </trkpt>
      <trkpt lat="45.08895" lon="4.9497">
        <ele>166.27601623535</ele>
        <time>2011-07-12T13:10:13Z</time>
      </trkpt>
      <trkpt lat="45.08932" lon="4.94957">
        <ele>166.48020935059</ele>
        <time>2011-07-12T13:10:20Z</time>
      </trkpt>
      <trkpt lat="45.08968" lon="4.94951">
        <ele>166.40982055664</ele>
        <time>2011-07-12T13:10:26Z</time>
      </trkpt>
      <trkpt lat="45.09012" lon="4.94954">
        <ele>166.53202819824</ele>
        <time>2011-07-12T13:10:33Z</time>
      </trkpt>
      <trkpt lat="45.09059" lon="4.94971">
        <ele>166.89961242676</ele>
        <time>2011-07-12T13:10:40Z</time>
      </trkpt>
      <trkpt lat="45.09101" lon="4.94996">
        <ele>167</ele>
        <time>2011-07-12T13:10:46Z</time>
      </trkpt>
      <trkpt lat="45.09154" lon="4.95041">
        <ele>167</ele>
        <time>2011-07-12T13:10:54Z</time>
      </trkpt>
      <trkpt lat="45.09215" lon="4.95094">
        <ele>168.07748413086</ele>
        <time>2011-07-12T13:11:03Z</time>
      </trkpt>
      <trkpt lat="45.09272" lon="4.95139">
        <ele>168.32939147949</ele>
        <time>2011-07-12T13:11:11Z</time>
      </trkpt>
      <trkpt lat="45.09332" lon="4.95176">
        <ele>168.21440124512</ele>
        <time>2011-07-12T13:11:19Z</time>
      </trkpt>
      <trkpt lat="45.09402" lon="4.95208">
        <ele>169.41448974609</ele>
        <time>2011-07-12T13:11:28Z</time>
      </trkpt>
      <trkpt lat="45.09484" lon="4.95234">
        <ele>170.62078857422</ele>
        <time>2011-07-12T13:11:38Z</time>
      </trkpt>
      <trkpt lat="45.09552" lon="4.95245">
        <ele>170.94262695312</ele>
        <time>2011-07-12T13:11:46Z</time>
      </trkpt>
      <trkpt lat="45.09637" lon="4.95259">
        <ele>171.54399108887</ele>
        <time>2011-07-12T13:11:56Z</time>
      </trkpt>
      <trkpt lat="45.09714" lon="4.95267">
        <ele>172.27529907227</ele>
        <time>2011-07-12T13:12:05Z</time>
      </trkpt>
      <trkpt lat="45.09773" lon="4.95259">
        <ele>172.92462158203</ele>
        <time>2011-07-12T13:12:12Z</time>
      </trkpt>
      <trkpt lat="45.09838" lon="4.95235">
        <ele>173.05078125</ele>
        <time>2011-07-12T13:12:20Z</time>
      </trkpt>
      <trkpt lat="45.09901" lon="4.95199">
        <ele>173.31353759766</ele>
        <time>2011-07-12T13:12:28Z</time>
      </trkpt>
      <trkpt lat="45.09974" lon="4.95162">
        <ele>173.69146728516</ele>
        <time>2011-07-12T13:12:37Z</time>
      </trkpt>
      <trkpt lat="45.10048" lon="4.95129">
        <ele>174.32032775879</ele>
        <time>2011-07-12T13:12:46Z</time>
      </trkpt>
      <trkpt lat="45.10102" lon="4.95109">
        <ele>174.61990356445</ele>
        <time>2011-07-12T13:12:53Z</time>
      </trkpt>
      <trkpt lat="45.10141" lon="4.95099">
        <ele>175.31352233887</ele>
        <time>2011-07-12T13:12:59Z</time>
      </trkpt>
      <trkpt lat="45.10182" lon="4.95088">
        <ele>175.95530700684</ele>
        <time>2011-07-12T13:13:06Z</time>
      </trkpt>
      <trkpt lat="45.10233" lon="4.95074">
        <ele>176.2033996582</ele>
        <time>2011-07-12T13:13:14Z</time>
      </trkpt>
      <trkpt lat="45.10281" lon="4.9506">
        <ele>178.0735168457</ele>
        <time>2011-07-12T13:13:22Z</time>
      </trkpt>
      <trkpt lat="45.10326" lon="4.95047">
        <ele>180.54772949219</ele>
        <time>2011-07-12T13:13:30Z</time>
      </trkpt>
      <trkpt lat="45.10349" lon="4.95041">
        <ele>181.77224731445</ele>
        <time>2011-07-12T13:13:35Z</time>
      </trkpt>
      <trkpt lat="45.1038" lon="4.95039">
        <ele>183.36308288574</ele>
        <time>2011-07-12T13:13:43Z</time>
      </trkpt>
      <trkpt lat="45.10398" lon="4.95044">
        <ele>184.03587341309</ele>
        <time>2011-07-12T13:13:48Z</time>
      </trkpt>
      <trkpt lat="45.10432" lon="4.95049">
        <ele>185.24800109863</ele>
        <time>2011-07-12T13:13:57Z</time>
      </trkpt>
      <trkpt lat="45.10454" lon="4.95035">
        <ele>186.89831542969</ele>
        <time>2011-07-12T13:14:03Z</time>
      </trkpt>
      <trkpt lat="45.10469" lon="4.95016">
        <ele>188.61895751953</ele>
        <time>2011-07-12T13:14:09Z</time>
      </trkpt>
      <trkpt lat="45.10485" lon="4.95006">
        <ele>189.98280334473</ele>
        <time>2011-07-12T13:14:14Z</time>
      </trkpt>
      <trkpt lat="45.10514" lon="4.9501">
        <ele>191.06719970703</ele>
        <time>2011-07-12T13:14:19Z</time>
      </trkpt>
      <trkpt lat="45.10569" lon="4.95028">
        <ele>192.36924743652</ele>
        <time>2011-07-12T13:14:28Z</time>
      </trkpt>
      <trkpt lat="45.10635" lon="4.95056">
        <ele>191.98081970215</ele>
        <time>2011-07-12T13:14:38Z</time>
      </trkpt>
      <trkpt lat="45.10681" lon="4.95081">
        <ele>191.71971130371</ele>
        <time>2011-07-12T13:14:45Z</time>
      </trkpt>
      <trkpt lat="45.10732" lon="4.95109">
        <ele>192.10748291016</ele>
        <time>2011-07-12T13:14:53Z</time>
      </trkpt>
      <trkpt lat="45.10763" lon="4.95135">
        <ele>192.10317993164</ele>
        <time>2011-07-12T13:14:59Z</time>
      </trkpt>
      <trkpt lat="45.10797" lon="4.95174">
        <ele>191.56788635254</ele>
        <time>2011-07-12T13:15:06Z</time>
      </trkpt>
      <trkpt lat="45.10839" lon="4.95221">
        <ele>192.19815063477</ele>
        <time>2011-07-12T13:15:14Z</time>
      </trkpt>
      <trkpt lat="45.10872" lon="4.9526">
        <ele>193.39344787598</ele>
        <time>2011-07-12T13:15:20Z</time>
      </trkpt>
      <trkpt lat="45.10912" lon="4.95311">
        <ele>192.44357299805</ele>
        <time>2011-07-12T13:15:27Z</time>
      </trkpt>
      <trkpt lat="45.10928" lon="4.9535">
        <ele>191.04341125488</ele>
        <time>2011-07-12T13:15:31Z</time>
      </trkpt>
      <trkpt lat="45.10942" lon="4.95409">
        <ele>190.91401672363</ele>
        <time>2011-07-12T13:15:37Z</time>
      </trkpt>
      <trkpt lat="45.10956" lon="4.95471">
        <ele>194.71713256836</ele>
        <time>2011-07-12T13:15:44Z</time>
      </trkpt>
      <trkpt lat="45.10974" lon="4.95525">
        <ele>198.57637023926</ele>
        <time>2011-07-12T13:15:50Z</time>
      </trkpt>
      <trkpt lat="45.10991" lon="4.95563">
        <ele>200.1877746582</ele>
        <time>2011-07-12T13:15:55Z</time>
      </trkpt>
      <trkpt lat="45.11038" lon="4.9563">
        <ele>200.98345947266</ele>
        <time>2011-07-12T13:16:05Z</time>
      </trkpt>
      <trkpt lat="45.11086" lon="4.95679">
        <ele>200.47384643555</ele>
        <time>2011-07-12T13:16:13Z</time>
      </trkpt>
      <trkpt lat="45.11112" lon="4.95708">
        <ele>198.53735351562</ele>
        <time>2011-07-12T13:16:17Z</time>
      </trkpt>
      <trkpt lat="45.11152" lon="4.95782">
        <ele>194.03327941894</ele>
        <time>2011-07-12T13:16:25Z</time>
      </trkpt>
      <trkpt lat="45.11188" lon="4.95841">
        <ele>193.7615814209</ele>
        <time>2011-07-12T13:16:32Z</time>
      </trkpt>
      <trkpt lat="45.11232" lon="4.95904">
        <ele>196.57469177246</ele>
        <time>2011-07-12T13:16:40Z</time>
      </trkpt>
      <trkpt lat="45.11255" lon="4.95939">
        <ele>198.19662475586</ele>
        <time>2011-07-12T13:16:45Z</time>
      </trkpt>
      <trkpt lat="45.11258" lon="4.95945">
        <ele>198.77835083008</ele>
        <time>2011-07-12T13:16:46Z</time>
      </trkpt>
      <trkpt lat="45.11279" lon="4.95982">
        <ele>201.84245300293</ele>
        <time>2011-07-12T13:16:51Z</time>
      </trkpt>
      <trkpt lat="45.11305" lon="4.96027">
        <ele>203.72926330566</ele>
        <time>2011-07-12T13:16:57Z</time>
      </trkpt>
      <trkpt lat="45.11323" lon="4.96058">
        <ele>203.16371154785</ele>
        <time>2011-07-12T13:17:02Z</time>
      </trkpt>
      <trkpt lat="45.11356" lon="4.96114">
        <ele>201.81111145019</ele>
        <time>2011-07-12T13:17:10Z</time>
      </trkpt>
      <trkpt lat="45.1138" lon="4.96161">
        <ele>200.58883666992</ele>
        <time>2011-07-12T13:17:16Z</time>
      </trkpt>
      <trkpt lat="45.11413" lon="4.96227">
        <ele>201.90101623535</ele>
        <time>2011-07-12T13:17:24Z</time>
      </trkpt>
      <trkpt lat="45.11443" lon="4.96288">
        <ele>200.23179626465</ele>
        <time>2011-07-12T13:17:31Z</time>
      </trkpt>
      <trkpt lat="45.11485" lon="4.96351">
        <ele>197.86956787109</ele>
        <time>2011-07-12T13:17:39Z</time>
      </trkpt>
      <trkpt lat="45.11518" lon="4.96402">
        <ele>196.62509155273</ele>
        <time>2011-07-12T13:17:45Z</time>
      </trkpt>
      <trkpt lat="45.11549" lon="4.96449">
        <ele>195.47525024414</ele>
        <time>2011-07-12T13:17:51Z</time>
      </trkpt>
      <trkpt lat="45.11574" lon="4.96485">
        <ele>195.09210205078</ele>
        <time>2011-07-12T13:17:56Z</time>
      </trkpt>
      <trkpt lat="45.11586" lon="4.96489">
        <ele>195.54287719727</ele>
        <time>2011-07-12T13:18:00Z</time>
      </trkpt>
      <trkpt lat="45.11587" lon="4.96485">
        <ele>195.71249389648</ele>
        <time>2011-07-12T13:18:01Z</time>
      </trkpt>
      <trkpt lat="45.11587" lon="4.96474">
        <ele>196.16581726074</ele>
        <time>2011-07-12T13:18:04Z</time>
      </trkpt>
      <trkpt lat="45.11588" lon="4.96469">
        <ele>196.34671020508</ele>
        <time>2011-07-12T13:18:05Z</time>
      </trkpt>
      <trkpt lat="45.11588" lon="4.96465">
        <ele>196.49574279785</ele>
        <time>2011-07-12T13:18:06Z</time>
      </trkpt>
      <trkpt lat="45.11583" lon="4.96454">
        <ele>196.64343261719</ele>
        <time>2011-07-12T13:18:11Z</time>
      </trkpt>
      <trkpt lat="45.11583" lon="4.96453">
        <ele>196.67070007324</ele>
        <time>2011-07-12T13:18:14Z</time>
      </trkpt>
      <trkpt lat="45.11579" lon="4.96454">
        <ele>196.44888305664</ele>
        <time>2011-07-12T13:18:36Z</time>
      </trkpt>
      <trkpt lat="45.1157" lon="4.96452">
        <ele>196.17810058594</ele>
        <time>2011-07-12T13:18:42Z</time>
      </trkpt>
      <trkpt lat="45.11564" lon="4.96442">
        <ele>196.30781555176</ele>
        <time>2011-07-12T13:18:46Z</time>
      </trkpt>
      <trkpt lat="45.11565" lon="4.9643">
        <ele>196.81408691406</ele>
        <time>2011-07-12T13:18:50Z</time>
      </trkpt>
      <trkpt lat="45.11568" lon="4.96425">
        <ele>197.11401367188</ele>
        <time>2011-07-12T13:18:55Z</time>
      </trkpt>
      <trkpt lat="45.1157" lon="4.96428">
        <ele>197.10153198242</ele>
        <time>2011-07-12T13:19:00Z</time>
      </trkpt>
    </trkseg>
  </trk>
</gpx>